# Wetter Temperatur Luftdruck Luftfeuchtigkeit Sichtweite Windgeschwindigkeit Windrichtung Zeit
1 Clouds -11 992 56 10000 4.6 300 22:25 24.01.2020
2 Snow -11 992 56 10000 6.2 300 21:56 24.01.2020
3 Snow -11 992 56 10000 6.2 300 21:37 24.01.2020
4 Snow -11 992 56 10000 6.2 300 21:18 24.01.2020
5 Snow -11 991 78 10000 4.1 310 20:42 24.01.2020
6 Snow -11 991 78 10000 4.1 310 20:21 24.01.2020
7 Clouds -11 990 78 10000 4.6 310 19:57 24.01.2020
8 Clouds -11 990 78 10000 4.6 310 19:39 24.01.2020
9 Clouds -11 990 78 10000 4.6 310 19:21 24.01.2020
10 Clouds -11 990 78 10000 5.1 300 18:43 24.01.2020
11 Clouds -11 990 78 10000 5.1 300 18:43 24.01.2020
12 Clouds -11 990 78 10000 5.1 300 18:24 24.01.2020
13 Clouds -10 990 78 10000 5.7 300 17:56 24.01.2020
14 Clouds -10 990 78 10000 5.7 300 17:38 24.01.2020
15 Clouds -10 990 78 10000 5.7 300 17:18 24.01.2020
16 Snow -10 990 78 10000 3.6 280 16:39 24.01.2020
17 Snow -10 990 78 10000 3.6 280 16:39 24.01.2020
18 Snow -10 990 78 10000 3.6 280 16:21 24.01.2020
19 Snow -10 990 78 10000 3.6 280 16:21 24.01.2020
20 Snow -10 990 72 10000 5.7 260 15:55 24.01.2020
21 Snow -10 990 72 10000 5.7 260 15:37 24.01.2020
22 Snow -10 990 72 10000 5.7 260 15:18 24.01.2020
23 Rain -10 990 72 10000 6.2 250 14:41 24.01.2020
24 Rain -10 990 72 10000 6.2 250 14:22 24.01.2020
25 Rain -10 989 72 10000 6.2 250 13:44 24.01.2020
26 Rain -10 989 72 10000 6.2 250 13:24 24.01.2020
27 Snow -10 989 92 2400 8.7 230 12:45 24.01.2020
28 Snow -10 989 92 2400 8.7 230 12:23 24.01.2020
29 Snow -9 988 85 2500 8.7 230 11:59 24.01.2020
30 Snow -9 988 85 2500 8.7 230 11:40 24.01.2020
31 Snow -9 988 85 2500 8.7 230 11:18 24.01.2020
32 Snow -9 987 92 3500 4.6 240 10:43 24.01.2020
33 Snow -9 987 92 3500 4.6 240 10:21 24.01.2020
34 Snow -9 986 85 4000 4.6 230 09:56 24.01.2020
35 Snow -8 986 85 4000 4.6 230 09:37 24.01.2020
36 Snow -8 986 85 4000 4.6 230 09:18 24.01.2020
37 Snow -8 985 85 0 5.7 230 08:40 24.01.2020
38 Snow -8 985 85 0 5.7 230 08:19 24.01.2020
39 Snow -7 984 92 0 5.1 220 07:49 24.01.2020
40 Snow -7 984 92 0 5.1 220 07:28 24.01.2020
41 Snow -5 983 92 0 5.1 220 06:48 24.01.2020
42 Snow -5 983 92 0 5.1 220 06:28 24.01.2020
43 Snow -4 982 85 0 6.2 200 05:57 24.01.2020
44 Snow -4 982 86 0 5.7 180 04:52 24.01.2020
45 Snow -4 982 100 0 11.3 150 02:53 24.01.2020
46 Snow -4 982 100 0 11.3 150 02:23 24.01.2020
47 Snow -3 982 86 0 15.9 150 01:42 24.01.2020
48 Snow -3 982 86 0 15.9 150 01:24 24.01.2020
49 Snow -3 983 86 0 21.6 150 00:20 24.01.2020
50 Snow -3 985 79 0 18.5 150 23:48 23.01.2020
51 Snow -3 985 79 0 18.5 150 23:30 23.01.2020
52 Snow -2 987 68 0 13.4 140 22:59 23.01.2020
53 Snow -2 987 68 0 13.4 140 22:38 23.01.2020
54 Snow -2 987 68 0 13.4 140 22:19 23.01.2020
55 Snow -3 989 73 0 12.3 140 21:57 23.01.2020
56 Snow -3 989 73 0 12.3 140 21:38 23.01.2020
57 Snow -3 989 73 0 12.3 140 21:20 23.01.2020
58 Snow -4 991 68 0 9.8 120 20:58 23.01.2020
59 Snow -4 991 68 0 9.8 120 20:38 23.01.2020
60 Snow -4 991 68 0 9.8 120 20:19 23.01.2020
61 Snow -5 993 73 0 11.3 110 19:54 23.01.2020
62 Snow -5 993 73 0 11.3 110 19:36 23.01.2020
63 Snow -5 993 73 0 11.3 110 19:18 23.01.2020
64 Snow -5 995 73 0 13.9 130 18:42 23.01.2020
65 Snow -5 995 73 0 13.9 130 18:20 23.01.2020
66 Snow -5 998 67 0 16.5 150 17:58 23.01.2020
67 Snow -5 998 67 0 16.5 150 17:40 23.01.2020
68 Snow -5 998 67 0 16.5 150 17:20 23.01.2020
69 Snow -5 999 62 0 15.4 150 16:56 23.01.2020
70 Snow -5 999 62 0 15.4 150 16:36 23.01.2020
71 Snow -5 999 62 0 15.4 150 16:18 23.01.2020
72 Clouds -6 1000 67 10000 14.4 150 15:54 23.01.2020
73 Clouds -6 1000 67 10000 14.4 150 15:36 23.01.2020
74 Clouds -6 1000 67 10000 14.4 150 15:18 23.01.2020
75 Clouds -6 1000 67 10000 14.4 150 15:18 23.01.2020
76 Clouds -6 1002 73 10000 13.4 140 14:54 23.01.2020
77 Clouds -6 1002 73 10000 13.4 140 14:36 23.01.2020
78 Clouds -6 1002 73 10000 13.4 140 14:18 23.01.2020
79 Rain -7 1003 62 10000 11.3 150 13:39 23.01.2020
80 Rain -7 1003 62 10000 11.3 150 13:20 23.01.2020
81 Snow -7 1005 67 5000 9.8 150 12:47 23.01.2020
82 Snow -7 1005 67 5000 9.8 150 12:25 23.01.2020
83 Snow -8 1006 85 300 12.9 140 11:59 23.01.2020
84 Snow -8 1006 85 300 12.9 140 11:39 23.01.2020
85 Snow -8 1006 85 300 12.9 140 11:19 23.01.2020
86 Snow -8 1007 78 0 9.8 150 10:45 23.01.2020
87 Snow -8 1007 78 0 9.8 150 10:23 23.01.2020
88 Snow -8 1007 78 0 9.8 160 09:59 23.01.2020
89 Snow -8 1007 78 0 9.8 160 09:38 23.01.2020
90 Snow -8 1007 78 0 9.8 160 09:20 23.01.2020
91 Snow -8 1008 85 0 8.7 180 08:42 23.01.2020
92 Snow -8 1008 85 0 8.7 180 08:24 23.01.2020
93 Snow -8 1008 85 0 8.7 180 08:24 23.01.2020
94 Snow -8 1008 78 0 9.3 160 07:48 23.01.2020
95 Snow -8 1008 78 0 9.3 160 07:27 23.01.2020
96 Snow -8 1009 85 0 7.7 190 06:54 23.01.2020
97 Snow -8 1009 85 0 7.7 190 06:23 23.01.2020
98 Snow -9 1009 85 0 8.2 200 05:58 23.01.2020
99 Snow -9 1009 72 0 6.2 210 04:24 23.01.2020
100 Mist -9 1009 61 0 8.7 210 02:35 23.01.2020
101 Snow -9 1009 72 0 8.7 220 01:44 23.01.2020
102 Snow -9 1008 66 5000 7.7 230 00:28 23.01.2020
103 Clouds -9 1008 72 10000 7.7 230 23:54 22.01.2020
104 Clouds -9 1008 72 10000 7.7 230 23:36 22.01.2020
105 Clouds -9 1008 72 10000 7.7 230 23:18 22.01.2020
106 Rain -9 1007 66 10000 4.6 230 22:41 22.01.2020
107 Rain -9 1007 66 10000 4.6 230 22:23 22.01.2020
108 Rain -10 1007 85 4000 6.7 230 21:42 22.01.2020
109 Rain -10 1007 85 4000 6.7 230 21:22 22.01.2020
110 Clouds -10 1006 66 10000 5.1 230 20:59 22.01.2020
111 Clouds -9 1006 66 10000 5.1 230 20:41 22.01.2020
112 Clouds -9 1006 66 10000 5.1 230 20:23 22.01.2020
113 Clouds -9 1005 72 10000 5.7 240 19:58 22.01.2020
114 Clouds -9 1005 72 10000 5.7 240 19:39 22.01.2020
115 Clouds -9 1005 72 10000 5.7 240 19:19 22.01.2020
116 Rain -9 1004 85 10000 4.1 240 18:57 22.01.2020
117 Rain -9 1004 85 10000 4.1 240 18:38 22.01.2020
118 Rain -9 1004 85 10000 4.1 240 18:20 22.01.2020
119 Snow -8 1003 72 4200 3.6 260 17:55 22.01.2020
120 Snow -8 1003 72 4200 3.6 260 17:37 22.01.2020
121 Snow -8 1003 72 4200 3.6 260 17:19 22.01.2020
122 Snow -8 1002 85 5000 7.7 250 16:43 22.01.2020
123 Snow -8 1002 85 5000 7.7 250 16:23 22.01.2020
124 Snow -8 1001 92 3500 6.7 270 15:59 22.01.2020
125 Snow -8 1001 92 3500 6.7 270 15:41 22.01.2020
126 Snow -8 1001 92 3500 6.7 270 15:22 22.01.2020
127 Snow -8 1000 92 400 10.3 250 14:58 22.01.2020
128 Snow -8 1000 92 400 10.3 250 14:37 22.01.2020
129 Snow -8 1000 92 400 10.3 250 14:19 22.01.2020
130 Snow -7 997 92 5000 8.7 280 13:55 22.01.2020
131 Snow -6 997 92 5000 8.7 280 13:36 22.01.2020
132 Snow -6 997 92 5000 8.7 280 13:18 22.01.2020
133 Snow -5 995 92 6000 6.7 280 12:56 22.01.2020
134 Snow -5 995 92 6000 6.7 280 12:37 22.01.2020
135 Snow -5 995 92 6000 6.7 280 12:18 22.01.2020
136 Snow -5 993 92 0 5.7 240 11:56 22.01.2020
137 Snow -5 993 92 0 5.7 240 11:37 22.01.2020
138 Snow -5 993 92 0 5.7 240 11:18 22.01.2020
139 Snow -5 991 92 0 6.7 160 10:44 22.01.2020
140 Snow -5 991 92 0 6.7 160 10:21 22.01.2020
141 Snow -5 990 85 0 8.2 160 09:45 22.01.2020
142 Snow -5 990 85 0 8.2 160 09:26 22.01.2020
143 Snow -5 990 85 0 10.8 160 08:59 22.01.2020
144 Snow -5 990 85 0 10.8 160 08:40 22.01.2020
145 Snow -5 990 85 0 10.8 160 08:21 22.01.2020
146 Snow -5 990 62 0 8.7 140 07:59 22.01.2020
147 Snow -4 990 62 0 8.7 140 07:40 22.01.2020
148 Snow -4 990 62 0 8.7 140 07:21 22.01.2020
149 Snow -4 990 62 0 8.7 140 07:21 22.01.2020
150 Snow -5 990 62 0 8.7 140 06:33 22.01.2020
151 Clouds -4 990 62 0 4.1 140 05:42 22.01.2020
152 Snow -4 991 73 4500 9.3 150 04:24 22.01.2020
153 Snow -4 991 73 4500 9.3 150 03:26 22.01.2020
154 Snow -4 991 73 5000 9.3 150 02:39 22.01.2020
155 Snow -5 991 92 1300 5.7 170 00:47 22.01.2020
156 Snow -5 991 92 1300 5.7 170 00:27 22.01.2020
157 Rain -4 991 79 6000 4.1 170 23:55 21.01.2020
158 Rain -4 991 79 6000 4.1 170 23:37 21.01.2020
159 Rain -4 991 79 6000 4.1 170 23:18 21.01.2020
160 Snow -4 991 85 700 7.2 160 22:40 21.01.2020
161 Snow -4 991 85 700 7.2 160 22:21 21.01.2020
162 Snow -4 990 85 1700 6.7 170 21:58 21.01.2020
163 Snow -4 990 85 1700 6.7 170 21:38 21.01.2020
164 Snow -4 990 85 1700 6.7 170 21:20 21.01.2020
165 Snow -5 990 100 800 3.6 210 20:57 21.01.2020
166 Snow -5 990 100 800 3.6 210 20:38 21.01.2020
167 Snow -5 990 100 800 3.6 210 20:19 21.01.2020
168 Snow -5 989 92 2000 3.6 200 19:57 21.01.2020
169 Snow -4 989 92 2000 3.6 200 19:38 21.01.2020
170 Snow -4 989 92 2000 3.6 200 19:20 21.01.2020
171 Snow -4 989 85 4000 3.1 180 18:55 21.01.2020
172 Snow -4 989 85 4000 3.1 180 18:37 21.01.2020
173 Snow -4 989 85 4000 3.1 180 18:18 21.01.2020
174 Snow -4 989 85 10000 3.1 180 17:45 21.01.2020
175 Snow -4 989 85 10000 3.1 180 17:20 21.01.2020
176 Rain -4 989 79 10000 3.6 190 16:59 21.01.2020
177 Rain -4 989 79 10000 3.6 190 16:37 21.01.2020
178 Rain -4 989 79 10000 3.6 190 16:19 21.01.2020
179 Rain -4 990 79 10000 3.1 190 15:56 21.01.2020
180 Rain -4 990 79 10000 3.1 190 15:36 21.01.2020
181 Rain -4 990 79 10000 3.1 190 15:18 21.01.2020
182 Rain -4 990 68 10000 2.1 170 14:38 21.01.2020
183 Rain -4 990 68 10000 2.1 170 14:20 21.01.2020
184 Clouds -4 990 62 10000 1.5 140 13:40 21.01.2020
185 Clouds -4 990 62 10000 1.5 140 13:19 21.01.2020
186 Clouds -4 990 58 10000 2.6 0 12:56 21.01.2020
187 Clouds -4 990 58 10000 2.6 0 12:38 21.01.2020
188 Clouds -4 990 58 10000 2.6 0 12:19 21.01.2020
189 Clouds -5 990 62 10000 4.1 100 11:40 21.01.2020
190 Clouds -5 990 62 10000 4.1 100 11:21 21.01.2020
191 Clouds -5 991 53 0 6.2 110 10:59 21.01.2020
192 Clouds -4 991 53 0 6.2 110 10:40 21.01.2020
193 Clouds -4 991 53 0 6.2 110 10:21 21.01.2020
194 Clouds -4 991 58 0 6.7 110 09:42 21.01.2020
195 Clouds -4 991 58 0 6.7 110 09:23 21.01.2020
196 Clouds -4 992 53 0 6.2 100 08:55 21.01.2020
197 Clouds -4 992 53 0 6.2 100 08:36 21.01.2020
198 Clouds -4 992 53 0 6.2 100 08:36 21.01.2020
199 Snow -4 992 53 0 6.2 100 08:18 21.01.2020
200 Snow -4 993 53 0 6.2 100 07:41 21.01.2020
201 Snow -4 993 53 0 6.2 100 07:22 21.01.2020
202 Snow -4 994 53 0 5.7 110 06:49 21.01.2020
203 Snow -4 994 53 0 5.7 110 06:30 21.01.2020
204 Snow -4 995 53 0 4.6 110 05:44 21.01.2020
205 Clouds -4 996 49 0 3.6 110 04:41 21.01.2020
206 Snow -5 997 73 0 2.1 130 02:58 21.01.2020
207 Snow -5 997 73 0 2.1 130 02:19 21.01.2020
208 Snow -4 997 58 0 4.1 140 01:28 21.01.2020
209 Snow -5 998 73 0 5.1 150 00:40 21.01.2020
210 Snow -5 998 85 0 5.1 150 23:59 20.01.2020
211 Snow -5 998 85 0 5.1 150 23:41 20.01.2020
212 Snow -5 998 85 0 5.1 150 23:19 20.01.2020
213 Snow -5 998 85 0 5.1 150 23:19 20.01.2020
214 Snow -5 998 92 0 5.7 150 22:59 20.01.2020
215 Snow -5 998 92 0 5.7 150 22:39 20.01.2020
216 Snow -5 998 92 0 5.7 150 22:21 20.01.2020
217 Snow -6 997 100 100 6.7 160 21:58 20.01.2020
218 Snow -6 997 100 100 6.7 160 21:38 20.01.2020
219 Snow -6 997 100 100 6.7 160 21:19 20.01.2020
220 Snow -6 997 100 100 6.2 150 20:58 20.01.2020
221 Snow -6 997 100 100 6.2 150 20:39 20.01.2020
222 Snow -6 997 100 100 6.2 150 20:19 20.01.2020
223 Snow -6 997 100 100 6.2 150 20:19 20.01.2020
224 Snow -6 996 100 100 6.7 160 19:57 20.01.2020
225 Snow -6 996 100 100 6.7 160 19:38 20.01.2020
226 Snow -6 996 100 100 6.7 160 19:19 20.01.2020
227 Snow -6 995 92 200 7.2 150 18:45 20.01.2020
228 Snow -6 995 92 200 7.2 150 18:23 20.01.2020
229 Snow -6 995 92 100 9.3 150 17:59 20.01.2020
230 Snow -6 995 92 100 9.3 150 17:37 20.01.2020
231 Snow -6 995 92 100 9.3 150 17:18 20.01.2020
232 Snow -6 995 92 400 9.8 150 16:44 20.01.2020
233 Snow -6 995 92 400 9.8 150 16:25 20.01.2020
234 Snow -6 995 92 400 9.8 150 15:58 20.01.2020
235 Snow -6 995 92 400 9.8 150 15:40 20.01.2020
236 Snow -6 995 92 400 9.8 150 15:21 20.01.2020
237 Snow -6 995 92 200 12.9 150 14:55 20.01.2020
238 Snow -6 995 92 200 12.9 150 14:36 20.01.2020
239 Snow -6 995 92 200 12.9 150 14:18 20.01.2020
240 Snow -6 995 79 1200 14.9 150 13:41 20.01.2020
241 Snow -6 995 79 1200 14.9 150 13:23 20.01.2020
242 Snow -6 995 73 1100 11.8 140 12:56 20.01.2020
243 Snow -6 995 73 1100 11.8 140 12:38 20.01.2020
244 Snow -6 995 73 1100 11.8 140 12:19 20.01.2020
245 Snow -7 995 67 10000 10.8 140 11:43 20.01.2020
246 Snow -7 995 67 10000 10.8 140 11:43 20.01.2020
247 Snow -7 995 67 10000 10.8 140 11:24 20.01.2020
248 Clouds -7 995 67 10000 10.3 140 10:57 20.01.2020
249 Clouds -7 995 67 10000 10.3 140 10:39 20.01.2020
250 Clouds -7 995 67 10000 10.3 140 10:19 20.01.2020
251 Snow -7 995 73 0 6.2 150 09:41 20.01.2020
252 Snow -7 995 73 0 6.2 150 09:22 20.01.2020
253 Snow -8 995 85 0 8.7 150 08:51 20.01.2020
254 Snow -8 995 85 0 8.7 150 08:31 20.01.2020
255 Snow -8 995 78 0 8.7 150 07:55 20.01.2020
256 Snow -8 995 78 0 8.7 150 07:31 20.01.2020
257 Snow -9 995 78 0 8.2 160 06:59 20.01.2020
258 Snow -9 995 78 0 8.2 160 06:35 20.01.2020
259 Snow -9 995 72 0 7.2 140 05:56 20.01.2020
260 Snow -9 995 72 0 7.2 140 05:37 20.01.2020
261 Snow -9 995 72 0 7.2 140 05:18 20.01.2020
262 Snow -10 995 61 0 4.6 220 03:46 20.01.2020
263 Snow -10 994 66 0 3.6 250 01:58 20.01.2020
264 Snow -10 994 66 0 3.6 250 01:39 20.01.2020
265 Snow -10 993 85 0 1.5 250 00:46 20.01.2020
266 Snow -10 993 85 0 1.5 250 00:27 20.01.2020
267 Snow -10 993 85 0 4.1 250 23:56 19.01.2020
268 Snow -10 993 85 0 4.1 250 23:37 19.01.2020
269 Snow -10 993 85 0 4.1 250 23:18 19.01.2020
270 Snow -10 993 85 0 4.1 250 23:18 19.01.2020
271 Snow -10 992 85 0 5.1 260 22:55 19.01.2020
272 Snow -10 992 85 0 5.1 260 22:36 19.01.2020
273 Snow -10 992 85 0 5.1 260 22:18 19.01.2020
274 Snow -9 991 85 0 6.7 290 21:55 19.01.2020
275 Snow -9 991 85 0 6.7 290 21:37 19.01.2020
276 Snow -9 991 85 0 6.7 290 21:19 19.01.2020
277 Snow -9 990 92 0 6.2 280 20:56 19.01.2020
278 Snow -9 990 92 0 6.2 280 20:37 19.01.2020
279 Snow -9 990 92 0 6.2 280 20:19 19.01.2020
280 Snow -9 989 85 0 5.1 150 19:55 19.01.2020
281 Snow -9 989 85 0 5.1 150 19:37 19.01.2020
282 Snow -9 989 85 0 5.1 150 19:19 19.01.2020
283 Snow -9 988 78 0 1.5 140 18:55 19.01.2020
284 Snow -9 988 78 0 1.5 140 18:37 19.01.2020
285 Snow -9 988 78 0 1.5 140 18:18 19.01.2020
286 Snow -8 987 61 0 1.5 90 17:57 19.01.2020
287 Snow -8 987 61 0 1.5 90 17:38 19.01.2020
288 Snow -8 987 61 0 1.5 90 17:19 19.01.2020
289 Snow -9 987 72 0 1.5 300 16:57 19.01.2020
290 Snow -9 987 72 0 1.5 300 16:37 19.01.2020
291 Snow -9 987 72 0 1.5 300 16:19 19.01.2020
292 Snow -10 986 66 0 2.6 50 15:55 19.01.2020
293 Snow -10 986 66 0 2.6 50 15:55 19.01.2020
294 Snow -10 986 66 0 2.6 50 15:36 19.01.2020
295 Snow -10 986 66 0 2.6 50 15:18 19.01.2020
296 Snow -9 985 61 0 3.6 20 14:41 19.01.2020
297 Snow -9 985 61 0 3.6 20 14:41 19.01.2020
298 Snow -9 985 61 0 3.6 20 14:21 19.01.2020
299 Snow -10 984 72 0 1.5 350 13:59 19.01.2020
300 Snow -10 984 72 0 1.5 350 13:40 19.01.2020
301 Snow -10 984 72 0 1.5 350 13:22 19.01.2020
302 Snow -9 982 66 0 7.7 340 12:59 19.01.2020
303 Snow -9 982 66 0 7.7 340 12:41 19.01.2020
304 Snow -9 982 66 0 7.7 340 12:23 19.01.2020
305 Snow -9 980 72 0 8.2 330 11:57 19.01.2020
306 Snow -9 980 72 0 8.2 330 11:39 19.01.2020
307 Clouds -9 980 72 0 8.2 330 11:18 19.01.2020
308 Snow -8 979 72 0 8.2 320 10:54 19.01.2020
309 Snow -8 979 72 0 8.2 320 10:36 19.01.2020
310 Snow -8 979 72 0 8.2 320 10:18 19.01.2020
311 Clouds -8 977 72 0 9.3 330 09:41 19.01.2020
312 Clouds -8 977 72 0 9.3 330 09:23 19.01.2020
313 Clouds -9 976 66 0 3.6 310 08:57 19.01.2020
314 Clouds -9 976 66 0 3.6 310 08:38 19.01.2020
315 Clouds -9 976 66 0 3.6 310 08:20 19.01.2020
316 Clouds -10 974 61 0 0.5 0 07:40 19.01.2020
317 Clouds -10 974 61 0 0.5 0 07:21 19.01.2020
318 Clouds -10 974 56 0 3.6 50 06:44 19.01.2020
319 Clouds -10 974 61 0 4.1 20 05:21 19.01.2020
320 Clouds -10 976 72 0 5.1 10 02:43 19.01.2020
321 Clouds -10 976 72 0 5.1 10 02:21 19.01.2020
322 Clouds -10 977 61 0 6.7 10 01:24 19.01.2020
323 Clouds -11 979 66 0 6.2 360 00:45 19.01.2020
324 Clouds -11 979 66 0 6.2 360 00:27 19.01.2020
325 Clouds -10 981 72 0 6.2 10 23:55 18.01.2020
326 Clouds -10 981 72 0 6.2 10 23:37 18.01.2020
327 Clouds -10 981 72 0 6.2 10 23:18 18.01.2020
328 Clouds -9 982 72 10000 8.7 10 22:55 18.01.2020
329 Clouds -9 982 72 10000 8.7 10 22:36 18.01.2020
330 Clouds -9 982 72 10000 8.7 10 22:18 18.01.2020
331 Clouds -9 984 72 10000 6.7 30 21:56 18.01.2020
332 Clouds -9 984 72 10000 6.7 30 21:36 18.01.2020
333 Clouds -9 984 72 10000 6.7 30 21:18 18.01.2020
334 Clouds -9 985 78 10000 7.2 40 20:42 18.01.2020
335 Clouds -9 985 78 10000 7.2 40 20:20 18.01.2020
336 Clouds -9 987 72 10000 6.2 20 19:55 18.01.2020
337 Clouds -8 987 72 10000 6.2 20 19:37 18.01.2020
338 Clouds -8 987 72 10000 6.2 20 19:19 18.01.2020
339 Clouds -8 989 72 10000 7.2 50 18:41 18.01.2020
340 Clouds -8 989 72 10000 7.2 50 18:21 18.01.2020
341 Clouds -8 991 67 10000 7.2 80 17:41 18.01.2020
342 Clouds -8 991 67 10000 7.2 80 17:21 18.01.2020
343 Clouds -8 991 67 10000 7.2 80 17:21 18.01.2020
344 Clouds -9 993 61 10000 7.7 80 16:59 18.01.2020
345 Clouds -9 993 61 10000 7.7 80 16:41 18.01.2020
346 Clouds -9 993 61 10000 7.7 80 16:22 18.01.2020
347 Clouds -9 995 61 10000 6.7 80 15:58 18.01.2020
348 Clouds -9 995 61 10000 6.7 80 15:40 18.01.2020
349 Clouds -9 995 61 10000 6.7 80 15:22 18.01.2020
350 Clear -9 996 61 10000 7.2 70 14:44 18.01.2020
351 Clear -9 996 61 10000 7.2 70 14:24 18.01.2020
352 Clear -9 997 61 10000 5.1 80 13:59 18.01.2020
353 Clear -9 997 61 10000 5.1 80 13:41 18.01.2020
354 Clear -9 997 61 10000 5.1 80 13:21 18.01.2020
355 Clouds -10 997 61 10000 4.1 90 12:55 18.01.2020
356 Clouds -10 997 61 10000 4.1 90 12:55 18.01.2020
357 Clouds -10 997 61 10000 4.1 90 12:37 18.01.2020
358 Clouds -10 997 61 10000 4.1 90 12:19 18.01.2020
359 Clouds -10 997 66 10000 3.1 100 11:44 18.01.2020
360 Clouds -10 997 66 10000 3.1 100 11:21 18.01.2020
361 Clouds -10 997 61 0 2.1 100 10:56 18.01.2020
362 Clouds -10 997 61 0 2.1 100 10:38 18.01.2020
363 Clouds -10 997 61 0 2.1 100 10:18 18.01.2020
364 Clouds -10 997 61 0 2.1 100 10:18 18.01.2020
365 Clouds -10 997 61 0 2.1 100 09:42 18.01.2020
366 Clouds -10 997 61 0 2.1 100 09:20 18.01.2020
367 Clouds -10 997 61 0 2.6 100 08:55 18.01.2020
368 Clouds -11 997 61 0 2.6 100 08:37 18.01.2020
369 Clouds -11 997 61 0 2.6 100 08:18 18.01.2020
370 Clouds -10 997 56 0 1.5 110 07:40 18.01.2020
371 Clouds -10 997 56 0 1.5 110 07:21 18.01.2020
372 Clouds -10 997 51 0 2.1 110 06:46 18.01.2020
373 Clouds -9 997 52 0 3.1 110 05:55 18.01.2020
374 Clouds -9 997 52 0 4.6 80 04:35 18.01.2020
375 Clouds -9 997 56 0 2.1 110 02:50 18.01.2020
376 Clouds -9 997 56 0 6.2 80 01:51 18.01.2020
377 Clouds -9 997 56 0 6.2 80 01:20 18.01.2020
378 Clouds -9 997 56 0 7.7 80 00:36 18.01.2020
379 Clouds -9 997 56 0 7.7 80 00:18 18.01.2020
380 Clouds -9 997 61 10000 9.8 80 23:40 17.01.2020
381 Clouds -9 997 61 10000 9.8 80 23:19 17.01.2020
382 Clouds -10 997 66 10000 9.3 60 22:44 17.01.2020
383 Clouds -10 997 66 10000 9.3 60 22:21 17.01.2020
384 Clouds -10 997 66 10000 8.2 70 21:58 17.01.2020
385 Clouds -10 997 66 10000 8.2 70 21:40 17.01.2020
386 Clouds -10 997 66 10000 8.2 70 21:22 17.01.2020
387 Clouds -10 997 61 10000 8.2 70 20:57 17.01.2020
388 Clouds -10 997 61 10000 8.2 70 20:38 17.01.2020
389 Clouds -10 997 61 10000 8.2 70 20:20 17.01.2020
390 Clouds -10 998 66 10000 8.2 70 19:55 17.01.2020
391 Clouds -11 998 66 10000 8.2 70 19:37 17.01.2020
392 Clouds -11 998 66 10000 8.2 70 19:18 17.01.2020
393 Clouds -11 998 66 10000 9.3 70 18:47 17.01.2020
394 Clouds -11 998 66 10000 9.3 70 18:28 17.01.2020
395 Clouds -11 998 66 10000 6.7 70 17:56 17.01.2020
396 Clouds -11 998 66 10000 6.7 70 17:38 17.01.2020
397 Clouds -11 998 66 10000 6.7 70 17:20 17.01.2020
398 Clouds -10 998 66 10000 7.7 60 16:43 17.01.2020
399 Clouds -10 998 66 10000 7.7 60 16:20 17.01.2020
400 Clouds -10 998 72 10000 7.2 60 15:55 17.01.2020
401 Clouds -10 998 72 10000 7.2 60 15:37 17.01.2020
402 Clouds -10 998 72 10000 7.2 60 15:19 17.01.2020
403 Clouds -11 998 78 10000 8.7 50 14:43 17.01.2020
404 Clouds -11 998 78 10000 8.7 50 14:23 17.01.2020
405 Clouds -11 998 78 10000 8.7 40 13:42 17.01.2020
406 Clouds -11 998 78 10000 8.7 40 13:22 17.01.2020
407 Clouds -11 998 78 10000 6.7 50 12:47 17.01.2020
408 Clouds -11 998 78 10000 6.7 50 12:23 17.01.2020
409 Clouds -11 998 72 10000 6.7 60 11:43 17.01.2020
410 Clouds -11 998 72 10000 6.7 60 11:20 17.01.2020
411 Clouds -11 998 61 10000 5.7 30 10:57 17.01.2020
412 Clouds -10 998 61 10000 5.7 30 10:39 17.01.2020
413 Clouds -10 998 61 10000 5.7 30 10:20 17.01.2020
414 Clouds -10 998 61 0 4.6 20 09:44 17.01.2020
415 Clouds -10 998 61 0 4.6 20 09:22 17.01.2020
416 Clouds -10 998 66 0 4.6 40 08:58 17.01.2020
417 Clouds -11 998 66 0 4.6 40 08:40 17.01.2020
418 Clouds -11 998 66 0 4.6 40 08:21 17.01.2020
419 Clouds -10 997 72 0 5.7 10 07:48 17.01.2020
420 Clouds -10 997 72 0 5.7 10 07:29 17.01.2020
421 Snow -10 998 72 0 5.1 20 06:56 17.01.2020
422 Snow -10 998 72 0 5.1 20 06:36 17.01.2020
423 Clouds -10 998 78 0 6.2 360 05:19 17.01.2020
424 Snow -11 998 72 10000 6.2 360 03:38 17.01.2020
425 Snow -11 998 72 9000 5.7 20 02:42 17.01.2020
426 Snow -11 998 66 10000 4.6 360 01:45 17.01.2020
427 Snow -11 998 66 10000 4.6 360 01:27 17.01.2020
428 Rain -11 998 66 10000 5.1 360 00:43 17.01.2020
429 Rain -11 998 66 10000 5.1 360 00:20 17.01.2020
430 Rain -12 998 66 10000 4.1 350 23:42 16.01.2020
431 Rain -12 998 66 10000 4.1 350 23:24 16.01.2020
432 Snow -12 998 66 10000 3.1 360 22:43 16.01.2020
433 Snow -12 998 66 10000 3.1 360 22:22 16.01.2020
434 Snow -12 998 72 10000 2.1 330 21:57 16.01.2020
435 Snow -12 998 72 10000 2.1 330 21:39 16.01.2020
436 Snow -12 998 72 10000 2.1 330 21:19 16.01.2020
437 Rain -12 998 78 10000 3.1 310 20:59 16.01.2020
438 Rain -12 998 78 10000 3.1 310 20:40 16.01.2020
439 Rain -12 998 78 10000 3.1 310 20:20 16.01.2020
440 Rain -12 997 66 10000 3.1 300 19:57 16.01.2020
441 Rain -12 997 66 10000 3.1 300 19:39 16.01.2020
442 Rain -12 997 66 10000 3.1 300 19:20 16.01.2020
443 Snow -12 997 78 10000 3.6 260 18:56 16.01.2020
444 Snow -12 997 78 10000 3.6 260 18:37 16.01.2020
445 Snow -12 997 78 10000 3.6 260 18:18 16.01.2020
446 Rain -12 997 85 4000 5.7 260 17:58 16.01.2020
447 Rain -12 997 85 4000 5.7 260 17:39 16.01.2020
448 Rain -12 997 85 4000 5.7 260 17:20 16.01.2020
449 Rain -11 996 78 2500 5.1 250 16:41 16.01.2020
450 Rain -11 996 78 2500 5.1 250 16:23 16.01.2020
451 Snow -11 995 85 3000 6.2 260 15:58 16.01.2020
452 Snow -11 995 85 3000 6.2 260 15:39 16.01.2020
453 Snow -11 995 85 3000 6.2 260 15:39 16.01.2020
454 Snow -11 995 85 3000 6.2 260 15:20 16.01.2020
455 Snow -10 994 85 2000 6.7 250 14:44 16.01.2020
456 Snow -10 994 85 2000 6.7 250 14:24 16.01.2020
457 Snow -10 993 78 5000 5.1 270 13:56 16.01.2020
458 Snow -9 993 78 5000 5.1 270 13:37 16.01.2020
459 Snow -9 993 78 5000 5.1 270 13:19 16.01.2020
460 Snow -9 992 85 2500 8.2 290 12:42 16.01.2020
461 Snow -9 992 85 2500 8.2 290 12:22 16.01.2020
462 Snow -9 991 92 1300 2.6 240 11:43 16.01.2020
463 Snow -9 991 92 1300 2.6 240 11:24 16.01.2020
464 Snow -9 990 92 1000 1.5 290 10:59 16.01.2020
465 Snow -9 990 92 1000 1.5 290 10:38 16.01.2020
466 Snow -9 989 92 2000 12.36 268 10:20 16.01.2020
467 Snow -9 989 92 0 5.1 300 09:56 16.01.2020
468 Snow -9 989 92 0 5.1 300 09:37 16.01.2020
469 Snow -9 989 92 0 5.1 300 09:19 16.01.2020
470 Snow -8 987 92 0 0.5 0 08:48 16.01.2020
471 Snow -8 987 92 0 0.5 0 08:29 16.01.2020
472 Snow -7 987 62 0 4.6 130 07:44 16.01.2020
473 Snow -7 987 62 0 4.6 130 07:25 16.01.2020
474 Snow -8 987 72 0 8.2 110 06:59 16.01.2020
475 Snow -8 987 72 0 8.2 110 06:37 16.01.2020
476 Snow -8 987 67 0 8.2 110 05:58 16.01.2020
477 Snow -8 987 67 0 8.2 110 05:39 16.01.2020
478 Snow -9 988 61 0 7.2 80 04:37 16.01.2020
479 Snow -9 988 61 0 7.2 80 04:37 16.01.2020
480 Snow -9 988 61 0 7.2 80 04:37 16.01.2020
481 Snow -9 989 72 0 7.2 80 03:28 16.01.2020
482 Snow -9 989 47 0 8.7 80 02:42 16.01.2020
483 Clouds -10 990 61 0 9.3 100 00:53 16.01.2020
484 Clouds -10 990 61 0 9.3 100 00:24 16.01.2020
485 Clouds -10 991 61 10000 9.8 100 23:48 15.01.2020
486 Clouds -10 991 61 10000 9.8 100 23:23 15.01.2020
487 Clouds -10 991 61 10000 9.8 100 23:23 15.01.2020
488 Clouds -10 991 61 10000 9.3 90 22:57 15.01.2020
489 Clouds -10 991 61 10000 9.3 90 22:39 15.01.2020
490 Clouds -10 991 61 10000 9.3 90 22:19 15.01.2020
491 Clouds -10 991 61 10000 10.3 110 21:58 15.01.2020
492 Clouds -10 991 61 10000 10.3 110 21:38 15.01.2020
493 Clouds -10 991 61 10000 10.3 110 21:20 15.01.2020
494 Clouds -11 992 61 10000 9.8 110 20:58 15.01.2020
495 Clouds -11 992 61 10000 9.8 110 20:58 15.01.2020
496 Clouds -11 992 61 10000 9.8 110 20:40 15.01.2020
497 Clouds -11 992 61 10000 9.8 110 20:21 15.01.2020
498 Clouds -11 992 61 10000 9.8 100 19:55 15.01.2020
499 Clouds -11 992 61 10000 9.8 100 19:37 15.01.2020
500 Clouds -11 992 61 10000 9.8 100 19:19 15.01.2020
501 Clouds -11 993 51 10000 9.3 80 18:57 15.01.2020
502 Clouds -11 993 51 10000 9.3 80 18:38 15.01.2020
503 Clouds -11 993 51 10000 9.3 80 18:20 15.01.2020
504 Clouds -11 993 51 10000 9.3 80 18:20 15.01.2020
505 Clouds -11 993 51 10000 9.3 80 18:20 15.01.2020
506 Clouds -11 993 61 10000 10.8 80 17:58 15.01.2020
507 Clouds -11 993 61 10000 10.8 80 17:40 15.01.2020
508 Clouds -11 993 61 10000 10.8 80 17:21 15.01.2020
509 Clouds -12 994 72 10000 9.3 80 16:55 15.01.2020
510 Clouds -12 994 72 10000 9.3 80 16:55 15.01.2020
511 Clouds -12 994 72 10000 9.3 80 16:36 15.01.2020
512 Clouds -12 994 72 10000 9.3 80 16:18 15.01.2020
513 Clouds -12 995 66 10000 8.2 80 15:42 15.01.2020
514 Clouds -12 995 66 10000 8.2 80 15:20 15.01.2020
515 Clouds -13 996 71 10000 8.2 90 14:55 15.01.2020
516 Clouds -13 996 71 10000 8.2 90 14:37 15.01.2020
517 Clouds -13 996 71 10000 8.2 90 14:18 15.01.2020
518 Clouds -13 996 71 10000 5.1 100 13:41 15.01.2020
519 Clouds -13 996 71 10000 5.1 100 13:23 15.01.2020
520 Snow -12 997 78 3500 4.1 110 12:55 15.01.2020
521 Snow -12 997 78 3500 4.1 110 12:55 15.01.2020
522 Snow -12 997 78 3500 4.1 110 12:37 15.01.2020
523 Snow -12 997 78 3500 4.1 110 12:18 15.01.2020
524 Snow -12 997 78 0 4.6 90 11:38 15.01.2020
525 Snow -12 997 78 0 4.6 90 11:20 15.01.2020
526 Snow -12 997 78 0 3.6 100 10:58 15.01.2020
527 Snow -12 997 78 0 3.6 100 10:40 15.01.2020
528 Snow -12 997 78 0 3.6 100 10:21 15.01.2020
529 Snow -12 997 85 0 1.5 60 09:41 15.01.2020
530 Snow -12 997 85 0 1.5 60 09:21 15.01.2020
531 Snow -12 998 78 0 0.5 0 08:45 15.01.2020
532 Snow -12 998 78 0 0.5 0 08:26 15.01.2020
533 Snow -12 998 66 0 3.6 260 07:56 15.01.2020
534 Snow -12 998 66 0 3.6 260 07:33 15.01.2020
535 Snow -12 998 66 0 4.1 260 06:54 15.01.2020
536 Snow -12 998 66 0 4.1 260 06:32 15.01.2020
537 Snow -12 998 72 0 4.6 260 05:43 15.01.2020
538 Snow -11 998 92 0 5.1 240 03:35 15.01.2020
539 Snow -11 998 85 1600 0.79 101 01:49 15.01.2020
540 Snow -11 998 85 1600 0.97 315 01:22 15.01.2020
541 Snow -11 998 85 3900 1.5 160 00:38 15.01.2020
542 Snow -11 998 85 3900 1.5 160 00:20 15.01.2020
543 Snow -11 999 85 3500 1.5 160 23:47 14.01.2020
544 Snow -11 999 85 3500 1.5 160 23:28 14.01.2020
545 Snow -11 999 85 1500 0.5 190 22:58 14.01.2020
546 Snow -11 999 85 1500 0.5 190 22:40 14.01.2020
547 Snow -11 999 85 1500 0.5 190 22:19 14.01.2020
548 Snow -11 999 78 4700 2.1 60 21:58 14.01.2020
549 Snow -11 999 78 4700 2.1 60 21:39 14.01.2020
550 Snow -11 999 78 4700 2.1 60 21:19 14.01.2020
551 Rain -11 999 85 10000 1.5 50 20:56 14.01.2020
552 Rain -11 999 85 10000 1.5 50 20:38 14.01.2020
553 Rain -11 999 85 10000 1.5 50 20:18 14.01.2020
554 Snow -11 999 78 10000 0.5 150 19:55 14.01.2020
555 Snow -11 999 78 10000 0.5 150 19:37 14.01.2020
556 Snow -11 999 78 10000 0.5 150 19:18 14.01.2020
557 Snow -11 999 78 10000 0.5 150 19:18 14.01.2020
558 Snow -10 999 78 10000 1.5 260 18:41 14.01.2020
559 Snow -10 999 78 10000 1.5 260 18:20 14.01.2020
560 Snow -10 1000 72 10000 0.5 60 17:58 14.01.2020
561 Snow -10 1000 72 10000 0.5 60 17:37 14.01.2020
562 Snow -10 1000 72 10000 0.5 60 17:18 14.01.2020
563 Snow -10 1000 66 10000 2.6 90 16:43 14.01.2020
564 Snow -10 1000 66 10000 2.6 90 16:23 14.01.2020
565 Clouds -11 1000 66 10000 2.1 110 15:58 14.01.2020
566 Clouds -11 1000 66 10000 2.1 110 15:40 14.01.2020
567 Clouds -11 1000 66 10000 2.1 110 15:19 14.01.2020
568 Rain -12 1000 66 10000 1.5 110 14:45 14.01.2020
569 Rain -12 1000 66 10000 1.5 110 14:21 14.01.2020
570 Clouds -13 1001 71 10000 2.6 80 13:58 14.01.2020
571 Clouds -13 1001 71 10000 2.6 80 13:39 14.01.2020
572 Clouds -13 1001 71 10000 2.6 80 13:19 14.01.2020
573 Clouds -13 1001 78 10000 3.1 100 12:42 14.01.2020
574 Clouds -13 1001 78 10000 3.1 100 12:22 14.01.2020
575 Snow -12 1001 85 10000 1.5 140 11:56 14.01.2020
576 Snow -11 1001 85 10000 1.5 140 11:37 14.01.2020
577 Snow -11 1001 85 10000 1.5 140 11:37 14.01.2020
578 Snow -11 1001 85 10000 1.5 140 11:19 14.01.2020
579 Clouds -11 1001 66 0 3.1 90 10:55 14.01.2020
580 Clouds -11 1001 66 0 3.1 90 10:36 14.01.2020
581 Clouds -11 1001 66 0 3.1 90 10:18 14.01.2020
582 Clouds -11 1001 66 0 3.1 90 10:18 14.01.2020
583 Clouds -10 1001 66 0 3.1 100 09:42 14.01.2020
584 Clouds -10 1001 66 0 3.1 100 09:22 14.01.2020
585 Clouds -11 1001 66 0 1.5 130 08:58 14.01.2020
586 Clouds -11 1001 66 0 1.5 130 08:39 14.01.2020
587 Clouds -11 1001 66 0 1.5 130 08:20 14.01.2020
588 Clouds -10 1001 61 0 0.93 346 07:40 14.01.2020
589 Clouds -10 1001 61 0 0.93 346 07:18 14.01.2020
590 Clouds -10 1001 61 0 2.1 100 06:42 14.01.2020
591 Clouds -10 1001 61 0 5.7 120 05:56 14.01.2020
592 Snow -10 1000 66 0 7.2 150 04:49 14.01.2020
593 Snow -10 1001 72 0 7.2 150 03:45 14.01.2020
594 Snow -10 1001 72 0 5.1 180 02:32 14.01.2020
595 Snow -10 1001 78 0 5.1 180 01:19 14.01.2020
596 Snow -10 1001 85 0 6.7 260 00:47 14.01.2020
597 Snow -10 1001 85 0 6.7 260 00:21 14.01.2020
598 Snow -10 1001 85 0 6.7 260 00:21 14.01.2020
599 Snow -10 1001 85 2700 3.6 180 23:42 13.01.2020
600 Snow -10 1001 85 2700 3.6 180 23:19 13.01.2020
601 Rain -11 1001 66 10000 2.1 200 22:57 13.01.2020
602 Rain -11 1001 66 10000 2.1 200 22:39 13.01.2020
603 Rain -11 1001 66 10000 2.1 200 22:19 13.01.2020
604 Rain -9 1001 61 10000 2.6 270 21:55 13.01.2020
605 Rain -9 1001 61 10000 2.6 270 21:36 13.01.2020
606 Rain -9 1001 61 10000 2.6 270 21:18 13.01.2020
607 Rain -9 1000 61 10000 5.1 270 20:55 13.01.2020
608 Rain -9 1000 61 10000 5.1 270 20:37 13.01.2020
609 Rain -9 1000 61 10000 5.1 270 20:37 13.01.2020
610 Rain -10 1000 61 10000 5.1 270 20:19 13.01.2020
611 Rain -10 1000 61 10000 5.1 270 20:19 13.01.2020
612 Rain -10 1000 61 10000 5.1 240 19:41 13.01.2020
613 Rain -10 1000 61 10000 5.1 240 19:21 13.01.2020
614 Snow -10 999 85 800 2.6 300 18:58 13.01.2020
615 Snow -10 999 85 800 2.6 300 18:38 13.01.2020
616 Snow -10 999 85 800 2.6 300 18:19 13.01.2020
617 Snow -10 999 85 800 2.6 300 18:19 13.01.2020
618 Snow -10 999 85 1100 5.1 290 17:58 13.01.2020
619 Snow -10 999 85 1100 5.1 290 17:39 13.01.2020
620 Snow -10 999 85 1100 5.1 290 17:20 13.01.2020
621 Snow -10 998 78 1500 0.5 160 16:43 13.01.2020
622 Snow -10 998 78 1500 0.5 160 16:24 13.01.2020
623 Clouds -11 998 78 0 3.58 70 15:59 13.01.2020
624 Clouds -11 998 78 0 3.58 70 15:41 13.01.2020
625 Snow -11 996 85 1200 4.6 120 15:21 13.01.2020
626 Snow -11 996 85 1200 4.6 120 14:54 13.01.2020
627 Snow -11 996 85 1200 4.6 120 14:36 13.01.2020
628 Snow -11 996 85 1200 4.6 120 14:18 13.01.2020
629 Snow -11 996 78 1500 4.1 150 13:40 13.01.2020
630 Clouds -11 996 92 0 4.47 170 13:22 13.01.2020
631 Clouds -11 996 92 0 4.47 170 12:58 13.01.2020
632 Clouds -11 996 92 0 4.47 170 12:40 13.01.2020
633 Rain -13 997 71 10000 1 200 12:21 13.01.2020
634 Rain -15 997 71 10000 1 200 11:54 13.01.2020
635 Rain -15 997 71 10000 1 200 11:36 13.01.2020
636 Rain -15 997 71 10000 1 200 11:18 13.01.2020
637 Rain -15 997 71 10000 1 200 11:18 13.01.2020
638 Rain -15 997 71 10000 1 200 11:18 13.01.2020
639 Clouds -15 996 71 10000 1.5 100 10:55 13.01.2020
640 Clouds -15 996 71 10000 1.5 100 10:36 13.01.2020
641 Clouds -15 996 71 10000 1.5 100 10:18 13.01.2020
642 Clouds -14 996 65 0 0.5 0 09:40 13.01.2020
643 Clouds -14 996 65 0 0.5 0 09:40 13.01.2020
644 Clouds -14 996 65 0 0.5 0 09:22 13.01.2020
645 Clouds -14 996 55 0 3.1 100 08:42 13.01.2020
646 Clear -14 996 55 0 3.1 100 08:21 13.01.2020
647 Clear -14 996 60 0 2.6 100 07:54 13.01.2020
648 Clear -14 996 60 0 2.6 100 07:35 13.01.2020
649 Clear -15 996 60 0 2.1 140 06:51 13.01.2020
650 Clear -15 996 60 0 2.1 140 06:22 13.01.2020
651 Clear -15 996 71 0 2.1 100 05:36 13.01.2020
652 Clear -15 996 71 0 4.1 90 04:25 13.01.2020
653 Clear -14 996 71 0 2.1 120 03:31 13.01.2020
654 Clear -14 996 65 0 4.6 70 02:47 13.01.2020
655 Clear -14 996 65 0 4.6 70 02:29 13.01.2020
656 Clear -14 996 71 0 6.2 70 01:23 13.01.2020
657 Clear -14 996 71 0 4.6 70 00:42 13.01.2020
658 Clear -14 996 71 0 4.6 70 00:24 13.01.2020
659 Clear -14 996 77 0 4.1 70 23:56 12.01.2020
660 Clear -14 996 77 0 4.1 70 23:37 12.01.2020
661 Clear -14 996 77 0 4.1 70 23:19 12.01.2020
662 Clouds -14 996 77 10000 4.1 80 22:42 12.01.2020
663 Clouds -14 996 77 10000 4.1 80 22:24 12.01.2020
664 Clouds -14 995 71 10000 4.1 90 21:57 12.01.2020
665 Clouds -13 995 71 10000 4.1 90 21:39 12.01.2020
666 Clouds -13 995 71 10000 4.1 90 21:39 12.01.2020
667 Clouds -13 995 71 10000 4.1 90 21:20 12.01.2020
668 Clouds -13 995 78 10000 5.1 10 20:57 12.01.2020
669 Clouds -12 995 78 10000 5.1 10 20:39 12.01.2020
670 Clouds -12 995 78 10000 5.1 10 20:20 12.01.2020
671 Clouds -13 994 65 10000 4.6 80 19:56 12.01.2020
672 Clouds -13 994 65 10000 4.6 80 19:38 12.01.2020
673 Clouds -13 994 65 10000 4.6 80 19:19 12.01.2020
674 Clouds -13 994 65 10000 5.7 80 18:57 12.01.2020
675 Clouds -13 994 65 10000 5.7 80 18:57 12.01.2020
676 Clouds -13 994 65 10000 5.7 80 18:39 12.01.2020
677 Clouds -13 994 65 10000 5.7 80 18:21 12.01.2020
678 Clouds -12 994 66 10000 6.7 80 17:57 12.01.2020
679 Clouds -12 994 66 10000 6.7 80 17:38 12.01.2020
680 Clouds -12 994 66 10000 6.7 80 17:19 12.01.2020
681 Clouds -12 994 60 10000 6.7 70 16:55 12.01.2020
682 Clouds -12 994 60 10000 6.7 70 16:37 12.01.2020
683 Clouds -12 994 60 10000 6.7 70 16:18 12.01.2020
684 Clouds -12 994 60 10000 7.2 80 15:42 12.01.2020
685 Clouds -12 994 60 10000 7.2 80 15:24 12.01.2020
686 Clouds -12 993 72 10000 6.7 60 14:57 12.01.2020
687 Clouds -12 993 72 10000 6.7 60 14:38 12.01.2020
688 Clouds -12 993 72 10000 6.7 60 14:19 12.01.2020
689 Clouds -12 993 66 10000 7.7 80 13:43 12.01.2020
690 Clouds -12 993 66 10000 7.7 80 13:24 12.01.2020
691 Clouds -12 992 60 0 8.2 80 12:58 12.01.2020
692 Clouds -12 992 60 0 8.2 80 12:39 12.01.2020
693 Clouds -12 992 60 0 8.2 80 12:20 12.01.2020
694 Clouds -12 992 72 0 8.2 80 11:58 12.01.2020
695 Clouds -11 992 72 0 8.2 80 11:39 12.01.2020
696 Clouds -11 992 72 0 8.2 80 11:20 12.01.2020
697 Clouds -11 992 61 0 6.2 80 10:41 12.01.2020
698 Clouds -11 992 61 0 6.2 80 10:22 12.01.2020
699 Clouds -11 991 56 0 7.2 70 09:57 12.01.2020
700 Clouds -11 991 56 0 7.2 70 09:39 12.01.2020
701 Clouds -11 991 56 0 7.2 70 09:20 12.01.2020
702 Clouds -11 991 51 0 7.7 80 08:45 12.01.2020
703 Clouds -11 991 51 0 7.7 80 08:21 12.01.2020
704 Clouds -11 990 61 0 6.2 100 07:42 12.01.2020
705 Clouds -11 990 61 0 6.2 100 07:24 12.01.2020
706 Snow -12 990 72 0 1.5 0 06:49 12.01.2020
707 Snow -12 990 72 0 1.5 0 06:30 12.01.2020
708 Clouds -12 990 72 0 3.6 130 05:37 12.01.2020
709 Snow -11 990 72 0 4.6 110 04:51 12.01.2020
710 Snow -11 990 72 0 3.6 120 03:27 12.01.2020
711 Snow -11 989 72 0 3.6 120 02:34 12.01.2020
712 Clouds -11 989 66 10000 1.5 200 01:58 12.01.2020
713 Clouds -11 989 66 10000 1.5 200 01:30 12.01.2020
714 Snow -11 989 78 3900 1.5 290 00:44 12.01.2020
715 Snow -11 989 78 3900 1.5 290 00:21 12.01.2020
716 Snow -11 989 72 5000 2.1 260 23:56 11.01.2020
717 Snow -11 989 72 5000 2.1 260 23:37 11.01.2020
718 Snow -11 989 72 5000 2.1 260 23:18 11.01.2020
719 Snow -11 989 78 3000 2.6 210 22:55 11.01.2020
720 Snow -11 989 78 3000 2.6 210 22:37 11.01.2020
721 Snow -11 989 78 3000 2.6 210 22:18 11.01.2020
722 Snow -11 988 85 600 2.6 140 21:42 11.01.2020
723 Snow -11 988 85 600 2.6 140 21:18 11.01.2020
724 Snow -11 988 85 1500 4.6 230 20:55 11.01.2020
725 Snow -11 988 85 1500 4.6 230 20:37 11.01.2020
726 Snow -11 988 85 1500 4.6 230 20:19 11.01.2020
727 Snow -12 987 92 400 11.3 140 19:55 11.01.2020
728 Snow -12 987 92 400 11.3 140 19:36 11.01.2020
729 Snow -12 987 92 400 11.3 140 19:18 11.01.2020
730 Snow -11 987 66 5000 8.2 140 18:55 11.01.2020
731 Snow -11 987 66 5000 8.2 140 18:36 11.01.2020
732 Snow -11 987 66 5000 8.2 140 18:18 11.01.2020
733 Rain -11 987 66 10000 7.2 140 17:55 11.01.2020
734 Rain -11 987 66 10000 7.2 140 17:36 11.01.2020
735 Rain -11 987 66 10000 7.2 140 17:18 11.01.2020
736 Rain -11 987 66 10000 7.2 140 17:18 11.01.2020
737 Snow -11 988 72 4000 7.2 150 16:43 11.01.2020
738 Snow -11 988 72 4000 7.2 150 16:23 11.01.2020
739 Snow -12 989 92 200 5.1 160 15:43 11.01.2020
740 Snow -12 989 92 200 5.1 160 15:24 11.01.2020
741 Snow -11 989 72 1200 7.7 140 14:59 11.01.2020
742 Snow -11 989 72 1200 7.7 140 14:41 11.01.2020
743 Snow -11 989 72 1200 7.7 140 14:22 11.01.2020
744 Snow -12 989 72 3500 9.3 140 13:55 11.01.2020
745 Snow -12 989 72 3500 9.3 140 13:37 11.01.2020
746 Snow -12 989 72 3500 9.3 140 13:19 11.01.2020
747 Snow -12 989 72 4000 7.7 120 12:44 11.01.2020
748 Snow -12 989 72 4000 7.7 120 12:26 11.01.2020
749 Snow -12 989 60 3800 5.7 130 11:56 11.01.2020
750 Snow -12 989 60 3800 5.7 130 11:37 11.01.2020
751 Snow -12 989 60 3800 5.7 130 11:18 11.01.2020
752 Clouds -12 990 51 0 7.7 120 10:44 11.01.2020
753 Clouds -12 990 51 0 7.7 120 10:24 11.01.2020
754 Snow -12 990 43 0 9.8 120 09:42 11.01.2020
755 Snow -12 990 43 0 9.8 120 09:21 11.01.2020
756 Clouds -13 990 50 0 5.7 100 08:43 11.01.2020
757 Clouds -13 990 50 0 5.7 100 08:23 11.01.2020
758 Clouds -13 990 42 0 5.1 120 07:45 11.01.2020
759 Clouds -13 990 42 0 5.1 120 07:27 11.01.2020
760 Clouds -13 991 50 0 7.7 100 06:57 11.01.2020
761 Clouds -13 991 50 0 7.7 100 06:37 11.01.2020
762 Clouds -13 991 39 0 6.7 140 05:18 11.01.2020
763 Clouds -14 991 60 0 6.7 120 04:37 11.01.2020
764 Clouds -14 991 60 0 6.7 120 04:19 11.01.2020
765 Clouds -14 991 55 0 5.7 90 02:45 11.01.2020
766 Clouds -14 991 60 0 5.1 80 01:45 11.01.2020
767 Clouds -14 991 60 0 5.1 80 01:22 11.01.2020
768 Clouds -14 991 65 0 5.1 90 00:51 11.01.2020
769 Clouds -14 991 65 0 5.1 90 00:21 11.01.2020
770 Clouds -14 990 55 10000 4.6 70 23:56 10.01.2020
771 Clouds -14 990 55 10000 4.6 70 23:38 10.01.2020
772 Clouds -14 990 55 10000 4.6 70 23:20 10.01.2020
773 Clouds -13 990 65 10000 5.1 360 22:41 10.01.2020
774 Clouds -13 990 65 10000 5.1 360 22:22 10.01.2020
775 Clouds -14 990 71 10000 6.2 360 21:58 10.01.2020
776 Clouds -14 990 71 10000 6.2 360 21:40 10.01.2020
777 Clouds -14 990 71 10000 6.2 360 21:20 10.01.2020
778 Clouds -14 988 77 10000 7.7 350 20:56 10.01.2020
779 Clouds -14 988 77 10000 7.7 350 20:38 10.01.2020
780 Clouds -14 988 77 10000 7.7 350 20:19 10.01.2020
781 Clouds -14 987 77 10000 7.2 340 19:40 10.01.2020
782 Clouds -14 987 77 10000 7.2 340 19:40 10.01.2020
783 Clouds -14 987 77 10000 7.2 340 19:20 10.01.2020
784 Clouds -13 987 60 10000 4.6 360 18:55 10.01.2020
785 Clouds -13 987 60 10000 4.6 360 18:37 10.01.2020
786 Clouds -13 987 60 10000 4.6 360 18:18 10.01.2020
787 Clouds -13 986 65 10000 4.6 50 17:56 10.01.2020
788 Clouds -13 986 65 10000 4.6 50 17:37 10.01.2020
789 Clouds -13 986 65 10000 4.6 50 17:19 10.01.2020
790 Clouds -13 986 65 10000 4.6 50 17:19 10.01.2020
791 Clouds -13 986 71 10000 7.2 350 16:42 10.01.2020
792 Clouds -13 986 71 10000 7.2 350 16:21 10.01.2020
793 Clouds -12 985 60 10000 4.6 60 15:57 10.01.2020
794 Clouds -12 985 60 10000 4.6 60 15:38 10.01.2020
795 Clouds -12 985 60 10000 4.6 60 15:20 10.01.2020
796 Clouds -12 985 55 10000 4.1 50 14:58 10.01.2020
797 Clouds -12 985 55 10000 4.1 50 14:58 10.01.2020
798 Clouds -12 985 55 10000 4.1 50 14:40 10.01.2020
799 Clouds -12 985 55 10000 4.1 50 14:19 10.01.2020
800 Clouds -12 984 51 10000 5.1 80 13:57 10.01.2020
801 Clouds -12 984 51 10000 5.1 80 13:37 10.01.2020
802 Clouds -12 984 51 10000 5.1 80 13:19 10.01.2020
803 Clouds -12 984 51 10000 5.1 90 12:56 10.01.2020
804 Clouds -12 984 51 10000 5.1 90 12:38 10.01.2020
805 Clouds -12 984 51 10000 5.1 90 12:18 10.01.2020
806 Clouds -12 984 66 10000 6.7 90 11:42 10.01.2020
807 Clouds -12 984 66 10000 6.7 90 11:22 10.01.2020
808 Clouds -12 984 66 10000 6.7 90 11:22 10.01.2020
809 Clouds -12 984 72 10000 6.2 100 10:59 10.01.2020
810 Clouds -12 984 72 10000 6.2 100 10:39 10.01.2020
811 Clouds -12 984 72 10000 6.2 100 10:21 10.01.2020
812 Clouds -12 984 72 0 7.2 100 09:56 10.01.2020
813 Clouds -12 984 72 0 7.2 100 09:37 10.01.2020
814 Clouds -12 984 72 0 7.2 100 09:19 10.01.2020
815 Clouds -12 984 72 0 7.2 100 09:19 10.01.2020
816 Clouds -12 985 60 0 7.7 120 08:41 10.01.2020
817 Clouds -12 985 60 0 7.7 120 08:22 10.01.2020
818 Clouds -12 985 60 0 6.2 110 07:44 10.01.2020
819 Clouds -12 985 60 0 6.2 110 07:24 10.01.2020
820 Snow -13 986 78 0 5.7 100 06:45 10.01.2020
821 Snow -13 986 78 0 5.7 100 06:25 10.01.2020
822 Snow -12 987 66 0 6.7 120 05:48 10.01.2020
823 Snow -12 988 60 0 6.7 110 03:37 10.01.2020
824 Snow -12 988 60 0 6.7 110 03:18 10.01.2020
825 Rain -12 989 60 10000 7.2 110 02:47 10.01.2020
826 Snow -12 990 60 10000 7.7 110 01:44 10.01.2020
827 Snow -12 990 60 10000 7.7 110 01:26 10.01.2020
828 Rain -12 991 66 5000 8.2 110 00:40 10.01.2020
829 Snow -12 992 72 2000 7.2 110 23:58 09.01.2020
830 Snow -12 992 72 2000 7.2 110 23:39 09.01.2020
831 Snow -12 992 72 2000 7.2 110 23:20 09.01.2020
832 Snow -12 992 72 3500 5.1 120 22:57 09.01.2020
833 Snow -12 992 72 3500 5.1 120 22:39 09.01.2020
834 Snow -12 993 66 10000 5.1 120 22:19 09.01.2020
835 Snow -13 994 78 10000 4.1 90 21:57 09.01.2020
836 Snow -13 994 78 10000 4.1 90 21:38 09.01.2020
837 Snow -13 994 78 10000 4.1 90 21:19 09.01.2020
838 Snow -13 995 78 10000 3.1 90 20:57 09.01.2020
839 Snow -13 995 78 10000 3.1 90 20:39 09.01.2020
840 Snow -13 995 78 10000 3.1 90 20:20 09.01.2020
841 Snow -13 996 78 10000 1.5 40 19:57 09.01.2020
842 Snow -13 996 78 10000 1.5 40 19:38 09.01.2020
843 Snow -13 996 78 10000 1.5 40 19:19 09.01.2020
844 Snow -13 996 78 10000 0.5 0 18:55 09.01.2020
845 Snow -12 996 78 10000 0.5 0 18:36 09.01.2020
846 Snow -12 996 78 10000 0.5 0 18:18 09.01.2020
847 Clouds -12 997 66 10000 1.5 100 17:41 09.01.2020
848 Clouds -12 997 66 10000 1.5 100 17:18 09.01.2020
849 Rain -12 998 78 10000 2.1 0 16:55 09.01.2020
850 Rain -12 998 78 10000 2.1 0 16:36 09.01.2020
851 Rain -12 998 78 10000 2.1 0 16:18 09.01.2020
852 Rain -12 998 78 10000 3.1 280 15:41 09.01.2020
853 Rain -12 998 78 10000 3.1 280 15:19 09.01.2020
854 Rain -12 998 78 10000 4.6 260 14:55 09.01.2020
855 Rain -12 998 78 10000 4.6 260 14:36 09.01.2020
856 Rain -12 998 78 10000 4.6 260 14:36 09.01.2020
857 Rain -12 998 78 10000 4.6 260 14:18 09.01.2020
858 Snow -12 999 78 10000 5.1 250 13:54 09.01.2020
859 Snow -12 999 78 10000 5.1 250 13:36 09.01.2020
860 Snow -12 999 78 10000 5.1 250 13:18 09.01.2020
861 Clouds -13 999 65 10000 4.6 240 12:41 09.01.2020
862 Clouds -13 999 65 10000 4.6 240 12:22 09.01.2020
863 Clouds -13 999 78 10000 6.2 260 11:59 09.01.2020
864 Clouds -13 999 78 10000 6.2 260 11:41 09.01.2020
865 Clouds -13 999 78 10000 6.2 260 11:22 09.01.2020
866 Rain -13 999 71 5000 5.7 250 10:55 09.01.2020
867 Rain -13 999 71 5000 5.7 250 10:37 09.01.2020
868 Snow -12 999 78 2000 6.2 260 10:19 09.01.2020
869 Snow -13 1000 84 0 4.6 240 09:41 09.01.2020
870 Snow -13 1000 84 0 4.6 240 09:21 09.01.2020
871 Snow -12 999 78 0 5.7 250 08:56 09.01.2020
872 Snow -12 999 78 0 5.7 250 08:37 09.01.2020
873 Snow -12 999 78 0 5.7 250 08:19 09.01.2020
874 Snow -12 999 85 0 5.1 250 07:44 09.01.2020
875 Snow -12 999 85 0 5.1 250 07:24 09.01.2020
876 Snow -12 999 85 0 8.2 200 06:39 09.01.2020
877 Snow -12 999 85 0 8.2 200 06:21 09.01.2020
878 Snow -13 999 92 0 11.8 170 05:50 09.01.2020
879 Snow -13 998 84 0 13.4 160 04:45 09.01.2020
880 Snow -13 998 84 0 12.9 150 03:54 09.01.2020
881 Snow -13 998 84 0 12.9 150 03:26 09.01.2020
882 Snow -14 1000 84 0 10.73 160 02:31 09.01.2020
883 Snow -14 1000 84 0 10.73 160 01:40 09.01.2020
884 Snow -14 1000 84 0 10.8 160 00:44 09.01.2020
885 Snow -14 1000 84 0 10.8 160 00:23 09.01.2020
886 Snow -15 1000 92 0 10.8 160 23:58 08.01.2020
887 Snow -15 1000 92 0 10.8 160 23:38 08.01.2020
888 Snow -15 1000 92 0 10.8 160 23:19 08.01.2020
889 Snow -14 1001 71 7000 7.2 210 22:40 08.01.2020
890 Snow -14 1001 71 7000 7.2 210 22:21 08.01.2020
891 Snow -14 1001 60 7000 6.7 220 21:58 08.01.2020
892 Snow -14 1001 60 7000 6.7 220 21:40 08.01.2020
893 Snow -14 1001 60 7000 6.7 220 21:40 08.01.2020
894 Snow -14 1001 60 7000 6.7 220 21:20 08.01.2020
895 Snow -14 1000 65 6000 6.7 250 20:59 08.01.2020
896 Snow -14 1000 65 6000 6.7 250 20:40 08.01.2020
897 Snow -14 1000 65 6000 6.7 250 20:20 08.01.2020
898 Snow -16 999 84 7000 6.7 240 19:58 08.01.2020
899 Snow -16 999 84 7000 6.7 240 19:38 08.01.2020
900 Snow -16 999 84 7000 6.7 240 19:19 08.01.2020
901 Snow -16 999 84 400 8.2 170 18:57 08.01.2020
902 Snow -16 999 84 400 8.2 170 18:38 08.01.2020
903 Snow -16 999 84 400 8.2 170 18:18 08.01.2020
904 -273 0 0 0 0 0 17:56 08.01.2020
905 Rain -16 998 65 10000 8.7 180 17:37 08.01.2020
906 Rain -16 998 65 10000 8.7 180 17:18 08.01.2020
907 Rain -17 998 64 10000 5.7 180 16:55 08.01.2020
908 Rain -17 998 64 10000 5.7 180 16:37 08.01.2020
909 Rain -17 998 64 10000 5.7 180 16:18 08.01.2020
910 Snow -18 998 84 900 4.1 160 15:44 08.01.2020
911 Snow -18 998 84 900 4.1 160 15:21 08.01.2020
912 Snow -18 997 70 4400 4.1 120 14:58 08.01.2020
913 Snow -18 997 70 4400 4.1 120 14:39 08.01.2020
914 Snow -18 997 70 4400 4.1 120 14:20 08.01.2020
915 Snow -18 997 70 4400 4.1 120 14:20 08.01.2020
916 Snow -18 997 70 4400 4.1 120 14:20 08.01.2020
917 Snow -19 996 70 3500 2.6 300 13:41 08.01.2020
918 Snow -19 996 70 3500 2.6 300 13:20 08.01.2020
919 Snow -19 995 70 10000 8.7 310 12:54 08.01.2020
920 Snow -19 995 70 10000 8.7 310 12:36 08.01.2020
921 Snow -19 995 70 10000 8.7 310 12:18 08.01.2020
922 Snow -19 993 70 10000 7.2 290 11:47 08.01.2020
923 Snow -19 993 70 10000 7.2 290 11:19 08.01.2020
924 Snow -19 991 70 0 8.2 280 10:58 08.01.2020
925 Snow -19 991 70 0 8.2 280 10:40 08.01.2020
926 Snow -19 991 70 0 8.2 280 10:40 08.01.2020
927 Snow -19 991 70 0 8.2 280 10:20 08.01.2020
928 Snow -19 989 70 0 9.3 250 09:43 08.01.2020
929 Snow -19 989 70 0 9.3 250 09:20 08.01.2020
930 Snow -19 988 84 0 10.3 260 08:58 08.01.2020
931 Snow -19 988 84 0 10.3 260 08:39 08.01.2020
932 Snow -19 988 84 0 10.3 260 08:20 08.01.2020
933 Snow -18 987 84 0 10.3 260 07:52 08.01.2020
934 Snow -18 987 84 0 10.3 260 07:33 08.01.2020
935 Snow -17 986 84 0 9.3 260 06:58 08.01.2020
936 Snow -17 986 84 0 9.3 260 06:40 08.01.2020
937 Snow -17 986 84 0 8.7 250 05:55 08.01.2020
938 Snow -17 986 84 0 8.7 250 05:25 08.01.2020
939 Snow -17 986 84 0 9.8 250 04:36 08.01.2020
940 Snow -16 986 84 5000 8.7 230 02:46 08.01.2020
941 Snow -16 986 84 5000 8.7 230 02:28 08.01.2020
942 Snow -17 986 84 600 6.2 230 01:55 08.01.2020
943 Snow -17 986 84 600 6.2 230 01:30 08.01.2020
944 Snow -17 986 77 4000 6.7 250 00:51 08.01.2020
945 Snow -17 986 77 4000 6.7 250 00:22 08.01.2020
946 Snow -17 987 84 700 6.7 250 23:46 07.01.2020
947 Snow -17 987 84 700 6.7 250 23:21 07.01.2020
948 Snow -17 987 77 4000 7.2 250 22:41 07.01.2020
949 Snow -17 987 77 4000 7.2 250 22:21 07.01.2020
950 Snow -17 987 77 1000 7.7 250 21:59 07.01.2020
951 Snow -17 987 77 1000 7.7 250 21:59 07.01.2020
952 Snow -17 987 77 1000 7.7 250 21:41 07.01.2020
953 Snow -17 987 77 1000 7.7 250 21:21 07.01.2020
954 Snow -17 986 77 5000 6.2 250 20:57 07.01.2020
955 Snow -17 986 77 5000 6.2 250 20:39 07.01.2020
956 Snow -17 986 77 5000 6.2 250 20:39 07.01.2020
957 Snow -17 986 77 5000 6.2 250 20:21 07.01.2020
958 Rain -17 985 77 10000 8.7 240 19:56 07.01.2020
959 Rain -17 985 77 10000 8.7 240 19:37 07.01.2020
960 Rain -17 985 77 10000 8.7 240 19:19 07.01.2020
961 Rain -17 985 77 10000 8.7 240 19:19 07.01.2020
962 Rain -17 985 77 10000 8.7 240 19:19 07.01.2020
963 Rain -17 984 77 10000 10.3 250 18:56 07.01.2020
964 Rain -17 984 77 10000 10.3 250 18:37 07.01.2020
965 Rain -17 984 77 10000 10.3 250 18:18 07.01.2020
966 Snow -17 983 84 600 10.8 250 17:42 07.01.2020
967 Snow -17 983 84 600 10.8 250 17:23 07.01.2020
968 Snow -16 982 84 5000 11.8 250 16:58 07.01.2020
969 Snow -15 982 84 5000 11.8 250 16:39 07.01.2020
970 Snow -15 982 84 5000 11.8 250 16:20 07.01.2020
971 Snow -15 981 84 200 10.8 250 15:59 07.01.2020
972 Snow -15 981 84 200 10.8 250 15:41 07.01.2020
973 Snow -15 981 84 200 10.8 250 15:23 07.01.2020
974 Snow -14 980 84 1000 10.3 240 14:58 07.01.2020
975 Snow -14 980 84 1000 10.3 240 14:38 07.01.2020
976 Snow -14 980 84 1000 10.3 240 14:19 07.01.2020
977 Snow -14 980 84 1400 9.3 230 13:44 07.01.2020
978 Snow -14 980 84 1400 9.3 230 13:20 07.01.2020
979 Snow -15 981 84 8000 8.2 250 12:55 07.01.2020
980 Snow -15 981 84 8000 8.2 250 12:36 07.01.2020
981 Snow -15 981 84 8000 8.2 250 12:18 07.01.2020
982 Snow -15 981 71 8000 8.2 240 11:41 07.01.2020
983 Snow -15 981 71 8000 8.2 240 11:22 07.01.2020
984 Snow -15 981 84 1100 7.7 240 10:56 07.01.2020
985 Snow -15 981 84 1100 7.7 240 10:37 07.01.2020
986 Snow -15 981 84 1100 7.7 240 10:19 07.01.2020
987 Snow -15 981 77 0 8.2 240 09:39 07.01.2020
988 Snow -15 981 77 0 8.2 240 09:21 07.01.2020
989 Snow -15 981 77 0 7.2 250 08:57 07.01.2020
990 Snow -15 981 77 0 7.2 250 08:37 07.01.2020
991 Snow -15 981 77 0 7.2 250 08:18 07.01.2020
992 Snow -15 982 54 0 6.7 240 07:42 07.01.2020
993 Snow -15 982 54 0 6.7 240 07:18 07.01.2020
994 Snow -16 982 77 0 4.1 240 06:36 07.01.2020
995 Snow -16 982 59 0 5.1 240 05:59 07.01.2020
996 Snow -16 982 59 0 5.1 240 05:40 07.01.2020
997 Snow -17 983 77 0 6.2 260 03:46 07.01.2020
998 Snow -17 983 77 0 6.2 260 03:25 07.01.2020
999 Snow -17 983 70 0 4.6 250 02:19 07.01.2020
1000 Snow -17 983 77 0 2.1 220 01:40 07.01.2020
1001 Snow -17 983 64 1500 4.6 250 00:58 07.01.2020
1002 Snow -17 983 64 1500 4.6 250 00:21 07.01.2020
1003 Snow -17 983 64 1500 4.6 250 00:21 07.01.2020
1004 Snow -17 983 64 1500 4.6 250 00:21 07.01.2020
1005 Snow -18 984 84 3500 2.6 250 23:57 06.01.2020
1006 Snow -18 984 84 3500 2.6 250 23:38 06.01.2020
1007 Snow -18 984 84 3500 2.6 250 23:20 06.01.2020
1008 Rain -18 984 70 8000 4.1 280 22:44 06.01.2020
1009 Rain -18 984 70 8000 4.1 280 22:25 06.01.2020
1010 Snow -18 985 64 10000 2.1 260 21:59 06.01.2020
1011 Snow -18 985 64 10000 2.1 260 21:40 06.01.2020
1012 Snow -18 985 64 10000 2.1 260 21:20 06.01.2020
1013 Snow -18 985 59 10000 4.6 260 20:58 06.01.2020
1014 Snow -18 985 59 10000 4.6 260 20:40 06.01.2020
1015 Snow -18 985 59 10000 4.6 260 20:20 06.01.2020
1016 Snow -18 986 77 1500 4.6 240 19:57 06.01.2020
1017 Snow -18 986 77 1500 4.6 240 19:39 06.01.2020
1018 Snow -18 986 77 1500 4.6 240 19:20 06.01.2020
1019 Snow -18 986 70 4500 7.2 250 18:48 06.01.2020
1020 Snow -18 986 70 4500 7.2 250 18:25 06.01.2020
1021 Snow -18 986 84 3000 5.1 240 18:00 06.01.2020
1022 Snow -18 986 84 3000 5.1 240 17:39 06.01.2020
1023 Snow -18 986 84 3000 5.1 240 17:19 06.01.2020
1024 Snow -18 986 84 9000 7.2 240 16:55 06.01.2020
1025 Snow -18 986 84 9000 7.2 240 16:36 06.01.2020
1026 Snow -18 986 84 9000 7.2 240 16:18 06.01.2020
1027 Snow -18 986 84 5000 6.7 250 15:42 06.01.2020
1028 Snow -18 986 84 5000 6.7 250 15:20 06.01.2020
1029 Snow -18 987 84 8000 7.7 260 14:59 06.01.2020
1030 Snow -18 987 84 8000 7.7 260 14:41 06.01.2020
1031 Snow -18 987 84 8000 7.7 260 14:41 06.01.2020
1032 Snow -18 987 84 8000 7.7 260 14:21 06.01.2020
1033 Snow -18 986 84 8000 7.7 250 13:58 06.01.2020
1034 Snow -18 986 84 8000 7.7 250 13:38 06.01.2020
1035 Snow -18 986 84 8000 7.7 250 13:20 06.01.2020
1036 Snow -18 987 84 3800 7.2 260 12:44 06.01.2020
1037 Snow -18 987 84 3800 7.2 260 12:21 06.01.2020
1038 Snow -17 987 84 700 7.2 260 11:59 06.01.2020
1039 Snow -17 987 84 700 7.2 260 11:41 06.01.2020
1040 Snow -17 987 84 700 7.2 260 11:23 06.01.2020
1041 Snow -17 987 84 800 5.7 280 10:58 06.01.2020
1042 Snow -17 987 84 800 5.7 280 10:40 06.01.2020
1043 Snow -17 987 84 800 5.7 280 10:20 06.01.2020
1044 Snow -17 987 84 800 5.7 280 10:20 06.01.2020
1045 Snow -17 986 84 0 6.2 300 09:39 06.01.2020
1046 Snow -17 986 84 0 6.2 300 09:20 06.01.2020
1047 Snow -17 986 91 0 6.7 300 08:48 06.01.2020
1048 Snow -17 986 91 0 6.7 300 08:48 06.01.2020
1049 Snow -17 986 91 0 6.7 300 08:30 06.01.2020
1050 Snow -16 985 84 0 8.2 300 07:56 06.01.2020
1051 Snow -16 985 84 0 8.2 300 07:33 06.01.2020
1052 Snow -16 984 84 0 8.7 290 06:46 06.01.2020
1053 Snow -16 984 84 0 8.7 290 06:23 06.01.2020
1054 Snow -16 984 84 0 5.1 300 05:45 06.01.2020
1055 Snow -16 984 91 0 7.2 300 04:53 06.01.2020
1056 Snow -16 984 91 0 7.2 300 04:20 06.01.2020
1057 Snow -14 981 84 300 14.9 300 02:58 06.01.2020
1058 Snow -14 981 84 300 14.9 300 02:24 06.01.2020
1059 Snow -13 980 92 800 11.8 300 01:45 06.01.2020
1060 Snow -13 980 92 800 11.8 300 01:27 06.01.2020
1061 Snow -10 976 85 1500 6.7 220 00:44 06.01.2020
1062 Snow -10 976 85 1500 6.7 220 00:24 06.01.2020
1063 Snow -10 977 85 3000 8.2 250 23:43 05.01.2020
1064 Snow -10 977 85 3000 8.2 250 23:23 05.01.2020
1065 Snow -10 977 85 3000 7.7 250 22:58 05.01.2020
1066 Snow -10 977 85 3000 7.7 250 22:39 05.01.2020
1067 Snow -10 977 85 3000 7.7 250 22:20 05.01.2020
1068 Snow -9 978 78 3000 5.7 250 21:56 05.01.2020
1069 Snow -9 978 78 3000 5.7 250 21:38 05.01.2020
1070 Snow -9 978 78 3000 5.7 250 21:20 05.01.2020
1071 Snow -9 979 92 1800 5.1 280 20:56 05.01.2020
1072 Snow -9 979 92 1800 5.1 280 20:38 05.01.2020
1073 Snow -9 979 92 1800 5.1 280 20:19 05.01.2020
1074 Snow -8 979 85 2000 4.1 290 19:57 05.01.2020
1075 Snow -8 979 85 2000 4.1 290 19:38 05.01.2020
1076 Snow -8 979 85 2000 4.1 290 19:19 05.01.2020
1077 Snow -8 979 92 800 5.1 280 18:55 05.01.2020
1078 Snow -8 979 92 800 5.1 280 18:37 05.01.2020
1079 Snow -8 979 92 800 5.1 280 18:19 05.01.2020
1080 Snow -8 980 92 2000 5.1 280 17:57 05.01.2020
1081 Snow -7 980 92 2000 5.1 280 17:38 05.01.2020
1082 Snow -7 980 92 2000 5.1 280 17:19 05.01.2020
1083 Snow -7 980 85 6000 4.1 240 16:56 05.01.2020
1084 Snow -6 980 85 6000 4.1 240 16:37 05.01.2020
1085 Snow -6 980 85 6000 4.1 240 16:19 05.01.2020
1086 Snow -6 980 85 6000 4.1 240 16:19 05.01.2020
1087 Snow -7 981 92 3000 3.6 220 15:38 05.01.2020
1088 Snow -7 981 92 3000 3.6 220 15:20 05.01.2020
1089 Snow -7 982 92 2000 2.1 230 14:55 05.01.2020
1090 Snow -7 982 92 2000 2.1 230 14:37 05.01.2020
1091 Snow -7 982 92 2000 2.1 230 14:37 05.01.2020
1092 Snow -7 982 92 2000 2.1 230 14:19 05.01.2020
1093 Snow -7 983 92 300 1.5 190 13:55 05.01.2020
1094 Snow -7 983 92 300 1.5 190 13:37 05.01.2020
1095 Snow -7 983 92 300 1.5 190 13:18 05.01.2020
1096 Snow -7 983 92 300 1.5 190 13:18 05.01.2020
1097 Snow -7 983 92 300 1.5 190 13:18 05.01.2020
1098 Snow -7 983 79 0 2.6 140 12:55 05.01.2020
1099 Snow -7 983 79 0 2.6 140 12:37 05.01.2020
1100 Snow -7 983 79 0 2.6 140 12:18 05.01.2020
1101 Snow -7 983 85 0 2.1 140 11:43 05.01.2020
1102 Snow -7 983 85 0 2.1 140 11:43 05.01.2020
1103 Snow -7 983 85 0 2.1 140 11:43 05.01.2020
1104 Snow -7 983 85 0 2.1 140 11:43 05.01.2020
1105 Snow -7 983 85 0 2.1 140 11:43 05.01.2020
1106 Snow -7 983 85 0 2.1 140 11:19 05.01.2020
1107 Snow -7 984 92 0 1 210 10:58 05.01.2020
1108 Snow -7 984 92 0 1 210 10:39 05.01.2020
1109 Snow -7 984 92 0 1 210 10:39 05.01.2020
1110 Snow -7 984 92 0 1 210 10:39 05.01.2020
1111 Snow -7 984 92 0 1 210 10:39 05.01.2020
1112 Snow -7 984 92 0 1 210 10:39 05.01.2020
1113 Snow -7 984 92 0 1 210 10:19 05.01.2020
1114 Snow -7 984 85 0 1.5 250 09:42 05.01.2020
1115 Snow -7 984 85 0 1.5 250 09:22 05.01.2020
1116 Snow -7 984 85 0 1 0 08:50 05.01.2020
1117 Snow -7 984 85 0 1 0 08:30 05.01.2020
1118 Snow -6 984 85 0 3.1 300 07:57 05.01.2020
1119 Snow -6 984 85 0 3.1 300 07:38 05.01.2020
1120 Snow -6 984 85 0 3.1 300 07:20 05.01.2020
1121 Snow -7 984 85 0 1 0 06:20 05.01.2020
1122 Snow -7 985 92 0 1 0 05:33 05.01.2020
1123 Snow -7 985 92 0 1 0 05:33 05.01.2020
1124 Snow -7 985 92 0 1 0 05:33 05.01.2020
1125 Snow -6 985 79 0 0.5 0 04:44 05.01.2020
1126 Snow -6 985 79 0 0.5 0 04:18 05.01.2020
1127 Snow -6 984 79 0 4.1 350 02:46 05.01.2020
1128 Snow -6 984 79 0 4.1 350 02:24 05.01.2020
1129 Snow -5 984 79 0 3.1 330 01:48 05.01.2020
1130 Snow -5 984 79 0 3.1 330 01:19 05.01.2020
1131 Snow -5 984 79 0 3.1 310 00:54 05.01.2020
1132 Snow -5 984 79 0 3.1 310 00:36 05.01.2020
1133 Snow -5 984 79 0 3.1 310 00:36 05.01.2020
1134 Snow -5 984 79 0 3.1 310 00:18 05.01.2020
1135 Snow -5 984 85 0 4.6 300 23:40 04.01.2020
1136 Snow -5 984 85 0 4.6 300 23:20 04.01.2020
1137 Snow -5 984 85 8000 3.1 310 22:40 04.01.2020
1138 Snow -5 984 85 8000 3.1 310 22:22 04.01.2020
1139 Snow -5 984 85 8000 3.1 310 22:22 04.01.2020
1140 Clouds -5 985 85 10000 1.5 0 21:58 04.01.2020
1141 Clouds -5 985 85 10000 1.5 0 21:40 04.01.2020
1142 Clouds -5 985 85 10000 1.5 0 21:40 04.01.2020
1143 Clouds -5 985 85 10000 1.5 0 21:21 04.01.2020
1144 Clouds -5 985 85 10000 2.6 340 20:59 04.01.2020
1145 Clouds -5 985 85 10000 2.6 340 20:40 04.01.2020
1146 Clouds -5 985 85 10000 2.6 340 20:22 04.01.2020
1147 Clouds -5 984 85 10000 3.6 340 19:57 04.01.2020
1148 Clouds -5 984 85 10000 3.6 340 19:38 04.01.2020
1149 Clouds -5 984 85 10000 3.6 340 19:20 04.01.2020
1150 Clouds -5 984 85 10000 2.6 340 18:56 04.01.2020
1151 Clouds -5 984 85 10000 2.6 340 18:37 04.01.2020
1152 Clouds -5 984 85 10000 2.6 340 18:19 04.01.2020
1153 Clouds -5 985 79 10000 2.1 0 17:41 04.01.2020
1154 Clouds -5 985 79 10000 2.1 0 17:23 04.01.2020
1155 Clouds -6 985 73 10000 2.1 40 16:59 04.01.2020
1156 Clouds -6 985 73 10000 2.1 40 16:40 04.01.2020
1157 Clouds -6 985 73 10000 2.1 40 16:21 04.01.2020
1158 Clouds -6 986 73 10000 3.6 40 15:56 04.01.2020
1159 Clouds -6 986 73 10000 3.6 40 15:38 04.01.2020
1160 Clouds -6 986 73 10000 3.6 40 15:18 04.01.2020
1161 Clouds -6 986 73 10000 3.6 60 14:43 04.01.2020
1162 Clouds -6 986 73 10000 3.6 60 14:20 04.01.2020
1163 Clouds -6 987 62 10000 4.1 20 13:59 04.01.2020
1164 Clouds -6 987 62 10000 4.1 20 13:39 04.01.2020
1165 Clouds -6 987 62 10000 4.1 20 13:20 04.01.2020
1166 Clouds -7 987 72 10000 2.6 50 12:59 04.01.2020
1167 Clouds -8 987 72 10000 2.6 50 12:40 04.01.2020
1168 Clouds -8 987 72 10000 2.6 50 12:19 04.01.2020
1169 Clouds -8 988 62 10000 2.1 60 11:57 04.01.2020
1170 Clouds -7 988 62 10000 2.1 60 11:38 04.01.2020
1171 Clouds -7 988 62 10000 2.1 60 11:18 04.01.2020
1172 Clouds -7 989 79 0 2.1 30 10:41 04.01.2020
1173 Clouds -7 989 79 0 2.1 30 10:22 04.01.2020
1174 Clouds -7 990 79 0 3.6 10 09:50 04.01.2020
1175 Clouds -7 990 79 0 3.6 10 09:26 04.01.2020
1176 Clouds -8 991 78 0 3.1 30 08:57 04.01.2020
1177 Clouds -8 991 78 0 3.1 30 08:37 04.01.2020
1178 Clouds -8 991 78 0 3.1 30 08:19 04.01.2020
1179 Clouds -6 992 85 0 4.6 360 07:42 04.01.2020
1180 Clouds -6 992 85 0 6.2 10 06:52 04.01.2020
1181 Clouds -6 992 85 0 6.2 10 06:33 04.01.2020
1182 Clouds -5 993 85 0 5.7 20 05:18 04.01.2020
1183 Clouds -5 994 79 0 6.7 10 04:33 04.01.2020
1184 Clouds -5 995 79 0 6.2 40 03:43 04.01.2020
1185 Clouds -5 995 79 0 6.2 40 03:18 04.01.2020
1186 Clouds -5 995 79 0 7.2 40 02:21 04.01.2020
1187 Clouds -5 996 79 0 6.7 50 01:55 04.01.2020
1188 Clouds -5 996 79 0 6.7 50 01:31 04.01.2020
1189 Clouds -5 996 73 0 5.7 40 00:43 04.01.2020
1190 Clouds -5 996 73 0 5.7 40 00:23 04.01.2020
1191 Clouds -5 997 73 10000 5.1 40 23:44 03.01.2020
1192 Clouds -5 997 73 10000 5.1 40 23:25 03.01.2020
1193 Clouds -5 997 73 10000 4.6 50 22:41 03.01.2020
1194 Clouds -5 997 73 10000 4.6 50 22:20 03.01.2020
1195 Clouds -5 997 62 10000 3.1 70 21:59 03.01.2020
1196 Clouds -5 997 62 10000 3.1 70 21:39 03.01.2020
1197 Clouds -5 997 62 10000 3.1 70 21:19 03.01.2020
1198 Clouds -5 997 62 10000 3.1 70 21:19 03.01.2020
1199 Clouds -5 998 67 10000 5.1 50 20:59 03.01.2020
1200 Clouds -5 998 67 10000 5.1 50 20:41 03.01.2020
1201 Clouds -5 998 67 10000 5.1 50 20:41 03.01.2020
1202 Clouds -5 998 67 10000 5.1 50 20:19 03.01.2020
1203 Clouds -5 997 67 10000 5.7 50 19:57 03.01.2020
1204 Clouds -5 997 67 10000 5.7 50 19:39 03.01.2020
1205 Clouds -5 997 67 10000 5.7 50 19:21 03.01.2020
1206 Clouds -6 998 62 10000 2.1 100 18:44 03.01.2020
1207 Clouds -6 998 62 10000 2.1 100 18:44 03.01.2020
1208 Clouds -6 998 62 10000 2.1 100 18:26 03.01.2020
1209 Clouds -5 998 57 10000 4.6 50 17:57 03.01.2020
1210 Clouds -5 998 57 10000 4.6 50 17:38 03.01.2020
1211 Clouds -5 998 57 10000 4.6 50 17:19 03.01.2020
1212 Clouds -5 998 62 10000 3.6 60 16:43 03.01.2020
1213 Clouds -5 998 62 10000 3.6 60 16:24 03.01.2020
1214 Clouds -6 998 57 10000 1 140 15:58 03.01.2020
1215 Clouds -6 998 57 10000 1 140 15:40 03.01.2020
1216 Clouds -6 998 57 10000 1 140 15:18 03.01.2020
1217 Clouds -6 998 57 10000 4.1 60 14:39 03.01.2020
1218 Clouds -6 998 57 10000 4.1 60 14:20 03.01.2020
1219 Clouds -7 999 79 10000 3.6 50 13:56 03.01.2020
1220 Clouds -7 999 79 10000 3.6 50 13:37 03.01.2020
1221 Clouds -7 999 79 10000 3.6 50 13:19 03.01.2020
1222 Clouds -7 999 48 10000 1.5 90 12:40 03.01.2020
1223 Clouds -7 999 48 10000 1.5 90 12:21 03.01.2020
1224 Clouds -6 999 53 10000 2.6 100 11:49 03.01.2020
1225 Clouds -6 999 53 10000 2.6 100 11:30 03.01.2020
1226 Clouds -5 999 45 10000 5.1 60 10:48 03.01.2020
1227 Clouds -5 999 45 10000 5.1 60 10:28 03.01.2020
1228 Snow -6 998 57 0 11.3 70 09:59 03.01.2020
1229 Snow -6 998 57 0 11.3 70 09:41 03.01.2020
1230 Snow -6 998 57 0 11.3 70 09:23 03.01.2020
1231 Snow -6 999 62 0 11.8 60 08:57 03.01.2020
1232 Snow -6 999 62 0 11.8 60 08:39 03.01.2020
1233 Snow -6 999 62 0 11.8 60 08:21 03.01.2020
1234 Clouds -6 1000 67 0 10.3 70 07:42 03.01.2020
1235 Clouds -6 1000 67 0 10.3 70 07:19 03.01.2020
1236 Clouds -6 1001 67 0 11.8 60 06:56 03.01.2020
1237 Clouds -6 1001 67 0 11.8 60 06:37 03.01.2020
1238 Clouds -6 1001 67 0 11.8 60 06:18 03.01.2020
1239 Clear -6 1002 67 0 11.8 70 04:42 03.01.2020
1240 Clear -5 1003 62 10000 9.3 70 03:37 03.01.2020
1241 Clear -5 1004 62 10000 9.3 70 02:50 03.01.2020
1242 Clear -5 1004 62 10000 8.7 70 01:48 03.01.2020
1243 Clouds -5 1004 62 10000 8.7 80 00:57 03.01.2020
1244 Clouds -5 1004 62 10000 8.7 80 00:33 03.01.2020
1245 Clouds -4 1004 62 10000 10.3 90 23:58 02.01.2020
1246 Clouds -4 1004 62 10000 10.3 90 23:39 02.01.2020
1247 Clouds -4 1004 62 10000 10.3 90 23:20 02.01.2020
1248 Clouds -4 1005 62 10000 8.7 90 22:58 02.01.2020
1249 Clouds -4 1005 62 10000 8.7 90 22:39 02.01.2020
1250 Clouds -4 1005 62 10000 8.7 90 22:19 02.01.2020
1251 Clouds -4 1005 62 10000 7.2 90 21:55 02.01.2020
1252 Clouds -4 1005 62 10000 7.2 90 21:36 02.01.2020
1253 Clouds -4 1005 62 10000 7.2 90 21:18 02.01.2020
1254 Clouds -4 1005 68 10000 3.6 90 20:54 02.01.2020
1255 Clouds -4 1005 68 10000 3.6 90 20:36 02.01.2020
1256 Clouds -4 1005 68 10000 3.6 90 20:18 02.01.2020
1257 Clouds -4 1005 73 10000 4.6 120 19:54 02.01.2020
1258 Clouds -4 1005 73 10000 4.6 120 19:36 02.01.2020
1259 Clouds -4 1005 73 10000 4.6 120 19:36 02.01.2020
1260 Clouds -4 1005 73 10000 4.6 120 19:18 02.01.2020
1261 Clouds -3 1005 68 10000 2.6 340 18:42 02.01.2020
1262 Clouds -3 1005 68 10000 2.6 340 18:23 02.01.2020
1263 Clouds -4 1005 68 10000 6.2 110 17:58 02.01.2020
1264 Clouds -4 1005 68 10000 6.2 110 17:38 02.01.2020
1265 Clouds -4 1005 68 10000 6.2 110 17:19 02.01.2020
1266 Rain -4 1006 79 10000 4.1 160 16:58 02.01.2020
1267 Rain -4 1006 79 10000 4.1 160 16:40 02.01.2020
1268 Rain -4 1006 79 10000 4.1 160 16:40 02.01.2020
1269 Rain -4 1006 79 10000 4.1 160 16:20 02.01.2020
1270 Snow -4 1006 73 10000 5.7 170 15:57 02.01.2020
1271 Snow -3 1006 73 10000 5.7 170 15:39 02.01.2020
1272 Snow -3 1006 73 10000 5.7 170 15:20 02.01.2020
1273 Snow -4 1006 79 10000 5.7 170 14:56 02.01.2020
1274 Snow -4 1006 79 10000 5.7 170 14:36 02.01.2020
1275 Snow -4 1006 79 10000 5.7 170 14:18 02.01.2020
1276 Snow -4 1006 85 5000 6.2 170 13:48 02.01.2020
1277 Snow -4 1006 85 5000 6.2 170 13:30 02.01.2020
1278 Snow -4 1006 85 3000 7.7 170 12:46 02.01.2020
1279 Snow -4 1006 85 3000 7.7 170 12:25 02.01.2020
1280 Snow -4 1005 85 5000 7.7 170 11:58 02.01.2020
1281 Snow -4 1005 85 5000 7.7 170 11:40 02.01.2020
1282 Snow -4 1005 85 5000 7.7 170 11:19 02.01.2020
1283 Snow -4 1006 85 0 7.7 170 10:44 02.01.2020
1284 Snow -4 1006 85 0 7.7 170 10:25 02.01.2020
1285 Snow -4 1005 85 0 6.7 170 09:48 02.01.2020
1286 Snow -4 1005 85 0 6.7 170 09:29 02.01.2020
1287 Snow -4 1005 85 0 6.7 180 08:47 02.01.2020
1288 Snow -4 1005 85 0 6.7 180 08:27 02.01.2020
1289 Snow -4 1005 85 0 6.2 180 07:53 02.01.2020
1290 Snow -4 1005 85 0 6.2 180 07:30 02.01.2020
1291 Snow -5 1005 92 0 3.6 230 06:46 02.01.2020
1292 Snow -5 1005 92 0 3.6 230 06:27 02.01.2020
1293 Snow -5 1005 79 0 3.6 220 05:35 02.01.2020
1294 Snow -4 1006 73 0 4.6 220 04:33 02.01.2020
1295 Snow -4 1006 68 0 5.1 240 02:54 02.01.2020
1296 Snow -4 1005 68 0 6.2 230 01:59 02.01.2020
1297 Snow -4 1005 68 0 6.2 230 01:39 02.01.2020
1298 Snow -5 1005 85 0 8.2 170 00:59 02.01.2020
1299 Snow -5 1005 85 0 8.2 170 00:34 02.01.2020
1300 Rain -5 1006 85 10000 8.2 170 23:58 01.01.2020
1301 Rain -5 1006 85 10000 8.2 170 23:40 01.01.2020
1302 Rain -5 1006 85 10000 8.2 170 23:19 01.01.2020
1303 Snow -5 1006 92 9000 6.2 210 22:38 01.01.2020
1304 Snow -5 1006 92 9000 6.2 210 22:20 01.01.2020
1305 Snow -5 1006 92 9000 6.2 210 22:20 01.01.2020
1306 Snow -5 1006 92 9000 6.2 210 22:20 01.01.2020
1307 Snow -5 1005 85 3900 5.7 200 21:56 01.01.2020
1308 Snow -5 1005 85 3900 5.7 200 21:38 01.01.2020
1309 Snow -5 1005 85 3900 5.7 200 21:19 01.01.2020
1310 Rain -5 1005 79 10000 5.7 210 20:56 01.01.2020
1311 Rain -5 1005 79 10000 5.7 210 20:56 01.01.2020
1312 Rain -5 1005 79 10000 5.7 210 20:38 01.01.2020
1313 Rain -5 1005 79 10000 5.7 210 20:38 01.01.2020
1314 Rain -5 1005 79 10000 5.7 210 20:19 01.01.2020
1315 Rain -5 1005 79 10000 5.7 210 20:19 01.01.2020
1316 Rain -5 1005 85 10000 6.7 190 19:55 01.01.2020
1317 Rain -5 1005 85 10000 6.7 190 19:55 01.01.2020
1318 Rain -5 1005 85 10000 6.7 190 19:55 01.01.2020
1319 Rain -5 1005 85 10000 6.7 190 19:55 01.01.2020
1320 Rain -5 1005 85 10000 6.7 190 19:55 01.01.2020
1321 Rain -5 1005 85 10000 6.7 190 19:37 01.01.2020
1322 Rain -6 1005 85 10000 6.7 190 19:19 01.01.2020
1323 Snow -6 1005 92 0 10.3 170 18:56 01.01.2020
1324 Snow -6 1005 92 0 10.3 170 18:36 01.01.2020
1325 Snow -6 1005 92 0 10.3 170 18:18 01.01.2020
1326 Snow -6 1005 85 0 10.8 160 17:56 01.01.2020
1327 Snow -6 1005 85 0 10.8 160 17:38 01.01.2020
1328 Snow -6 1005 85 0 10.8 160 17:19 01.01.2020
1329 Snow -6 1005 85 0 11.3 160 16:42 01.01.2020
1330 Snow -6 1005 85 0 11.3 160 16:23 01.01.2020
1331 Snow -7 1006 85 0 9.3 160 15:58 01.01.2020
1332 Snow -7 1006 85 0 9.3 160 15:40 01.01.2020
1333 Snow -7 1006 85 0 9.3 160 15:21 01.01.2020
1334 Snow -7 1006 85 0 9.3 160 14:59 01.01.2020
1335 Snow -7 1006 85 0 9.3 160 14:40 01.01.2020
1336 Snow -7 1006 85 0 9.3 160 14:22 01.01.2020
1337 Snow -8 1006 92 0 8.7 170 13:56 01.01.2020
1338 Snow -8 1006 92 0 8.7 170 13:37 01.01.2020
1339 Snow -8 1006 92 0 8.7 170 13:19 01.01.2020
1340 Snow -7 1006 67 0 5.7 170 12:57 01.01.2020
1341 Snow -7 1006 67 0 5.7 170 12:39 01.01.2020
1342 Snow -7 1006 67 0 5.7 170 12:19 01.01.2020
1343 Snow -7 1007 67 0 4.6 140 11:55 01.01.2020
1344 Snow -7 1007 67 0 4.6 140 11:36 01.01.2020
1345 Clouds -7 1007 67 0 4.6 140 11:18 01.01.2020
1346 Clouds -8 1008 72 0 2.1 140 10:41 01.01.2020
1347 Clouds -8 1008 72 0 2.1 140 10:21 01.01.2020
1348 Clouds -8 1008 67 0 1.5 160 09:59 01.01.2020
1349 Clouds -8 1008 67 0 1.5 160 09:38 01.01.2020
1350 Clouds -8 1008 67 0 1.5 160 09:38 01.01.2020
1351 Clouds -8 1008 67 0 1.5 160 09:19 01.01.2020
1352 Clouds -8 1008 61 0 0.5 0 08:55 01.01.2020
1353 Clouds -8 1008 61 0 0.5 0 08:37 01.01.2020
1354 Clouds -8 1008 61 0 0.5 0 08:18 01.01.2020
1355 Clouds -8 1007 72 0 3.1 330 07:54 01.01.2020
1356 Clouds -8 1007 72 0 3.1 330 07:36 01.01.2020
1357 Clouds -9 1007 85 0 2.1 40 06:45 01.01.2020
1358 Clouds -9 1007 85 0 2.1 40 06:21 01.01.2020
1359 Clouds -8 1007 67 0 2.1 340 05:22 01.01.2020
1360 Snow -8 1007 67 0 3.6 350 03:46 01.01.2020
1361 Snow -8 1007 67 0 3.6 350 03:23 01.01.2020
1362 Clear -8 1007 67 0 7.2 340 02:57 01.01.2020
1363 Clear -8 1007 67 0 7.2 340 02:36 01.01.2020
1364 Clouds -8 1006 72 0 7.7 330 01:57 01.01.2020
1365 Clouds -8 1006 72 0 7.7 330 01:38 01.01.2020
1366 Clouds -8 1006 72 0 7.7 330 01:20 01.01.2020
1367 Clouds -8 1006 78 0 8.7 340 00:44 01.01.2020
1368 Clouds -8 1006 78 0 8.7 340 00:25 01.01.2020
1369 Clouds -8 1005 78 0 10.8 330 23:41 31.12.2019
1370 Snow -8 1005 78 0 10.8 330 23:21 31.12.2019
1371 Snow -8 1005 78 0 10.8 330 22:57 31.12.2019
1372 Snow -8 1005 78 0 10.8 330 22:39 31.12.2019
1373 Snow -8 1005 78 0 10.8 330 22:39 31.12.2019
1374 Snow -8 1005 78 0 10.8 330 22:20 31.12.2019
1375 Snow -8 1004 78 0 10.8 320 21:58 31.12.2019
1376 Snow -8 1004 78 0 10.8 320 21:40 31.12.2019
1377 Snow -8 1004 78 0 10.8 320 21:21 31.12.2019
1378 Snow -8 1004 72 0 10.3 330 20:56 31.12.2019
1379 Snow -8 1004 72 0 10.3 330 20:37 31.12.2019
1380 Snow -8 1004 72 0 10.3 330 20:19 31.12.2019
1381 Snow -7 1004 67 0 9.8 330 19:54 31.12.2019
1382 Snow -7 1004 67 0 9.8 330 19:36 31.12.2019
1383 Snow -7 1004 67 0 9.8 330 19:18 31.12.2019
1384 Snow -7 1003 67 0 8.7 330 18:54 31.12.2019
1385 Snow -7 1003 67 0 8.7 330 18:36 31.12.2019
1386 Snow -7 1003 67 0 8.7 330 18:18 31.12.2019
1387 Snow -7 1002 79 0 9.3 320 17:54 31.12.2019
1388 Snow -7 1002 79 0 9.3 320 17:36 31.12.2019
1389 Snow -7 1002 79 0 9.3 320 17:18 31.12.2019
1390 Snow -7 1002 67 0 3.6 340 16:54 31.12.2019
1391 Snow -7 1002 67 0 3.6 340 16:36 31.12.2019
1392 Snow -7 1002 67 0 3.6 340 16:18 31.12.2019
1393 Snow -7 1002 67 0 3.6 340 16:18 31.12.2019
1394 Rain -6 1002 73 10000 5.1 350 15:54 31.12.2019
1395 Rain -6 1002 73 10000 5.1 350 15:36 31.12.2019
1396 Rain -6 1002 73 10000 5.1 350 15:18 31.12.2019
1397 Snow -6 1002 85 10000 7.7 340 14:54 31.12.2019
1398 Snow -6 1002 85 10000 7.7 340 14:36 31.12.2019
1399 Snow -6 1002 85 10000 7.7 340 14:18 31.12.2019
1400 Snow -6 1000 92 0 13.4 330 13:54 31.12.2019
1401 Snow -6 1000 92 0 13.4 330 13:36 31.12.2019
1402 Snow -6 1000 92 0 13.4 330 13:18 31.12.2019
1403 Snow -5 999 92 0 3.1 250 12:40 31.12.2019
1404 Snow -5 999 92 0 3.1 250 12:40 31.12.2019
1405 Snow -5 999 92 0 3.1 250 12:20 31.12.2019
1406 Snow -5 999 92 0 3.1 250 12:20 31.12.2019
1407 Snow -5 999 92 0 1.5 230 11:57 31.12.2019
1408 Snow -5 999 92 0 1.5 230 11:39 31.12.2019
1409 Snow -5 999 92 0 1.5 230 11:20 31.12.2019
1410 Snow -5 999 92 0 4.1 210 10:58 31.12.2019
1411 Snow -5 999 92 0 4.1 210 10:39 31.12.2019
1412 Snow -5 999 92 0 4.1 210 10:20 31.12.2019
1413 Snow -5 998 85 0 3.6 180 09:59 31.12.2019
1414 Snow -5 998 85 0 3.6 180 09:40 31.12.2019
1415 Snow -5 998 85 0 3.6 180 09:22 31.12.2019
1416 Snow -5 998 85 0 5.1 170 08:59 31.12.2019
1417 Snow -5 998 85 0 5.1 170 08:41 31.12.2019
1418 Snow -5 998 85 0 5.1 170 08:20 31.12.2019
1419 Snow -6 999 92 0 2.1 0 07:44 31.12.2019
1420 Snow -6 999 92 0 2.1 0 07:22 31.12.2019
1421 Snow -5 999 85 0 3.1 170 06:51 31.12.2019
1422 Snow -5 999 85 0 3.1 170 06:23 31.12.2019
1423 Snow -5 999 85 0 3.1 170 06:23 31.12.2019
1424 Snow -5 1000 79 0 2.6 0 04:54 31.12.2019
1425 Snow -5 1000 79 0 2.6 0 04:24 31.12.2019
1426 Snow -5 1002 79 0 3.1 150 02:57 31.12.2019
1427 Clouds -5 1002 79 0 3.1 150 02:20 31.12.2019
1428 Clouds -5 1003 79 0 1 0 01:49 31.12.2019
1429 Clouds -5 1003 79 0 1 0 01:31 31.12.2019
1430 Clouds -5 1003 73 0 1 0 00:48 31.12.2019
1431 Clouds -5 1003 73 0 1 0 00:25 31.12.2019
1432 Clouds -4 1004 68 10000 5.1 120 23:58 30.12.2019
1433 Clouds -4 1004 68 10000 5.1 120 23:40 30.12.2019
1434 Clouds -4 1004 68 10000 5.1 120 23:22 30.12.2019
1435 Rain -5 1005 67 10000 3.1 120 22:59 30.12.2019
1436 Rain -5 1005 67 10000 3.1 120 22:41 30.12.2019
1437 Rain -5 1005 67 10000 3.1 120 22:21 30.12.2019
1438 Rain -5 1005 67 10000 5.7 120 21:57 30.12.2019
1439 Rain -5 1005 67 10000 5.7 120 21:57 30.12.2019
1440 Rain -5 1005 67 10000 5.7 120 21:39 30.12.2019
1441 Rain -5 1005 67 10000 5.7 120 21:20 30.12.2019
1442 Snow -5 1006 67 10000 1.5 140 20:59 30.12.2019
1443 Snow -5 1006 67 10000 1.5 140 20:40 30.12.2019
1444 Snow -5 1006 67 10000 1.5 140 20:40 30.12.2019
1445 Snow -5 1006 67 10000 1.5 140 20:20 30.12.2019
1446 Rain -6 1006 67 10000 1 110 19:58 30.12.2019
1447 Rain -6 1006 67 10000 1 110 19:39 30.12.2019
1448 Rain -6 1006 67 10000 1 110 19:19 30.12.2019
1449 Rain -5 1007 67 10000 2.6 0 18:59 30.12.2019
1450 Rain -5 1007 67 10000 2.6 0 18:41 30.12.2019
1451 Rain -5 1007 67 10000 2.6 0 18:20 30.12.2019
1452 Rain -5 1007 73 10000 1.5 100 17:57 30.12.2019
1453 Rain -5 1007 73 10000 1.5 100 17:39 30.12.2019
1454 Rain -5 1007 73 10000 1.5 100 17:19 30.12.2019
1455 Snow -5 1008 73 10000 0.5 110 16:58 30.12.2019
1456 Snow -5 1008 73 10000 0.5 110 16:37 30.12.2019
1457 Snow -6 1008 73 10000 0.5 110 16:19 30.12.2019
1458 Rain -6 1009 73 10000 2.6 90 15:56 30.12.2019
1459 Rain -6 1009 73 10000 2.6 90 15:37 30.12.2019
1460 Rain -6 1009 73 10000 2.6 90 15:19 30.12.2019
1461 Clouds -6 1009 79 10000 0.5 0 14:43 30.12.2019
1462 Clouds -6 1009 79 10000 0.5 0 14:20 30.12.2019
1463 Clouds -6 1010 79 10000 1.5 230 13:58 30.12.2019
1464 Clouds -6 1010 79 10000 1.5 230 13:40 30.12.2019
1465 Clouds -6 1010 79 10000 1.5 230 13:22 30.12.2019
1466 Clouds -6 1010 79 10000 1.5 230 13:22 30.12.2019
1467 Clouds -6 1010 85 10000 3.1 160 12:57 30.12.2019
1468 Clouds -6 1010 85 10000 3.1 160 12:37 30.12.2019
1469 Clouds -6 1010 85 10000 3.1 160 12:18 30.12.2019
1470 Snow -6 1010 92 10000 1 180 11:45 30.12.2019
1471 Snow -6 1010 92 10000 1 180 11:22 30.12.2019
1472 Snow -6 1010 92 4000 4.03 175 10:59 30.12.2019
1473 Snow -6 1010 92 4000 4.03 175 10:40 30.12.2019
1474 Snow -6 1010 92 4000 4.03 175 10:19 30.12.2019
1475 Snow -6 1010 92 0 4.03 175 09:43 30.12.2019
1476 Snow -6 1010 92 0 4.03 175 09:21 30.12.2019
1477 Snow -6 1010 92 0 1 100 08:57 30.12.2019
1478 Snow -6 1010 92 0 1 100 08:38 30.12.2019
1479 Snow -6 1010 92 0 1 100 08:19 30.12.2019
1480 Snow -7 1009 92 0 1.5 100 07:46 30.12.2019
1481 Snow -7 1009 92 0 1.5 100 07:23 30.12.2019
1482 Snow -6 1009 85 0 2.1 120 06:32 30.12.2019
1483 Snow -6 1009 92 0 1.5 110 04:31 30.12.2019
1484 Snow -7 1009 85 0 2.6 100 03:50 30.12.2019
1485 Snow -8 1009 85 0 1.5 120 02:47 30.12.2019
1486 Snow -8 1009 85 0 1.5 120 02:26 30.12.2019
1487 Snow -5 1008 92 0 1.5 160 01:29 30.12.2019
1488 Snow -7 1008 92 0 2.1 100 00:59 30.12.2019
1489 Snow -7 1008 92 0 2.1 100 00:39 30.12.2019
1490 Snow -5 1008 92 10000 1.5 120 23:55 29.12.2019
1491 Snow -5 1008 92 10000 1.5 120 23:36 29.12.2019
1492 Snow -5 1008 92 10000 1.5 120 23:18 29.12.2019
1493 Snow -5 1007 92 900 4.1 270 22:40 29.12.2019
1494 Snow -5 1007 92 900 4.1 270 22:21 29.12.2019
1495 Snow -5 1006 85 5000 1.5 100 21:56 29.12.2019
1496 Snow -5 1006 85 5000 1.5 100 21:38 29.12.2019
1497 Snow -5 1006 85 5000 1.5 100 21:19 29.12.2019
1498 Rain -5 1006 92 10000 1.5 290 20:55 29.12.2019
1499 Rain -5 1006 92 10000 1.5 290 20:37 29.12.2019
1500 Rain -5 1006 92 10000 1.5 290 20:18 29.12.2019
1501 Rain -5 1004 85 10000 2.1 130 19:56 29.12.2019
1502 Rain -5 1004 85 10000 2.1 130 19:37 29.12.2019
1503 Rain -5 1004 85 10000 2.1 130 19:19 29.12.2019
1504 Snow -5 1004 92 10000 0.5 0 18:55 29.12.2019
1505 Snow -5 1004 92 10000 0.5 0 18:37 29.12.2019
1506 Snow -5 1004 92 10000 0.5 0 18:18 29.12.2019
1507 Snow -5 1004 92 3000 1.5 140 17:56 29.12.2019
1508 Snow -5 1004 92 3000 1.5 140 17:37 29.12.2019
1509 Snow -5 1004 92 3000 1.5 140 17:19 29.12.2019
1510 Snow -5 1003 85 6000 1.5 40 16:55 29.12.2019
1511 Snow -5 1003 85 6000 1.5 40 16:36 29.12.2019
1512 Snow -5 1003 85 6000 1.5 40 16:36 29.12.2019
1513 Snow -5 1003 85 6000 1.5 40 16:18 29.12.2019
1514 Clouds -4 1003 68 10000 1 0 15:55 29.12.2019
1515 Clouds -4 1003 68 10000 1 0 15:37 29.12.2019
1516 Clouds -4 1003 68 10000 1 0 15:18 29.12.2019
1517 Clouds -5 1002 73 10000 1.5 0 14:55 29.12.2019
1518 Clouds -5 1002 73 10000 1.5 0 14:37 29.12.2019
1519 Clouds -5 1002 73 10000 1.5 0 14:18 29.12.2019
1520 Clouds -6 1001 73 10000 2.1 90 13:55 29.12.2019
1521 Clouds -6 1001 73 10000 2.1 90 13:37 29.12.2019
1522 Clouds -6 1001 73 10000 2.1 90 13:18 29.12.2019
1523 Clouds -7 1000 79 0 1.5 120 12:41 29.12.2019
1524 Clouds -7 1000 79 0 1.5 120 12:23 29.12.2019
1525 Clouds -6 1000 73 0 1 200 11:55 29.12.2019
1526 Clouds -6 1000 73 0 1 200 11:37 29.12.2019
1527 Clouds -6 1000 73 0 1 200 11:19 29.12.2019
1528 Clouds -7 999 79 0 2.1 100 10:41 29.12.2019
1529 Clouds -7 999 79 0 2.1 100 10:21 29.12.2019
1530 Clouds -6 998 73 0 2.1 0 09:54 29.12.2019
1531 Clouds -6 998 73 0 2.1 0 09:36 29.12.2019
1532 Clouds -6 998 73 0 2.1 0 09:18 29.12.2019
1533 Clouds -7 998 73 0 3.1 60 08:46 29.12.2019
1534 Clouds -7 998 73 0 3.1 60 08:24 29.12.2019
1535 Clouds -7 997 73 0 3.6 60 07:54 29.12.2019
1536 Clouds -7 997 73 0 3.6 60 07:28 29.12.2019
1537 Clouds -7 997 67 0 2.1 50 06:53 29.12.2019
1538 Clouds -7 997 67 0 2.1 50 06:24 29.12.2019
1539 Clouds -8 996 67 0 2.1 70 05:51 29.12.2019
1540 Clouds -8 996 78 0 2.6 50 04:36 29.12.2019
1541 Clouds -9 996 85 0 3.1 50 03:43 29.12.2019
1542 Clouds -9 996 85 0 3.1 50 03:19 29.12.2019
1543 Clouds -8 996 78 0 3.1 50 02:20 29.12.2019
1544 Clouds -8 996 78 0 3.1 50 02:20 29.12.2019
1545 Clouds -8 996 78 0 3.6 40 01:31 29.12.2019
1546 Clouds -7 995 79 0 4.6 10 00:57 29.12.2019
1547 Clouds -7 995 79 0 4.6 10 00:39 29.12.2019
1548 Clouds -7 995 79 0 4.6 10 00:21 29.12.2019
1549 Clouds -7 995 79 10000 4.6 10 23:42 28.12.2019
1550 Clouds -7 995 79 10000 4.6 10 23:42 28.12.2019
1551 Clouds -7 995 79 10000 4.6 10 23:18 28.12.2019
1552 Clouds -8 995 85 10000 5.1 360 22:39 28.12.2019
1553 Clouds -8 995 85 10000 5.1 360 22:39 28.12.2019
1554 Clouds -8 995 85 10000 5.1 360 22:20 28.12.2019
1555 Clouds -8 995 85 10000 4.6 20 21:58 28.12.2019
1556 Clouds -8 995 85 10000 4.6 20 21:58 28.12.2019
1557 Clouds -8 995 85 10000 4.6 20 21:39 28.12.2019
1558 Clouds -8 995 85 10000 4.6 20 21:21 28.12.2019
1559 Clouds -9 995 85 10000 4.6 50 20:57 28.12.2019
1560 Clouds -9 995 85 10000 4.6 50 20:37 28.12.2019
1561 Clouds -9 995 85 10000 4.6 50 20:37 28.12.2019
1562 Clouds -9 995 85 10000 4.6 50 20:19 28.12.2019
1563 Clouds -8 994 78 10000 4.1 50 19:57 28.12.2019
1564 Clouds -8 994 78 10000 4.1 50 19:39 28.12.2019
1565 Clouds -8 994 78 10000 4.1 50 19:20 28.12.2019
1566 Clouds -8 994 78 10000 5.7 60 18:57 28.12.2019
1567 Clouds -8 994 78 10000 5.7 60 18:39 28.12.2019
1568 Clouds -8 994 78 10000 5.7 60 18:18 28.12.2019
1569 Clouds -9 994 78 10000 5.7 60 17:54 28.12.2019
1570 Clouds -9 994 78 10000 5.7 60 17:36 28.12.2019
1571 Clouds -9 994 78 10000 5.7 60 17:18 28.12.2019
1572 Clouds -9 995 78 10000 5.1 60 16:45 28.12.2019
1573 Clouds -9 995 78 10000 5.1 60 16:24 28.12.2019
1574 Clouds -9 995 78 10000 5.1 70 15:44 28.12.2019
1575 Clouds -9 995 78 10000 5.1 70 15:24 28.12.2019
1576 Clouds -10 995 78 10000 3.6 70 14:58 28.12.2019
1577 Clouds -10 995 78 10000 3.6 70 14:38 28.12.2019
1578 Clouds -10 995 78 10000 3.6 70 14:20 28.12.2019
1579 Clouds -10 994 85 10000 4.1 70 13:43 28.12.2019
1580 Clouds -10 994 85 10000 4.1 70 13:24 28.12.2019
1581 Clouds -11 994 78 10000 2.6 110 12:59 28.12.2019
1582 Clouds -11 994 78 10000 2.6 110 12:41 28.12.2019
1583 Clouds -11 994 78 10000 2.6 110 12:23 28.12.2019
1584 Clear -11 994 85 0 3.6 90 11:56 28.12.2019
1585 Clear -11 994 85 0 3.6 90 11:37 28.12.2019
1586 Clear -11 994 85 0 3.6 90 11:18 28.12.2019
1587 Clear -11 994 85 0 2.6 60 10:43 28.12.2019
1588 Clear -11 994 85 0 2.6 60 10:21 28.12.2019
1589 Clear -11 994 85 0 3.1 80 09:57 28.12.2019
1590 Clear -11 994 85 0 3.1 80 09:39 28.12.2019
1591 Clear -11 994 85 0 3.1 80 09:19 28.12.2019
1592 Clear -10 993 78 0 3.6 70 08:44 28.12.2019
1593 Clear -10 993 78 0 3.6 70 08:26 28.12.2019
1594 Clear -11 993 85 0 3.1 100 07:53 28.12.2019
1595 Clear -11 993 85 0 3.1 100 07:30 28.12.2019
1596 Clear -11 992 78 0 2.1 100 06:27 28.12.2019
1597 Clear -11 993 78 0 3.1 100 04:51 28.12.2019
1598 Clear -11 993 78 0 2.6 100 03:47 28.12.2019
1599 Clear -11 993 78 0 2.6 100 02:48 28.12.2019
1600 Clear -11 993 85 0 2.1 100 01:59 28.12.2019
1601 Clear -11 993 85 0 2.1 100 01:30 28.12.2019
1602 Clouds -11 994 85 10000 2.1 110 00:58 28.12.2019
1603 Clouds -11 994 85 10000 2.1 110 00:40 28.12.2019
1604 Clouds -11 994 85 10000 2.1 110 00:20 28.12.2019
1605 Clouds -11 994 78 10000 2.1 110 23:44 27.12.2019
1606 Clouds -11 994 78 10000 2.1 110 23:20 27.12.2019
1607 Clouds -11 994 85 10000 3.1 90 22:58 27.12.2019
1608 Clouds -11 994 85 10000 3.1 90 22:39 27.12.2019
1609 Clouds -11 994 85 10000 3.1 90 22:20 27.12.2019
1610 Clouds -10 994 85 10000 2.1 90 21:56 27.12.2019
1611 Clouds -9 994 85 10000 2.1 90 21:37 27.12.2019
1612 Clouds -9 994 85 10000 2.1 90 21:19 27.12.2019
1613 Clouds -11 995 85 10000 2.6 90 20:42 27.12.2019
1614 Clouds -11 995 85 10000 2.6 90 20:23 27.12.2019
1615 Clouds -11 995 85 10000 2.6 100 19:54 27.12.2019
1616 Clouds -11 995 85 10000 2.6 100 19:36 27.12.2019
1617 Clouds -11 995 85 10000 2.6 100 19:18 27.12.2019
1618 Clouds -10 995 78 10000 2.1 90 18:40 27.12.2019
1619 Clouds -10 995 78 10000 2.1 90 18:22 27.12.2019
1620 Clouds -10 996 78 10000 2.1 90 17:58 27.12.2019
1621 Clouds -10 996 78 10000 2.1 90 17:40 27.12.2019
1622 Clouds -10 996 78 10000 2.1 90 17:19 27.12.2019
1623 Clouds -10 996 78 10000 3.1 90 16:59 27.12.2019
1624 Clouds -9 996 78 10000 3.1 90 16:39 27.12.2019
1625 Clouds -10 997 78 10000 2.6 60 16:20 27.12.2019
1626 Clouds -10 997 78 10000 2.6 60 15:45 27.12.2019
1627 Clouds -10 997 78 10000 2.6 60 15:23 27.12.2019
1628 Clouds -9 998 78 10000 3.6 70 14:58 27.12.2019
1629 Clouds -9 998 78 10000 3.6 70 14:40 27.12.2019
1630 Clouds -9 998 78 10000 3.6 70 14:21 27.12.2019
1631 Clouds -10 998 85 10000 2.6 90 13:58 27.12.2019
1632 Clouds -10 998 85 10000 2.6 90 13:40 27.12.2019
1633 Clouds -10 998 85 10000 2.6 90 13:21 27.12.2019
1634 Clouds -9 999 85 10000 2.1 60 12:44 27.12.2019
1635 Clouds -9 999 85 10000 2.1 60 12:26 27.12.2019
1636 Clear -10 999 85 10000 2.6 70 11:55 27.12.2019
1637 Clear -10 999 85 10000 2.6 70 11:37 27.12.2019
1638 Clear -10 999 85 10000 2.6 70 11:18 27.12.2019
1639 Clouds -10 1000 85 10000 2.1 70 10:41 27.12.2019
1640 Clouds -10 1000 85 10000 2.1 70 10:23 27.12.2019
1641 Clear -9 1000 78 0 2.6 60 09:49 27.12.2019
1642 Clear -9 1000 78 0 2.6 60 09:22 27.12.2019
1643 Clear -9 1001 72 0 3.1 60 08:59 27.12.2019
1644 Clear -9 1001 72 0 3.1 60 08:41 27.12.2019
1645 Clear -9 1001 72 0 3.1 60 08:22 27.12.2019
1646 Clear -10 1002 85 0 2.6 60 07:38 27.12.2019
1647 Clear -9 1002 85 0 3.1 30 06:59 27.12.2019
1648 Clear -9 1002 85 0 3.1 30 06:23 27.12.2019
1649 Clear -10 1004 85 0 3.1 50 04:39 27.12.2019
1650 Clear -10 1005 85 0 4.1 70 02:28 27.12.2019
1651 Clear -9 1006 85 0 3.6 40 01:45 27.12.2019
1652 Clear -9 1006 85 0 3.6 40 01:23 27.12.2019
1653 Clear -9 1007 85 0 3.1 40 00:47 27.12.2019
1654 Clear -9 1007 85 0 3.1 40 00:27 27.12.2019
1655 Clear -9 1007 85 0 3.6 30 23:56 26.12.2019
1656 Clear -9 1007 85 0 3.6 30 23:38 26.12.2019
1657 Clear -9 1007 85 0 3.6 30 23:20 26.12.2019
1658 Clear -8 1008 85 0 4.6 10 22:41 26.12.2019
1659 Clear -8 1008 85 0 4.6 10 22:19 26.12.2019
1660 Clouds -8 1008 85 10000 4.1 50 21:40 26.12.2019
1661 Clouds -8 1008 85 10000 4.1 50 21:22 26.12.2019
1662 Clouds -9 1009 78 10000 4.1 50 20:59 26.12.2019
1663 Clouds -9 1009 78 10000 4.1 50 20:40 26.12.2019
1664 Clouds -9 1009 78 10000 4.1 50 20:22 26.12.2019
1665 Clouds -10 1009 85 10000 3.1 50 19:57 26.12.2019
1666 Clouds -10 1009 85 10000 3.1 50 19:38 26.12.2019
1667 Clouds -10 1009 85 10000 3.1 50 19:20 26.12.2019
1668 Clouds -9 1010 85 10000 4.6 360 18:57 26.12.2019
1669 Clouds -8 1010 85 10000 4.6 360 18:37 26.12.2019
1670 Clouds -8 1010 85 10000 4.6 360 18:18 26.12.2019
1671 Clouds -8 1010 78 10000 3.1 40 17:42 26.12.2019
1672 Clouds -8 1010 78 10000 3.1 40 17:42 26.12.2019
1673 Clouds -8 1010 78 10000 3.1 40 17:22 26.12.2019
1674 Clouds -7 1011 85 10000 3.6 20 16:54 26.12.2019
1675 Clouds -7 1011 85 10000 3.6 20 16:36 26.12.2019
1676 Clouds -7 1011 85 10000 3.6 20 16:36 26.12.2019
1677 Clouds -7 1011 85 10000 3.6 20 16:18 26.12.2019
1678 Clouds -7 1012 85 10000 3.6 360 15:41 26.12.2019
1679 Clouds -7 1012 85 10000 3.6 360 15:20 26.12.2019
1680 Clouds -8 1012 92 10000 3.1 40 14:54 26.12.2019
1681 Clouds -8 1012 92 10000 3.1 40 14:36 26.12.2019
1682 Clouds -8 1012 92 10000 3.1 40 14:36 26.12.2019
1683 Clouds -8 1012 92 10000 3.1 40 14:18 26.12.2019
1684 Clouds -7 1012 85 10000 4.1 10 13:42 26.12.2019
1685 Clouds -7 1012 85 10000 4.1 10 13:20 26.12.2019
1686 Clear -8 1012 85 0 2.6 30 12:56 26.12.2019
1687 Clear -9 1012 85 0 2.6 30 12:37 26.12.2019
1688 Clear -9 1012 85 0 2.6 30 12:19 26.12.2019
1689 Clear -9 1013 85 0 3.1 50 11:56 26.12.2019
1690 Clear -9 1013 85 0 3.1 50 11:37 26.12.2019
1691 Clear -9 1013 85 0 3.1 50 11:37 26.12.2019
1692 Clear -9 1013 85 0 3.1 50 11:19 26.12.2019
1693 Clear -9 1013 85 0 2.6 40 10:41 26.12.2019
1694 Clear -9 1013 85 0 2.6 40 10:18 26.12.2019
1695 Clear -8 1013 85 0 2.6 30 09:43 26.12.2019
1696 Clear -8 1013 85 0 2.6 30 09:25 26.12.2019
1697 Clear -9 1013 78 0 2.1 40 08:42 26.12.2019
1698 Clear -9 1013 78 0 2.1 40 08:23 26.12.2019
1699 Clear -9 1013 85 0 4.1 60 07:52 26.12.2019
1700 Clear -9 1013 85 0 4.1 60 07:26 26.12.2019
1701 Clear -9 1013 85 0 3.6 50 06:52 26.12.2019
1702 Clear -9 1013 85 0 3.6 50 06:31 26.12.2019
1703 Clear -7 1013 85 0 3.1 40 05:45 26.12.2019
1704 Clear -8 1013 78 0 2.6 30 04:48 26.12.2019
1705 Clear -8 1013 78 0 2.6 30 04:29 26.12.2019
1706 Clear -8 1013 72 0 4.6 70 02:54 26.12.2019
1707 Clear -8 1013 72 0 4.6 70 02:34 26.12.2019
1708 Clear -8 1013 78 0 4.6 60 01:46 26.12.2019
1709 Clear -8 1013 78 0 4.6 60 01:28 26.12.2019
1710 Clear -8 1013 78 0 5.1 60 00:49 26.12.2019
1711 Clear -8 1013 78 0 5.1 60 00:27 26.12.2019
1712 Clear -8 1013 78 0 5.1 70 23:58 25.12.2019
1713 Clear -8 1013 78 0 5.1 70 23:39 25.12.2019
1714 Clear -8 1013 78 0 5.1 70 23:21 25.12.2019
1715 Clear -8 1013 78 0 5.7 70 22:59 25.12.2019
1716 Clear -8 1013 78 0 5.7 70 22:39 25.12.2019
1717 Clear -8 1013 78 0 5.7 70 22:20 25.12.2019
1718 Clear -8 1013 78 0 5.1 70 21:58 25.12.2019
1719 Clear -8 1013 78 0 5.1 70 21:39 25.12.2019
1720 Clear -8 1013 78 0 5.1 70 21:20 25.12.2019
1721 Clear -8 1013 78 0 5.7 80 20:56 25.12.2019
1722 Clear -8 1013 78 0 5.7 80 20:38 25.12.2019
1723 Clouds -8 1013 78 0 5.7 80 20:18 25.12.2019
1724 Clouds -8 1013 78 0 5.7 80 20:18 25.12.2019
1725 Clouds -8 1013 78 0 5.7 80 20:18 25.12.2019
1726 Clouds -8 1012 78 0 5.1 70 19:43 25.12.2019
1727 Clouds -8 1012 78 0 5.1 70 19:24 25.12.2019
1728 Clouds -8 1012 73 0 5.1 70 18:58 25.12.2019
1729 Clouds -7 1012 73 0 5.1 70 18:37 25.12.2019
1730 Clouds -7 1012 73 0 5.1 70 18:18 25.12.2019
1731 Clouds -7 1013 73 0 5.1 60 17:41 25.12.2019
1732 Clouds -7 1013 73 0 5.1 60 17:19 25.12.2019
1733 Clouds -7 1013 73 0 4.6 70 16:58 25.12.2019
1734 Clouds -7 1013 73 0 4.6 70 16:37 25.12.2019
1735 Clouds -7 1013 73 0 4.6 70 16:18 25.12.2019
1736 Clouds -7 1013 73 0 5.1 80 15:57 25.12.2019
1737 Clouds -7 1013 73 0 5.1 80 15:57 25.12.2019
1738 Clouds -7 1013 73 0 5.1 80 15:38 25.12.2019
1739 Clouds -7 1013 73 0 5.1 80 15:20 25.12.2019
1740 Clouds -7 1013 67 0 5.1 70 14:57 25.12.2019
1741 Clouds -7 1013 67 0 5.1 70 14:39 25.12.2019
1742 Clouds -7 1013 67 0 5.1 70 14:39 25.12.2019
1743 Clouds -7 1013 67 0 5.1 70 14:20 25.12.2019
1744 Clouds -6 1013 67 0 6.2 80 13:44 25.12.2019
1745 Clouds -6 1013 67 0 6.2 80 13:21 25.12.2019
1746 Clouds -6 1013 67 0 6.7 90 12:57 25.12.2019
1747 Clouds -6 1013 67 0 6.7 90 12:38 25.12.2019
1748 Clouds -6 1013 67 0 6.7 90 12:38 25.12.2019
1749 Clouds -6 1013 67 0 6.7 90 12:19 25.12.2019
1750 Clouds -6 1013 67 0 5.7 90 11:43 25.12.2019
1751 Clouds -6 1013 67 0 5.7 90 11:22 25.12.2019
1752 Clouds -6 1013 67 0 7.2 90 10:59 25.12.2019
1753 Clouds -6 1013 67 0 7.2 90 10:37 25.12.2019
1754 Clouds -6 1013 67 0 7.2 90 10:19 25.12.2019
1755 Clouds -6 1013 67 0 6.2 80 09:44 25.12.2019
1756 Clouds -6 1013 67 0 6.2 80 09:26 25.12.2019
1757 Clouds -6 1013 73 0 5.7 80 08:46 25.12.2019
1758 Clear -6 1013 73 0 5.7 80 08:26 25.12.2019
1759 Clear -5 1013 67 0 5.7 80 07:48 25.12.2019
1760 Clear -5 1013 67 0 5.7 80 07:29 25.12.2019
1761 Clear -5 1013 67 0 4.6 70 06:49 25.12.2019
1762 Clear -5 1013 67 0 4.6 70 06:22 25.12.2019
1763 Clear -5 1013 73 0 5.1 60 05:18 25.12.2019
1764 Clear -4 1013 62 0 5.7 70 04:38 25.12.2019
1765 Clear -4 1013 68 0 5.7 60 03:58 25.12.2019
1766 Clear -4 1013 68 0 5.7 60 03:40 25.12.2019
1767 Clear -4 1013 62 0 5.7 80 02:39 25.12.2019
1768 Clear -4 1013 62 0 6.2 70 01:59 25.12.2019
1769 Clear -4 1013 62 0 6.2 70 01:25 25.12.2019
1770 Clear -4 1014 62 0 5.1 80 00:50 25.12.2019
1771 Clear -4 1014 62 0 5.1 80 00:29 25.12.2019
1772 Clear -5 1013 67 0 5.1 70 23:56 24.12.2019
1773 Clear -5 1013 67 0 5.1 70 23:37 24.12.2019
1774 Clear -5 1013 67 0 5.1 70 23:19 24.12.2019
1775 Clear -4 1013 68 0 4.6 100 22:40 24.12.2019
1776 Clear -4 1013 68 0 4.6 100 22:21 24.12.2019
1777 Snow -4 1013 62 0 5.1 80 21:43 24.12.2019
1778 Snow -4 1013 62 0 5.1 80 21:22 24.12.2019
1779 Snow -4 1013 68 0 5.1 70 20:55 24.12.2019
1780 Snow -4 1013 68 0 5.1 70 20:36 24.12.2019
1781 Snow -4 1013 68 0 5.1 70 20:18 24.12.2019
1782 Clear -4 1013 68 0 5.7 60 19:43 24.12.2019
1783 Clear -4 1013 68 0 5.7 60 19:19 24.12.2019
1784 Snow -4 1013 68 0 6.7 70 18:43 24.12.2019
1785 Snow -4 1013 68 0 6.7 70 18:24 24.12.2019
1786 Clear -4 1012 68 0 6.2 70 17:58 24.12.2019
1787 Clear -4 1012 68 0 6.2 70 17:38 24.12.2019
1788 Clear -4 1012 68 0 6.2 70 17:20 24.12.2019
1789 Snow -4 1012 62 0 4.1 80 16:55 24.12.2019
1790 Snow -4 1012 62 0 4.1 80 16:37 24.12.2019
1791 Snow -4 1012 62 0 4.1 80 16:19 24.12.2019
1792 Snow -4 1012 62 0 4.1 80 16:19 24.12.2019
1793 Clear -4 1012 68 0 6.2 70 15:55 24.12.2019
1794 Clear -4 1012 68 0 6.2 70 15:36 24.12.2019
1795 Clear -4 1012 68 0 6.2 70 15:18 24.12.2019
1796 Clear -4 1012 62 0 4.6 80 14:55 24.12.2019
1797 Clear -4 1012 62 0 4.6 80 14:36 24.12.2019
1798 Clear -4 1012 62 0 4.6 80 14:18 24.12.2019
1799 Snow -5 1012 73 0 5.1 80 13:55 24.12.2019
1800 Snow -5 1012 73 0 5.1 80 13:37 24.12.2019
1801 Snow -5 1012 73 0 5.1 80 13:18 24.12.2019
1802 Snow -4 1011 68 0 4.6 60 12:55 24.12.2019
1803 Snow -4 1011 68 0 4.6 60 12:36 24.12.2019
1804 Snow -4 1011 68 0 4.6 60 12:18 24.12.2019
1805 Snow -5 1011 73 0 4.6 80 11:54 24.12.2019
1806 Snow -5 1011 73 0 4.6 80 11:36 24.12.2019
1807 Snow -5 1011 73 0 4.6 80 11:36 24.12.2019
1808 Snow -5 1011 73 0 4.6 80 11:18 24.12.2019
1809 Clouds -4 1011 68 0 3.6 60 10:55 24.12.2019
1810 Clouds -4 1011 68 0 3.6 60 10:36 24.12.2019
1811 Clouds -4 1011 68 0 3.6 60 10:18 24.12.2019
1812 Clouds -4 1010 68 0 1.5 80 09:54 24.12.2019
1813 Clouds -4 1010 68 0 1.5 80 09:36 24.12.2019
1814 Clouds -4 1010 68 0 1.5 80 09:18 24.12.2019
1815 Clouds -5 1010 73 0 4.6 80 08:42 24.12.2019
1816 Clouds -5 1010 73 0 4.6 80 08:19 24.12.2019
1817 Clouds -5 1009 73 0 2.1 0 07:45 24.12.2019
1818 Clouds -5 1009 73 0 2.1 0 07:24 24.12.2019
1819 Clouds -5 1009 73 0 2.1 0 07:24 24.12.2019
1820 Snow -5 1009 73 0 0.5 0 06:44 24.12.2019
1821 Snow -5 1009 73 0 0.5 0 06:22 24.12.2019
1822 Snow -5 1009 73 0 2.1 70 05:57 24.12.2019
1823 Snow -5 1009 73 0 2.1 70 05:20 24.12.2019
1824 Snow -5 1008 73 0 2.6 50 04:36 24.12.2019
1825 Clouds -5 1008 73 0 4.6 60 03:50 24.12.2019
1826 Snow -5 1008 73 0 4.6 60 02:59 24.12.2019
1827 Snow -5 1008 73 0 4.6 60 02:19 24.12.2019
1828 Clouds -5 1008 73 0 4.1 60 01:42 24.12.2019
1829 Clouds -5 1008 73 0 4.1 60 01:20 24.12.2019
1830 Clouds -5 1008 79 0 4.1 50 00:43 24.12.2019
1831 Clouds -5 1008 79 0 4.1 50 00:23 24.12.2019
1832 Clouds -5 1008 79 0 3.6 50 23:55 23.12.2019
1833 Clouds -5 1008 79 0 3.6 50 23:37 23.12.2019
1834 Clear -5 1008 79 0 3.6 50 23:19 23.12.2019
1835 Clear -5 1008 79 0 3.1 60 22:54 23.12.2019
1836 Clear -5 1008 79 0 3.1 60 22:36 23.12.2019
1837 Clear -5 1008 79 0 3.1 60 22:18 23.12.2019
1838 Clear -6 1008 85 0 3.1 60 21:55 23.12.2019
1839 Clear -6 1008 85 0 3.1 60 21:36 23.12.2019
1840 Clear -6 1008 85 0 3.1 60 21:18 23.12.2019
1841 Clouds -6 1008 79 10000 1 90 20:56 23.12.2019
1842 Clouds -6 1008 79 10000 1 90 20:38 23.12.2019
1843 Clouds -6 1008 79 10000 1 90 20:18 23.12.2019
1844 Clouds -8 1007 78 10000 2.1 100 19:54 23.12.2019
1845 Clouds -8 1007 78 10000 2.1 100 19:36 23.12.2019
1846 Clouds -8 1007 78 10000 2.1 100 19:18 23.12.2019
1847 Clouds -8 1007 85 10000 2.6 100 18:55 23.12.2019
1848 Clouds -8 1007 85 10000 2.6 100 18:36 23.12.2019
1849 Clouds -8 1007 85 10000 2.6 100 18:18 23.12.2019
1850 Clouds -8 1007 85 10000 2.1 100 17:55 23.12.2019
1851 Clouds -8 1007 85 10000 2.1 100 17:37 23.12.2019
1852 Clouds -8 1007 85 10000 2.1 100 17:18 23.12.2019
1853 Clouds -8 1007 85 10000 2.1 120 16:42 23.12.2019
1854 Clouds -8 1007 85 10000 2.1 120 16:19 23.12.2019
1855 Clouds -8 1007 85 10000 2.1 110 15:58 23.12.2019
1856 Clouds -8 1007 85 10000 2.1 110 15:38 23.12.2019
1857 Clouds -8 1007 85 10000 2.1 110 15:19 23.12.2019
1858 Clouds -8 1007 85 10000 2.1 100 14:58 23.12.2019
1859 Clouds -8 1007 85 10000 2.1 100 14:39 23.12.2019
1860 Clouds -8 1007 85 10000 2.1 100 14:21 23.12.2019
1861 Clouds -9 1007 92 10000 2.1 110 13:58 23.12.2019
1862 Clouds -9 1007 92 10000 2.1 110 13:40 23.12.2019
1863 Clouds -9 1007 92 10000 2.1 110 13:22 23.12.2019
1864 Clouds -8 1007 85 10000 2.1 110 12:56 23.12.2019
1865 Clouds -8 1007 85 10000 2.1 110 12:37 23.12.2019
1866 Clouds -8 1007 85 10000 2.1 110 12:19 23.12.2019
1867 Clear -9 1006 92 0 2.1 100 11:44 23.12.2019
1868 Clear -9 1006 92 0 2.1 100 11:25 23.12.2019
1869 Clear -8 1006 78 0 1.5 110 10:57 23.12.2019
1870 Clear -8 1006 78 0 1.5 110 10:57 23.12.2019
1871 Clear -8 1006 78 0 1.5 110 10:39 23.12.2019
1872 Clear -8 1006 78 0 1.5 110 10:20 23.12.2019
1873 Clear -8 1006 92 0 2.6 90 09:59 23.12.2019
1874 Clear -8 1006 92 0 2.6 90 09:39 23.12.2019
1875 Clear -8 1006 92 0 2.6 90 09:20 23.12.2019
1876 Clear -8 1006 85 0 2.1 110 08:56 23.12.2019
1877 Clear -8 1006 85 0 2.1 110 08:38 23.12.2019
1878 Clouds -8 1006 85 0 2.1 110 08:19 23.12.2019
1879 Clouds -7 1005 85 0 2.1 100 07:43 23.12.2019
1880 Clouds -7 1005 85 0 2.1 100 07:20 23.12.2019
1881 Clouds -7 1005 85 0 2.1 40 06:53 23.12.2019
1882 Clouds -7 1005 85 0 2.1 40 06:25 23.12.2019
1883 Clouds -7 1005 92 0 2.1 40 05:50 23.12.2019
1884 Clouds -7 1005 92 0 2.1 40 05:27 23.12.2019
1885 Clouds -7 1005 92 0 3.1 30 04:31 23.12.2019
1886 Clouds -7 1005 85 0 3.1 40 02:58 23.12.2019
1887 Clouds -7 1005 85 0 3.1 40 02:40 23.12.2019
1888 Clouds -7 1005 85 0 3.1 40 02:18 23.12.2019
1889 Clouds -7 1005 85 0 3.1 40 02:18 23.12.2019
1890 Clouds -7 1005 92 0 3.1 50 01:41 23.12.2019
1891 Clouds -7 1005 92 0 3.1 50 01:19 23.12.2019
1892 Clouds -7 1005 92 0 4.1 10 00:43 23.12.2019
1893 Clouds -7 1005 92 0 4.1 10 00:21 23.12.2019
1894 Clouds -7 1005 85 0 3.1 40 23:39 22.12.2019
1895 Clouds -7 1005 85 0 3.1 40 23:21 22.12.2019
1896 Clouds -7 1005 92 10000 3.1 40 22:58 22.12.2019
1897 Clouds -7 1005 92 10000 3.1 40 22:39 22.12.2019
1898 Clouds -7 1005 92 10000 3.1 40 22:19 22.12.2019
1899 Clouds -7 1005 85 10000 3.6 10 21:57 22.12.2019
1900 Clouds -6 1005 85 10000 3.6 10 21:39 22.12.2019
1901 Clouds -6 1005 85 10000 3.6 10 21:21 22.12.2019
1902 Clouds -7 1004 85 10000 3.6 10 20:58 22.12.2019
1903 Clouds -7 1004 85 10000 3.6 10 20:38 22.12.2019
1904 Clouds -7 1004 85 10000 3.6 10 20:18 22.12.2019
1905 Clouds -6 1004 85 10000 3.1 40 19:55 22.12.2019
1906 Clouds -6 1004 85 10000 3.1 40 19:37 22.12.2019
1907 Clouds -6 1004 85 10000 3.1 40 19:19 22.12.2019
1908 Clouds -6 1004 85 10000 4.1 50 18:40 22.12.2019
1909 Clouds -6 1004 85 10000 4.1 50 18:22 22.12.2019
1910 Clouds -6 1004 85 10000 4.6 360 17:55 22.12.2019
1911 Clouds -5 1004 85 10000 4.6 360 17:37 22.12.2019
1912 Clouds -5 1004 85 10000 4.6 360 17:18 22.12.2019
1913 Clouds -5 1004 85 10000 4.6 360 16:57 22.12.2019
1914 Clouds -5 1004 85 10000 4.6 360 16:38 22.12.2019
1915 Clouds -5 1004 85 10000 4.6 360 16:19 22.12.2019
1916 Clouds -5 1003 79 10000 5.7 30 15:56 22.12.2019
1917 Clouds -5 1003 79 10000 5.7 30 15:37 22.12.2019
1918 Clouds -5 1003 79 10000 5.7 30 15:19 22.12.2019
1919 Clouds -6 1003 85 10000 5.1 30 14:54 22.12.2019
1920 Clouds -6 1003 85 10000 5.1 30 14:36 22.12.2019
1921 Clouds -6 1003 85 10000 5.1 30 14:18 22.12.2019
1922 Clouds -6 1003 73 10000 5.1 30 13:55 22.12.2019
1923 Clouds -6 1003 73 10000 5.1 30 13:36 22.12.2019
1924 Clouds -6 1003 73 10000 5.1 30 13:18 22.12.2019
1925 Clouds -6 1003 79 0 4.1 30 12:55 22.12.2019
1926 Clouds -6 1003 79 0 4.1 30 12:37 22.12.2019
1927 Clouds -6 1003 79 0 4.1 30 12:18 22.12.2019
1928 Clouds -6 1002 85 0 4.1 30 11:54 22.12.2019
1929 Clouds -6 1002 85 0 4.1 30 11:36 22.12.2019
1930 Clouds -6 1002 85 0 4.1 30 11:18 22.12.2019
1931 Clouds -6 1002 85 0 4.1 20 10:54 22.12.2019
1932 Clouds -6 1002 85 0 4.1 20 10:36 22.12.2019
1933 Clouds -6 1002 85 0 4.1 20 10:18 22.12.2019
1934 Clouds -6 1002 73 0 4.6 30 09:41 22.12.2019
1935 Clouds -6 1002 73 0 4.6 30 09:22 22.12.2019
1936 Clouds -6 1001 73 0 5.1 50 08:59 22.12.2019
1937 Clouds -6 1001 73 0 5.1 50 08:38 22.12.2019
1938 Clouds -6 1001 73 0 5.1 50 08:20 22.12.2019
1939 Clouds -7 1001 79 0 5.7 50 07:39 22.12.2019
1940 Clouds -7 1001 79 0 5.7 50 07:20 22.12.2019
1941 Clouds -7 1000 79 0 6.7 60 06:41 22.12.2019
1942 Clouds -8 1000 78 0 6.7 70 05:54 22.12.2019
1943 Clouds -8 1000 78 0 6.7 70 05:23 22.12.2019
1944 Clouds -7 1000 73 0 6.7 20 04:30 22.12.2019
1945 Clouds -7 1001 79 10000 6.2 10 03:56 22.12.2019
1946 Clouds -7 1001 67 10000 5.1 20 02:42 22.12.2019
1947 Clouds -7 1001 67 10000 4.6 20 01:54 22.12.2019
1948 Clouds -7 1001 67 10000 4.6 20 01:30 22.12.2019
1949 Clouds -7 1001 67 10000 5.7 20 00:48 22.12.2019
1950 Clouds -7 1001 67 10000 5.7 20 00:26 22.12.2019
1951 Clouds -7 1001 73 10000 6.2 10 23:57 21.12.2019
1952 Clouds -7 1001 73 10000 6.2 10 23:38 21.12.2019
1953 Clouds -7 1001 73 10000 6.2 10 23:19 21.12.2019
1954 Clouds -7 1001 67 10000 6.7 20 22:45 21.12.2019
1955 Clouds -7 1001 67 10000 6.7 20 22:20 21.12.2019
1956 Clouds -7 1001 73 10000 5.7 360 21:58 21.12.2019
1957 Clouds -7 1001 73 10000 5.7 360 21:38 21.12.2019
1958 Clouds -7 1001 73 10000 5.7 360 21:20 21.12.2019
1959 Clouds -7 1001 79 10000 7.7 20 20:59 21.12.2019
1960 Clouds -7 1001 79 10000 7.7 20 20:40 21.12.2019
1961 Clouds -7 1001 79 10000 7.7 20 20:22 21.12.2019
1962 Clouds -7 1001 73 10000 5.7 350 19:58 21.12.2019
1963 Clouds -7 1001 73 10000 5.7 350 19:40 21.12.2019
1964 Clouds -7 1001 73 10000 5.7 350 19:19 21.12.2019
1965 Clouds -6 1001 73 10000 6.7 10 18:56 21.12.2019
1966 Clouds -6 1001 73 10000 6.7 10 18:37 21.12.2019
1967 Clouds -6 1001 73 10000 6.7 10 18:19 21.12.2019
1968 Clouds -7 1001 79 10000 5.1 360 17:55 21.12.2019
1969 Clouds -7 1001 79 10000 5.1 360 17:55 21.12.2019
1970 Clouds -7 1001 79 10000 5.1 360 17:55 21.12.2019
1971 Clouds -7 1001 79 10000 5.1 360 17:37 21.12.2019
1972 Clouds -7 1001 79 10000 5.1 360 17:18 21.12.2019
1973 Clouds -7 1001 79 10000 5.1 360 17:18 21.12.2019
1974 Clouds -6 1001 79 10000 4.6 20 16:41 21.12.2019
1975 Clouds -6 1001 79 10000 4.6 20 16:19 21.12.2019
1976 Clouds -6 1001 79 10000 4.6 20 16:19 21.12.2019
1977 Clouds -7 1001 73 10000 4.1 60 15:58 21.12.2019
1978 Clouds -7 1001 73 10000 4.1 60 15:39 21.12.2019
1979 Clouds -7 1001 73 10000 4.1 60 15:20 21.12.2019
1980 Clouds -6 1001 73 10000 4.6 70 14:59 21.12.2019
1981 Clouds -6 1001 73 10000 4.6 70 14:40 21.12.2019
1982 Clouds -6 1001 73 10000 4.6 70 14:22 21.12.2019
1983 Clouds -6 1001 73 10000 3.6 80 13:57 21.12.2019
1984 Clouds -6 1001 73 10000 3.6 80 13:38 21.12.2019
1985 Clouds -6 1001 73 10000 3.6 80 13:18 21.12.2019
1986 Clouds -7 1001 73 10000 2.1 130 12:56 21.12.2019
1987 Clouds -7 1001 73 10000 2.1 130 12:37 21.12.2019
1988 Clouds -7 1001 73 10000 2.1 130 12:19 21.12.2019
1989 Clouds -7 1001 73 10000 2.6 110 11:45 21.12.2019
1990 Clouds -7 1001 73 10000 2.6 110 11:26 21.12.2019
1991 Clouds -7 1000 73 0 2.1 100 10:57 21.12.2019
1992 Clouds -7 1000 73 0 2.1 100 10:39 21.12.2019
1993 Clouds -7 1000 73 0 2.1 100 10:21 21.12.2019
1994 Clouds -6 1000 73 0 2.6 120 09:56 21.12.2019
1995 Clouds -6 1000 73 0 2.6 120 09:56 21.12.2019
1996 Clouds -6 1000 73 0 2.6 120 09:38 21.12.2019
1997 Clouds -6 1000 73 0 2.6 120 09:19 21.12.2019
1998 Clouds -6 1000 79 0 2.1 80 08:46 21.12.2019
1999 Clouds -6 1000 79 0 2.1 80 08:26 21.12.2019
2000 Clouds -6 999 73 0 2.1 120 07:47 21.12.2019
2001 Clouds -6 999 73 0 2.1 120 07:23 21.12.2019
2002 Clouds -6 999 73 0 2.1 120 07:23 21.12.2019
2003 Clouds -7 999 73 0 2.6 0 06:46 21.12.2019
2004 Clouds -7 999 73 0 2.6 0 06:28 21.12.2019
2005 Clouds -7 1000 73 0 1 160 05:58 21.12.2019
2006 Clouds -6 1000 62 0 3.1 70 04:58 21.12.2019
2007 Clouds -6 1000 62 0 3.1 70 04:19 21.12.2019
2008 Clouds -6 1000 57 0 3.1 20 03:56 21.12.2019
2009 Clouds -4 1000 53 0 4.1 20 02:19 21.12.2019
2010 Clouds -5 1000 57 10000 4.1 60 01:41 21.12.2019
2011 Clouds -5 1000 57 10000 4.1 60 01:23 21.12.2019
2012 Clouds -5 1001 85 10000 5.1 20 00:39 21.12.2019
2013 Clouds -5 1001 85 10000 5.1 20 00:19 21.12.2019
2014 Clouds -5 1001 92 10000 1.5 160 23:38 20.12.2019
2015 Clouds -5 1001 92 10000 1.5 160 23:20 20.12.2019
2016 Snow -4 1001 85 10000 2.6 160 22:57 20.12.2019
2017 Snow -4 1001 85 10000 2.6 160 22:36 20.12.2019
2018 Snow -4 1001 85 10000 2.6 160 22:18 20.12.2019
2019 Snow -5 1001 85 10000 1.5 190 21:41 20.12.2019
2020 Snow -5 1001 85 10000 1.5 190 21:21 20.12.2019
2021 Snow -5 1001 85 10000 1.5 190 21:21 20.12.2019
2022 Snow -5 1001 85 8000 1.5 240 20:57 20.12.2019
2023 Snow -5 1001 85 8000 1.5 240 20:38 20.12.2019
2024 Snow -5 1001 85 8000 1.5 240 20:19 20.12.2019
2025 Snow -5 1001 92 5000 2.1 90 19:42 20.12.2019
2026 Snow -5 1001 92 5000 2.1 90 19:21 20.12.2019
2027 Rain -5 1002 79 10000 1.5 100 18:58 20.12.2019
2028 Rain -5 1002 79 10000 1.5 100 18:39 20.12.2019
2029 Rain -5 1002 79 10000 1.5 100 18:21 20.12.2019
2030 Rain -5 1002 85 10000 2.71 265 17:56 20.12.2019
2031 Rain -5 1002 85 10000 2.71 265 17:56 20.12.2019
2032 Rain -5 1002 85 10000 2.71 265 17:38 20.12.2019
2033 Rain -5 1002 85 10000 4.81 155 17:20 20.12.2019
2034 Rain -4 1003 85 10000 0.5 200 16:56 20.12.2019
2035 Rain -4 1003 85 10000 0.5 200 16:37 20.12.2019
2036 Rain -4 1003 85 10000 0.5 200 16:19 20.12.2019
2037 Snow -4 1004 92 2100 0.5 220 15:54 20.12.2019
2038 Snow -4 1004 92 2100 0.5 220 15:36 20.12.2019
2039 Snow -4 1004 92 2100 0.5 220 15:18 20.12.2019
2040 Snow -4 1004 92 3000 2.6 160 14:42 20.12.2019
2041 Snow -4 1004 92 3000 2.6 160 14:23 20.12.2019
2042 Snow -4 1004 85 3700 2.1 160 13:57 20.12.2019
2043 Snow -4 1004 85 3700 2.1 160 13:37 20.12.2019
2044 Snow -4 1004 85 3700 2.1 160 13:18 20.12.2019
2045 Snow -4 1004 85 3700 2.1 160 13:18 20.12.2019
2046 Snow -5 1005 92 10000 2.1 140 12:55 20.12.2019
2047 Snow -5 1005 92 10000 2.1 140 12:36 20.12.2019
2048 Snow -5 1005 92 10000 2.1 140 12:18 20.12.2019
2049 Clouds -5 1005 85 10000 1 140 11:57 20.12.2019
2050 Clouds -5 1005 85 10000 1 140 11:38 20.12.2019
2051 Clouds -5 1005 85 10000 1 140 11:18 20.12.2019
2052 Snow -4 1005 85 3500 1.5 260 10:55 20.12.2019
2053 Snow -4 1005 85 3500 1.5 260 10:37 20.12.2019
2054 Snow -4 1005 85 3500 1.5 260 10:19 20.12.2019
2055 Clouds -4 1005 79 0 2.1 160 09:42 20.12.2019
2056 Clouds -4 1005 79 0 2.1 160 09:21 20.12.2019
2057 Clouds -4 1006 79 0 1.5 160 08:54 20.12.2019
2058 Clouds -4 1006 79 0 1.5 160 08:36 20.12.2019
2059 Clouds -4 1006 79 0 1.5 160 08:18 20.12.2019
2060 Snow -4 1006 73 0 1.5 160 07:55 20.12.2019
2061 Snow -4 1006 73 0 1.5 160 07:36 20.12.2019
2062 Snow -4 1006 73 0 1.5 160 07:18 20.12.2019
2063 Clouds -6 1006 85 0 1.82 175 06:43 20.12.2019
2064 Clouds -6 1006 85 0 1.82 175 06:25 20.12.2019
2065 Snow -5 1007 92 0 2.6 10 05:47 20.12.2019
2066 Snow -5 1007 92 0 3.1 360 04:59 20.12.2019
2067 Snow -5 1007 92 0 2.1 20 03:49 20.12.2019
2068 Snow -4 1007 85 4000 1.5 310 02:55 20.12.2019
2069 Clouds -4 1008 73 10000 2.1 40 01:59 20.12.2019
2070 Clouds -4 1008 73 10000 2.1 40 01:35 20.12.2019
2071 Snow -4 1008 73 10000 2.6 50 00:55 20.12.2019
2072 Snow -4 1008 73 10000 2.6 50 00:35 20.12.2019
2073 Clouds -4 1008 62 10000 0.5 0 23:58 19.12.2019
2074 Clouds -4 1008 62 10000 0.5 0 23:40 19.12.2019
2075 Clouds -4 1008 62 10000 0.5 0 23:19 19.12.2019
2076 Clouds -4 1009 68 10000 0.5 20 22:40 19.12.2019
2077 Clouds -4 1009 68 10000 0.5 20 22:22 19.12.2019
2078 Clouds -4 1009 62 10000 1 130 21:59 19.12.2019
2079 Clouds -4 1009 62 10000 1 130 21:41 19.12.2019
2080 Clouds -4 1009 62 10000 1 130 21:19 19.12.2019
2081 Clouds -5 1009 67 10000 3.1 50 20:57 19.12.2019
2082 Clouds -5 1009 67 10000 3.1 50 20:38 19.12.2019
2083 Clouds -5 1009 67 10000 3.1 50 20:20 19.12.2019
2084 Clouds -5 1009 67 10000 3.1 50 20:20 19.12.2019
2085 Clouds -5 1009 67 10000 3.1 50 19:58 19.12.2019
2086 Clouds -5 1009 67 10000 3.1 50 19:40 19.12.2019
2087 Clouds -5 1009 67 10000 3.1 50 19:19 19.12.2019
2088 Clouds -5 1009 67 10000 3.1 50 19:19 19.12.2019
2089 Clouds -5 1009 67 10000 3.1 50 19:19 19.12.2019
2090 Clouds -5 1009 67 10000 3.1 50 19:19 19.12.2019
2091 Clouds -5 1009 67 10000 3.1 50 19:19 19.12.2019
2092 Clouds -5 1009 67 10000 3.6 40 18:58 19.12.2019
2093 Clouds -5 1009 67 10000 3.6 40 18:40 19.12.2019
2094 Clouds -5 1009 67 10000 3.6 40 18:20 19.12.2019
2095 Clouds -5 1009 67 10000 1 0 17:56 19.12.2019
2096 Clouds -5 1009 67 10000 1 0 17:38 19.12.2019
2097 Clouds -5 1009 67 10000 1 0 17:18 19.12.2019
2098 Clouds -5 1009 67 10000 1.5 80 16:56 19.12.2019
2099 Clouds -5 1009 67 10000 1.5 80 16:38 19.12.2019
2100 Clouds -5 1009 67 10000 1.5 80 16:19 19.12.2019
2101 Clouds -6 1009 67 10000 1 70 15:57 19.12.2019
2102 Clouds -6 1009 67 10000 1 70 15:38 19.12.2019
2103 Clouds -6 1009 67 10000 1 70 15:19 19.12.2019
2104 Clouds -6 1009 57 10000 1.5 80 14:57 19.12.2019
2105 Clouds -6 1009 57 10000 1.5 80 14:38 19.12.2019
2106 Clouds -6 1009 57 10000 1.5 80 14:18 19.12.2019
2107 Clouds -7 1009 62 10000 1.5 100 13:39 19.12.2019
2108 Clouds -7 1009 62 10000 1.5 100 13:20 19.12.2019
2109 Clouds -7 1009 62 10000 1.5 100 13:20 19.12.2019
2110 Clouds -7 1009 57 10000 1 120 12:58 19.12.2019
2111 Clouds -7 1009 57 10000 1 120 12:40 19.12.2019
2112 Clouds -7 1009 57 10000 1 120 12:19 19.12.2019
2113 Clouds -8 1009 67 10000 1 90 11:59 19.12.2019
2114 Clouds -8 1009 67 10000 1 90 11:41 19.12.2019
2115 Clouds -8 1009 67 10000 1 90 11:19 19.12.2019
2116 Clouds -7 1009 62 10000 2.1 120 10:59 19.12.2019
2117 Clouds -7 1009 62 10000 2.1 120 10:38 19.12.2019
2118 Clouds -7 1009 62 10000 2.1 120 10:38 19.12.2019
2119 Clouds -7 1009 62 10000 2.1 120 10:20 19.12.2019
2120 Clouds -7 1009 62 10000 2.1 120 10:20 19.12.2019
2121 Clouds -8 1009 72 0 2.6 100 09:57 19.12.2019
2122 Clouds -8 1009 72 0 2.6 100 09:37 19.12.2019
2123 Clouds -8 1009 72 0 2.6 100 09:19 19.12.2019
2124 Clouds -8 1009 67 0 2.1 110 08:55 19.12.2019
2125 Clouds -8 1009 67 0 2.1 110 08:37 19.12.2019
2126 Clear -8 1009 67 0 2.1 110 08:18 19.12.2019
2127 Clear -8 1009 72 0 2.1 110 07:54 19.12.2019
2128 Clear -8 1009 72 0 2.1 110 07:36 19.12.2019
2129 Clear -8 1009 72 0 2.1 110 07:18 19.12.2019
2130 Clear -8 1009 72 0 2.1 110 06:42 19.12.2019
2131 Clear -8 1009 72 0 2.1 110 06:23 19.12.2019
2132 Clear -8 1009 72 0 2.1 100 05:45 19.12.2019
2133 Clear -8 1009 72 0 2.1 100 05:20 19.12.2019
2134 Clear -8 1009 72 0 2.6 110 03:54 19.12.2019
2135 Clear -8 1009 72 0 2.6 100 02:30 19.12.2019
2136 Clear -8 1010 78 0 1.5 80 01:27 19.12.2019
2137 Clouds -7 1010 79 10000 3.1 50 00:59 19.12.2019
2138 Clouds -7 1010 79 10000 3.1 50 00:39 19.12.2019
2139 Clouds -7 1010 79 10000 3.1 50 00:19 19.12.2019
2140 Clouds -8 1010 92 10000 2.1 20 23:45 18.12.2019
2141 Clouds -8 1010 92 10000 2.1 20 23:45 18.12.2019
2142 Clouds -8 1010 92 10000 2.1 20 23:19 18.12.2019
2143 Clouds -7 1011 85 10000 3.1 40 22:58 18.12.2019
2144 Clouds -6 1011 85 10000 3.1 40 22:40 18.12.2019
2145 Clouds -6 1011 85 10000 3.1 40 22:22 18.12.2019
2146 Clouds -6 1011 85 10000 4.6 10 21:59 18.12.2019
2147 Clouds -6 1011 85 10000 4.6 10 21:40 18.12.2019
2148 Clouds -6 1011 85 10000 4.6 10 21:20 18.12.2019
2149 Clouds -6 1011 85 10000 3.6 10 20:57 18.12.2019
2150 Clouds -6 1011 85 10000 3.6 10 20:39 18.12.2019
2151 Clouds -7 1011 79 10000 2.1 40 20:20 18.12.2019
2152 Clouds -7 1011 79 10000 2.1 40 19:57 18.12.2019
2153 Clouds -7 1011 79 10000 2.1 40 19:39 18.12.2019
2154 Clouds -7 1011 79 10000 2.1 40 19:19 18.12.2019
2155 Clouds -7 1011 73 10000 3.1 50 18:56 18.12.2019
2156 Clouds -6 1011 73 10000 3.1 50 18:37 18.12.2019
2157 Clouds -6 1011 73 10000 3.1 50 18:18 18.12.2019
2158 Clouds -6 1011 85 10000 3.6 70 17:55 18.12.2019
2159 Clouds -6 1011 85 10000 3.6 70 17:37 18.12.2019
2160 Clouds -6 1011 85 10000 3.6 70 17:37 18.12.2019
2161 Clouds -6 1011 85 10000 3.6 70 17:18 18.12.2019
2162 Clouds -6 1012 85 10000 2.6 40 16:42 18.12.2019
2163 Clouds -6 1012 85 10000 2.6 40 16:24 18.12.2019
2164 Clouds -6 1012 79 10000 3.6 40 15:57 18.12.2019
2165 Clouds -6 1012 79 10000 3.6 40 15:39 18.12.2019
2166 Clouds -6 1012 79 10000 3.6 40 15:21 18.12.2019
2167 Clouds -6 1011 73 10000 3.1 50 14:57 18.12.2019
2168 Clouds -6 1011 73 10000 3.1 50 14:39 18.12.2019
2169 Clouds -6 1011 73 10000 3.1 50 14:19 18.12.2019
2170 Clouds -6 1012 73 10000 2.6 50 13:55 18.12.2019
2171 Clouds -6 1012 73 10000 2.6 50 13:37 18.12.2019
2172 Clouds -6 1012 73 10000 2.6 50 13:19 18.12.2019
2173 Clouds -6 1012 79 10000 2.6 40 12:54 18.12.2019
2174 Clouds -6 1012 79 10000 2.6 40 12:36 18.12.2019
2175 Clouds -6 1012 79 10000 2.6 40 12:18 18.12.2019
2176 Clouds -5 1012 73 10000 3.6 40 11:54 18.12.2019
2177 Clouds -5 1012 73 10000 3.6 40 11:36 18.12.2019
2178 Clouds -5 1012 73 10000 3.6 40 11:18 18.12.2019
2179 Clouds -5 1011 62 10000 2.6 20 10:54 18.12.2019
2180 Clouds -5 1011 62 10000 2.6 20 10:36 18.12.2019
2181 Clouds -5 1011 62 10000 2.6 20 10:18 18.12.2019
2182 Clouds -4 1011 68 0 4.6 60 09:21 18.12.2019
2183 Clouds -4 1011 62 0 4.6 60 08:57 18.12.2019
2184 Clouds -4 1011 62 0 4.6 60 08:57 18.12.2019
2185 Clouds -4 1011 62 0 4.6 60 08:39 18.12.2019
2186 Clouds -4 1011 62 0 4.6 60 08:20 18.12.2019
2187 Clouds -3 1011 53 0 5.7 70 07:42 18.12.2019
2188 Clouds -3 1011 53 0 5.7 70 07:21 18.12.2019
2189 Clouds -3 1010 53 0 5.1 60 06:53 18.12.2019
2190 Clouds -3 1010 53 0 5.1 60 06:26 18.12.2019
2191 Clouds -2 1010 50 0 4.1 60 05:39 18.12.2019
2192 Clouds -2 1010 50 0 7.2 70 04:37 18.12.2019
2193 Clear -2 1009 50 10000 7.7 70 02:50 18.12.2019
2194 Clear -2 1009 50 10000 7.7 70 02:30 18.12.2019
2195 Clouds -2 1009 54 10000 7.7 60 01:47 18.12.2019
2196 Clouds -2 1009 54 10000 7.7 60 01:29 18.12.2019
2197 Clouds -2 1009 46 10000 7.2 70 00:59 18.12.2019
2198 Clouds -1 1009 46 10000 7.2 70 00:40 18.12.2019
2199 Clouds -1 1009 46 10000 7.2 70 00:21 18.12.2019
2200 Clouds -1 1009 46 10000 6.7 60 23:54 17.12.2019
2201 Clouds -1 1009 46 10000 6.7 60 23:36 17.12.2019
2202 Clouds -1 1009 46 10000 6.7 60 23:18 17.12.2019
2203 Clouds -1 1009 46 10000 7.2 70 22:54 17.12.2019
2204 Clouds -1 1009 46 10000 7.2 70 22:36 17.12.2019
2205 Clouds -1 1009 46 10000 7.2 70 22:18 17.12.2019
2206 Clouds 0 1009 46 10000 1 0 21:55 17.12.2019
2207 Clouds 0 1009 46 10000 1 0 21:36 17.12.2019
2208 Clouds 0 1009 46 10000 1 0 21:18 17.12.2019
2209 Clouds 0 1008 46 10000 6.7 70 20:55 17.12.2019
2210 Clouds 0 1008 46 10000 6.7 70 20:36 17.12.2019
2211 Clouds 0 1008 48 10000 6.7 70 20:18 17.12.2019
2212 Clouds 0 1008 47 10000 6.2 80 19:41 17.12.2019
2213 Clouds 0 1008 47 10000 6.2 80 19:20 17.12.2019
2214 Clouds 1 1007 40 10000 0.5 0 18:58 17.12.2019
2215 Clouds 1 1007 40 10000 0.5 0 18:40 17.12.2019
2216 Clouds 1 1007 40 10000 0.5 0 18:21 17.12.2019
2217 Clouds 1 1006 43 10000 1.5 0 17:58 17.12.2019
2218 Clouds 1 1006 43 10000 1.5 0 17:40 17.12.2019
2219 Clouds 1 1006 43 10000 1.5 0 17:19 17.12.2019
2220 Clouds 1 1006 43 10000 2.6 130 16:56 17.12.2019
2221 Clouds 1 1006 43 10000 2.6 130 16:37 17.12.2019
2222 Clouds 1 1006 43 10000 2.6 130 16:37 17.12.2019
2223 Clouds 1 1006 43 10000 2.6 130 16:19 17.12.2019
2224 Clouds 1 1006 43 10000 5.1 90 15:55 17.12.2019
2225 Clouds 1 1006 43 10000 5.1 90 15:37 17.12.2019
2226 Clouds 1 1006 43 10000 5.1 90 15:18 17.12.2019
2227 Clouds 1 1006 43 10000 8.7 70 14:55 17.12.2019
2228 Clouds 1 1006 43 10000 8.7 70 14:36 17.12.2019
2229 Clouds 1 1006 43 10000 8.7 70 14:18 17.12.2019
2230 Clouds 1 1005 43 10000 10.3 80 13:55 17.12.2019
2231 Clouds 1 1005 43 10000 10.3 80 13:37 17.12.2019
2232 Clouds 1 1005 43 10000 10.3 80 13:18 17.12.2019
2233 Clouds 1 1005 47 10000 10.3 70 12:40 17.12.2019
2234 Clouds 1 1005 47 10000 10.3 70 12:19 17.12.2019
2235 Clouds 1 1005 40 10000 11.3 60 11:59 17.12.2019
2236 Clouds 2 1005 40 10000 11.3 60 11:37 17.12.2019
2237 Clouds 2 1005 40 10000 11.3 60 11:19 17.12.2019
2238 Clouds 1 1004 47 0 11.3 80 10:59 17.12.2019
2239 Clouds 1 1004 47 0 11.3 80 10:41 17.12.2019
2240 Clouds 1 1004 47 0 11.3 80 10:41 17.12.2019
2241 Clouds 1 1004 47 0 11.3 80 10:22 17.12.2019
2242 Clouds 1 1004 47 0 10.8 80 09:59 17.12.2019
2243 Clouds 1 1004 47 0 10.8 80 09:41 17.12.2019
2244 Clouds 1 1004 47 0 10.8 80 09:20 17.12.2019
2245 Clouds 1 1003 40 0 10.3 80 08:56 17.12.2019
2246 Clouds 2 1003 40 0 10.3 80 08:38 17.12.2019
2247 Clouds 2 1003 40 0 10.3 80 08:19 17.12.2019
2248 Rain 2 1002 40 0 11.3 90 07:47 17.12.2019
2249 Rain 2 1002 40 0 11.3 90 07:27 17.12.2019
2250 Rain 1 1002 47 0 12.9 80 06:59 17.12.2019
2251 Rain 1 1002 47 0 12.9 80 06:35 17.12.2019
2252 Clouds 0 1002 50 0 11.3 70 05:54 17.12.2019
2253 Clouds 0 1002 50 0 11.3 70 05:36 17.12.2019
2254 Rain 0 1002 51 0 12.9 80 04:31 17.12.2019
2255 Clouds -1 1003 46 0 8.2 80 02:34 17.12.2019
2256 Clouds -1 1003 42 0 8.2 70 01:55 17.12.2019
2257 Clouds -1 1003 42 0 8.2 70 01:18 17.12.2019
2258 Clouds -1 1003 42 0 7.2 80 00:38 17.12.2019
2259 Clouds -1 1003 42 0 7.2 80 00:19 17.12.2019
2260 Clouds -2 1003 46 10000 7.7 80 23:42 16.12.2019
2261 Clouds -2 1003 46 10000 7.7 80 23:19 16.12.2019
2262 Clouds -2 1003 46 10000 7.7 80 23:19 16.12.2019
2263 Clouds -2 1003 42 10000 6.7 90 22:58 16.12.2019
2264 Clouds -2 1003 42 10000 6.7 90 22:37 16.12.2019
2265 Clouds -2 1003 42 10000 6.7 90 22:19 16.12.2019
2266 Clouds -2 1003 42 10000 6.7 90 22:19 16.12.2019
2267 Clouds -3 1003 45 10000 8.2 80 21:55 16.12.2019
2268 Clouds -3 1003 45 10000 8.2 80 21:37 16.12.2019
2269 Clouds -3 1003 45 10000 8.2 80 21:19 16.12.2019
2270 Clouds -3 1003 45 10000 11.8 70 20:57 16.12.2019
2271 Clouds -3 1003 45 10000 11.8 70 20:37 16.12.2019
2272 Clouds -3 1003 45 10000 11.8 70 20:19 16.12.2019
2273 Clouds -4 1003 45 10000 11.3 60 19:56 16.12.2019
2274 Clouds -4 1003 45 10000 11.3 60 19:37 16.12.2019
2275 Clouds -4 1003 45 10000 11.3 60 19:19 16.12.2019
2276 Clouds -4 1003 49 10000 12.3 70 18:56 16.12.2019
2277 Clouds -4 1003 49 10000 12.3 70 18:56 16.12.2019
2278 Clouds -4 1003 49 10000 12.3 70 18:38 16.12.2019
2279 Clouds -4 1003 49 10000 12.3 70 18:38 16.12.2019
2280 Clouds -4 1003 49 10000 12.3 70 18:19 16.12.2019
2281 Clouds -4 1004 49 10000 11.3 80 17:57 16.12.2019
2282 Clouds -4 1004 49 10000 11.3 80 17:38 16.12.2019
2283 Clouds -4 1004 49 10000 11.3 80 17:20 16.12.2019
2284 Clouds -4 1005 45 10000 12.9 80 16:56 16.12.2019
2285 Clouds -4 1005 45 10000 12.9 80 16:38 16.12.2019
2286 Clouds -4 1005 45 10000 12.9 80 16:19 16.12.2019
2287 Clouds -4 1005 41 10000 12.3 60 15:57 16.12.2019
2288 Clouds -4 1005 41 10000 12.3 60 15:38 16.12.2019
2289 Clouds -4 1005 41 10000 12.3 60 15:20 16.12.2019
2290 Clouds -5 1005 53 10000 13.4 90 14:55 16.12.2019
2291 Clouds -5 1005 53 10000 13.4 90 14:37 16.12.2019
2292 Clouds -5 1005 53 10000 13.4 90 14:18 16.12.2019
2293 Clouds -5 1005 53 10000 13.4 90 14:18 16.12.2019
2294 Clouds -5 1006 45 10000 13.9 80 13:56 16.12.2019
2295 Clouds -5 1006 45 10000 13.9 80 13:37 16.12.2019
2296 Clouds -5 1006 45 10000 13.9 80 13:19 16.12.2019
2297 Clouds -5 1006 41 10000 11.3 80 12:57 16.12.2019
2298 Clouds -5 1006 41 10000 11.3 80 12:39 16.12.2019
2299 Clouds -5 1006 41 10000 11.3 80 12:18 16.12.2019
2300 Clouds -6 1007 41 10000 5.7 80 11:57 16.12.2019
2301 Clouds -6 1007 41 10000 5.7 80 11:39 16.12.2019
2302 Clouds -6 1007 41 10000 5.7 80 11:19 16.12.2019
2303 Clouds -6 1007 37 10000 2.1 0 10:54 16.12.2019
2304 Clouds -6 1007 37 10000 2.1 0 10:36 16.12.2019
2305 Clouds -6 1007 37 10000 2.1 0 10:18 16.12.2019
2306 Clouds -9 1007 52 0 2.1 40 09:44 16.12.2019
2307 Clouds -9 1007 52 0 2.1 40 09:26 16.12.2019
2308 Clouds -10 1007 61 0 0.5 10 08:41 16.12.2019
2309 Clouds -10 1007 61 0 0.5 10 08:20 16.12.2019
2310 Clouds -8 1007 52 0 3.6 0 07:53 16.12.2019
2311 Clouds -8 1007 52 0 3.6 0 07:31 16.12.2019
2312 Clouds -8 1007 48 0 2.1 0 06:59 16.12.2019
2313 Clouds -8 1007 48 0 2.1 0 06:40 16.12.2019
2314 Clouds -8 1007 48 0 2.1 0 06:21 16.12.2019
2315 Clouds -10 1007 56 0 4.6 70 05:41 16.12.2019
2316 Clouds -10 1007 56 0 4.6 70 05:23 16.12.2019
2317 Clear -10 1008 61 0 2.1 120 03:29 16.12.2019
2318 Clear -11 1009 72 0 5.7 70 01:52 16.12.2019
2319 Clear -11 1009 72 0 5.7 70 01:33 16.12.2019
2320 Clear -11 1010 72 0 6.2 60 00:41 16.12.2019
2321 Clear -11 1010 72 0 6.2 60 00:21 16.12.2019
2322 Clear -10 1010 66 0 7.2 60 23:57 15.12.2019
2323 Clear -10 1010 66 0 7.2 60 23:37 15.12.2019
2324 Clear -10 1010 66 0 7.2 60 23:19 15.12.2019
2325 Clear -10 1010 72 0 7.7 60 22:54 15.12.2019
2326 Clear -10 1010 72 0 7.7 60 22:36 15.12.2019
2327 Clear -10 1010 72 0 7.7 60 22:18 15.12.2019
2328 Clear -10 1011 72 0 7.7 60 21:54 15.12.2019
2329 Clear -10 1011 72 0 7.7 60 21:36 15.12.2019
2330 Clear -10 1011 72 0 7.7 60 21:18 15.12.2019
2331 Clear -10 1012 78 0 7.2 50 20:54 15.12.2019
2332 Clear -10 1012 78 0 7.2 50 20:36 15.12.2019
2333 Clear -10 1012 78 0 7.2 50 20:18 15.12.2019
2334 Clear -10 1012 72 0 5.1 40 19:54 15.12.2019
2335 Clear -10 1012 72 0 5.1 40 19:36 15.12.2019
2336 Clear -10 1012 72 0 5.1 40 19:18 15.12.2019
2337 Clear -10 1013 72 0 5.1 50 18:54 15.12.2019
2338 Clear -10 1013 72 0 5.1 50 18:36 15.12.2019
2339 Clear -10 1013 72 0 5.1 50 18:18 15.12.2019
2340 Clear -10 1013 72 10000 6.2 50 17:54 15.12.2019
2341 Clear -10 1013 72 10000 6.2 50 17:36 15.12.2019
2342 Clear -10 1013 72 10000 6.2 50 17:18 15.12.2019
2343 Clear -10 1014 72 10000 7.2 60 16:42 15.12.2019
2344 Clear -10 1014 72 10000 7.2 60 16:22 15.12.2019
2345 Clear -10 1014 72 10000 6.2 40 15:57 15.12.2019
2346 Clear -10 1014 72 10000 6.2 40 15:38 15.12.2019
2347 Clear -10 1014 72 10000 6.2 40 15:19 15.12.2019
2348 Clear -10 1015 72 10000 5.1 40 14:56 15.12.2019
2349 Clear -10 1015 72 10000 5.1 40 14:37 15.12.2019
2350 Clear -10 1015 72 10000 5.1 40 14:19 15.12.2019
2351 Clouds -9 1015 61 10000 6.7 50 13:58 15.12.2019
2352 Clouds -9 1015 61 10000 6.7 50 13:38 15.12.2019
2353 Clouds -9 1015 61 10000 6.7 50 13:19 15.12.2019
2354 Clear -9 1015 66 0 8.7 60 12:57 15.12.2019
2355 Clear -9 1015 66 0 8.7 60 12:39 15.12.2019
2356 Clear -9 1015 66 0 8.7 60 12:21 15.12.2019
2357 Clear -9 1015 72 0 7.7 60 11:58 15.12.2019
2358 Clear -9 1015 72 0 7.7 60 11:37 15.12.2019
2359 Clear -9 1015 72 0 7.7 60 11:19 15.12.2019
2360 Clear -8 1015 67 0 6.2 50 10:55 15.12.2019
2361 Clear -8 1015 67 0 6.2 50 10:37 15.12.2019
2362 Clear -8 1015 67 0 6.2 50 10:19 15.12.2019
2363 Clear -7 1015 62 0 6.2 50 09:41 15.12.2019
2364 Clear -7 1015 62 0 6.2 50 09:20 15.12.2019
2365 Clear -7 1015 57 0 5.7 50 08:59 15.12.2019
2366 Clear -7 1015 57 0 5.7 50 08:41 15.12.2019
2367 Clouds -7 1015 57 0 5.7 50 08:22 15.12.2019
2368 Clouds -7 1014 67 0 4.6 20 07:56 15.12.2019
2369 Clouds -7 1014 67 0 4.6 20 07:35 15.12.2019
2370 Clouds -7 1014 57 0 5.1 30 06:52 15.12.2019
2371 Clouds -7 1014 57 0 5.1 30 06:20 15.12.2019
2372 Clouds -7 1014 62 0 4.1 30 05:28 15.12.2019
2373 Clouds -7 1013 67 0 4.6 10 04:47 15.12.2019
2374 Clouds -7 1013 67 0 4.6 10 03:54 15.12.2019
2375 Clouds -7 1013 73 0 6.2 340 02:34 15.12.2019
2376 Clouds -8 1012 78 0 6.2 10 01:50 15.12.2019
2377 Clouds -8 1012 78 0 6.2 10 01:28 15.12.2019
2378 Clouds -8 1012 78 0 4.6 10 00:59 15.12.2019
2379 Clouds -8 1012 78 0 4.6 10 00:41 15.12.2019
2380 Clouds -8 1012 78 0 4.6 10 00:23 15.12.2019
2381 Snow -8 1012 85 10000 4.6 360 23:40 14.12.2019
2382 Snow -8 1012 85 10000 4.6 360 23:40 14.12.2019
2383 Snow -8 1012 85 10000 4.6 360 23:21 14.12.2019
2384 Rain -8 1011 85 10000 5.1 350 22:58 14.12.2019
2385 Rain -8 1011 85 10000 5.1 350 22:40 14.12.2019
2386 Rain -8 1011 85 10000 5.1 350 22:21 14.12.2019
2387 Snow -8 1011 92 2500 5.1 340 21:56 14.12.2019
2388 Snow -8 1011 92 2500 5.1 340 21:38 14.12.2019
2389 Snow -8 1011 92 2500 5.1 340 21:19 14.12.2019
2390 Clouds -8 1010 85 10000 5.7 350 20:57 14.12.2019
2391 Clouds -8 1010 85 10000 5.7 350 20:38 14.12.2019
2392 Clouds -8 1010 85 10000 5.7 350 20:19 14.12.2019
2393 Rain -8 1010 78 10000 5.1 10 19:56 14.12.2019
2394 Rain -8 1010 78 10000 5.1 10 19:37 14.12.2019
2395 Rain -8 1010 78 10000 5.1 10 19:18 14.12.2019
2396 Clouds -7 1009 67 10000 5.7 350 18:56 14.12.2019
2397 Clouds -7 1009 67 10000 5.7 350 18:37 14.12.2019
2398 Clouds -7 1009 67 10000 5.7 350 18:19 14.12.2019
2399 Rain -7 1009 62 10000 5.7 350 17:43 14.12.2019
2400 Rain -7 1009 62 10000 5.7 350 17:24 14.12.2019
2401 Rain -7 1009 62 10000 5.1 350 16:58 14.12.2019
2402 Rain -7 1009 62 10000 5.1 350 16:38 14.12.2019
2403 Rain -7 1009 62 10000 5.1 350 16:38 14.12.2019
2404 Rain -7 1009 62 10000 5.1 350 16:18 14.12.2019
2405 Rain -7 1009 67 10000 5.1 350 15:43 14.12.2019
2406 Rain -7 1009 67 10000 5.1 350 15:22 14.12.2019
2407 Clouds -7 1008 67 10000 5.1 340 14:59 14.12.2019
2408 Clouds -7 1008 67 10000 5.1 340 14:38 14.12.2019
2409 Clouds -7 1008 67 10000 5.1 340 14:19 14.12.2019
2410 Snow -7 1007 73 10000 4.6 10 13:55 14.12.2019
2411 Snow -7 1007 73 10000 4.6 10 13:37 14.12.2019
2412 Snow -7 1007 73 10000 4.6 10 13:18 14.12.2019
2413 Snow -7 1007 85 8000 4.6 360 12:54 14.12.2019
2414 Snow -7 1007 85 8000 4.6 360 12:36 14.12.2019
2415 Snow -7 1007 85 8000 4.6 360 12:18 14.12.2019
2416 Snow -7 1007 79 0 4.1 340 11:54 14.12.2019
2417 Snow -7 1007 79 0 4.1 340 11:36 14.12.2019
2418 Snow -7 1007 79 0 4.1 340 11:18 14.12.2019
2419 Snow -6 1006 73 0 5.7 310 10:54 14.12.2019
2420 Snow -6 1006 73 0 5.7 310 10:36 14.12.2019
2421 Snow -6 1006 73 0 5.7 310 10:18 14.12.2019
2422 Snow -6 1006 62 0 5.7 320 09:40 14.12.2019
2423 Snow -6 1006 62 0 5.7 320 09:20 14.12.2019
2424 Snow -6 1005 62 0 6.7 310 08:43 14.12.2019
2425 Snow -6 1005 62 0 6.7 310 08:20 14.12.2019
2426 Snow -6 1005 73 0 6.7 300 07:57 14.12.2019
2427 Snow -6 1005 73 0 6.7 300 07:38 14.12.2019
2428 Snow -6 1005 73 0 6.7 300 07:19 14.12.2019
2429 Snow -6 1004 73 0 6.2 330 06:39 14.12.2019
2430 Snow -6 1004 73 0 6.2 330 06:20 14.12.2019
2431 Snow -6 1004 73 0 6.7 330 05:22 14.12.2019
2432 Snow -7 1002 92 0 4.1 340 02:49 14.12.2019
2433 Snow -7 1002 92 0 4.1 340 02:22 14.12.2019
2434 Snow -6 1001 85 0 4.6 350 01:43 14.12.2019
2435 Snow -6 1001 79 0 5.1 360 00:54 14.12.2019
2436 Snow -6 1001 79 0 5.1 360 00:36 14.12.2019
2437 Snow -6 1001 79 0 5.1 360 00:18 14.12.2019
2438 Snow -6 1000 79 10000 6.2 30 23:39 13.12.2019
2439 Snow -6 1000 79 10000 6.2 30 23:19 13.12.2019
2440 Snow -6 1000 79 7000 5.1 10 22:55 13.12.2019
2441 Snow -6 1000 79 7000 5.1 10 22:36 13.12.2019
2442 Snow -6 1000 79 7000 5.1 10 22:18 13.12.2019
2443 Rain -5 999 73 10000 5.1 360 21:42 13.12.2019
2444 Rain -5 999 73 10000 5.1 360 21:21 13.12.2019
2445 Clouds -6 998 73 10000 4.6 360 20:57 13.12.2019
2446 Clouds -6 998 73 10000 4.6 360 20:39 13.12.2019
2447 Clouds -6 998 73 10000 4.6 360 20:19 13.12.2019
2448 Clouds -5 997 73 10000 2.6 360 19:56 13.12.2019
2449 Clouds -5 997 73 10000 2.6 360 19:38 13.12.2019
2450 Clouds -5 997 73 10000 2.6 360 19:18 13.12.2019
2451 Clouds -5 996 79 10000 2.6 360 18:42 13.12.2019
2452 Clouds -5 996 79 10000 2.6 360 18:42 13.12.2019
2453 Clouds -5 996 79 10000 2.6 360 18:20 13.12.2019
2454 Clouds -5 995 79 10000 4.6 10 18:00 13.12.2019
2455 Clouds -5 995 79 10000 4.6 10 17:39 13.12.2019
2456 Clouds -5 995 79 10000 4.6 10 17:18 13.12.2019
2457 Clouds -5 994 85 10000 3.1 50 16:56 13.12.2019
2458 Clouds -5 994 85 10000 3.1 50 16:38 13.12.2019
2459 Clouds -5 994 85 10000 3.1 50 16:20 13.12.2019
2460 Clouds -5 994 79 10000 2.6 40 15:42 13.12.2019
2461 Clouds -5 994 79 10000 2.6 40 15:21 13.12.2019
2462 Clouds -5 993 79 10000 3.1 10 14:57 13.12.2019
2463 Clouds -5 993 79 10000 3.1 10 14:38 13.12.2019
2464 Clouds -5 993 79 10000 3.1 10 14:19 13.12.2019
2465 Clouds -5 992 79 10000 3.6 360 13:44 13.12.2019
2466 Clouds -5 992 79 10000 3.6 360 13:26 13.12.2019
2467 Clouds -5 992 79 10000 4.6 10 12:58 13.12.2019
2468 Clouds -5 992 79 10000 4.6 10 12:40 13.12.2019
2469 Clouds -5 992 79 10000 4.6 10 12:19 13.12.2019
2470 Clouds -5 991 79 10000 3.6 10 11:45 13.12.2019
2471 Clouds -5 991 79 10000 3.6 10 11:26 13.12.2019
2472 Clouds -5 991 79 10000 5.1 350 10:58 13.12.2019
2473 Clouds -5 991 79 10000 5.1 350 10:40 13.12.2019
2474 Clouds -5 991 79 10000 5.1 350 10:21 13.12.2019
2475 Clouds -5 990 79 0 4.6 10 09:43 13.12.2019
2476 Clouds -5 990 79 0 4.6 10 09:22 13.12.2019
2477 Clouds -5 989 85 0 4.1 350 08:55 13.12.2019
2478 Clouds -5 989 85 0 4.1 350 08:36 13.12.2019
2479 Clouds -5 989 85 0 4.1 350 08:18 13.12.2019
2480 Clouds -5 989 79 0 4.1 360 07:42 13.12.2019
2481 Clouds -5 989 79 0 4.1 360 07:19 13.12.2019
2482 Clouds -5 988 73 0 5.7 10 06:45 13.12.2019
2483 Clouds -5 988 73 0 5.7 10 06:25 13.12.2019
2484 Clouds -5 988 79 0 4.6 10 05:38 13.12.2019
2485 Clouds -5 988 79 0 4.6 10 05:20 13.12.2019
2486 Clouds -5 988 79 0 4.6 360 04:29 13.12.2019
2487 Snow -5 988 92 10000 4.1 360 02:57 13.12.2019
2488 Snow -5 988 92 10000 4.1 360 02:30 13.12.2019
2489 Snow -5 988 92 10000 4.1 360 01:38 13.12.2019
2490 Snow -5 988 85 8000 5.7 360 00:51 13.12.2019
2491 Snow -5 988 85 8000 5.7 360 00:28 13.12.2019
2492 Snow -5 988 85 5000 2.6 20 23:44 12.12.2019
2493 Clouds -5 988 79 10000 4.1 360 23:26 12.12.2019
2494 Clouds -5 987 92 10000 3.6 20 22:57 12.12.2019
2495 Clouds -5 987 92 10000 3.6 20 22:39 12.12.2019
2496 Clouds -5 987 92 10000 3.6 20 22:21 12.12.2019
2497 Clouds -5 987 92 10000 5.1 10 21:56 12.12.2019
2498 Clouds -5 987 92 10000 5.1 10 21:38 12.12.2019
2499 Clouds -5 987 92 10000 5.1 10 21:20 12.12.2019
2500 Clouds -4 987 92 10000 4.6 10 20:59 12.12.2019
2501 Clouds -4 987 92 10000 4.6 10 20:40 12.12.2019
2502 Clouds -4 987 92 10000 4.6 10 20:22 12.12.2019
2503 Clouds -5 986 85 10000 4.1 50 19:56 12.12.2019
2504 Clouds -5 986 85 10000 4.1 50 19:38 12.12.2019
2505 Clouds -5 986 85 10000 4.1 50 19:20 12.12.2019
2506 Clouds -5 986 92 10000 4.1 50 18:56 12.12.2019
2507 Clouds -5 986 92 10000 4.1 50 18:56 12.12.2019
2508 Clouds -5 986 92 10000 4.1 50 18:38 12.12.2019
2509 Clouds -5 986 92 10000 4.1 50 18:19 12.12.2019
2510 Clouds -5 986 92 10000 5.1 10 17:57 12.12.2019
2511 Clouds -5 986 92 10000 5.1 10 17:38 12.12.2019
2512 Clouds -5 986 92 10000 5.1 10 17:19 12.12.2019
2513 Snow -5 986 92 10000 3.1 50 16:55 12.12.2019
2514 Snow -5 986 92 10000 3.1 50 16:37 12.12.2019
2515 Snow -5 986 92 10000 3.1 50 16:19 12.12.2019
2516 Snow -5 986 92 3600 2.6 30 15:54 12.12.2019
2517 Snow -5 986 92 3600 2.6 30 15:36 12.12.2019
2518 Snow -5 986 92 3600 2.6 30 15:18 12.12.2019
2519 Snow -5 986 85 10000 4.6 30 14:38 12.12.2019
2520 Snow -5 986 85 10000 4.6 30 14:20 12.12.2019
2521 Clouds -5 985 85 10000 4.1 40 13:57 12.12.2019
2522 Clouds -5 985 85 10000 4.1 40 13:39 12.12.2019
2523 Clouds -5 985 85 10000 4.1 40 13:21 12.12.2019
2524 Clouds -4 985 73 10000 2.6 60 12:57 12.12.2019
2525 Clouds -4 985 73 10000 2.6 60 12:38 12.12.2019
2526 Clouds -4 985 73 10000 2.6 60 12:20 12.12.2019
2527 Clouds -5 984 85 10000 2.6 60 11:56 12.12.2019
2528 Clouds -5 984 85 10000 2.6 60 11:37 12.12.2019
2529 Clouds -5 984 85 10000 2.6 60 11:19 12.12.2019
2530 Snow -6 984 85 0 4.1 40 10:55 12.12.2019
2531 Snow -6 984 85 0 4.1 40 10:37 12.12.2019
2532 Snow -6 984 85 0 4.1 40 10:18 12.12.2019
2533 Snow -6 984 79 0 3.6 60 09:42 12.12.2019
2534 Snow -6 984 79 0 3.6 60 09:23 12.12.2019
2535 Snow -6 983 73 0 2.6 20 08:56 12.12.2019
2536 Snow -6 983 73 0 2.6 20 08:38 12.12.2019
2537 Clouds -6 983 73 0 2.6 20 08:20 12.12.2019
2538 Clouds -6 982 79 0 3.1 20 07:46 12.12.2019
2539 Clouds -6 982 79 0 3.1 20 07:25 12.12.2019
2540 Clouds -6 982 73 0 2.6 40 06:54 12.12.2019
2541 Clouds -6 982 73 0 2.6 40 06:33 12.12.2019
2542 Clouds -6 981 67 0 3.6 50 05:40 12.12.2019
2543 Clouds -6 980 67 0 5.1 60 04:52 12.12.2019
2544 Clouds -6 979 62 0 6.2 50 03:37 12.12.2019
2545 Clouds -6 979 57 0 4.1 50 02:39 12.12.2019
2546 Clouds -6 979 57 0 4.1 50 02:20 12.12.2019
2547 Clouds -7 979 52 0 1 0 01:43 12.12.2019
2548 Clouds -7 979 52 0 1 0 01:24 12.12.2019
2549 Clouds -7 979 57 0 2.6 50 00:47 12.12.2019
2550 Clouds -7 979 57 0 2.6 50 00:20 12.12.2019
2551 Clouds -7 979 57 10000 3.6 60 23:44 11.12.2019
2552 Clouds -7 979 57 10000 3.6 60 23:21 11.12.2019
2553 Clouds -8 979 61 10000 1.5 180 22:58 11.12.2019
2554 Clouds -8 979 61 10000 1.5 180 22:39 11.12.2019
2555 Clouds -8 979 61 10000 1.5 180 22:20 11.12.2019
2556 Clouds -8 978 52 10000 1 120 21:57 11.12.2019
2557 Clouds -7 978 52 10000 1 120 21:39 11.12.2019
2558 Clouds -7 978 52 10000 1 120 21:20 11.12.2019
2559 Clouds -8 978 52 10000 2.1 150 20:56 11.12.2019
2560 Clouds -8 978 52 10000 2.1 150 20:56 11.12.2019
2561 Clouds -8 978 52 10000 2.1 150 20:38 11.12.2019
2562 Clouds -8 978 52 10000 2.1 150 20:19 11.12.2019
2563 Clouds -8 979 57 10000 1.5 0 19:58 11.12.2019
2564 Clouds -8 979 57 10000 1.5 0 19:39 11.12.2019
2565 Clouds -8 979 57 10000 1.5 0 19:19 11.12.2019
2566 Clouds -8 979 57 10000 2.1 100 18:55 11.12.2019
2567 Clouds -8 979 57 10000 2.1 100 18:36 11.12.2019
2568 Clouds -8 979 57 10000 2.1 100 18:18 11.12.2019
2569 Clouds -9 979 61 10000 3.1 70 17:54 11.12.2019
2570 Clouds -9 979 61 10000 3.1 70 17:36 11.12.2019
2571 Clouds -9 979 61 10000 3.1 70 17:18 11.12.2019
2572 Clouds -10 980 61 10000 3.6 70 16:55 11.12.2019
2573 Clouds -10 980 61 10000 3.6 70 16:36 11.12.2019
2574 Clouds -10 980 61 10000 3.6 70 16:18 11.12.2019
2575 Clouds -10 981 56 10000 3.1 90 15:41 11.12.2019
2576 Clouds -10 981 56 10000 3.1 90 15:23 11.12.2019
2577 Clouds -10 981 56 10000 1.5 110 14:57 11.12.2019
2578 Clouds -10 981 56 10000 1.5 110 14:39 11.12.2019
2579 Clouds -10 981 56 10000 1.5 110 14:20 11.12.2019
2580 Clouds -10 982 61 10000 5.1 80 13:58 11.12.2019
2581 Clouds -10 982 61 10000 5.1 80 13:39 11.12.2019
2582 Clouds -10 982 61 10000 5.1 80 13:20 11.12.2019
2583 Clouds -9 983 56 10000 6.2 70 12:57 11.12.2019
2584 Clouds -9 983 56 10000 6.2 70 12:38 11.12.2019
2585 Clouds -9 983 56 10000 6.2 70 12:20 11.12.2019
2586 Clouds -9 984 57 10000 6.7 70 11:57 11.12.2019
2587 Clouds -8 984 57 10000 6.7 70 11:38 11.12.2019
2588 Clouds -8 984 57 10000 6.7 70 11:38 11.12.2019
2589 Clouds -8 984 57 10000 6.7 70 11:18 11.12.2019
2590 Clouds -8 984 57 10000 6.7 70 11:18 11.12.2019
2591 Clouds -8 984 57 10000 6.7 70 11:18 11.12.2019
2592 Clouds -9 984 61 0 8.7 70 10:55 11.12.2019
2593 Clouds -9 984 61 0 8.7 70 10:37 11.12.2019
2594 Clouds -9 984 61 0 8.7 70 10:19 11.12.2019
2595 Clouds -9 986 61 0 9.3 70 09:40 11.12.2019
2596 Clouds -9 986 61 0 9.3 70 09:21 11.12.2019
2597 Clouds -9 988 67 0 9.3 70 08:58 11.12.2019
2598 Clouds -8 988 67 0 9.3 70 08:38 11.12.2019
2599 Clouds -8 988 67 0 9.3 70 08:19 11.12.2019
2600 Clouds -8 989 67 0 7.2 70 07:55 11.12.2019
2601 Clouds -8 989 67 0 7.2 70 07:37 11.12.2019
2602 Clouds -8 989 67 0 7.2 70 07:18 11.12.2019
2603 Clouds -8 989 67 0 7.2 70 07:18 11.12.2019
2604 Clouds -8 991 72 0 7.7 60 06:43 11.12.2019
2605 Clouds -8 991 72 0 7.7 60 06:22 11.12.2019
2606 Clouds -8 994 61 0 8.7 80 05:41 11.12.2019
2607 Clear -8 994 61 0 8.7 80 05:19 11.12.2019
2608 Clear -7 996 67 0 6.7 80 04:28 11.12.2019
2609 Clear -8 998 61 10000 5.7 90 02:49 11.12.2019
2610 Clear -8 1000 61 10000 5.1 80 01:25 11.12.2019
2611 Clouds -8 1000 61 10000 4.6 90 00:47 11.12.2019
2612 Clouds -8 1000 61 10000 4.6 90 00:21 11.12.2019
2613 Clouds -7 1001 62 10000 4.6 90 23:50 10.12.2019
2614 Clouds -7 1001 62 10000 4.6 90 23:30 10.12.2019
2615 Clouds -8 1002 67 10000 5.1 100 22:59 10.12.2019
2616 Clouds -8 1002 67 10000 5.1 100 22:59 10.12.2019
2617 Clouds -8 1002 67 10000 5.1 100 22:40 10.12.2019
2618 Clouds -8 1002 67 10000 5.1 100 22:40 10.12.2019
2619 Clouds -8 1002 67 10000 5.1 100 22:22 10.12.2019
2620 Clouds -7 1003 73 10000 3.6 120 21:57 10.12.2019
2621 Clouds -7 1003 73 10000 3.6 120 21:57 10.12.2019
2622 Clouds -7 1003 73 10000 3.6 120 21:39 10.12.2019
2623 Clouds -7 1003 73 10000 3.6 120 21:21 10.12.2019
2624 Snow -7 1003 100 3000 0.5 0 20:57 10.12.2019
2625 Snow -7 1003 100 3000 0.5 0 20:38 10.12.2019
2626 Snow -7 1003 100 3000 0.5 0 20:38 10.12.2019
2627 Snow -7 1003 100 3000 0.5 0 20:19 10.12.2019
2628 Snow -6 1003 85 1400 2.6 180 19:55 10.12.2019
2629 Snow -6 1003 85 1400 2.6 180 19:37 10.12.2019
2630 Snow -6 1003 85 1400 2.6 180 19:19 10.12.2019
2631 Snow -6 1003 73 1500 1.5 130 18:40 10.12.2019
2632 Snow -6 1003 73 1500 1.5 130 18:21 10.12.2019
2633 Rain -6 1004 85 10000 2.1 150 17:58 10.12.2019
2634 Rain -6 1004 85 10000 2.1 150 17:40 10.12.2019
2635 Rain -6 1004 85 10000 2.1 150 17:40 10.12.2019
2636 Rain -6 1004 85 10000 2.1 150 17:20 10.12.2019
2637 Snow -6 1003 85 5000 5.1 200 16:54 10.12.2019
2638 Clouds -6 1003 79 10000 2.6 240 16:36 10.12.2019
2639 Clouds -6 1003 79 10000 2.6 240 16:18 10.12.2019
2640 Clouds -6 1003 73 10000 3.6 180 15:38 10.12.2019
2641 Clouds -6 1003 73 10000 3.6 180 15:18 10.12.2019
2642 Snow -6 1002 92 2000 5.1 220 14:56 10.12.2019
2643 Snow -6 1002 92 2000 5.1 220 14:38 10.12.2019
2644 Snow -6 1002 92 2000 5.1 220 14:19 10.12.2019
2645 Clouds -6 1001 73 10000 4.6 210 13:57 10.12.2019
2646 Clouds -5 1001 73 10000 4.6 210 13:39 10.12.2019
2647 Clouds -5 1001 73 10000 4.6 210 13:20 10.12.2019
2648 Snow -5 1000 79 7000 6.7 230 12:48 10.12.2019
2649 Snow -5 1000 79 7000 6.7 230 12:28 10.12.2019
2650 Clouds -5 999 62 10000 6.2 220 11:55 10.12.2019
2651 Clouds -5 999 62 10000 6.2 220 11:37 10.12.2019
2652 Clouds -5 999 62 10000 6.2 220 11:18 10.12.2019
2653 Snow -5 999 85 0 4.1 220 10:42 10.12.2019
2654 Snow -5 999 85 0 4.1 220 10:24 10.12.2019
2655 Snow -4 997 79 0 5.1 230 09:57 10.12.2019
2656 Snow -4 997 79 0 5.1 230 09:39 10.12.2019
2657 Snow -4 997 79 0 5.1 230 09:20 10.12.2019
2658 Snow -4 996 85 0 6.2 260 08:58 10.12.2019
2659 Snow -4 996 85 0 6.2 260 08:39 10.12.2019
2660 Snow -4 996 85 0 6.2 260 08:20 10.12.2019
2661 Snow -4 994 100 0 7.7 260 07:45 10.12.2019
2662 Snow -4 994 100 0 7.7 260 07:27 10.12.2019
2663 Snow -3 993 92 0 7.7 220 06:55 10.12.2019
2664 Snow -3 993 92 0 7.7 220 06:37 10.12.2019
2665 Snow -3 993 92 0 7.7 220 06:19 10.12.2019
2666 Snow -1 991 54 0 6.2 120 05:47 10.12.2019
2667 Clouds -2 992 63 0 4.1 110 04:23 10.12.2019
2668 Clouds -2 992 63 0 5.1 100 03:25 10.12.2019
2669 Snow -1 992 58 0 6.7 160 01:57 10.12.2019
2670 Snow -1 992 58 0 6.7 160 01:38 10.12.2019
2671 Snow -1 992 58 0 6.7 160 01:18 10.12.2019
2672 Clouds -1 992 63 10000 4.1 140 00:29 10.12.2019
2673 Snow -1 992 68 10000 10.8 140 23:58 09.12.2019
2674 Snow -1 992 68 10000 10.8 140 23:39 09.12.2019
2675 Snow -1 992 68 10000 10.8 140 23:39 09.12.2019
2676 Snow -1 992 68 10000 10.8 140 23:20 09.12.2019
2677 Snow -1 992 68 10000 10.8 140 23:20 09.12.2019
2678 Snow -1 992 74 10000 14.4 140 22:56 09.12.2019
2679 Snow -1 992 74 10000 14.4 140 22:38 09.12.2019
2680 Snow -1 992 74 10000 14.4 140 22:38 09.12.2019
2681 Snow 0 992 74 10000 14.4 140 22:18 09.12.2019
2682 Rain 0 992 91 10000 4.6 140 21:55 09.12.2019
2683 Rain 0 992 91 10000 4.6 140 21:37 09.12.2019
2684 Rain 0 992 91 10000 4.6 140 21:18 09.12.2019
2685 Clouds -3 992 68 10000 4.1 90 20:55 09.12.2019
2686 Clouds -3 992 68 10000 4.1 90 20:37 09.12.2019
2687 Clouds -3 992 68 10000 4.1 90 20:19 09.12.2019
2688 Clouds -4 992 68 10000 7.7 60 19:55 09.12.2019
2689 Clouds -4 992 68 10000 7.7 60 19:37 09.12.2019
2690 Clouds -4 992 68 10000 7.7 60 19:18 09.12.2019
2691 Clouds -1 992 68 10000 5.1 60 18:54 09.12.2019
2692 Clouds -2 992 68 10000 5.1 60 18:36 09.12.2019
2693 Clouds -2 992 68 10000 5.1 60 18:18 09.12.2019
2694 Clouds -2 992 68 10000 5.1 60 18:18 09.12.2019
2695 Clouds -2 992 68 10000 5.1 60 18:18 09.12.2019
2696 Clouds 0 993 45 10000 1 120 17:55 09.12.2019
2697 Clouds 0 993 45 10000 1 120 17:37 09.12.2019
2698 Clouds 0 993 45 10000 1 120 17:18 09.12.2019
2699 Clouds 0 993 45 10000 1 120 17:18 09.12.2019
2700 Clouds -4 993 68 10000 1.5 0 16:54 09.12.2019
2701 Clouds -4 993 68 10000 1.5 0 16:54 09.12.2019
2702 Clouds -4 993 68 10000 1.5 0 16:36 09.12.2019
2703 Clouds -4 993 68 10000 1.5 0 16:18 09.12.2019
2704 Clouds -4 994 62 10000 1 110 15:54 09.12.2019
2705 Clouds -4 994 62 10000 1 110 15:36 09.12.2019
2706 Clouds -4 994 62 10000 1 110 15:18 09.12.2019
2707 Clouds -4 994 73 10000 1.5 100 14:42 09.12.2019
2708 Clouds -4 994 73 10000 1.5 100 14:18 09.12.2019
2709 Clouds -4 994 73 10000 1.5 100 14:18 09.12.2019
2710 Clouds -4 994 68 10000 1 0 13:56 09.12.2019
2711 Clouds -4 994 68 10000 1 0 13:38 09.12.2019
2712 Clouds -4 994 68 10000 1 0 13:19 09.12.2019
2713 Clouds -6 994 85 10000 2.17 168 12:56 09.12.2019
2714 Clouds -7 994 85 10000 2.17 168 12:37 09.12.2019
2715 Clouds -7 994 85 10000 2.17 168 12:19 09.12.2019
2716 Clouds -7 995 85 10000 1.5 100 11:55 09.12.2019
2717 Clouds -7 995 85 10000 1.5 100 11:37 09.12.2019
2718 Clouds -7 995 85 10000 1.5 100 11:18 09.12.2019
2719 Clouds -7 995 85 10000 1.5 100 11:18 09.12.2019
2720 Clouds -5 995 73 10000 1.5 170 10:40 09.12.2019
2721 Clouds -5 995 73 10000 1.5 170 10:20 09.12.2019
2722 Clouds -6 995 79 0 0.5 120 09:58 09.12.2019
2723 Clouds -7 995 79 0 0.5 120 09:40 09.12.2019
2724 Clouds -7 995 79 0 0.5 120 09:21 09.12.2019
2725 Clouds -6 995 79 0 0.5 230 08:44 09.12.2019
2726 Clouds -6 995 79 0 0.5 230 08:25 09.12.2019
2727 Clouds -6 995 73 0 0.5 0 07:56 09.12.2019
2728 Clouds -5 995 73 0 0.5 0 07:38 09.12.2019
2729 Clouds -5 995 73 0 0.5 0 07:20 09.12.2019
2730 Clouds -5 996 67 0 0.5 0 06:43 09.12.2019
2731 Clouds -5 996 67 0 0.5 0 06:24 09.12.2019
2732 Clouds -5 996 67 0 4.1 60 05:26 09.12.2019
2733 Clouds -6 997 73 0 6.2 50 04:46 09.12.2019
2734 Clouds -6 998 67 0 4.1 60 03:20 09.12.2019
2735 Clouds -6 999 67 0 1 0 02:24 09.12.2019
2736 Clouds -7 999 73 0 3.6 70 01:42 09.12.2019
2737 Clouds -7 1000 73 0 3.6 60 00:46 09.12.2019
2738 Clouds -7 1000 73 0 3.6 60 00:27 09.12.2019
2739 Clouds -7 1001 73 0 6.2 60 23:43 08.12.2019
2740 Clouds -7 1001 73 0 6.2 60 23:24 08.12.2019
2741 Clouds -7 1001 73 0 6.2 60 22:57 08.12.2019
2742 Clouds -7 1001 73 0 6.2 60 22:39 08.12.2019
2743 Clouds -7 1001 73 0 6.2 60 22:20 08.12.2019
2744 Clouds -8 1002 78 0 7.7 50 21:58 08.12.2019
2745 Clouds -8 1002 78 0 7.7 50 21:40 08.12.2019
2746 Clouds -8 1002 78 0 7.7 50 21:22 08.12.2019
2747 Clouds -8 1002 72 0 7.2 50 20:57 08.12.2019
2748 Clouds -8 1002 72 0 7.2 50 20:38 08.12.2019
2749 Clouds -8 1002 72 0 7.2 50 20:20 08.12.2019
2750 Clouds -8 1003 78 0 7.2 40 19:59 08.12.2019
2751 Clouds -8 1003 78 0 7.2 40 19:41 08.12.2019
2752 Clouds -8 1003 78 0 7.2 40 19:23 08.12.2019
2753 Clouds -8 1003 78 0 7.2 40 19:23 08.12.2019
2754 Clouds -8 1003 78 0 6.7 50 18:56 08.12.2019
2755 Clouds -8 1003 78 0 6.7 50 18:37 08.12.2019
2756 Clouds -8 1003 78 0 6.7 50 18:19 08.12.2019
2757 Clouds -8 1004 72 0 6.7 50 17:57 08.12.2019
2758 Clouds -8 1004 72 0 6.7 50 17:39 08.12.2019
2759 Clouds -8 1004 72 0 6.7 50 17:20 08.12.2019
2760 Clouds -8 1005 72 0 7.2 50 16:57 08.12.2019
2761 Clouds -8 1005 72 0 7.2 50 16:39 08.12.2019
2762 Clouds -8 1005 72 0 7.2 50 16:21 08.12.2019
2763 Clouds -8 1005 72 0 8.2 50 15:56 08.12.2019
2764 Clouds -8 1005 72 0 8.2 50 15:37 08.12.2019
2765 Clouds -8 1005 72 0 8.2 50 15:18 08.12.2019
2766 Clouds -8 1006 72 0 6.7 60 14:44 08.12.2019
2767 Clouds -8 1006 72 0 6.7 60 14:24 08.12.2019
2768 Clouds -8 1006 72 0 7.7 60 13:59 08.12.2019
2769 Clouds -8 1006 72 0 7.7 60 13:40 08.12.2019
2770 Clouds -8 1006 72 0 7.7 60 13:22 08.12.2019
2771 Clouds -8 1006 72 0 6.7 60 12:58 08.12.2019
2772 Clouds -8 1006 72 0 6.7 60 12:39 08.12.2019
2773 Clouds -8 1006 72 0 6.7 60 12:19 08.12.2019
2774 Clouds -8 1006 72 0 8.2 50 11:57 08.12.2019
2775 Clouds -8 1006 72 0 8.2 50 11:37 08.12.2019
2776 Clouds -8 1006 72 0 8.2 50 11:19 08.12.2019
2777 Clouds -9 1006 78 0 7.2 50 10:55 08.12.2019
2778 Clouds -9 1006 78 0 7.2 50 10:37 08.12.2019
2779 Clouds -9 1006 78 0 7.2 50 10:18 08.12.2019
2780 Clouds -9 1006 78 0 6.2 50 09:55 08.12.2019
2781 Clouds -9 1006 78 0 6.2 50 09:36 08.12.2019
2782 Clouds -9 1006 78 0 6.2 50 09:18 08.12.2019
2783 Clouds -9 1007 78 0 5.1 60 08:41 08.12.2019
2784 Clouds -9 1007 78 0 5.1 60 08:23 08.12.2019
2785 Clouds -6 1006 50 0 5.99 14 07:55 08.12.2019
2786 Clouds -6 1006 50 0 5.99 14 07:36 08.12.2019
2787 Clouds -6 1006 50 0 5.99 14 07:18 08.12.2019
2788 Clouds -6 1006 50 0 5.99 14 06:40 08.12.2019
2789 Clouds -6 1006 50 0 5.99 14 06:20 08.12.2019
2790 Clouds -9 1003 72 0 4.47 50 05:26 08.12.2019
2791 Clouds -9 1003 72 0 4.47 50 04:54 08.12.2019
2792 Clouds -9 1003 72 0 4.47 50 03:40 08.12.2019
2793 Clouds -9 1003 72 0 4.47 50 02:46 08.12.2019
2794 Clouds -9 1003 72 0 4.47 50 02:27 08.12.2019
2795 Clouds -9 1003 72 0 4.47 50 01:41 08.12.2019
2796 Clouds -9 1003 72 0 4.47 50 00:56 08.12.2019
2797 Clouds -9 1003 72 0 4.47 50 00:36 08.12.2019
2798 Clouds -9 1003 72 10000 4.6 50 00:18 08.12.2019
2799 Clouds -9 1003 72 10000 4.6 50 23:39 07.12.2019
2800 Clouds -9 1003 72 10000 4.6 50 23:20 07.12.2019
2801 Clouds -10 1002 66 10000 3.6 50 22:56 07.12.2019
2802 Clouds -10 1002 66 10000 3.6 50 22:37 07.12.2019
2803 Clouds -10 1002 66 10000 3.6 50 22:19 07.12.2019
2804 Clouds -10 1002 72 10000 4.6 50 21:55 07.12.2019
2805 Clouds -10 1002 72 10000 4.6 50 21:37 07.12.2019
2806 Clouds -10 1002 72 10000 4.6 50 21:19 07.12.2019
2807 Clouds -9 1001 72 10000 5.1 60 20:54 07.12.2019
2808 Clouds -9 1001 72 10000 5.1 60 20:36 07.12.2019
2809 Clouds -9 1001 72 10000 5.1 60 20:18 07.12.2019
2810 Clouds -10 1000 72 10000 6.2 70 19:54 07.12.2019
2811 Clouds -10 1000 72 10000 6.2 70 19:36 07.12.2019
2812 Clouds -10 1000 72 10000 6.2 70 19:36 07.12.2019
2813 Clouds -10 1000 72 10000 6.2 70 19:18 07.12.2019
2814 Clouds -9 999 72 10000 4.6 60 18:42 07.12.2019
2815 Clouds -9 999 72 10000 4.6 60 18:18 07.12.2019
2816 Clouds -9 999 72 10000 3.6 50 17:57 07.12.2019
2817 Clouds -9 999 72 10000 3.6 50 17:38 07.12.2019
2818 Clouds -9 999 72 10000 3.6 50 17:20 07.12.2019
2819 Clouds -9 998 66 10000 4.1 50 16:56 07.12.2019
2820 Clouds -9 998 66 10000 4.1 50 16:37 07.12.2019
2821 Clouds -9 998 66 10000 4.1 50 16:18 07.12.2019
2822 Clouds -9 998 66 10000 4.6 20 15:41 07.12.2019
2823 Clouds -9 998 66 10000 4.6 20 15:23 07.12.2019
2824 Clouds -9 997 66 10000 4.6 40 14:57 07.12.2019
2825 Clouds -9 997 66 10000 4.6 40 14:39 07.12.2019
2826 Clouds -9 997 66 10000 4.6 40 14:18 07.12.2019
2827 Clouds -9 996 72 10000 4.1 30 13:41 07.12.2019
2828 Clouds -9 996 72 10000 4.1 30 13:21 07.12.2019
2829 Clouds -9 996 72 10000 4.1 30 13:21 07.12.2019
2830 Clouds -9 995 66 10000 3.6 50 12:58 07.12.2019
2831 Clouds -9 995 66 10000 3.6 50 12:40 07.12.2019
2832 Clouds -9 995 66 10000 3.6 50 12:22 07.12.2019
2833 Clouds -9 995 66 10000 5.1 60 11:57 07.12.2019
2834 Clouds -9 995 66 10000 5.1 60 11:38 07.12.2019
2835 Clouds -9 995 66 10000 5.1 60 11:20 07.12.2019
2836 Clear -9 994 72 0 3.6 30 10:38 07.12.2019
2837 Clear -9 994 72 0 3.6 30 10:19 07.12.2019
2838 Clear -9 994 72 0 3.6 30 10:19 07.12.2019
2839 Clear -9 994 72 0 6.7 20 09:41 07.12.2019
2840 Clear -9 994 72 0 6.7 20 09:22 07.12.2019
2841 Clear -9 993 66 0 5.7 30 08:56 07.12.2019
2842 Clear -9 993 66 0 5.7 30 08:37 07.12.2019
2843 Clouds -9 993 66 0 5.7 30 08:19 07.12.2019
2844 Clouds -9 993 61 0 6.2 40 07:44 07.12.2019
2845 Clouds -9 993 61 0 6.2 40 07:23 07.12.2019
2846 Clouds -9 992 66 0 5.1 40 06:45 07.12.2019
2847 Clouds -9 992 66 0 5.1 40 06:24 07.12.2019
2848 Clouds -10 992 66 0 4.6 50 05:25 07.12.2019
2849 Clouds -8 993 67 0 5.7 20 03:55 07.12.2019
2850 Clouds -8 993 67 0 5.7 20 03:18 07.12.2019
2851 Clouds -9 993 72 0 4.1 40 02:21 07.12.2019
2852 Clouds -9 993 78 0 5.1 40 01:34 07.12.2019
2853 Clouds -8 993 72 10000 5.7 50 00:52 07.12.2019
2854 Clouds -8 993 72 10000 5.7 50 00:19 07.12.2019
2855 Clouds -8 993 72 10000 5.7 50 00:19 07.12.2019
2856 Clouds -8 993 72 10000 6.7 50 23:55 06.12.2019
2857 Clouds -8 993 72 10000 6.7 50 23:36 06.12.2019
2858 Clouds -8 993 72 10000 6.7 50 23:18 06.12.2019
2859 Clouds -8 993 67 10000 6.7 50 22:37 06.12.2019
2860 Clouds -8 993 67 10000 6.7 50 22:19 06.12.2019
2861 Clouds -9 993 72 10000 6.7 50 21:57 06.12.2019
2862 Clouds -9 993 72 10000 6.7 50 21:38 06.12.2019
2863 Clouds -9 993 72 10000 6.7 50 21:19 06.12.2019
2864 Clouds -9 993 72 10000 7.2 60 20:42 06.12.2019
2865 Clouds -9 993 72 10000 7.2 60 20:42 06.12.2019
2866 Clouds -9 993 72 10000 7.2 60 20:24 06.12.2019
2867 Clouds -9 993 72 10000 7.7 60 19:59 06.12.2019
2868 Clouds -9 993 72 10000 7.7 60 19:40 06.12.2019
2869 Clouds -9 993 72 10000 7.7 60 19:22 06.12.2019
2870 Clouds -9 993 72 10000 7.7 60 19:22 06.12.2019
2871 Clouds -9 994 72 0 6.71 60 18:57 06.12.2019
2872 Clouds -9 994 72 0 6.71 60 18:39 06.12.2019
2873 Clouds -9 994 72 10000 6.7 60 18:19 06.12.2019
2874 Clouds -9 994 72 10000 6.7 60 17:56 06.12.2019
2875 Clouds -9 994 72 10000 6.7 60 17:37 06.12.2019
2876 Clouds -9 994 72 10000 6.7 60 17:19 06.12.2019
2877 Clouds -9 994 72 10000 7.2 60 16:43 06.12.2019
2878 Clouds -9 994 72 10000 7.2 60 16:25 06.12.2019
2879 Clouds -9 995 72 10000 7.7 60 15:59 06.12.2019
2880 Clouds -9 995 72 10000 7.7 60 15:40 06.12.2019
2881 Clouds -9 995 72 10000 7.7 60 15:19 06.12.2019
2882 Clouds -9 995 72 10000 7.7 60 14:57 06.12.2019
2883 Clouds -9 995 72 10000 7.7 60 14:38 06.12.2019
2884 Clouds -9 995 72 10000 7.7 60 14:38 06.12.2019
2885 Clouds -9 995 72 10000 7.7 60 14:19 06.12.2019
2886 Clouds -9 995 72 10000 8.2 60 13:43 06.12.2019
2887 Clouds -9 995 72 10000 8.2 60 13:25 06.12.2019
2888 Clouds -9 996 66 10000 6.2 60 12:43 06.12.2019
2889 Clouds -9 996 66 10000 6.2 60 12:23 06.12.2019
2890 Clouds -9 996 66 10000 6.2 60 12:23 06.12.2019
2891 Clouds -9 996 72 10000 7.7 60 11:58 06.12.2019
2892 Clouds -9 996 72 10000 7.7 60 11:39 06.12.2019
2893 Clouds -9 996 72 10000 7.7 60 11:21 06.12.2019
2894 Clouds -10 997 72 10000 6.7 60 10:44 06.12.2019
2895 Clouds -10 997 72 10000 6.7 60 10:22 06.12.2019
2896 Clouds -9 997 72 0 7.2 70 09:58 06.12.2019
2897 Clouds -9 997 72 0 7.2 70 09:38 06.12.2019
2898 Clouds -9 997 72 0 7.2 70 09:20 06.12.2019
2899 Clouds -10 997 78 0 6.7 50 08:55 06.12.2019
2900 Clouds -10 997 78 0 6.7 50 08:36 06.12.2019
2901 Clear -10 997 78 0 6.7 50 08:18 06.12.2019
2902 Clear -9 998 66 0 7.2 50 07:37 06.12.2019
2903 Clear -9 998 66 0 7.2 50 07:19 06.12.2019
2904 Clear -10 998 78 0 7.7 60 06:30 06.12.2019
2905 Clear -10 998 72 0 6.7 60 05:54 06.12.2019
2906 Clear -10 998 72 0 6.7 60 05:35 06.12.2019
2907 Clouds -10 998 72 10000 6.2 50 02:19 06.12.2019
2908 Clouds -10 998 72 10000 7.2 60 01:43 06.12.2019
2909 Clouds -10 998 78 10000 6.7 50 00:48 06.12.2019
2910 Clouds -10 998 78 10000 6.7 50 00:22 06.12.2019
2911 Clouds -11 998 85 10000 7.7 50 23:50 05.12.2019
2912 Clouds -11 998 85 10000 7.7 50 23:20 05.12.2019
2913 Clouds -11 998 85 10000 7.7 60 22:58 05.12.2019
2914 Clouds -11 998 85 10000 7.7 60 22:38 05.12.2019
2915 Clouds -11 998 85 10000 7.7 60 22:18 05.12.2019
2916 Clouds -11 998 85 10000 7.7 60 22:18 05.12.2019
2917 Clouds -11 998 78 10000 5.7 60 21:55 05.12.2019
2918 Clouds -11 998 78 10000 5.7 60 21:37 05.12.2019
2919 Clouds -11 998 78 10000 5.7 60 21:18 05.12.2019
2920 Clouds -11 997 78 10000 5.7 60 20:54 05.12.2019
2921 Clouds -11 997 78 10000 5.7 60 20:36 05.12.2019
2922 Clouds -11 997 78 10000 5.7 60 20:36 05.12.2019
2923 Clouds -11 997 78 10000 5.7 60 20:18 05.12.2019
2924 Clouds -11 997 78 10000 5.7 60 20:18 05.12.2019
2925 Clouds -12 996 78 10000 5.1 60 19:40 05.12.2019
2926 Clouds -12 996 78 10000 5.1 60 19:21 05.12.2019
2927 Clouds -11 996 72 10000 5.1 70 18:58 05.12.2019
2928 Clouds -11 996 72 10000 5.1 70 18:38 05.12.2019
2929 Clouds -11 996 72 10000 5.1 70 18:38 05.12.2019
2930 Clouds -11 996 72 10000 5.1 70 18:38 05.12.2019
2931 Clouds -11 996 72 10000 5.1 70 18:20 05.12.2019
2932 Clouds -11 995 72 10000 5.1 60 17:40 05.12.2019
2933 Clouds -11 995 72 10000 5.1 60 17:20 05.12.2019
2934 Clouds -11 994 72 10000 5.7 70 16:59 05.12.2019
2935 Clouds -11 994 72 10000 5.7 70 16:40 05.12.2019
2936 Clouds -11 994 72 10000 5.7 70 16:21 05.12.2019
2937 Clouds -11 994 72 10000 6.7 20 15:58 05.12.2019
2938 Clouds -10 994 72 10000 6.7 20 15:39 05.12.2019
2939 Clouds -10 994 72 10000 6.7 20 15:20 05.12.2019
2940 Clouds -11 994 78 10000 5.7 360 14:56 05.12.2019
2941 Clouds -11 994 78 10000 5.7 360 14:38 05.12.2019
2942 Clouds -11 994 78 10000 5.7 360 14:38 05.12.2019
2943 Clouds -11 994 78 10000 5.7 360 14:20 05.12.2019
2944 Clouds -11 993 56 10000 4.6 40 13:58 05.12.2019
2945 Clouds -10 993 56 10000 4.6 40 13:39 05.12.2019
2946 Clouds -10 993 56 10000 4.6 40 13:20 05.12.2019
2947 Clouds -10 993 66 10000 6.7 10 12:58 05.12.2019
2948 Clouds -10 993 66 10000 6.7 10 12:39 05.12.2019
2949 Clouds -10 993 66 10000 6.7 10 12:21 05.12.2019
2950 Clouds -10 993 56 10000 5.1 50 11:40 05.12.2019
2951 Clouds -10 993 56 10000 5.1 50 11:22 05.12.2019
2952 Clear -10 993 78 0 7.2 20 10:59 05.12.2019
2953 Clear -10 993 78 0 7.2 20 10:40 05.12.2019
2954 Clear -10 993 78 0 7.2 20 10:19 05.12.2019
2955 Clear -10 993 78 0 7.2 20 10:19 05.12.2019
2956 Clear -9 993 72 0 7.2 40 09:57 05.12.2019
2957 Clear -9 993 72 0 7.2 40 09:38 05.12.2019
2958 Clear -9 993 72 0 7.2 40 09:20 05.12.2019
2959 Clear -10 993 61 0 6.2 40 08:56 05.12.2019
2960 Clear -10 993 61 0 6.2 40 08:37 05.12.2019
2961 Clear -10 993 61 0 6.2 40 08:18 05.12.2019
2962 Clear -10 993 61 0 6.2 40 08:18 05.12.2019
2963 Clear -9 994 66 0 6.2 60 07:41 05.12.2019
2964 Clear -9 994 66 0 6.2 60 07:22 05.12.2019
2965 Clear -9 994 66 0 6.2 70 06:48 05.12.2019
2966 Clear -9 994 66 0 6.2 70 06:24 05.12.2019
2967 Clear -9 995 72 0 6.7 80 05:54 05.12.2019
2968 Clear -9 995 72 0 6.7 80 05:24 05.12.2019
2969 Clear -9 995 66 0 6.7 90 04:59 05.12.2019
2970 Clear -8 995 61 0 6.7 90 03:40 05.12.2019
2971 Clear -8 996 61 0 6.2 90 02:42 05.12.2019
2972 Clouds -8 996 61 0 6.2 90 02:22 05.12.2019
2973 Clouds -8 996 67 0 6.2 90 01:51 05.12.2019
2974 Clouds -8 996 67 0 6.2 90 01:23 05.12.2019
2975 Clouds -9 997 66 10000 6.7 80 00:44 05.12.2019
2976 Clouds -9 997 66 10000 6.7 80 00:21 05.12.2019
2977 Clouds -8 998 67 10000 6.2 90 23:55 04.12.2019
2978 Clouds -8 998 67 10000 6.2 90 23:37 04.12.2019
2979 Clouds -8 998 67 10000 6.2 90 23:18 04.12.2019
2980 Clouds -9 998 78 10000 5.1 90 22:39 04.12.2019
2981 Clouds -9 998 78 10000 5.1 90 22:20 04.12.2019
2982 Clouds -10 998 78 10000 2.1 90 21:58 04.12.2019
2983 Clouds -10 998 78 10000 2.1 90 21:39 04.12.2019
2984 Clouds -10 998 78 10000 2.1 90 21:20 04.12.2019
2985 Rain -8 998 85 10000 4.6 140 20:58 04.12.2019
2986 Rain -8 998 85 10000 4.6 140 20:40 04.12.2019
2987 Rain -8 998 85 10000 4.6 140 20:21 04.12.2019
2988 Snow -8 998 92 1000 2.1 70 19:58 04.12.2019
2989 Snow -8 998 92 1000 2.1 70 19:38 04.12.2019
2990 Snow -8 998 92 1000 2.1 70 19:20 04.12.2019
2991 Rain -8 998 78 10000 2.6 110 18:56 04.12.2019
2992 Rain -8 998 78 10000 2.6 110 18:38 04.12.2019
2993 Rain -8 998 78 10000 2.6 110 18:20 04.12.2019
2994 Clouds -8 998 85 10000 1 0 17:40 04.12.2019
2995 Clouds -8 998 85 10000 1 0 17:21 04.12.2019
2996 Rain -7 998 79 10000 4.1 270 16:59 04.12.2019
2997 Rain -7 998 79 10000 4.1 270 16:39 04.12.2019
2998 Rain -7 998 79 10000 4.1 270 16:19 04.12.2019
2999 Rain -7 997 73 10000 3.6 150 15:55 04.12.2019
3000 Rain -7 997 73 10000 3.6 150 15:37 04.12.2019
3001 Rain -7 997 73 10000 3.6 150 15:19 04.12.2019
3002 Snow -7 997 67 10000 2.6 230 14:44 04.12.2019
3003 Snow -7 997 67 10000 2.6 230 14:23 04.12.2019
3004 Clouds -8 997 67 10000 2.1 170 13:59 04.12.2019
3005 Clouds -8 997 67 10000 2.1 170 13:38 04.12.2019
3006 Clouds -8 997 67 10000 2.1 170 13:20 04.12.2019
3007 Snow -8 997 85 10000 1.5 180 12:45 04.12.2019
3008 Snow -8 997 85 10000 1.5 180 12:25 04.12.2019
3009 Snow -8 996 78 0 3.6 230 11:56 04.12.2019
3010 Snow -8 996 78 0 3.6 230 11:38 04.12.2019
3011 Snow -8 996 78 0 3.6 230 11:20 04.12.2019
3012 Snow -8 996 85 0 4.6 260 10:44 04.12.2019
3013 Snow -8 996 85 0 4.6 260 10:24 04.12.2019
3014 Snow -8 995 61 0 4.1 240 09:57 04.12.2019
3015 Snow -8 995 61 0 4.1 240 09:38 04.12.2019
3016 Snow -8 995 61 0 4.1 240 09:20 04.12.2019
3017 Snow -8 995 73 0 3.1 250 08:41 04.12.2019
3018 Snow -8 995 73 0 3.1 250 08:23 04.12.2019
3019 Snow -8 994 67 0 4.6 240 07:50 04.12.2019
3020 Snow -8 994 67 0 4.6 240 07:30 04.12.2019
3021 Snow -8 993 67 0 4.6 250 06:47 04.12.2019
3022 Snow -8 993 67 0 4.6 250 06:25 04.12.2019
3023 Snow -7 993 67 0 3.6 240 05:42 04.12.2019
3024 Snow -7 992 67 0 6.7 230 04:31 04.12.2019
3025 Snow -7 992 85 10000 7.2 220 03:20 04.12.2019
3026 Snow -8 990 85 8000 6.2 210 01:21 04.12.2019
3027 Snow -8 990 85 2800 5.7 240 00:40 04.12.2019
3028 Snow -8 990 85 2800 5.7 240 00:19 04.12.2019
3029 Snow -8 989 85 10000 3.6 260 23:41 03.12.2019
3030 Snow -8 989 85 10000 3.6 260 23:20 03.12.2019
3031 Snow -8 989 85 2800 3.6 230 22:56 03.12.2019
3032 Snow -8 989 85 2800 3.6 230 22:37 03.12.2019
3033 Snow -8 989 85 2800 3.6 230 22:18 03.12.2019
3034 Snow -8 988 85 10000 3.6 280 21:55 03.12.2019
3035 Snow -8 988 85 10000 3.6 280 21:36 03.12.2019
3036 Snow -8 988 85 10000 3.6 280 21:18 03.12.2019
3037 Snow -8 987 85 1300 3.1 240 20:41 03.12.2019
3038 Snow -8 987 85 1300 3.1 240 20:19 03.12.2019
3039 Snow -8 987 85 4600 4.6 260 19:56 03.12.2019
3040 Snow -8 987 85 4600 4.6 260 19:38 03.12.2019
3041 Rain -8 986 78 10000 5.1 260 19:20 03.12.2019
3042 Rain -8 985 67 10000 4.1 250 18:58 03.12.2019
3043 Rain -7 985 67 10000 4.1 250 18:40 03.12.2019
3044 Rain -7 985 67 10000 4.1 250 18:21 03.12.2019
3045 Rain -8 985 78 10000 3.1 240 17:57 03.12.2019
3046 Rain -8 985 78 10000 3.1 240 17:57 03.12.2019
3047 Rain -8 985 78 10000 3.1 240 17:38 03.12.2019
3048 Rain -8 985 78 10000 3.1 240 17:18 03.12.2019
3049 Rain -8 985 78 6000 4.6 270 16:57 03.12.2019
3050 Rain -8 985 78 6000 4.6 270 16:39 03.12.2019
3051 Rain -8 985 78 6000 4.6 270 16:20 03.12.2019
3052 Snow -7 984 79 4500 2.6 300 15:56 03.12.2019
3053 Snow -7 984 79 4500 2.6 300 15:38 03.12.2019
3054 Snow -8 984 79 4500 2.6 300 15:19 03.12.2019
3055 Snow -8 984 85 8000 3.1 240 14:43 03.12.2019
3056 Snow -8 984 85 8000 3.1 240 14:20 03.12.2019
3057 Snow -8 983 92 600 2.6 180 13:57 03.12.2019
3058 Snow -8 983 92 600 2.6 180 13:37 03.12.2019
3059 Snow -8 983 92 600 2.6 180 13:19 03.12.2019
3060 Snow -8 983 92 550 6.2 210 12:42 03.12.2019
3061 Snow -8 983 92 550 6.2 210 12:19 03.12.2019
3062 Snow -8 983 57 8000 5.7 150 11:59 03.12.2019
3063 Snow -7 983 57 8000 5.7 150 11:39 03.12.2019
3064 Snow -7 983 57 8000 5.7 150 11:21 03.12.2019
3065 Clouds -7 982 52 0 7.7 150 10:59 03.12.2019
3066 Clouds -7 982 52 0 7.7 150 10:41 03.12.2019
3067 Clouds -7 982 52 0 7.7 150 10:21 03.12.2019
3068 Clouds -8 982 48 0 6.2 130 09:57 03.12.2019
3069 Clouds -8 982 48 0 6.2 130 09:39 03.12.2019
3070 Clouds -8 982 48 0 6.2 130 09:20 03.12.2019
3071 Clouds -9 983 56 0 6.2 110 08:54 03.12.2019
3072 Clouds -9 983 56 0 6.2 110 08:36 03.12.2019
3073 Clouds -9 983 56 0 6.2 110 08:18 03.12.2019
3074 Clouds -9 983 52 0 5.7 110 07:49 03.12.2019
3075 Clouds -9 983 52 0 5.7 110 07:23 03.12.2019
3076 Clouds -10 983 51 0 3.1 100 06:23 03.12.2019
3077 Clouds -10 983 61 0 3.6 100 05:59 03.12.2019
3078 Snow -10 984 72 0 2.6 100 04:50 03.12.2019
3079 Snow -8 984 78 0 1.5 90 03:40 03.12.2019
3080 Snow -8 984 78 0 1.5 90 03:20 03.12.2019
3081 Snow -7 984 79 0 6.2 280 02:49 03.12.2019
3082 Snow -7 984 79 0 6.2 280 02:31 03.12.2019
3083 Snow -7 984 79 0 7.2 250 01:46 03.12.2019
3084 Snow -7 984 79 0 7.2 250 01:28 03.12.2019
3085 Snow -7 984 92 3500 4.6 260 00:56 03.12.2019
3086 Snow -7 984 92 3500 4.6 260 00:38 03.12.2019
3087 Snow -7 984 92 3500 4.6 260 00:20 03.12.2019
3088 Rain -6 983 73 10000 4.6 240 23:43 02.12.2019
3089 Rain -6 983 73 10000 4.6 240 23:20 02.12.2019
3090 Rain -6 983 92 5000 4.1 240 22:42 02.12.2019
3091 Rain -6 983 92 5000 4.1 240 22:23 02.12.2019
3092 Snow -6 983 79 10000 4.6 240 21:59 02.12.2019
3093 Snow -6 983 79 10000 4.6 240 21:38 02.12.2019
3094 Snow -6 983 79 10000 4.6 240 21:19 02.12.2019
3095 Snow -8 983 85 10000 2.6 210 20:56 02.12.2019
3096 Snow -8 983 85 10000 2.6 210 20:38 02.12.2019
3097 Snow -8 983 85 10000 2.6 210 20:20 02.12.2019
3098 Rain -6 983 85 10000 3.6 230 19:55 02.12.2019
3099 Rain -6 983 85 10000 3.6 230 19:37 02.12.2019
3100 Rain -6 983 85 10000 3.6 230 19:19 02.12.2019
3101 Rain -6 983 73 10000 3.6 240 18:43 02.12.2019
3102 Rain -6 983 73 10000 3.6 240 18:20 02.12.2019
3103 Rain -6 983 73 10000 2.6 250 17:58 02.12.2019
3104 Rain -6 983 73 10000 2.6 250 17:40 02.12.2019
3105 Rain -6 983 73 10000 2.6 250 17:20 02.12.2019
3106 Clouds -6 984 79 10000 4.6 240 16:54 02.12.2019
3107 Clouds -6 984 79 10000 4.6 240 16:36 02.12.2019
3108 Clouds -6 984 79 10000 4.6 240 16:18 02.12.2019
3109 -273 0 0 0 0 0 15:55 02.12.2019
3110 Snow -6 984 92 10000 2.6 200 15:37 02.12.2019
3111 Snow -6 984 92 10000 2.6 200 15:18 02.12.2019
3112 Snow -6 984 92 2200 4.6 260 14:39 02.12.2019
3113 Snow -6 984 92 2200 4.6 260 14:20 02.12.2019
3114 Snow -6 984 92 1500 0.5 260 13:58 02.12.2019
3115 Snow -6 984 92 1500 0.5 260 13:39 02.12.2019
3116 Snow -6 984 92 1500 0.5 260 13:20 02.12.2019
3117 Snow -6 983 92 2000 3.1 290 12:57 02.12.2019
3118 Snow -6 983 92 2000 3.1 290 12:38 02.12.2019
3119 Snow -6 983 92 2000 3.1 290 12:20 02.12.2019
3120 Snow -5 983 92 4100 1 120 11:56 02.12.2019
3121 Snow -5 983 92 4100 1 120 11:37 02.12.2019
3122 Snow -5 983 92 4100 1 120 11:18 02.12.2019
3123 Snow -5 982 92 3000 4.6 290 10:55 02.12.2019
3124 Snow -5 982 92 3000 4.6 290 10:36 02.12.2019
3125 Snow -5 982 92 3000 4.6 290 10:36 02.12.2019
3126 Snow -5 982 92 3000 4.6 290 10:18 02.12.2019
3127 Snow -5 981 100 0 5.7 300 09:40 02.12.2019
3128 Snow -5 981 100 0 5.7 300 09:19 02.12.2019
3129 Snow -4 980 92 0 4.6 300 08:57 02.12.2019
3130 Snow -4 980 92 0 4.6 300 08:38 02.12.2019
3131 Snow -4 980 92 0 4.6 300 08:20 02.12.2019
3132 Snow -4 979 92 0 5.7 300 07:44 02.12.2019
3133 Snow -4 979 92 0 5.7 300 07:21 02.12.2019
3134 Snow -4 978 100 0 4.6 320 06:56 02.12.2019
3135 Snow -4 978 100 0 4.6 320 06:37 02.12.2019
3136 Snow -3 978 92 0 6.2 320 05:32 02.12.2019
3137 Snow -2 978 92 0 5.7 320 04:26 02.12.2019
3138 Snow -2 978 100 0 1 20 02:53 02.12.2019
3139 Snow -2 978 100 0 1 20 02:27 02.12.2019
3140 Snow -1 978 92 0 3.1 300 01:26 02.12.2019
3141 Snow 2 976 93 0 13.4 180 00:57 02.12.2019
3142 Snow 2 976 93 0 13.4 180 00:25 02.12.2019
3143 Snow 2 974 100 0 21.1 170 23:54 01.12.2019
3144 Snow 2 974 100 0 21.1 170 23:36 01.12.2019
3145 Snow 2 974 100 0 21.1 170 23:18 01.12.2019
3146 Snow 3 975 93 0 17 170 22:54 01.12.2019
3147 Snow 3 975 93 0 17 170 22:36 01.12.2019
3148 Snow 3 975 93 0 17 170 22:18 01.12.2019
3149 -273 0 0 0 0 0 21:54 01.12.2019
3150 Snow 3 976 86 0 14.4 160 21:36 01.12.2019
3151 Snow 3 976 86 0 14.4 160 21:18 01.12.2019
3152 Snow 1 977 100 0 6.7 190 20:42 01.12.2019
3153 Snow 1 977 100 0 6.7 190 20:24 01.12.2019
3154 Snow 0 978 97 0 1.5 310 19:59 01.12.2019
3155 Snow 0 978 97 0 1.5 310 19:40 01.12.2019
3156 Snow 0 978 97 0 1.5 310 19:22 01.12.2019
3157 Snow -2 978 100 0 3.6 30 18:58 01.12.2019
3158 Snow -2 978 100 0 3.6 30 18:39 01.12.2019
3159 Snow -2 978 100 0 3.6 30 18:20 01.12.2019
3160 Snow -2 979 92 0 3.1 30 17:59 01.12.2019
3161 Snow -2 979 92 0 3.1 30 17:41 01.12.2019
3162 Snow -2 979 92 0 3.1 30 17:23 01.12.2019
3163 Snow -2 979 92 0 3.1 40 16:57 01.12.2019
3164 Snow -2 979 92 0 3.1 40 16:39 01.12.2019
3165 Snow -2 979 92 0 3.1 40 16:20 01.12.2019
3166 Snow -3 979 100 0 2.1 10 15:50 01.12.2019
3167 Snow -3 979 100 0 2.1 10 15:31 01.12.2019
3168 Snow -3 979 100 0 3.1 10 14:44 01.12.2019
3169 Snow -3 979 100 0 3.1 10 14:20 01.12.2019
3170 Snow -2 979 92 0 6.7 50 13:59 01.12.2019
3171 Snow -2 979 92 0 6.7 50 13:39 01.12.2019
3172 Snow -2 979 92 0 6.7 50 13:20 01.12.2019
3173 Snow -2 979 79 0 6.7 50 12:44 01.12.2019
3174 Rain -2 980 79 0 6.2 30 11:59 01.12.2019
3175 Rain -2 980 79 0 6.2 30 11:40 01.12.2019
3176 Rain -2 980 79 0 6.2 30 11:22 01.12.2019
3177 Rain -2 981 79 0 6.2 40 10:44 01.12.2019
3178 Rain -2 981 79 0 6.2 40 10:22 01.12.2019
3179 Rain -3 982 86 0 5.7 50 09:59 01.12.2019
3180 Rain -3 982 86 0 5.7 50 09:39 01.12.2019
3181 Rain -3 982 86 0 5.7 50 09:20 01.12.2019
3182 Rain -3 984 79 0 5.1 40 08:48 01.12.2019
3183 Snow -3 984 79 0 5.1 40 08:20 01.12.2019
3184 Snow -3 985 79 0 4.1 40 07:52 01.12.2019
3185 Snow -3 985 79 0 4.1 40 07:31 01.12.2019
3186 Snow -3 987 79 0 4.6 20 06:57 01.12.2019
3187 Snow -3 987 79 0 4.6 20 06:35 01.12.2019
3188 Snow -3 989 79 0 4.1 360 05:49 01.12.2019
3189 Snow -3 990 79 0 5.7 40 04:52 01.12.2019
3190 Snow -2 993 68 0 8.2 40 03:31 01.12.2019
3191 Snow -2 994 68 0 7.7 40 02:37 01.12.2019
3192 Clouds -2 994 68 0 7.7 40 02:18 01.12.2019
3193 Clouds -2 997 63 0 9.8 60 01:52 01.12.2019
3194 Clouds -2 997 63 0 9.8 60 01:25 01.12.2019
3195 Clouds -3 999 73 0 9.3 60 00:42 01.12.2019
3196 Clouds -3 999 73 0 9.3 60 00:24 01.12.2019
3197 Clouds -3 1001 68 10000 10.3 50 23:43 30.11.2019
3198 Clouds -3 1001 68 10000 10.3 50 23:24 30.11.2019
3199 Clouds -3 1003 73 10000 10.3 50 22:56 30.11.2019
3200 Clouds -3 1003 73 10000 10.3 50 22:38 30.11.2019
3201 Clouds -3 1003 73 10000 10.3 50 22:19 30.11.2019
3202 Clouds -3 1006 79 10000 9.3 60 21:43 30.11.2019
3203 Clouds -3 1006 79 10000 9.3 60 21:24 30.11.2019
3204 Clouds -4 1007 85 10000 10.3 50 20:56 30.11.2019
3205 Clouds -4 1007 85 10000 10.3 50 20:38 30.11.2019
3206 Clouds -4 1007 85 10000 10.3 50 20:38 30.11.2019
3207 Clouds -4 1007 85 10000 10.3 50 20:19 30.11.2019
3208 Clouds -4 1009 85 10000 8.7 50 19:55 30.11.2019
3209 Clouds -4 1009 85 10000 8.7 50 19:37 30.11.2019
3210 Clouds -4 1009 85 10000 8.7 50 19:19 30.11.2019
3211 Clouds -4 1011 92 10000 9.3 50 18:56 30.11.2019
3212 Clouds -4 1011 92 10000 9.3 50 18:37 30.11.2019
3213 Clouds -4 1011 92 10000 9.3 50 18:19 30.11.2019
3214 Clouds -4 1013 92 10000 8.2 40 17:57 30.11.2019
3215 Clouds -4 1013 92 10000 8.2 40 17:38 30.11.2019
3216 Clouds -4 1013 92 10000 8.2 40 17:19 30.11.2019
3217 Clouds -3 1015 86 10000 7.2 40 16:56 30.11.2019
3218 Clouds -3 1015 86 10000 7.2 40 16:56 30.11.2019
3219 Clouds -3 1015 86 10000 7.2 40 16:38 30.11.2019
3220 Clouds -3 1015 86 10000 7.2 40 16:19 30.11.2019
3221 Clouds -3 1016 86 10000 6.7 40 15:42 30.11.2019
3222 Clouds -3 1016 86 10000 6.7 40 15:19 30.11.2019
3223 Clouds -3 1017 86 10000 6.2 60 14:57 30.11.2019
3224 Clouds -3 1017 86 10000 6.2 60 14:38 30.11.2019
3225 Clouds -3 1017 86 10000 6.2 60 14:19 30.11.2019
3226 Clouds -3 1017 92 10000 6.7 10 13:57 30.11.2019
3227 Clouds -3 1017 92 10000 6.7 10 13:37 30.11.2019
3228 Clouds -3 1017 92 10000 6.7 10 13:19 30.11.2019
3229 Clouds -3 1017 92 10000 6.7 10 13:19 30.11.2019
3230 Clouds -3 1017 92 10000 5.1 350 12:47 30.11.2019
3231 Clouds -3 1017 92 10000 5.1 350 12:28 30.11.2019
3232 Snow -3 1018 92 0 4.1 30 11:57 30.11.2019
3233 Snow -3 1018 92 0 4.1 30 11:38 30.11.2019
3234 Snow -3 1018 92 0 4.1 30 11:18 30.11.2019
3235 Snow -3 1018 92 0 5.1 10 10:44 30.11.2019
3236 Snow -3 1018 92 0 5.1 10 10:21 30.11.2019
3237 Snow -3 1018 92 0 4.1 20 09:50 30.11.2019
3238 Snow -3 1018 92 0 4.1 20 09:30 30.11.2019
3239 Snow -3 1018 92 0 3.6 60 08:56 30.11.2019
3240 Snow -3 1018 92 0 3.6 60 08:56 30.11.2019
3241 Snow -3 1018 92 0 3.6 60 08:38 30.11.2019
3242 Snow -3 1018 92 0 3.6 60 08:18 30.11.2019
3243 Snow -3 1018 92 0 4.6 50 07:42 30.11.2019
3244 Snow -3 1018 92 0 4.6 50 07:23 30.11.2019
3245 Snow -3 1018 92 0 4.6 60 06:45 30.11.2019
3246 Snow -3 1018 92 0 4.6 60 06:27 30.11.2019
3247 Snow -3 1019 92 0 4.6 60 05:23 30.11.2019
3248 Snow -3 1019 92 0 4.1 60 03:38 30.11.2019
3249 Snow -3 1019 92 0 2.6 60 02:25 30.11.2019
3250 Snow -4 1019 92 0 2.6 50 01:51 30.11.2019
3251 Snow -4 1019 92 0 2.6 50 01:24 30.11.2019
3252 Snow -3 1019 92 0 2.1 40 00:45 30.11.2019
3253 Snow -3 1019 92 0 2.1 40 00:27 30.11.2019
3254 Snow -4 1019 100 4000 2.1 40 23:45 29.11.2019
3255 Snow -4 1019 100 4000 2.1 40 23:25 29.11.2019
3256 Snow -3 1019 92 3500 1.5 30 22:58 29.11.2019
3257 Snow -3 1019 92 3500 1.5 30 22:39 29.11.2019
3258 Snow -3 1019 92 3500 1.5 30 22:21 29.11.2019
3259 Snow -3 1018 92 2500 2.6 50 21:41 29.11.2019
3260 Snow -3 1018 92 2500 2.6 50 21:22 29.11.2019
3261 Snow -3 1018 92 2000 2.6 30 20:56 29.11.2019
3262 Snow -3 1018 92 2000 2.6 30 20:37 29.11.2019
3263 Snow -3 1018 92 2000 2.6 30 20:18 29.11.2019
3264 Rain -3 1018 86 5000 2.6 20 19:55 29.11.2019
3265 Rain -3 1018 86 5000 2.6 20 19:37 29.11.2019
3266 Rain -3 1018 86 5000 2.6 20 19:19 29.11.2019
3267 Rain -2 1017 79 5000 3.6 40 18:42 29.11.2019
3268 Rain -2 1017 79 5000 3.6 40 18:42 29.11.2019
3269 Rain -2 1017 79 5000 3.6 40 18:24 29.11.2019
3270 Clouds -2 1017 74 10000 2.6 50 18:00 29.11.2019
3271 Clouds -2 1017 74 10000 2.6 50 17:41 29.11.2019
3272 Clouds -2 1017 74 10000 2.6 50 17:22 29.11.2019
3273 Clouds -3 1017 73 10000 3.6 50 16:44 29.11.2019
3274 Clouds -3 1017 73 10000 3.6 50 16:21 29.11.2019
3275 Clouds -3 1017 73 10000 1 250 15:59 29.11.2019
3276 Clouds -3 1017 73 10000 1 250 15:39 29.11.2019
3277 Clouds -3 1017 73 10000 1 250 15:21 29.11.2019
3278 Clouds -3 1017 68 10000 4.6 50 14:42 29.11.2019
3279 Clouds -3 1017 68 10000 4.6 50 14:22 29.11.2019
3280 Clouds -3 1017 68 10000 1 0 13:59 29.11.2019
3281 Clouds -3 1017 68 10000 1 0 13:39 29.11.2019
3282 Clouds -3 1017 68 10000 1 0 13:20 29.11.2019
3283 Clouds -3 1016 68 10000 1 90 12:45 29.11.2019
3284 Clouds -3 1016 68 10000 1 90 12:25 29.11.2019
3285 Clouds -3 1016 68 10000 1.5 100 11:59 29.11.2019
3286 Clouds -3 1016 68 10000 1.5 100 11:41 29.11.2019
3287 Clouds -3 1016 68 10000 1.5 100 11:19 29.11.2019
3288 Clouds -3 1015 68 10000 0.43 231 10:59 29.11.2019
3289 Clouds -3 1015 68 10000 0.43 231 10:40 29.11.2019
3290 Clouds -3 1015 68 10000 0.43 231 10:22 29.11.2019
3291 Clouds -4 1015 79 0 0.5 150 09:59 29.11.2019
3292 Clouds -4 1015 79 0 0.5 150 09:40 29.11.2019
3293 Clouds -4 1015 79 0 0.5 150 09:40 29.11.2019
3294 Clouds -4 1015 79 0 0.5 150 09:22 29.11.2019
3295 Clouds -3 1015 73 0 1 70 08:59 29.11.2019
3296 Clouds -3 1015 73 0 1 70 08:38 29.11.2019
3297 Clouds -3 1015 73 0 1 70 08:20 29.11.2019
3298 Clouds -3 1015 73 0 1.5 90 07:55 29.11.2019
3299 Clouds -3 1015 73 0 1.5 90 07:37 29.11.2019
3300 Clouds -3 1015 73 0 1.5 90 07:18 29.11.2019
3301 Clouds -3 1014 73 0 2.1 60 06:41 29.11.2019
3302 Clouds -3 1014 68 0 0.5 0 05:47 29.11.2019
3303 Clouds -3 1014 68 0 0.5 0 05:23 29.11.2019
3304 Clear -3 1014 73 0 5.1 50 04:31 29.11.2019
3305 Clear -4 1014 73 0 4.6 60 03:21 29.11.2019
3306 Clouds -3 1013 79 10000 4.1 50 02:29 29.11.2019
3307 Clouds -3 1013 79 10000 5.1 50 01:51 29.11.2019
3308 Clouds -3 1013 79 10000 5.1 50 01:26 29.11.2019
3309 Clouds -3 1013 79 10000 5.1 70 00:42 29.11.2019
3310 Clouds -3 1013 79 10000 5.1 70 00:42 29.11.2019
3311 Clouds -3 1013 79 10000 5.1 70 00:21 29.11.2019
3312 Clouds -4 1013 79 10000 4.6 50 23:55 28.11.2019
3313 Clouds -4 1013 79 10000 4.6 50 23:36 28.11.2019
3314 Clouds -4 1013 79 10000 4.6 50 23:18 28.11.2019
3315 Clouds -3 1014 68 10000 4.1 60 22:38 28.11.2019
3316 Clouds -3 1014 68 10000 4.1 60 22:20 28.11.2019
3317 Clouds -4 1014 85 10000 4.1 30 21:59 28.11.2019
3318 Clouds -4 1014 85 10000 4.1 30 21:40 28.11.2019
3319 Clouds -4 1014 85 10000 4.1 30 21:20 28.11.2019
3320 Clouds -3 1014 73 10000 3.1 40 20:56 28.11.2019
3321 Clouds -3 1014 73 10000 3.1 40 20:38 28.11.2019
3322 Clouds -3 1014 73 10000 3.1 40 20:18 28.11.2019
3323 Clouds -3 1014 79 10000 4.6 60 19:55 28.11.2019
3324 Clouds -3 1014 79 10000 4.6 60 19:36 28.11.2019
3325 Clouds -3 1014 79 10000 4.6 60 19:18 28.11.2019
3326 Clouds -3 1014 79 10000 4.1 40 18:55 28.11.2019
3327 Clouds -3 1014 79 10000 4.1 40 18:37 28.11.2019
3328 Clouds -3 1014 79 10000 4.1 40 18:18 28.11.2019
3329 Clouds -2 1014 79 10000 1.5 80 17:42 28.11.2019
3330 Clouds -2 1014 79 10000 1.5 80 17:24 28.11.2019
3331 Clouds -2 1014 79 10000 1.5 80 17:23 28.11.2019
3332 Clouds -2 1014 79 10000 0.5 90 16:58 28.11.2019
3333 Clouds -2 1014 79 10000 0.5 90 16:38 28.11.2019
3334 Clouds -2 1014 79 10000 0.5 90 16:19 28.11.2019
3335 Clear -3 1015 73 0 0.89 70 15:55 28.11.2019
3336 Clear -3 1015 73 0 0.89 70 15:36 28.11.2019
3337 Clouds -3 1015 73 10000 1 70 15:18 28.11.2019
3338 Clouds -3 1015 73 10000 1 70 14:41 28.11.2019
3339 Clouds -3 1015 73 10000 1 70 14:22 28.11.2019
3340 Clouds -4 1015 85 10000 1 50 13:59 28.11.2019
3341 Clouds -4 1015 85 10000 1 50 13:59 28.11.2019
3342 Clouds -5 1015 85 10000 1 50 13:41 28.11.2019
3343 Clouds -5 1015 85 10000 1 50 13:22 28.11.2019
3344 Clouds -5 1015 92 10000 1.5 180 12:49 28.11.2019
3345 Clouds -5 1015 92 10000 1.5 180 12:29 28.11.2019
3346 Clouds -4 1015 68 10000 2.1 100 11:59 28.11.2019
3347 Clouds -4 1015 68 10000 2.1 100 11:59 28.11.2019
3348 Clouds -4 1015 68 10000 2.1 100 11:41 28.11.2019
3349 Clouds -4 1015 68 10000 2.1 100 11:21 28.11.2019
3350 Clear -4 1015 62 0 1.5 110 10:59 28.11.2019
3351 Clear -4 1015 62 0 1.5 110 10:40 28.11.2019
3352 Clear -4 1015 62 0 1.5 110 10:40 28.11.2019
3353 Clear -4 1015 62 0 1.5 110 10:20 28.11.2019
3354 Clear -3 1015 58 0 1.5 120 09:41 28.11.2019
3355 Clear -3 1015 58 0 1.5 120 09:23 28.11.2019
3356 Clear -3 1015 58 0 0.5 0 08:59 28.11.2019
3357 Clear -3 1015 58 0 0.5 0 08:59 28.11.2019
3358 Clear -3 1015 58 0 0.5 0 08:59 28.11.2019
3359 Clear -3 1015 58 0 0.5 0 08:59 28.11.2019
3360 Clear -3 1015 58 0 0.5 0 08:40 28.11.2019
3361 Clouds -3 1015 58 0 0.5 0 08:21 28.11.2019
3362 Clouds -2 1015 58 0 1 0 07:42 28.11.2019
3363 Clouds -2 1015 58 0 1 0 07:24 28.11.2019
3364 Clouds -4 1015 68 0 1.5 100 06:52 28.11.2019
3365 Clouds -4 1015 68 0 1.5 100 06:34 28.11.2019
3366 Clouds -4 1015 58 0 2.1 120 05:51 28.11.2019
3367 Clouds -4 1015 58 0 2.1 120 05:18 28.11.2019
3368 Clouds -4 1015 58 0 2.1 120 05:18 28.11.2019
3369 Clouds -4 1015 58 0 2.1 120 05:18 28.11.2019
3370 Clouds -4 1016 68 0 1.5 110 02:50 28.11.2019
3371 Clouds -4 1016 73 0 1.37 214 01:57 28.11.2019
3372 Clouds -3 1016 63 10000 0.5 160 00:49 28.11.2019
3373 Clouds -3 1016 63 10000 0.5 160 00:25 28.11.2019
3374 Clouds -3 1016 68 10000 0.5 80 23:56 27.11.2019
3375 Clouds -3 1016 68 10000 0.5 80 23:38 27.11.2019
3376 Clouds -3 1016 68 10000 0.5 80 23:19 27.11.2019
3377 Clouds -4 1016 68 10000 1.5 130 22:54 27.11.2019
3378 Clouds -4 1016 68 10000 1.5 130 22:36 27.11.2019
3379 Clouds -4 1016 68 10000 1.5 130 22:18 27.11.2019
3380 Clouds -3 1016 68 10000 1.5 140 21:55 27.11.2019
3381 Clouds -3 1016 68 10000 1.5 140 21:36 27.11.2019
3382 Clouds -3 1016 68 10000 1.5 140 21:18 27.11.2019
3383 Clouds -3 1016 58 10000 1.5 130 20:55 27.11.2019
3384 Clouds -3 1016 58 10000 1.5 130 20:36 27.11.2019
3385 Clouds -3 1016 58 10000 1.5 130 20:18 27.11.2019
3386 Clouds -3 1016 63 10000 0.75 184 19:54 27.11.2019
3387 Clouds -3 1016 63 10000 0.75 184 19:36 27.11.2019
3388 Clouds -3 1016 63 10000 0.75 184 19:18 27.11.2019
3389 Clouds -3 1016 68 10000 1.5 110 18:38 27.11.2019
3390 Clouds -3 1016 68 10000 1.5 110 18:19 27.11.2019
3391 Clouds -3 1016 63 10000 1.5 140 17:58 27.11.2019
3392 Clouds -3 1016 63 10000 1.5 140 17:40 27.11.2019
3393 Clouds -3 1016 63 10000 1.5 140 17:40 27.11.2019
3394 Clouds -3 1016 63 10000 1.5 140 17:21 27.11.2019
3395 Clouds -3 1016 73 10000 1 90 16:57 27.11.2019
3396 Clouds -3 1016 73 10000 1 90 16:39 27.11.2019
3397 Clouds -3 1016 73 10000 1 90 16:21 27.11.2019
3398 Clouds -3 1016 74 10000 5.1 60 15:57 27.11.2019
3399 Clouds -2 1016 74 10000 5.1 60 15:39 27.11.2019
3400 Clouds -2 1016 74 10000 5.1 60 15:21 27.11.2019
3401 Clouds -4 1016 68 10000 1 0 14:58 27.11.2019
3402 Clouds -4 1016 68 10000 1 0 14:39 27.11.2019
3403 Clouds -4 1016 68 10000 1 0 14:39 27.11.2019
3404 Clouds -4 1016 68 10000 1 0 14:39 27.11.2019
3405 Clouds -4 1016 68 10000 1 0 14:39 27.11.2019
3406 Clouds -4 1016 68 10000 1 0 14:21 27.11.2019
3407 Clouds -4 1016 62 10000 1 140 13:58 27.11.2019
3408 Clouds -4 1016 62 10000 1 140 13:58 27.11.2019
3409 Clouds -4 1016 62 10000 1 140 13:39 27.11.2019
3410 Clouds -4 1016 62 10000 1 140 13:19 27.11.2019
3411 Clouds -4 1016 62 10000 1 140 13:19 27.11.2019
3412 Clouds -4 1016 73 10000 1.5 110 12:57 27.11.2019
3413 Clouds -3 1016 73 10000 1.5 110 12:39 27.11.2019
3414 Clouds -3 1016 73 10000 1.5 110 12:19 27.11.2019
3415 Clouds -4 1016 85 0 4.1 40 11:38 27.11.2019
3416 Clouds -4 1016 85 0 4.1 40 11:38 27.11.2019
3417 Clouds -4 1016 85 0 4.1 40 11:19 27.11.2019
3418 Clouds -4 1016 79 0 4.1 50 10:59 27.11.2019
3419 Clouds -3 1016 79 0 4.1 50 10:41 27.11.2019
3420 Clouds -3 1016 79 0 4.1 50 10:22 27.11.2019
3421 Clouds -4 1016 85 0 3.6 70 09:45 27.11.2019
3422 Clouds -4 1016 85 0 3.6 70 09:26 27.11.2019
3423 Clouds -4 1016 79 0 4.6 60 08:58 27.11.2019
3424 Clouds -4 1016 79 0 4.6 60 08:39 27.11.2019
3425 Clouds -4 1016 79 0 4.6 60 08:21 27.11.2019
3426 Clouds -4 1016 79 0 2.6 70 07:46 27.11.2019
3427 Clouds -4 1016 79 0 2.6 70 07:28 27.11.2019
3428 Clouds -4 1016 79 0 2.1 70 06:47 27.11.2019
3429 Clouds -4 1016 79 0 2.1 70 06:29 27.11.2019
3430 Clouds -4 1017 79 0 6.2 60 05:43 27.11.2019
3431 Clouds -4 1017 79 0 6.2 60 05:19 27.11.2019
3432 Clouds -5 1017 79 0 2.6 40 04:41 27.11.2019
3433 Clouds -4 1017 79 0 2.6 70 03:55 27.11.2019
3434 Clouds -4 1017 79 0 2.6 70 03:23 27.11.2019
3435 Clouds -4 1017 79 0 3.6 60 02:55 27.11.2019
3436 Clouds -4 1017 79 10000 6.2 50 01:41 27.11.2019
3437 Clouds -4 1017 85 10000 3.6 0 00:46 27.11.2019
3438 Clouds -4 1017 85 10000 3.6 0 00:26 27.11.2019
3439 Clouds -4 1018 79 10000 3.6 40 23:50 26.11.2019
3440 Clouds -4 1018 79 10000 3.6 40 23:28 26.11.2019
3441 Clouds -4 1019 73 10000 4.1 40 22:59 26.11.2019
3442 Clouds -4 1019 73 10000 4.1 40 22:38 26.11.2019
3443 Clouds -4 1019 73 10000 4.1 40 22:19 26.11.2019
3444 Clouds -4 1019 79 10000 4.6 40 21:58 26.11.2019
3445 Clouds -4 1019 79 10000 4.6 40 21:38 26.11.2019
3446 Clouds -4 1019 79 10000 4.6 40 21:19 26.11.2019
3447 Clouds -4 1019 79 10000 3.6 40 20:55 26.11.2019
3448 Clouds -4 1019 79 10000 3.6 40 20:37 26.11.2019
3449 Clouds -4 1019 79 10000 3.6 40 20:18 26.11.2019
3450 Clouds -4 1019 73 10000 4.6 40 19:55 26.11.2019
3451 Clouds -4 1019 73 10000 4.6 40 19:37 26.11.2019
3452 Clouds -4 1019 73 10000 4.6 40 19:18 26.11.2019
3453 Clouds -3 1019 73 10000 5.7 60 18:56 26.11.2019
3454 Clouds -3 1019 73 10000 5.7 60 18:38 26.11.2019
3455 Clouds -3 1019 73 10000 5.7 60 18:20 26.11.2019
3456 Clear -3 1019 63 10000 3.6 40 17:55 26.11.2019
3457 Clear -3 1019 63 10000 3.6 40 17:37 26.11.2019
3458 Clear -3 1019 63 10000 3.6 40 17:18 26.11.2019
3459 Clear -3 1020 68 10000 4.6 40 16:55 26.11.2019
3460 Clear -3 1020 68 10000 4.6 40 16:37 26.11.2019
3461 Clear -3 1020 68 10000 4.6 40 16:18 26.11.2019
3462 Clear -3 1021 73 10000 6.2 40 15:57 26.11.2019
3463 Clear -3 1021 73 10000 6.2 40 15:37 26.11.2019
3464 Clear -3 1021 73 10000 6.2 40 15:37 26.11.2019
3465 Clear -3 1021 73 10000 6.2 40 15:18 26.11.2019
3466 Clear -2 1021 58 10000 5.1 40 14:45 26.11.2019
3467 Clear -2 1021 58 10000 5.1 40 14:24 26.11.2019
3468 Clear -3 1021 68 10000 7.2 50 13:44 26.11.2019
3469 Clear -3 1021 68 10000 7.2 50 13:24 26.11.2019
3470 Clouds -3 1021 58 10000 5.1 60 12:58 26.11.2019
3471 Clouds -2 1021 58 10000 5.1 60 12:37 26.11.2019
3472 Clouds -2 1021 58 10000 5.1 60 12:19 26.11.2019
3473 Clouds -2 1021 68 10000 5.7 40 11:55 26.11.2019
3474 Clouds -2 1021 68 10000 5.7 40 11:55 26.11.2019
3475 Clouds -2 1021 68 10000 5.7 40 11:37 26.11.2019
3476 Clouds -2 1021 68 10000 5.7 40 11:18 26.11.2019
3477 Clear -3 1021 73 0 5.1 40 10:56 26.11.2019
3478 Clear -3 1021 73 0 5.1 40 10:37 26.11.2019
3479 Clear -3 1021 73 0 5.1 40 10:19 26.11.2019
3480 Clear -3 1022 73 0 5.7 50 09:43 26.11.2019
3481 Clear -3 1022 73 0 5.7 50 09:24 26.11.2019
3482 Clear -2 1022 63 0 4.6 40 08:56 26.11.2019
3483 Clear -2 1022 63 0 4.6 40 08:38 26.11.2019
3484 Clear -2 1022 63 0 4.6 40 08:18 26.11.2019
3485 Clear -2 1022 63 0 5.7 50 07:43 26.11.2019
3486 Clear -2 1022 63 0 5.7 50 07:24 26.11.2019
3487 Clear -2 1022 58 0 1 120 06:51 26.11.2019
3488 Clear -2 1022 68 0 0.5 0 05:59 26.11.2019
3489 Clear -2 1022 68 0 0.5 0 05:32 26.11.2019
3490 Clear -1 1023 63 0 1.5 250 03:22 26.11.2019
3491 Clear -1 1023 63 0 1 150 01:42 26.11.2019
3492 Clear -1 1023 63 0 1 150 01:23 26.11.2019
3493 Clear -2 1023 86 0 0.5 280 00:47 26.11.2019
3494 Clear -2 1023 86 0 0.5 280 00:20 26.11.2019
3495 Clouds 0 1023 59 10000 0.5 180 23:39 25.11.2019
3496 Clouds 0 1023 65 10000 0.5 180 23:19 25.11.2019
3497 Clouds -1 1023 68 10000 2.6 0 22:55 25.11.2019
3498 Clouds -1 1023 68 10000 2.6 0 22:36 25.11.2019
3499 Clouds -1 1023 68 10000 2.6 0 22:18 25.11.2019
3500 Clouds -1 1023 68 10000 2.6 0 22:18 25.11.2019
3501 Clouds 0 1023 65 10000 0.5 0 21:55 25.11.2019
3502 Clouds 0 1023 65 10000 0.5 0 21:36 25.11.2019
3503 Clouds 0 1023 65 10000 0.5 0 21:18 25.11.2019
3504 Clouds 0 1023 65 10000 0.5 0 21:18 25.11.2019
3505 Clouds 0 1022 65 10000 0.5 0 20:54 25.11.2019
3506 Clouds 0 1022 65 10000 0.5 0 20:36 25.11.2019
3507 Clouds 0 1022 61 10000 0.5 0 20:18 25.11.2019
3508 Clouds 0 1022 61 10000 1.5 200 19:54 25.11.2019
3509 Clouds 0 1022 61 10000 1.5 200 19:36 25.11.2019
3510 Clouds 0 1022 61 10000 1.5 200 19:18 25.11.2019
3511 Clouds 0 1022 61 10000 1 110 18:54 25.11.2019
3512 Clouds 0 1022 61 10000 1 110 18:36 25.11.2019
3513 Clouds 0 1022 61 10000 1 110 18:18 25.11.2019
3514 Clouds 0 1022 61 10000 2.1 80 17:55 25.11.2019
3515 Clouds 0 1022 61 10000 2.1 80 17:55 25.11.2019
3516 Clouds 0 1022 61 10000 2.1 80 17:36 25.11.2019
3517 Clouds 0 1022 61 10000 2.1 80 17:36 25.11.2019
3518 Clouds 0 1022 56 10000 2.1 80 17:18 25.11.2019
3519 Clouds 0 1022 56 10000 1.5 0 16:41 25.11.2019
3520 Clouds 0 1022 56 10000 1.5 0 16:23 25.11.2019
3521 Clear -1 1022 68 10000 0.5 0 15:57 25.11.2019
3522 Clear -1 1022 68 10000 0.5 0 15:38 25.11.2019
3523 Clear -1 1022 68 10000 0.5 0 15:19 25.11.2019
3524 Clouds -1 1021 68 10000 0.5 0 14:56 25.11.2019
3525 Clouds -1 1021 68 10000 0.5 0 14:37 25.11.2019
3526 Clouds -1 1021 68 10000 0.5 0 14:19 25.11.2019
3527 Clouds 0 1021 56 10000 1 0 13:39 25.11.2019
3528 Clouds 0 1021 56 10000 1 0 13:21 25.11.2019
3529 Clouds -1 1021 63 10000 3.1 60 12:59 25.11.2019
3530 Clouds -1 1021 63 10000 3.1 60 12:40 25.11.2019
3531 Clouds -1 1021 63 10000 3.1 60 12:20 25.11.2019
3532 Clouds -1 1021 68 10000 1 0 11:57 25.11.2019
3533 Clouds -1 1021 68 10000 1 0 11:38 25.11.2019
3534 Clouds -1 1021 68 10000 1 0 11:19 25.11.2019
3535 Clouds 0 1021 57 10000 3.1 50 10:44 25.11.2019
3536 Clouds 0 1021 57 10000 3.1 50 10:26 25.11.2019
3537 Clear -1 1021 74 0 1.5 0 09:58 25.11.2019
3538 Clear -1 1021 74 0 1.5 0 09:39 25.11.2019
3539 Clear -1 1021 74 0 1.5 0 09:21 25.11.2019
3540 Clear 1 1021 64 0 2.1 140 08:41 25.11.2019
3541 Clear 1 1021 64 0 2.1 140 08:21 25.11.2019
3542 Clear -1 1021 74 0 1.5 0 07:43 25.11.2019
3543 Clear -1 1021 74 0 1.5 0 07:24 25.11.2019
3544 Clear 2 1020 74 0 3.6 150 06:49 25.11.2019
3545 Clear 2 1020 74 0 3.6 150 06:21 25.11.2019
3546 Clear 2 1020 64 0 5.1 150 05:39 25.11.2019
3547 Clouds 0 1020 61 0 2.6 0 04:52 25.11.2019
3548 Clouds -2 1021 79 0 3.44 135 03:24 25.11.2019
3549 Clouds -2 1020 79 0 1 0 02:28 25.11.2019
3550 Clouds -1 1020 68 0 0.5 0 01:41 25.11.2019
3551 Clouds -1 1020 68 0 0.5 0 01:22 25.11.2019
3552 Clouds -2 1019 86 0 0.5 0 00:37 25.11.2019
3553 Clouds -2 1019 86 0 0.5 0 00:18 25.11.2019
3554 Clouds -1 1019 68 0 1.5 80 23:41 24.11.2019
3555 Clouds -1 1019 68 0 1.5 80 23:20 24.11.2019
3556 Clouds -2 1019 68 0 1 60 22:56 24.11.2019
3557 Clouds -2 1019 68 0 1 60 22:37 24.11.2019
3558 Clouds -2 1019 68 0 1 60 22:18 24.11.2019
3559 Clouds -2 1019 68 0 1.5 120 21:54 24.11.2019
3560 Clouds -2 1019 68 0 1.5 120 21:36 24.11.2019
3561 Clouds -2 1019 68 0 1.5 120 21:18 24.11.2019
3562 Clouds -1 1019 63 0 1.5 70 20:54 24.11.2019
3563 Clouds -1 1019 63 0 1.5 70 20:36 24.11.2019
3564 Clouds -1 1019 63 0 1.5 70 20:18 24.11.2019
3565 Clouds 0 1018 61 0 0.5 0 19:54 24.11.2019
3566 Clouds 0 1018 61 0 0.5 0 19:36 24.11.2019
3567 Clouds 0 1018 61 0 0.5 0 19:18 24.11.2019
3568 Clouds 1 1018 59 10000 0.5 0 18:54 24.11.2019
3569 Clouds 1 1018 59 10000 0.5 0 18:36 24.11.2019
3570 Clouds 1 1018 59 10000 0.5 0 18:18 24.11.2019
3571 Clouds 2 1018 59 10000 4.1 170 17:54 24.11.2019
3572 Clouds 2 1018 59 10000 4.1 170 17:36 24.11.2019
3573 Clouds 2 1018 59 10000 4.1 170 17:18 24.11.2019
3574 Clouds 2 1018 59 10000 2.6 160 16:41 24.11.2019
3575 Clouds 2 1018 59 10000 2.6 160 16:23 24.11.2019
3576 Clouds 2 1018 55 10000 3.1 160 15:59 24.11.2019
3577 Clouds 2 1018 55 10000 3.1 160 15:41 24.11.2019
3578 Clouds 2 1018 55 10000 3.1 160 15:22 24.11.2019
3579 Clouds 1 1018 64 10000 3.1 150 14:55 24.11.2019
3580 Clouds 1 1018 64 10000 3.1 150 14:37 24.11.2019
3581 Clouds 1 1018 64 10000 3.1 150 14:18 24.11.2019
3582 Clouds 2 1018 59 10000 2.6 110 13:38 24.11.2019
3583 Clouds 2 1018 59 10000 2.6 110 13:20 24.11.2019
3584 Clouds 3 1017 59 0 7.7 150 12:57 24.11.2019
3585 Clouds 3 1017 59 0 7.7 150 12:39 24.11.2019
3586 Clouds 3 1017 59 0 7.7 150 12:18 24.11.2019
3587 Clouds 3 1017 59 0 10.3 150 11:55 24.11.2019
3588 Clouds 3 1017 59 0 10.3 150 11:36 24.11.2019
3589 Clouds 3 1017 59 0 10.3 150 11:18 24.11.2019
3590 Clouds 4 1017 51 0 6.2 160 10:44 24.11.2019
3591 Clouds 4 1017 51 0 6.2 160 10:26 24.11.2019
3592 Clouds 4 1017 51 0 6.2 160 10:26 24.11.2019
3593 Clouds 4 1016 51 0 8.7 160 09:54 24.11.2019
3594 Clouds 4 1016 51 0 8.7 160 09:54 24.11.2019
3595 Clouds 4 1016 51 0 8.7 160 09:36 24.11.2019
3596 Clouds 4 1016 51 0 8.7 160 09:18 24.11.2019
3597 Clouds 4 1016 51 0 8.7 160 09:18 24.11.2019
3598 Clouds 4 1016 51 0 6.7 160 08:42 24.11.2019
3599 Clouds 4 1016 51 0 6.7 160 08:21 24.11.2019
3600 Clouds 4 1015 60 0 13.4 160 07:52 24.11.2019
3601 Clouds 4 1015 60 0 13.4 160 07:33 24.11.2019
3602 Clouds 4 1016 55 0 10.8 160 06:55 24.11.2019
3603 Clouds 4 1015 60 0 13.9 150 05:47 24.11.2019
3604 Clouds 4 1015 60 0 13.9 160 04:45 24.11.2019
3605 Clouds 3 1015 64 0 14.9 160 02:50 24.11.2019
3606 Rain 3 1014 59 0 14.9 160 01:57 24.11.2019
3607 Rain 3 1014 59 0 14.9 160 01:39 24.11.2019
3608 Rain 3 1014 59 0 14.9 160 01:20 24.11.2019
3609 Rain 3 1014 64 0 15.9 160 00:45 24.11.2019
3610 Rain 3 1014 64 0 15.9 160 00:22 24.11.2019
3611 Clouds 3 1013 59 10000 15.9 160 23:44 23.11.2019
3612 Clouds 3 1013 59 10000 15.9 160 23:21 23.11.2019
3613 Clouds 3 1013 64 10000 15.4 160 22:58 23.11.2019
3614 Clouds 3 1013 64 10000 15.4 160 22:39 23.11.2019
3615 Clouds 3 1013 64 10000 15.4 160 22:21 23.11.2019
3616 Clouds 3 1012 64 10000 15.9 160 21:58 23.11.2019
3617 Clouds 3 1012 64 10000 15.9 160 21:40 23.11.2019
3618 Clouds 3 1012 64 10000 15.9 160 21:21 23.11.2019
3619 Clouds 3 1011 64 10000 16.5 160 20:55 23.11.2019
3620 Clouds 3 1011 64 10000 16.5 160 20:36 23.11.2019
3621 Clouds 3 1011 64 10000 16.5 160 20:18 23.11.2019
3622 Clouds 3 1012 69 10000 15.9 160 19:54 23.11.2019
3623 Clouds 3 1012 69 10000 15.9 160 19:36 23.11.2019
3624 Clouds 3 1012 69 10000 15.9 160 19:36 23.11.2019
3625 Clouds 3 1012 69 10000 15.9 160 19:18 23.11.2019
3626 Clouds 3 1012 64 10000 14.4 160 18:39 23.11.2019
3627 Clouds 3 1012 64 10000 14.4 160 18:20 23.11.2019
3628 Clouds 3 1012 64 10000 14.4 160 18:20 23.11.2019
3629 Clouds 3 1011 64 10000 14.4 150 17:54 23.11.2019
3630 Clouds 3 1011 64 10000 14.4 150 17:54 23.11.2019
3631 Clouds 3 1011 64 10000 14.4 150 17:36 23.11.2019
3632 Clouds 3 1011 64 10000 14.4 150 17:18 23.11.2019
3633 Clouds 3 1011 59 10000 13.4 150 16:54 23.11.2019
3634 Clouds 3 1011 59 10000 13.4 150 16:36 23.11.2019
3635 Clouds 3 1011 59 10000 13.4 150 16:18 23.11.2019
3636 Clouds 0 1010 66 10000 14.9 150 15:54 23.11.2019
3637 Clouds 0 1010 66 10000 14.9 150 15:36 23.11.2019
3638 Clouds 0 1010 66 10000 14.9 150 15:18 23.11.2019
3639 Clouds 2 1010 64 10000 17 150 14:42 23.11.2019
3640 Clouds 2 1010 64 10000 17 150 14:21 23.11.2019
3641 Clouds 2 1010 64 10000 17 150 14:21 23.11.2019
3642 Clouds 2 1010 55 10000 14.4 160 13:57 23.11.2019
3643 Clouds 2 1010 55 10000 14.4 160 13:38 23.11.2019
3644 Clouds 2 1010 55 10000 14.4 160 13:18 23.11.2019
3645 Clouds 1 1010 69 10000 15.4 160 12:43 23.11.2019
3646 Clouds 1 1010 69 10000 15.4 160 12:24 23.11.2019
3647 Snow 1 1010 69 0 12.9 160 11:45 23.11.2019
3648 Snow 1 1010 69 0 12.9 160 11:24 23.11.2019
3649 Clouds 1 1010 69 0 13.9 160 10:57 23.11.2019
3650 Clouds 1 1010 69 0 13.9 160 10:39 23.11.2019
3651 Clouds 1 1010 69 0 13.9 160 10:18 23.11.2019
3652 Rain 1 1010 69 0 11.3 160 09:41 23.11.2019
3653 Rain 1 1010 69 0 11.3 160 09:19 23.11.2019
3654 Rain 1 1010 64 0 11.3 160 08:41 23.11.2019
3655 Rain 1 1010 64 0 11.3 160 08:41 23.11.2019
3656 Rain 1 1010 64 0 11.3 160 08:41 23.11.2019
3657 Rain 1 1010 64 0 11.3 160 08:41 23.11.2019
3658 Rain 1 1010 64 0 11.3 160 08:41 23.11.2019
3659 Rain 1 1010 64 0 11.3 160 08:19 23.11.2019
3660 Clouds 1 1009 74 0 13.9 150 07:42 23.11.2019
3661 Clouds 1 1009 74 0 13.9 150 07:21 23.11.2019
3662 Snow 1 1009 64 0 11.8 160 06:42 23.11.2019
3663 Snow -2 1009 64 0 11.8 160 06:19 23.11.2019
3664 Clouds -1 1009 64 0 5.7 180 05:44 23.11.2019
3665 Clouds -1 1009 64 0 5.7 180 05:26 23.11.2019
3666 Clouds -2 1009 74 0 2.1 0 04:40 23.11.2019
3667 Clouds -2 1009 74 0 2.1 0 04:21 23.11.2019
3668 Clouds 0 1009 52 0 8.7 150 02:39 23.11.2019
3669 Clouds 0 1009 49 0 6.7 150 01:42 23.11.2019
3670 Clouds -3 1010 63 10000 3.6 160 00:54 23.11.2019
3671 Clouds -3 1010 63 10000 3.6 160 00:36 23.11.2019
3672 Clouds -3 1010 63 10000 3.6 160 00:18 23.11.2019
3673 Clouds -3 1010 63 10000 3.6 160 00:18 23.11.2019
3674 Clouds -3 1010 68 10000 6.7 60 23:38 22.11.2019
3675 Clouds -3 1010 68 10000 6.7 60 23:20 22.11.2019
3676 Clouds -3 1010 68 10000 3.1 170 22:57 22.11.2019
3677 Clouds -3 1010 68 10000 3.1 170 22:57 22.11.2019
3678 Clouds -3 1010 68 10000 3.1 170 22:38 22.11.2019
3679 Clouds -3 1010 68 10000 3.1 170 22:19 22.11.2019
3680 Clouds -3 1010 63 10000 3.1 30 21:57 22.11.2019
3681 Clouds -3 1010 63 10000 3.1 30 21:38 22.11.2019
3682 Clouds -3 1010 63 10000 3.1 30 21:19 22.11.2019
3683 Clouds -4 1010 62 10000 3.6 20 20:42 22.11.2019
3684 Clouds -4 1010 62 10000 3.6 20 20:22 22.11.2019
3685 Clouds -3 1010 53 10000 1.5 0 19:55 22.11.2019
3686 Clouds -3 1010 53 10000 1.5 0 19:37 22.11.2019
3687 Clouds -3 1010 53 10000 1.5 0 19:18 22.11.2019
3688 Clouds -4 1010 62 10000 1 60 18:39 22.11.2019
3689 Clouds -4 1010 62 10000 1 60 18:21 22.11.2019
3690 Clouds -4 1010 62 10000 1 60 18:21 22.11.2019
3691 Clouds -4 1010 58 10000 1.5 100 17:56 22.11.2019
3692 Clouds -4 1010 58 10000 1.5 100 17:56 22.11.2019
3693 Clouds -4 1010 58 10000 1.5 100 17:38 22.11.2019
3694 Clouds -4 1010 58 10000 1.5 100 17:20 22.11.2019
3695 Clouds -5 1010 62 10000 2.1 100 16:41 22.11.2019
3696 Clouds -5 1010 62 10000 2.1 100 16:23 22.11.2019
3697 Clouds -5 1011 57 10000 2.1 90 15:44 22.11.2019
3698 Clouds -5 1011 57 10000 2.1 90 15:24 22.11.2019
3699 Clouds -5 1011 57 10000 1 140 14:56 22.11.2019
3700 Clouds -5 1011 57 10000 1 140 14:37 22.11.2019
3701 Clouds -5 1011 57 10000 1 140 14:19 22.11.2019
3702 Clouds -6 1011 57 10000 3.1 60 13:57 22.11.2019
3703 Clouds -6 1011 57 10000 3.1 60 13:37 22.11.2019
3704 Clouds -6 1011 57 10000 3.1 60 13:18 22.11.2019
3705 Clouds -6 1011 62 10000 1.5 100 12:55 22.11.2019
3706 Clouds -6 1011 62 10000 1.5 100 12:55 22.11.2019
3707 Clouds -6 1011 62 10000 1.5 100 12:55 22.11.2019
3708 Clouds -6 1011 62 10000 1.5 100 12:36 22.11.2019
3709 Clouds -6 1011 62 10000 1.5 100 12:18 22.11.2019
3710 Clouds -6 1012 57 10000 1 80 11:40 22.11.2019
3711 Clouds -6 1012 57 10000 1 80 11:22 22.11.2019
3712 Clouds -6 1012 57 0 0.89 80 10:59 22.11.2019
3713 Clouds -8 1014 67 0 1.79 100 10:40 22.11.2019
3714 Clouds -8 1014 67 0 1.79 100 10:22 22.11.2019
3715 Clouds -8 1014 67 0 1.79 100 09:57 22.11.2019
3716 Clouds -8 1014 67 0 1.79 100 09:39 22.11.2019
3717 Clouds -8 1014 67 0 1.79 100 09:21 22.11.2019
3718 Clouds -8 1014 67 0 1.79 100 08:46 22.11.2019
3719 Clouds -8 1014 67 0 1.79 100 08:27 22.11.2019
3720 Clouds -8 1014 67 0 1.79 100 08:27 22.11.2019
3721 Clouds -8 1014 67 0 1.79 100 07:55 22.11.2019
3722 Clouds -8 1014 67 0 1.79 100 07:37 22.11.2019
3723 Clouds -8 1014 67 0 1.79 100 07:18 22.11.2019
3724 Clouds -8 1014 67 0 1.79 100 06:40 22.11.2019
3725 Clouds -8 1014 67 0 1.79 100 05:54 22.11.2019
3726 Clouds -8 1014 67 0 1.79 100 04:51 22.11.2019
3727 Clouds -8 1014 67 10000 2.1 100 02:56 22.11.2019
3728 Clouds -8 1014 67 10000 2.1 100 02:33 22.11.2019
3729 Clouds -9 1014 66 10000 2.1 180 01:46 22.11.2019
3730 Clouds -9 1014 66 10000 2.1 180 01:20 22.11.2019
3731 Clouds -8 1013 72 10000 3.6 70 00:54 22.11.2019
3732 Clouds -8 1013 72 10000 3.6 70 00:25 22.11.2019
3733 Clouds -8 1014 72 10000 6.2 80 23:57 21.11.2019
3734 Clouds -8 1014 72 10000 6.2 80 23:39 21.11.2019
3735 Clouds -8 1014 72 10000 6.2 80 23:21 21.11.2019
3736 Clouds -8 1014 78 10000 7.2 60 22:54 21.11.2019
3737 Clouds -8 1014 78 10000 7.2 60 22:36 21.11.2019
3738 Clouds -8 1014 78 10000 7.2 60 22:18 21.11.2019
3739 Clouds -8 1014 85 10000 6.2 60 21:54 21.11.2019
3740 Clouds -8 1014 85 10000 6.2 60 21:36 21.11.2019
3741 Clouds -8 1014 85 10000 6.2 60 21:18 21.11.2019
3742 Clouds -8 1014 85 10000 7.2 60 20:54 21.11.2019
3743 Clouds -8 1014 85 10000 7.2 60 20:36 21.11.2019
3744 Clouds -8 1014 85 10000 7.2 60 20:18 21.11.2019
3745 Clouds -7 1014 79 10000 7.2 60 19:41 21.11.2019
3746 Clouds -7 1014 79 10000 7.2 60 19:23 21.11.2019
3747 Clouds -7 1014 79 10000 6.2 60 18:59 21.11.2019
3748 Clouds -7 1014 79 10000 6.2 60 18:40 21.11.2019
3749 Clouds -7 1014 79 10000 6.2 60 18:21 21.11.2019
3750 Clouds -7 1015 79 10000 7.2 60 17:58 21.11.2019
3751 Clouds -7 1015 79 10000 7.2 60 17:39 21.11.2019
3752 Clouds -7 1015 79 10000 7.2 60 17:39 21.11.2019
3753 Clouds -7 1015 79 10000 7.2 60 17:21 21.11.2019
3754 Clouds -7 1015 79 10000 6.7 60 16:57 21.11.2019
3755 Clouds -7 1015 79 10000 6.7 60 16:39 21.11.2019
3756 Clouds -7 1015 79 10000 6.7 60 16:20 21.11.2019
3757 Clouds -7 1015 85 10000 6.2 60 15:44 21.11.2019
3758 Clouds -7 1015 85 10000 6.2 60 15:22 21.11.2019
3759 Clouds -7 1015 79 10000 6.2 60 14:59 21.11.2019
3760 Clouds -7 1015 79 10000 6.2 60 14:38 21.11.2019
3761 Clouds -7 1015 79 10000 6.2 60 14:20 21.11.2019
3762 Clouds -7 1015 79 10000 6.2 70 13:59 21.11.2019
3763 Clouds -7 1015 79 10000 6.2 70 13:37 21.11.2019
3764 Clouds -7 1015 79 10000 6.2 70 13:19 21.11.2019
3765 Clouds -7 1015 79 10000 6.2 70 12:43 21.11.2019
3766 Clouds -7 1015 79 10000 6.2 70 12:24 21.11.2019
3767 Clouds -7 1015 79 10000 5.1 60 11:56 21.11.2019
3768 Clouds -7 1015 79 10000 5.1 60 11:38 21.11.2019
3769 Clouds -7 1015 79 10000 5.1 60 11:20 21.11.2019
3770 Clear -7 1015 79 0 6.2 60 10:55 21.11.2019
3771 Clear -7 1015 79 0 6.2 60 10:37 21.11.2019
3772 Clear -7 1015 79 0 6.2 60 10:19 21.11.2019
3773 Clear -7 1015 85 0 5.7 70 09:43 21.11.2019
3774 Clear -7 1015 85 0 5.7 70 09:23 21.11.2019
3775 Clear -6 1015 79 0 5.7 80 08:58 21.11.2019
3776 Clear -6 1015 79 0 5.7 80 08:39 21.11.2019
3777 Clear -6 1015 79 0 5.7 80 08:18 21.11.2019
3778 Clear -6 1015 79 0 6.2 70 07:40 21.11.2019
3779 Clear -6 1015 79 0 6.2 70 07:18 21.11.2019
3780 Clear -6 1015 79 0 6.2 80 06:47 21.11.2019
3781 Clear -6 1015 79 0 6.2 80 06:28 21.11.2019
3782 Clear -6 1015 73 0 4.6 60 05:31 21.11.2019
3783 Clear -6 1015 73 0 4.6 70 03:32 21.11.2019
3784 Clear -5 1015 62 0 4.1 60 02:40 21.11.2019
3785 Clear -6 1015 85 0 5.1 80 01:53 21.11.2019
3786 Clear -6 1015 85 0 5.1 80 01:25 21.11.2019
3787 Clear -7 1015 85 0 2.6 40 00:54 21.11.2019
3788 Clear -7 1015 85 0 2.6 40 00:21 21.11.2019
3789 Clouds -7 1015 85 10000 3.6 60 23:55 20.11.2019
3790 Clouds -7 1015 85 10000 3.6 60 23:37 20.11.2019
3791 Clouds -7 1015 85 10000 3.6 60 23:19 20.11.2019
3792 Clouds -6 1015 92 10000 3.1 30 22:55 20.11.2019
3793 Clouds -6 1015 92 10000 3.1 30 22:36 20.11.2019
3794 Clouds -6 1015 92 10000 3.1 30 22:18 20.11.2019
3795 Clouds -7 1015 73 10000 3.1 40 21:54 20.11.2019
3796 Clouds -7 1015 73 10000 3.1 40 21:36 20.11.2019
3797 Clouds -7 1015 73 10000 3.1 40 21:18 20.11.2019
3798 Clouds -6 1014 79 10000 3.6 50 20:54 20.11.2019
3799 Clouds -6 1014 79 10000 3.6 50 20:36 20.11.2019
3800 Clouds -6 1014 79 10000 3.6 50 20:18 20.11.2019
3801 Clouds -6 1014 85 10000 3.6 20 19:54 20.11.2019
3802 Clouds -6 1014 85 10000 3.6 20 19:36 20.11.2019
3803 Clouds -6 1014 85 10000 3.6 20 19:18 20.11.2019
3804 Clouds -6 1014 85 10000 3.6 50 18:40 20.11.2019
3805 Clouds -6 1014 85 10000 3.6 50 18:22 20.11.2019
3806 Clouds -6 1014 79 10000 3.6 30 17:59 20.11.2019
3807 Clouds -5 1014 79 10000 3.6 30 17:39 20.11.2019
3808 Clouds -5 1014 79 10000 3.6 30 17:39 20.11.2019
3809 Clouds -5 1014 79 10000 3.6 30 17:21 20.11.2019
3810 Clouds -5 1014 79 10000 3.1 50 16:58 20.11.2019
3811 Clouds -5 1014 79 10000 3.1 50 16:39 20.11.2019
3812 Clouds -5 1014 79 10000 3.1 50 16:20 20.11.2019
3813 Clouds -6 1014 85 10000 3.1 50 15:57 20.11.2019
3814 Clouds -6 1014 85 10000 3.1 50 15:38 20.11.2019
3815 Clouds -6 1014 85 10000 3.1 50 15:19 20.11.2019
3816 Clouds -5 1014 79 10000 3.1 30 14:55 20.11.2019
3817 Clouds -5 1014 79 10000 3.1 30 14:37 20.11.2019
3818 Clouds -5 1014 79 10000 3.1 30 14:18 20.11.2019
3819 Clouds -6 1014 79 10000 3.6 50 13:55 20.11.2019
3820 Clouds -6 1014 79 10000 3.6 50 13:36 20.11.2019
3821 Clouds -6 1014 79 10000 3.6 50 13:18 20.11.2019
3822 Clouds -7 1014 92 10000 3.1 40 12:40 20.11.2019
3823 Clouds -7 1014 92 10000 3.1 40 12:21 20.11.2019
3824 Clear -6 1014 92 0 3.6 40 11:46 20.11.2019
3825 Clear -6 1014 92 0 3.6 40 11:23 20.11.2019
3826 Clear -6 1014 100 0 3.1 30 10:59 20.11.2019
3827 Clear -7 1014 100 0 3.1 30 10:59 20.11.2019
3828 Clear -6 1014 100 0 3.1 30 10:39 20.11.2019
3829 Clear -6 1014 100 0 3.1 30 10:20 20.11.2019
3830 Clear -5 1014 92 0 2.6 40 09:59 20.11.2019
3831 Clear -5 1014 92 0 2.6 40 09:41 20.11.2019
3832 Clear -5 1014 92 0 2.6 40 09:20 20.11.2019
3833 Clear -6 1013 92 0 3.6 60 08:46 20.11.2019
3834 Clear -6 1013 92 0 3.6 60 08:28 20.11.2019
3835 Clouds -6 1013 92 0 3.1 50 07:56 20.11.2019
3836 Clouds -6 1013 92 0 3.1 50 07:36 20.11.2019
3837 Clouds -6 1013 92 0 3.1 50 07:18 20.11.2019
3838 Clouds -6 1013 92 0 2.6 40 06:43 20.11.2019
3839 Clouds -6 1013 92 0 2.6 40 06:19 20.11.2019
3840 Clouds -5 1013 92 10000 2.6 60 04:50 20.11.2019
3841 Clouds -4 1014 85 10000 2.1 360 02:29 20.11.2019
3842 Snow -4 1013 92 10000 3.6 10 01:38 20.11.2019
3843 Snow -4 1013 85 10000 2.6 70 00:59 20.11.2019
3844 Snow -4 1013 85 10000 2.6 70 00:34 20.11.2019
3845 Rain -3 1013 86 10000 2.1 40 23:43 19.11.2019
3846 Rain -3 1013 86 10000 2.1 40 23:23 19.11.2019
3847 Snow -3 1013 86 10000 2.6 60 22:56 19.11.2019
3848 Snow -3 1013 86 10000 2.6 60 22:38 19.11.2019
3849 Snow -3 1013 86 10000 2.6 60 22:18 19.11.2019
3850 Rain -3 1013 86 10000 3.1 50 21:55 19.11.2019
3851 Rain -3 1013 86 10000 3.1 50 21:37 19.11.2019
3852 Rain -3 1013 86 10000 3.1 50 21:18 19.11.2019
3853 Snow -3 1012 100 1700 2.1 40 20:55 19.11.2019
3854 Snow -3 1012 100 1700 2.1 40 20:36 19.11.2019
3855 Snow -3 1012 100 1700 2.1 40 20:36 19.11.2019
3856 Snow -3 1012 100 1700 2.1 40 20:36 19.11.2019
3857 Snow -3 1012 100 1700 2.1 40 20:36 19.11.2019
3858 Snow -3 1012 100 1700 2.1 40 20:18 19.11.2019
3859 Snow -3 1012 100 1100 2.6 320 19:55 19.11.2019
3860 Snow -3 1012 100 1100 2.6 320 19:36 19.11.2019
3861 Snow -3 1012 100 1100 2.6 320 19:18 19.11.2019
3862 Snow -2 1011 92 1200 2.1 350 18:41 19.11.2019
3863 Snow -2 1011 92 1200 2.1 350 18:41 19.11.2019
3864 Snow -2 1011 92 1200 2.1 350 18:21 19.11.2019
3865 Snow -2 1011 100 1200 3.1 300 17:59 19.11.2019
3866 Snow -2 1011 100 1200 3.1 300 17:41 19.11.2019
3867 Snow -2 1011 100 1200 3.1 300 17:41 19.11.2019
3868 Snow -2 1011 100 1200 3.1 300 17:21 19.11.2019
3869 Snow -2 1010 100 800 1.5 230 16:59 19.11.2019
3870 Snow -2 1010 100 800 1.5 230 16:41 19.11.2019
3871 Snow -2 1010 100 800 1.5 230 16:21 19.11.2019
3872 Snow -2 1010 100 800 1.5 230 16:21 19.11.2019
3873 Snow -2 1010 100 800 1.5 230 16:21 19.11.2019
3874 Snow -2 1010 100 2300 5.1 230 15:47 19.11.2019
3875 Snow -2 1010 100 2300 5.1 230 15:27 19.11.2019
3876 Snow -2 1009 92 700 7.7 170 14:59 19.11.2019
3877 Snow -2 1009 92 700 7.7 170 14:59 19.11.2019
3878 Snow -2 1009 92 700 7.7 170 14:40 19.11.2019
3879 Snow -2 1009 92 700 7.7 170 14:21 19.11.2019
3880 -273 0 0 0 0 0 13:59 19.11.2019
3881 Snow -1 1008 86 1500 7.2 180 13:39 19.11.2019
3882 Snow -1 1008 86 1500 7.2 180 13:18 19.11.2019
3883 Snow -1 1008 86 2000 6.2 180 12:40 19.11.2019
3884 Snow -1 1008 86 2000 6.2 180 12:21 19.11.2019
3885 Snow -1 1008 74 5000 6.2 170 11:57 19.11.2019
3886 Snow -1 1008 74 5000 6.2 170 11:37 19.11.2019
3887 Snow -1 1008 74 5000 6.2 170 11:19 19.11.2019
3888 Snow 0 1007 71 0 6.2 150 10:45 19.11.2019
3889 Snow 0 1007 71 0 6.2 150 10:22 19.11.2019
3890 Clouds -1 1007 63 0 3.1 140 09:57 19.11.2019
3891 Clouds -1 1007 63 0 3.1 140 09:39 19.11.2019
3892 Clouds -1 1007 63 0 3.1 140 09:18 19.11.2019
3893 Clouds -1 1007 68 0 4.1 150 08:41 19.11.2019
3894 Clouds -1 1007 68 0 4.1 150 08:22 19.11.2019
3895 Clouds -3 1007 79 0 3.6 150 07:57 19.11.2019
3896 Clouds -3 1007 79 0 3.6 150 07:38 19.11.2019
3897 Clouds -3 1007 79 0 3.6 150 07:20 19.11.2019
3898 Clouds -3 1006 79 0 3.1 140 06:49 19.11.2019
3899 Clouds -3 1006 79 0 3.1 140 06:29 19.11.2019
3900 Clouds -3 1006 79 0 2.6 130 05:24 19.11.2019
3901 Clouds -3 1006 73 0 2.1 90 03:47 19.11.2019
3902 Clouds -3 1006 73 0 2.1 90 03:29 19.11.2019
3903 Clouds -2 1005 74 0 1.5 80 02:53 19.11.2019
3904 Clouds -1 1005 74 0 2.1 60 01:59 19.11.2019
3905 Clouds -1 1005 74 0 2.1 60 01:27 19.11.2019
3906 Clouds -1 1004 80 10000 2.1 60 00:21 19.11.2019
3907 Clouds -1 1004 80 10000 1.5 50 23:56 18.11.2019
3908 Clouds -1 1004 80 10000 1.5 50 23:37 18.11.2019
3909 Clouds -1 1004 80 10000 1.5 50 23:18 18.11.2019
3910 Clouds -1 1004 80 10000 1 60 22:42 18.11.2019
3911 Clouds -1 1004 80 10000 1 60 22:23 18.11.2019
3912 Clouds -1 1003 80 10000 1.5 50 21:55 18.11.2019
3913 Clouds -1 1003 80 10000 1.5 50 21:37 18.11.2019
3914 Clouds -1 1003 80 10000 1.5 50 21:19 18.11.2019
3915 Clouds -1 1003 80 10000 2.1 30 20:56 18.11.2019
3916 Clouds -1 1003 80 10000 2.1 30 20:38 18.11.2019
3917 Clouds -1 1003 80 10000 2.1 30 20:18 18.11.2019
3918 Clouds -1 1002 80 10000 2.6 30 19:54 18.11.2019
3919 Clouds -1 1002 80 10000 2.6 30 19:36 18.11.2019
3920 Clouds -1 1002 80 10000 2.6 30 19:18 18.11.2019
3921 Clouds 0 1002 81 10000 2.6 20 18:54 18.11.2019
3922 Clouds 0 1002 81 10000 2.6 20 18:36 18.11.2019
3923 Clouds 0 1002 81 10000 2.6 20 18:18 18.11.2019
3924 Clouds 0 1001 81 10000 2.1 30 17:38 18.11.2019
3925 Clouds 0 1001 83 10000 2.1 30 17:19 18.11.2019
3926 Clouds -1 1001 80 10000 2.1 40 16:55 18.11.2019
3927 Clouds -1 1001 80 10000 2.1 40 16:54 18.11.2019
3928 Clouds -1 1001 80 10000 2.1 40 16:36 18.11.2019
3929 Clouds -1 1001 80 10000 2.1 40 16:18 18.11.2019
3930 Clouds -1 1001 80 10000 2.1 30 15:55 18.11.2019
3931 Clouds -1 1001 80 10000 2.1 30 15:36 18.11.2019
3932 Clouds -1 1001 80 10000 2.1 30 15:18 18.11.2019
3933 Clouds -1 1000 80 10000 1 20 14:41 18.11.2019
3934 Clouds -1 1000 80 10000 1 20 14:23 18.11.2019
3935 Clouds -2 1000 86 10000 2.6 40 13:48 18.11.2019
3936 Clouds -2 1000 86 10000 2.6 40 13:48 18.11.2019
3937 Clouds -2 1000 86 10000 2.6 40 13:28 18.11.2019
3938 Clouds -2 1000 86 10000 1.5 40 12:58 18.11.2019
3939 Clouds -1 1000 86 10000 1.5 40 12:38 18.11.2019
3940 Clouds -1 1000 86 10000 1.5 40 12:19 18.11.2019
3941 Clouds -1 999 80 10000 2.6 10 11:44 18.11.2019
3942 Clouds -1 999 80 10000 2.6 10 11:25 18.11.2019
3943 Clouds -1 998 80 10000 2.6 360 10:56 18.11.2019
3944 Clouds -1 998 80 10000 2.6 360 10:38 18.11.2019
3945 Clouds -1 998 80 10000 2.6 360 10:18 18.11.2019
3946 Clouds -1 997 80 10000 3.6 330 09:54 18.11.2019
3947 Clouds -1 997 80 10000 3.6 330 09:36 18.11.2019
3948 Clouds -1 997 80 10000 3.6 330 09:18 18.11.2019
3949 Clouds -2 996 92 0 5.99 341 08:43 18.11.2019
3950 Clouds -2 996 92 0 6.26 353 08:20 18.11.2019
3951 Clouds -2 995 92 0 0.5 0 07:48 18.11.2019
3952 Clouds -2 995 92 0 0.5 0 07:48 18.11.2019
3953 Clouds -2 995 92 0 0.5 0 07:29 18.11.2019
3954 Clouds -1 994 86 0 2.1 30 06:56 18.11.2019
3955 Clouds -1 994 86 0 2.1 30 06:32 18.11.2019
3956 Clouds -1 993 86 0 2.6 30 05:48 18.11.2019
3957 Clouds -1 993 80 0 2.1 60 04:57 18.11.2019
3958 Clouds -2 992 68 0 2.1 50 02:59 18.11.2019
3959 Clouds -1 991 63 0 2.6 40 01:31 18.11.2019
3960 Clouds -2 990 79 0 3.6 10 00:24 18.11.2019
3961 Clouds -2 990 79 0 3.1 40 23:45 17.11.2019
3962 Clouds -2 990 79 0 3.1 40 23:25 17.11.2019
3963 Clouds -2 989 79 0 4.1 30 22:58 17.11.2019
3964 Clouds -2 989 79 0 4.1 30 22:40 17.11.2019
3965 Clouds -2 989 79 0 4.1 30 22:22 17.11.2019
3966 Clouds -3 988 86 0 4.1 10 21:59 17.11.2019
3967 Clouds -3 988 86 0 4.1 10 21:41 17.11.2019
3968 Clouds -3 988 86 0 4.1 10 21:19 17.11.2019
3969 Clouds -3 986 73 0 4.47 30 20:57 17.11.2019
3970 Clouds -3 986 73 0 4.47 30 20:38 17.11.2019
3971 Clouds -3 986 73 0 4.47 30 20:38 17.11.2019
3972 Clouds -3 986 73 10000 4.6 30 20:19 17.11.2019
3973 Clouds -3 986 73 10000 4.6 30 19:56 17.11.2019
3974 Clouds -3 986 73 10000 4.6 30 19:37 17.11.2019
3975 Clouds -3 986 73 10000 4.6 30 19:19 17.11.2019
3976 Clouds -3 986 73 0 5.81 50 18:55 17.11.2019
3977 Clouds -3 986 73 0 5.81 50 18:37 17.11.2019
3978 Clouds -3 986 73 10000 6.2 50 18:19 17.11.2019
3979 Clouds -3 986 73 10000 6.2 50 17:57 17.11.2019
3980 Clouds -3 986 73 10000 6.2 50 17:39 17.11.2019
3981 Clouds -3 986 73 10000 6.2 50 17:20 17.11.2019
3982 Clouds -3 986 73 0 5.81 50 16:58 17.11.2019
3983 Clouds -4 986 73 0 4.02 360 16:40 17.11.2019
3984 Clouds -4 986 73 10000 4.1 360 16:21 17.11.2019
3985 Clouds -4 986 73 10000 4.1 360 15:55 17.11.2019
3986 Clouds -4 986 73 10000 4.1 360 15:37 17.11.2019
3987 Clouds -4 986 73 10000 4.1 360 15:18 17.11.2019
3988 Clouds -4 986 73 10000 4.1 360 15:18 17.11.2019
3989 Clouds -4 986 62 10000 5.1 40 14:55 17.11.2019
3990 Clouds -4 986 62 10000 5.1 40 14:37 17.11.2019
3991 Clouds -4 986 62 10000 5.1 40 14:37 17.11.2019
3992 Clouds -4 986 62 10000 5.1 40 14:19 17.11.2019
3993 Clouds -4 986 62 10000 6.2 50 13:55 17.11.2019
3994 Clouds -4 986 62 10000 6.2 50 13:37 17.11.2019
3995 Clouds -4 986 62 10000 6.2 50 13:18 17.11.2019
3996 Clouds -4 986 62 10000 6.2 50 13:18 17.11.2019
3997 Clouds -4 986 62 10000 6.2 50 13:18 17.11.2019
3998 Clouds -5 986 67 10000 5.7 40 12:42 17.11.2019
3999 Clouds -5 986 67 10000 5.7 40 12:22 17.11.2019
4000 Clouds -6 987 73 0 4.6 40 11:57 17.11.2019
4001 Clouds -6 987 73 0 4.6 40 11:57 17.11.2019
4002 Clouds -6 987 73 0 4.6 40 11:38 17.11.2019
4003 Clouds -6 987 73 0 4.6 40 11:20 17.11.2019
4004 Clouds -5 988 73 0 4.1 360 10:44 17.11.2019
4005 Clouds -5 988 73 0 4.1 360 10:23 17.11.2019
4006 Clouds -5 989 73 0 4.6 10 09:57 17.11.2019
4007 Clouds -5 989 73 0 4.6 10 09:39 17.11.2019
4008 Clouds -5 989 73 0 4.6 10 09:21 17.11.2019
4009 Clouds -5 989 57 0 3.6 30 08:40 17.11.2019
4010 Clouds -6 989 57 0 3.6 30 08:20 17.11.2019
4011 Clouds -6 990 73 0 5.1 360 07:48 17.11.2019
4012 Clouds -6 990 73 0 5.1 360 07:28 17.11.2019
4013 Clouds -6 991 53 0 5.1 60 06:59 17.11.2019
4014 Clouds -6 991 53 0 5.1 60 06:40 17.11.2019
4015 Clouds -6 991 53 0 5.1 60 06:21 17.11.2019
4016 Clouds -5 993 53 0 9.3 70 04:24 17.11.2019
4017 Clouds -5 994 57 0 9.8 70 03:51 17.11.2019
4018 Clouds -5 994 57 0 9.8 70 03:32 17.11.2019
4019 Clouds -5 996 62 0 8.2 60 02:31 17.11.2019
4020 Clouds -4 998 62 10000 6.7 40 01:42 17.11.2019
4021 Clouds -4 1000 58 10000 9.3 60 00:55 17.11.2019
4022 Clouds -4 1000 58 10000 9.3 60 00:22 17.11.2019
4023 Snow -4 1001 68 10000 7.7 60 23:52 16.11.2019
4024 Snow -4 1001 68 10000 7.7 60 23:20 16.11.2019
4025 Clouds -4 1003 73 10000 7.2 70 22:59 16.11.2019
4026 Clouds -4 1003 73 10000 7.2 70 22:41 16.11.2019
4027 Clouds -4 1003 73 10000 7.2 70 22:19 16.11.2019
4028 Clouds -4 1004 58 10000 6.2 70 21:56 16.11.2019
4029 Clouds -4 1004 58 10000 6.2 70 21:38 16.11.2019
4030 Clouds -4 1004 58 10000 6.2 70 21:19 16.11.2019
4031 Clouds -4 1005 62 10000 7.7 60 20:55 16.11.2019
4032 Clouds -4 1005 62 10000 7.7 60 20:37 16.11.2019
4033 Clouds -4 1005 62 10000 7.7 60 20:18 16.11.2019
4034 Clouds -4 1007 62 10000 5.1 40 19:40 16.11.2019
4035 Clouds -4 1007 62 10000 5.1 40 19:22 16.11.2019
4036 Clouds -3 1007 63 10000 9.8 80 18:48 16.11.2019
4037 Clouds -3 1007 63 10000 9.8 80 18:30 16.11.2019
4038 Clouds -3 1008 63 10000 7.2 60 17:58 16.11.2019
4039 Clouds -3 1008 63 10000 7.2 60 17:39 16.11.2019
4040 Clouds -3 1008 63 10000 7.2 60 17:21 16.11.2019
4041 Clouds -3 1009 54 10000 6.7 90 16:59 16.11.2019
4042 Clouds -3 1009 54 10000 6.7 90 16:59 16.11.2019
4043 Clouds -2 1009 54 10000 6.7 90 16:41 16.11.2019
4044 Clouds -2 1009 54 10000 6.7 90 16:22 16.11.2019
4045 Clouds -2 1010 54 10000 4.6 90 15:42 16.11.2019
4046 Clouds -2 1010 54 10000 4.6 90 15:24 16.11.2019
4047 Clouds -2 1010 54 10000 4.6 90 15:24 16.11.2019
4048 Clouds -3 1010 63 10000 4.6 90 14:59 16.11.2019
4049 Clouds -3 1010 63 10000 4.6 90 14:40 16.11.2019
4050 Clouds -3 1010 63 10000 4.6 90 14:21 16.11.2019
4051 Clouds -3 1011 63 10000 4.6 100 13:56 16.11.2019
4052 Clouds -3 1011 63 10000 4.6 100 13:38 16.11.2019
4053 Clouds -3 1011 63 10000 4.6 100 13:19 16.11.2019
4054 Clouds -3 1011 68 10000 3.1 120 12:57 16.11.2019
4055 Clouds -3 1011 68 10000 3.1 120 12:57 16.11.2019
4056 Clouds -3 1011 68 10000 3.1 120 12:39 16.11.2019
4057 Clouds -3 1011 68 10000 3.1 120 12:20 16.11.2019
4058 Snow -2 1011 68 10000 4.6 140 11:44 16.11.2019
4059 Snow -2 1011 68 10000 4.6 140 11:26 16.11.2019
4060 Snow -4 1012 92 0 3.1 40 10:57 16.11.2019
4061 Snow -4 1012 92 0 3.1 40 10:38 16.11.2019
4062 Snow -4 1012 92 0 3.1 40 10:20 16.11.2019
4063 Snow -3 1012 92 0 1.5 360 09:43 16.11.2019
4064 Snow -3 1012 92 0 1.5 360 09:21 16.11.2019
4065 Snow -3 1012 86 0 1.5 0 08:58 16.11.2019
4066 Snow -3 1012 86 0 1.5 0 08:38 16.11.2019
4067 Snow -3 1012 86 0 1.5 0 08:18 16.11.2019
4068 Snow -3 1012 86 0 1.5 0 08:18 16.11.2019
4069 Snow -2 1012 79 0 7.2 160 07:42 16.11.2019
4070 Snow -2 1012 79 0 7.2 160 07:21 16.11.2019
4071 Snow -2 1012 74 0 7.2 160 06:52 16.11.2019
4072 Snow -2 1012 74 0 7.2 160 06:33 16.11.2019
4073 Snow -2 1012 86 0 8.2 150 05:30 16.11.2019
4074 Snow -2 1012 79 0 5.1 160 03:49 16.11.2019
4075 Snow -2 1012 79 0 5.1 160 03:25 16.11.2019
4076 Snow -2 1011 79 0 7.2 180 01:51 16.11.2019
4077 Snow -2 1011 79 0 7.2 180 01:20 16.11.2019
4078 Snow -1 1011 74 0 5.7 220 00:46 16.11.2019
4079 Snow -1 1011 74 0 5.7 220 00:26 16.11.2019
4080 Clouds -1 1010 68 10000 6.7 220 23:40 15.11.2019
4081 Clouds -1 1010 68 10000 6.7 220 23:21 15.11.2019
4082 Rain -2 1010 86 6000 6.2 170 22:57 15.11.2019
4083 Rain -2 1010 86 6000 6.2 170 22:57 15.11.2019
4084 Rain -2 1010 86 6000 6.2 170 22:38 15.11.2019
4085 Rain -2 1010 86 6000 6.2 170 22:18 15.11.2019
4086 Snow -2 1010 92 1400 7.2 220 21:54 15.11.2019
4087 Snow -2 1010 92 1400 7.2 220 21:36 15.11.2019
4088 Snow -2 1010 92 1400 7.2 220 21:18 15.11.2019
4089 Snow -3 1008 100 1400 9.3 220 20:54 15.11.2019
4090 Snow -3 1008 100 1400 9.3 220 20:36 15.11.2019
4091 Snow -3 1008 100 1400 9.3 220 20:18 15.11.2019
4092 Snow -1 1009 70 0 10.58 216 19:56 15.11.2019
4093 Snow -1 1009 70 0 10.58 216 19:36 15.11.2019
4094 Snow -2 1006 100 1100 8.7 190 19:18 15.11.2019
4095 Snow -2 1006 100 1100 8.7 190 18:41 15.11.2019
4096 Snow -2 1006 100 1100 8.7 190 18:41 15.11.2019
4097 Snow -2 1006 100 1100 8.7 190 18:23 15.11.2019
4098 Snow -2 1005 92 1500 7.7 180 17:55 15.11.2019
4099 Snow -2 1005 92 1500 7.7 180 17:37 15.11.2019
4100 Snow -2 1005 92 1500 7.7 180 17:19 15.11.2019
4101 Snow -1 1004 80 10000 8.7 180 16:40 15.11.2019
4102 Snow -1 1004 80 10000 8.7 180 16:40 15.11.2019
4103 Snow -1 1004 80 10000 8.7 180 16:22 15.11.2019
4104 Rain -1 1004 80 10000 8.7 190 15:59 15.11.2019
4105 Rain -1 1004 80 10000 8.7 190 15:37 15.11.2019
4106 Rain -1 1004 80 10000 8.7 190 15:18 15.11.2019
4107 Clouds -1 1003 74 10000 10.3 180 14:55 15.11.2019
4108 Clouds -1 1003 74 10000 10.3 180 14:37 15.11.2019
4109 Clouds -1 1003 74 10000 10.3 180 14:37 15.11.2019
4110 Clouds -1 1003 74 10000 10.3 180 14:18 15.11.2019
4111 Rain -1 1001 68 10000 10.3 190 13:55 15.11.2019
4112 Rain -1 1001 68 10000 10.3 190 13:36 15.11.2019
4113 Rain -1 1001 68 10000 10.3 190 13:18 15.11.2019
4114 Clouds -1 1000 74 10000 10.3 200 12:56 15.11.2019
4115 Clouds -1 1000 74 10000 10.3 200 12:37 15.11.2019
4116 Clouds -1 1000 74 10000 10.3 200 12:18 15.11.2019
4117 Clouds -1 1000 74 10000 10.3 200 12:18 15.11.2019
4118 Snow -1 999 80 8000 10.3 190 11:40 15.11.2019
4119 Snow -1 999 80 8000 10.3 190 11:40 15.11.2019
4120 Snow -1 999 80 8000 10.3 190 11:21 15.11.2019
4121 Snow -1 999 80 8000 10.3 190 11:21 15.11.2019
4122 Snow 0 998 76 8000 7.7 220 10:59 15.11.2019
4123 Snow 0 998 76 8000 7.7 220 10:59 15.11.2019
4124 Snow 0 998 76 8000 7.7 220 10:39 15.11.2019
4125 Snow 0 998 76 8000 7.7 220 10:20 15.11.2019
4126 Snow 0 996 76 0 7.2 200 09:42 15.11.2019
4127 Snow 0 996 76 0 7.2 200 09:21 15.11.2019
4128 Snow 0 994 76 0 6.7 240 08:58 15.11.2019
4129 Snow 0 994 76 0 6.7 240 08:40 15.11.2019
4130 Snow 0 994 97 0 6.7 240 08:21 15.11.2019
4131 Snow -1 992 100 0 7.2 220 07:44 15.11.2019
4132 Snow -1 992 100 0 7.2 220 07:25 15.11.2019
4133 Snow 0 989 83 0 8.2 250 06:36 15.11.2019
4134 Snow 0 985 83 0 9.8 260 05:57 15.11.2019
4135 Snow 0 985 83 0 9.8 260 05:57 15.11.2019
4136 Snow 0 985 83 0 9.8 260 05:38 15.11.2019
4137 Snow 0 985 83 0 9.8 260 05:38 15.11.2019
4138 Snow 0 980 91 0 13.4 250 04:54 15.11.2019
4139 Snow 1 973 91 0 6.7 200 03:44 15.11.2019
4140 Snow 1 969 100 0 6.7 190 02:37 15.11.2019
4141 Snow 1 966 76 0 10.3 170 01:57 15.11.2019
4142 Snow 1 966 75 0 10.3 170 01:32 15.11.2019
4143 Snow -1 965 100 0 1.5 210 00:42 15.11.2019
4144 Snow -1 965 100 0 1.5 210 00:24 15.11.2019
4145 Snow 0 963 75 0 0.5 20 23:47 14.11.2019
4146 Snow 0 963 75 0 0.5 20 23:27 14.11.2019
4147 Snow 0 963 75 0 0.5 20 23:27 14.11.2019
4148 Snow 0 962 86 0 1 10 22:55 14.11.2019
4149 Snow 0 962 86 0 1 10 22:37 14.11.2019
4150 Snow 0 962 86 0 1 10 22:19 14.11.2019
4151 Snow 2 962 80 0 5.7 80 21:42 14.11.2019
4152 Snow 2 962 80 0 5.7 80 21:23 14.11.2019
4153 Snow 1 962 86 0 8.7 70 20:56 14.11.2019
4154 Snow 1 962 86 0 8.7 70 20:37 14.11.2019
4155 Snow 1 962 86 0 8.7 70 20:19 14.11.2019
4156 Rain 3 963 69 0 3.1 0 19:58 14.11.2019
4157 Rain 3 963 69 0 3.1 0 19:58 14.11.2019
4158 Rain 3 963 69 0 3.1 0 19:40 14.11.2019
4159 Rain 3 963 69 0 3.1 0 19:18 14.11.2019
4160 Rain 3 964 67 0 9.8 160 18:54 14.11.2019
4161 Rain 3 964 67 0 9.8 160 18:36 14.11.2019
4162 Rain 3 964 67 0 9.8 160 18:18 14.11.2019
4163 Snow 1 964 67 0 15.9 160 17:38 14.11.2019
4164 Snow 1 964 67 0 15.9 160 17:38 14.11.2019
4165 Snow 3 964 87 0 15.9 160 17:20 14.11.2019
4166 Snow 3 964 86 0 20.1 160 16:58 14.11.2019
4167 Snow 3 964 86 0 20.1 160 16:58 14.11.2019
4168 Snow 3 964 86 0 20.1 160 16:39 14.11.2019
4169 Snow 3 964 86 0 20.1 160 16:20 14.11.2019
4170 Snow 3 964 86 0 20.1 160 16:20 14.11.2019
4171 Clouds 4 962 80 10000 8.2 70 15:58 14.11.2019
4172 Clouds 4 962 80 10000 8.2 70 15:39 14.11.2019
4173 Clouds 4 962 80 10000 8.2 70 15:20 14.11.2019
4174 Rain 2 964 93 10000 8.2 70 14:58 14.11.2019
4175 Rain 2 964 93 10000 8.2 70 14:40 14.11.2019
4176 Rain 2 964 93 10000 8.2 70 14:22 14.11.2019
4177 Rain 2 966 93 5000 6.7 60 13:55 14.11.2019
4178 Rain 2 966 93 5000 6.7 60 13:36 14.11.2019
4179 Rain 2 966 93 5000 6.7 60 13:18 14.11.2019
4180 Snow 2 968 93 5000 9.3 60 12:45 14.11.2019
4181 Snow 2 968 93 5000 9.3 60 12:25 14.11.2019
4182 Snow 1 969 91 0 8.7 50 11:58 14.11.2019
4183 Snow 1 969 91 0 8.7 50 11:38 14.11.2019
4184 Snow 1 969 94 0 8.7 50 11:19 14.11.2019
4185 Snow 1 972 86 0 9.8 60 10:57 14.11.2019
4186 Snow 1 972 86 0 9.8 60 10:37 14.11.2019
4187 Snow 1 972 86 0 9.8 60 10:19 14.11.2019
4188 Snow -1 974 100 0 9.8 60 09:55 14.11.2019
4189 Snow -1 974 100 0 9.8 60 09:37 14.11.2019
4190 Snow -1 974 100 0 9.8 60 09:18 14.11.2019
4191 Snow -2 978 100 0 10.8 70 08:46 14.11.2019
4192 Snow -2 978 100 0 10.8 70 08:23 14.11.2019
4193 Snow -2 981 92 0 8.2 60 07:42 14.11.2019
4194 Snow -2 981 92 0 8.2 60 07:24 14.11.2019
4195 Snow -2 984 92 0 9.8 70 06:47 14.11.2019
4196 Snow -2 984 92 0 9.8 70 06:21 14.11.2019
4197 Snow -2 987 86 0 8.2 70 05:59 14.11.2019
4198 Snow -2 990 86 0 9.8 80 04:38 14.11.2019
4199 Snow -2 993 86 4300 6.2 70 03:47 14.11.2019
4200 Snow -1 996 63 8000 6.2 90 02:39 14.11.2019
4201 Clouds -1 998 58 10000 8.7 80 01:41 14.11.2019
4202 Clouds -2 1000 68 10000 7.7 70 00:58 14.11.2019
4203 Clouds -2 1000 68 10000 7.7 70 00:58 14.11.2019
4204 Clouds -2 1000 68 10000 7.7 70 00:39 14.11.2019
4205 Clouds -2 1000 68 10000 7.7 70 00:39 14.11.2019
4206 Clouds -2 1000 68 10000 7.7 70 00:20 14.11.2019
4207 Clouds -1 1003 63 10000 6.2 60 23:39 13.11.2019
4208 Clouds -1 1003 63 10000 6.2 60 23:20 13.11.2019
4209 Clouds -2 1004 68 10000 5.7 70 22:55 13.11.2019
4210 Clouds -2 1004 68 10000 5.7 70 22:55 13.11.2019
4211 Clouds -2 1004 68 10000 5.7 70 22:37 13.11.2019
4212 Clouds -2 1004 68 10000 5.7 70 22:19 13.11.2019
4213 Clouds -2 1006 68 10000 4.1 80 21:55 13.11.2019
4214 Clouds -2 1006 68 10000 4.1 80 21:37 13.11.2019
4215 Clouds -2 1006 68 10000 4.1 80 21:18 13.11.2019
4216 Clouds -2 1007 63 10000 3.1 90 20:55 13.11.2019
4217 Clouds -2 1007 63 10000 3.1 90 20:37 13.11.2019
4218 Clouds -2 1007 63 10000 3.1 90 20:37 13.11.2019
4219 Clouds -2 1007 63 10000 3.1 90 20:18 13.11.2019
4220 Clouds -2 1007 63 10000 3.1 90 20:18 13.11.2019
4221 Clouds -1 1008 86 10000 2.1 180 19:43 13.11.2019
4222 Clouds -1 1008 86 10000 2.1 180 19:20 13.11.2019
4223 Rain 0 1009 58 10000 1 120 18:56 13.11.2019
4224 Rain 0 1009 58 10000 1 120 18:56 13.11.2019
4225 Rain 0 1009 58 10000 1 120 18:38 13.11.2019
4226 Rain 0 1009 58 10000 1 120 18:38 13.11.2019
4227 Rain 0 1009 58 10000 1 120 18:19 13.11.2019
4228 Rain 1 1009 59 10000 4.6 160 17:58 13.11.2019
4229 Rain 1 1009 59 10000 4.6 160 17:39 13.11.2019
4230 Rain 1 1009 59 10000 4.6 160 17:21 13.11.2019
4231 Rain 1 1010 59 10000 8.7 150 16:58 13.11.2019
4232 Rain 1 1010 59 10000 8.7 150 16:39 13.11.2019
4233 Rain 1 1010 59 10000 8.7 150 16:39 13.11.2019
4234 Rain 1 1010 59 10000 8.7 150 16:39 13.11.2019
4235 Rain 1 1010 59 10000 8.7 150 16:21 13.11.2019
4236 Clouds 1 1010 55 10000 5.1 160 15:58 13.11.2019
4237 Clouds 1 1010 55 10000 5.1 160 15:58 13.11.2019
4238 Clouds 1 1010 55 10000 5.1 160 15:39 13.11.2019
4239 Clouds 1 1010 55 10000 5.1 160 15:20 13.11.2019
4240 Rain 0 1010 67 10000 9.3 160 14:42 13.11.2019
4241 Rain 0 1010 60 10000 9.3 160 14:22 13.11.2019
4242 Clouds 0 1010 60 10000 3.1 140 13:58 13.11.2019
4243 Clouds 0 1010 60 10000 3.1 140 13:36 13.11.2019
4244 Clouds 0 1010 60 10000 3.1 140 13:18 13.11.2019
4245 Clouds -1 1010 63 10000 5.7 160 12:54 13.11.2019
4246 Clouds -1 1010 63 10000 5.7 160 12:36 13.11.2019
4247 Clouds -1 1010 63 10000 5.7 160 12:36 13.11.2019
4248 Clouds -1 1010 63 10000 5.7 160 12:18 13.11.2019
4249 -273 0 0 0 0 0 11:40 13.11.2019
4250 Rain 0 1009 69 0 5.7 140 11:20 13.11.2019
4251 Clouds -1 1009 68 0 3.6 150 10:58 13.11.2019
4252 Clouds -1 1009 68 0 3.6 150 10:40 13.11.2019
4253 Clouds -1 1009 68 0 3.6 150 10:20 13.11.2019
4254 Clouds -1 1009 68 0 4.1 130 09:55 13.11.2019
4255 Clouds -1 1009 68 0 4.1 130 09:37 13.11.2019
4256 Clouds -1 1009 68 0 4.1 130 09:19 13.11.2019
4257 Clouds -1 1008 86 0 4.1 100 08:39 13.11.2019
4258 Snow -1 1008 86 0 4.1 100 08:20 13.11.2019
4259 Snow -1 1008 86 0 1.5 110 07:42 13.11.2019
4260 Snow -2 1008 86 0 1.5 110 07:21 13.11.2019
4261 Snow -2 1007 80 0 3.6 170 06:46 13.11.2019
4262 Snow -2 1007 80 0 3.6 170 06:19 13.11.2019
4263 Snow -2 1007 80 0 3.6 170 06:19 13.11.2019
4264 Snow -2 1007 80 0 3.6 170 06:19 13.11.2019
4265 Snow -2 1007 86 0 3.37 162 05:53 13.11.2019
4266 Snow -2 1007 86 0 3.37 162 05:34 13.11.2019
4267 Snow -1 1006 80 0 1 210 04:43 13.11.2019
4268 Snow -1 1004 86 0 2.6 160 02:19 13.11.2019
4269 Snow 0 1003 79 6000 1 300 01:44 13.11.2019
4270 Snow 0 1002 75 4000 2.1 140 00:45 13.11.2019
4271 Snow 0 1002 75 4000 2.1 140 00:26 13.11.2019
4272 Snow -1 1001 92 7000 1.5 170 23:42 12.11.2019
4273 Snow -1 1001 92 7000 1.5 170 23:21 12.11.2019
4274 Snow -1 1000 100 4000 2.1 190 22:56 12.11.2019
4275 Snow -1 1000 100 4000 2.1 190 22:37 12.11.2019
4276 Snow -1 1000 100 4000 2.1 190 22:18 12.11.2019
4277 Rain -1 998 92 10000 2.6 160 21:44 12.11.2019
4278 Rain -1 998 92 10000 2.6 160 21:44 12.11.2019
4279 Rain -1 998 92 10000 2.6 160 21:25 12.11.2019
4280 Snow -1 996 96 10000 3.1 170 20:58 12.11.2019
4281 Snow 0 996 96 10000 3.1 170 20:38 12.11.2019
4282 Snow 0 996 96 10000 3.1 170 20:19 12.11.2019
4283 Rain 0 994 96 6000 1.5 170 19:58 12.11.2019
4284 Rain 0 994 96 6000 1.5 170 19:39 12.11.2019
4285 Rain 0 994 96 6000 1.5 170 19:19 12.11.2019
4286 Snow 0 993 96 1300 1.5 230 18:59 12.11.2019
4287 Snow 0 993 96 1300 1.5 230 18:40 12.11.2019
4288 Snow 0 993 96 1300 1.5 230 18:40 12.11.2019
4289 Snow 0 993 96 1300 1.5 230 18:22 12.11.2019
4290 Snow 0 993 96 1300 1.5 230 18:22 12.11.2019
4291 Snow 0 991 96 1200 5.7 280 17:57 12.11.2019
4292 Snow 0 991 96 1200 5.7 280 17:39 12.11.2019
4293 Snow 0 991 94 1200 5.7 280 17:21 12.11.2019
4294 Snow 0 989 94 3000 5.1 280 16:57 12.11.2019
4295 Snow 0 989 94 3000 5.1 280 16:39 12.11.2019
4296 Snow 0 989 94 3000 5.1 280 16:21 12.11.2019
4297 Rain 0 988 94 4500 5.1 290 15:42 12.11.2019
4298 Rain 0 988 94 4500 5.1 290 15:21 12.11.2019
4299 Rain 0 987 94 10000 6.2 300 14:57 12.11.2019
4300 Rain 0 987 94 10000 6.2 300 14:38 12.11.2019
4301 Rain 0 987 95 10000 6.2 300 14:19 12.11.2019
4302 Rain -1 986 100 10000 7.2 300 13:56 12.11.2019
4303 Rain -1 986 100 10000 7.2 300 13:37 12.11.2019
4304 Rain -1 986 100 10000 7.2 300 13:37 12.11.2019
4305 Rain -1 986 100 10000 7.2 300 13:19 12.11.2019
4306 Clouds 0 985 93 4000 7.2 300 12:43 12.11.2019
4307 Clouds 0 985 90 4000 7.2 300 12:20 12.11.2019
4308 Clouds 0 985 93 4400 7.2 320 11:59 12.11.2019
4309 Clouds 0 985 93 4400 7.2 320 11:41 12.11.2019
4310 Snow 0 985 92 3000 7.2 320 11:22 12.11.2019
4311 Snow -1 985 100 0 7.7 320 10:57 12.11.2019
4312 -273 0 0 0 0 0 10:38 12.11.2019
4313 Snow -1 985 100 0 7.7 320 10:20 12.11.2019
4314 Snow 0 985 92 0 7.2 310 09:56 12.11.2019
4315 Snow 0 985 82 0 7.2 310 09:38 12.11.2019
4316 Snow 0 985 92 0 7.2 310 09:18 12.11.2019
4317 Snow -1 985 100 0 3.6 290 08:42 12.11.2019
4318 Snow -1 985 100 0 3.6 290 08:24 12.11.2019
4319 Snow -1 986 100 0 2.1 340 07:41 12.11.2019
4320 Snow -1 986 100 0 2.1 340 07:23 12.11.2019
4321 Snow -1 987 100 0 2.6 160 06:47 12.11.2019
4322 Snow -1 987 100 0 2.6 160 06:23 12.11.2019
4323 Snow -1 988 100 0 3.6 190 05:49 12.11.2019
4324 Snow -1 989 100 0 5.7 200 04:50 12.11.2019
4325 Snow 0 990 92 0 1.5 160 03:49 12.11.2019
4326 Snow 1 991 96 0 2.6 150 01:49 12.11.2019
4327 Snow 1 991 96 0 2.6 150 01:23 12.11.2019
4328 Rain 1 991 97 0 3.1 190 00:51 12.11.2019
4329 Rain 1 991 97 0 3.1 190 00:32 12.11.2019
4330 Clouds 1 991 97 10000 3.6 180 23:48 11.11.2019
4331 Clouds 1 991 97 10000 3.6 180 23:25 11.11.2019
4332 Clouds 1 991 97 10000 5.1 180 22:58 11.11.2019
4333 Clouds 1 991 97 10000 5.1 180 22:38 11.11.2019
4334 Clouds 1 991 97 10000 5.1 180 22:19 11.11.2019
4335 Clouds 1 991 97 10000 6.2 170 21:57 11.11.2019
4336 Clouds 1 991 97 10000 6.2 170 21:38 11.11.2019
4337 Clouds 1 991 97 10000 6.2 170 21:20 11.11.2019
4338 Rain 2 990 97 10000 11.8 170 20:55 11.11.2019
4339 Rain 2 990 97 10000 11.8 170 20:36 11.11.2019
4340 Rain 2 990 95 10000 11.8 170 20:18 11.11.2019
4341 Rain 2 989 95 10000 12.3 170 19:42 11.11.2019
4342 Rain 2 989 95 10000 12.3 170 19:19 11.11.2019
4343 Rain 2 988 95 10000 13.4 160 18:57 11.11.2019
4344 Rain 2 988 95 10000 13.4 160 18:57 11.11.2019
4345 Rain 2 988 95 10000 13.4 160 18:39 11.11.2019
4346 Rain 2 988 95 10000 13.4 160 18:20 11.11.2019
4347 Snow 3 989 74 10000 10.3 170 17:44 11.11.2019
4348 Snow 3 989 74 10000 10.3 170 17:25 11.11.2019
4349 Clouds 5 988 56 10000 10.3 160 16:55 11.11.2019
4350 Clouds 5 988 56 10000 10.3 160 16:37 11.11.2019
4351 Clouds 5 988 56 10000 10.3 160 16:19 11.11.2019
4352 Clouds 5 988 56 10000 9.8 160 15:41 11.11.2019
4353 Clouds 5 988 56 10000 9.8 160 15:20 11.11.2019
4354 Clouds 4 987 60 10000 8.7 160 14:55 11.11.2019
4355 Clouds 4 987 60 10000 8.7 160 14:37 11.11.2019
4356 Clouds 4 987 60 10000 8.7 160 14:18 11.11.2019
4357 Clouds 4 986 64 10000 10.3 170 13:40 11.11.2019
4358 Clouds 4 986 64 10000 10.3 170 13:21 11.11.2019
4359 Clouds 4 986 69 10000 7.2 160 12:58 11.11.2019
4360 Clouds 4 986 69 10000 7.2 160 12:58 11.11.2019
4361 Clouds 4 986 69 10000 7.2 160 12:40 11.11.2019
4362 Clouds 4 986 69 10000 7.2 160 12:22 11.11.2019
4363 Clouds 4 985 69 10000 8.7 170 11:58 11.11.2019
4364 Clouds 4 985 69 10000 8.7 170 11:40 11.11.2019
4365 Clouds 4 985 69 10000 8.7 170 11:21 11.11.2019
4366 Clouds 4 984 69 0 8.2 160 10:43 11.11.2019
4367 Clouds 4 984 69 0 8.2 160 10:19 11.11.2019
4368 Clouds 4 984 69 0 7.2 170 09:58 11.11.2019
4369 Clouds 4 984 69 0 7.2 170 09:40 11.11.2019
4370 Clouds 4 984 69 0 7.2 170 09:19 11.11.2019
4371 Clouds 4 983 64 0 3.1 170 08:42 11.11.2019
4372 Clouds 4 983 64 0 3.1 170 08:22 11.11.2019
4373 Clouds 2 983 80 0 1.5 0 07:57 11.11.2019
4374 Clouds 2 983 80 0 1.5 0 07:38 11.11.2019
4375 Clouds 2 983 80 0 1.5 0 07:19 11.11.2019
4376 Clouds 2 982 65 0 1 110 06:55 11.11.2019
4377 Clouds 2 982 65 0 1 110 06:37 11.11.2019
4378 Clouds 2 982 65 0 1 110 06:18 11.11.2019
4379 Clouds 2 982 65 0 3.1 30 05:42 11.11.2019
4380 Clouds 3 980 59 0 2.1 160 03:26 11.11.2019
4381 Clouds 4 979 64 0 3.6 170 02:30 11.11.2019
4382 Clouds 8 978 28 0 5.1 120 01:57 11.11.2019
4383 Clouds 8 978 28 0 5.1 120 01:36 11.11.2019
4384 Clouds 8 977 26 0 6.2 90 00:53 11.11.2019
4385 Clouds 8 977 26 0 6.2 90 00:33 11.11.2019
4386 Clouds 7 977 30 0 8.2 80 23:57 10.11.2019
4387 Clouds 7 977 30 0 8.2 80 23:37 10.11.2019
4388 Clouds 7 977 30 0 8.2 80 23:19 10.11.2019
4389 Clouds 8 976 26 10000 7.7 90 22:55 10.11.2019
4390 Clouds 8 976 26 10000 7.7 90 22:55 10.11.2019
4391 Clouds 8 976 26 10000 7.7 90 22:37 10.11.2019
4392 Clouds 8 976 26 10000 7.7 90 22:18 10.11.2019
4393 Clouds 8 976 26 10000 7.7 100 21:55 10.11.2019
4394 Clouds 8 976 26 10000 7.7 100 21:36 10.11.2019
4395 Clouds 8 976 26 10000 7.7 100 21:36 10.11.2019
4396 Clouds 8 976 26 10000 7.7 100 21:18 10.11.2019
4397 Clouds 8 975 26 10000 8.2 90 20:40 10.11.2019
4398 Clouds 8 975 26 10000 8.2 90 20:22 10.11.2019
4399 Clouds 7 975 28 10000 8.7 80 19:56 10.11.2019
4400 Clouds 7 975 28 10000 8.7 80 19:37 10.11.2019
4401 Clouds 7 975 28 10000 8.7 80 19:37 10.11.2019
4402 Clouds 7 975 28 10000 8.7 80 19:18 10.11.2019
4403 Clouds 7 975 30 10000 6.7 70 18:58 10.11.2019
4404 Clouds 7 975 30 10000 6.7 70 18:58 10.11.2019
4405 Clouds 7 975 30 10000 6.7 70 18:58 10.11.2019
4406 Clouds 7 975 30 10000 6.7 70 18:39 10.11.2019
4407 Clouds 7 975 30 10000 6.7 70 18:19 10.11.2019
4408 Clouds 7 975 30 10000 6.7 70 18:19 10.11.2019
4409 Clouds 7 974 28 10000 7.7 70 17:56 10.11.2019
4410 Clouds 7 974 28 10000 7.7 70 17:38 10.11.2019
4411 Clouds 7 974 28 10000 7.7 70 17:19 10.11.2019
4412 Clouds 5 974 48 10000 6.2 40 16:58 10.11.2019
4413 Clouds 5 974 48 10000 6.2 40 16:38 10.11.2019
4414 Clouds 5 974 48 10000 6.2 40 16:20 10.11.2019
4415 Clouds 5 974 35 10000 7.7 70 15:55 10.11.2019
4416 Clouds 5 974 35 10000 7.7 70 15:36 10.11.2019
4417 Clouds 5 974 35 10000 7.7 70 15:18 10.11.2019
4418 Clouds 6 974 33 10000 9.3 80 14:41 10.11.2019
4419 Clouds 6 974 33 10000 9.3 80 14:23 10.11.2019
4420 Clouds 4 974 55 10000 4.6 50 13:58 10.11.2019
4421 Clouds 3 974 55 10000 4.6 50 13:40 10.11.2019
4422 Clouds 3 974 55 10000 4.6 50 13:20 10.11.2019
4423 Clouds 3 974 55 0 5.7 50 12:54 10.11.2019
4424 Clouds 3 974 55 0 5.7 50 12:36 10.11.2019
4425 Clouds 3 974 55 0 5.7 50 12:18 10.11.2019
4426 Clouds 4 974 44 0 6.2 70 11:54 10.11.2019
4427 Clouds 4 974 44 0 6.2 70 11:36 10.11.2019
4428 Clouds 4 974 44 0 6.2 70 11:18 10.11.2019
4429 Clouds 4 974 44 0 5.1 60 10:41 10.11.2019
4430 Clouds 4 974 44 0 5.1 60 10:20 10.11.2019
4431 Clouds 3 974 59 0 4.1 40 09:44 10.11.2019
4432 Clouds 3 974 59 0 4.1 40 09:26 10.11.2019
4433 Clouds 5 974 41 0 5.7 80 08:59 10.11.2019
4434 Clouds 5 974 41 0 5.7 80 08:38 10.11.2019
4435 Clouds 5 974 41 0 5.7 80 08:19 10.11.2019
4436 Clouds 5 974 41 0 4.1 80 07:43 10.11.2019
4437 Clouds 5 974 41 0 4.1 80 07:25 10.11.2019
4438 Clouds 5 974 44 0 9.3 90 06:33 10.11.2019
4439 Clouds 5 974 44 0 9.3 90 06:33 10.11.2019
4440 Clouds 6 973 41 0 11.3 120 05:43 10.11.2019
4441 Clouds 5 975 41 0 7.2 80 03:22 10.11.2019
4442 Clouds 3 976 52 0 6.85 60 01:55 10.11.2019
4443 Clouds 4 976 49 0 9.39 61 01:19 10.11.2019
4444 Clouds 4 976 49 0 9.39 61 00:41 10.11.2019
4445 Clouds 4 976 49 0 9.39 61 23:58 09.11.2019
4446 Clouds 4 976 49 0 9.39 61 23:38 09.11.2019
4447 Clouds 2 982 55 10000 4.6 50 23:18 09.11.2019
4448 Clouds 2 982 55 10000 4.6 50 22:41 09.11.2019
4449 Clouds 2 982 55 10000 4.6 50 22:21 09.11.2019
4450 Clouds 2 984 59 10000 5.1 50 21:56 09.11.2019
4451 Clouds 2 984 59 10000 5.1 50 21:38 09.11.2019
4452 Clouds 2 984 59 10000 5.1 50 21:20 09.11.2019
4453 Clouds 3 985 47 10000 4.6 70 20:44 09.11.2019
4454 Clouds 4 985 47 10000 4.6 70 20:24 09.11.2019
4455 Clouds 4 986 38 10000 3.6 190 19:58 09.11.2019
4456 Clouds 4 986 38 10000 3.6 190 19:40 09.11.2019
4457 Clouds 4 986 38 10000 3.6 190 19:22 09.11.2019
4458 Clouds 4 986 38 10000 3.6 190 19:22 09.11.2019
4459 Clouds 5 987 32 10000 3.6 110 18:57 09.11.2019
4460 Clouds 5 987 32 10000 3.6 110 18:38 09.11.2019
4461 Clouds 5 987 32 10000 3.6 110 18:18 09.11.2019
4462 Clouds 5 987 30 10000 5.7 100 17:41 09.11.2019
4463 Clouds 5 987 30 10000 5.7 100 17:22 09.11.2019
4464 Clouds 6 988 28 10000 5.7 100 16:56 09.11.2019
4465 Clouds 6 988 28 10000 5.7 100 16:37 09.11.2019
4466 Clouds 6 988 28 10000 5.7 100 16:18 09.11.2019
4467 Clouds 5 989 27 10000 5.7 90 15:42 09.11.2019
4468 Clouds 5 989 27 10000 5.7 90 15:23 09.11.2019
4469 Clouds 5 989 25 10000 6.7 90 14:46 09.11.2019
4470 Clouds 5 989 25 10000 6.7 90 14:23 09.11.2019
4471 Clouds 5 990 25 10000 6.7 90 13:58 09.11.2019
4472 Clouds 5 990 25 10000 6.7 90 13:40 09.11.2019
4473 Clouds 5 990 25 10000 6.7 90 13:21 09.11.2019
4474 Clouds 5 990 25 10000 6.2 100 12:59 09.11.2019
4475 Clouds 5 990 25 10000 6.2 100 12:40 09.11.2019
4476 Clouds 5 990 25 10000 6.2 100 12:22 09.11.2019
4477 Clouds 5 991 25 10000 6.2 100 11:54 09.11.2019
4478 Clouds 5 991 25 10000 6.2 100 11:36 09.11.2019
4479 Clouds 5 991 25 10000 6.2 100 11:18 09.11.2019
4480 Clouds 5 991 27 0 6.7 110 10:39 09.11.2019
4481 Clouds 5 991 27 0 6.7 110 10:19 09.11.2019
4482 Clouds 5 991 25 0 6.2 100 09:47 09.11.2019
4483 Clouds 5 991 25 0 6.2 100 09:28 09.11.2019
4484 Clouds 4 991 35 0 2.1 90 08:59 09.11.2019
4485 Clouds 4 991 35 0 2.1 90 08:40 09.11.2019
4486 Clouds 4 991 35 0 2.1 90 08:21 09.11.2019
4487 Clouds 5 991 25 0 4.1 100 07:46 09.11.2019
4488 Clouds 5 991 25 0 4.1 100 07:24 09.11.2019
4489 Clouds 5 991 27 0 3.6 90 06:50 09.11.2019
4490 Clouds 5 991 27 0 3.6 90 06:32 09.11.2019
4491 Clouds 6 991 26 0 5.7 90 05:47 09.11.2019
4492 Clouds 6 991 26 0 5.7 90 05:23 09.11.2019
4493 Clouds 6 991 26 0 3.1 100 03:57 09.11.2019
4494 Clouds 6 991 26 0 1 0 02:45 09.11.2019
4495 Clouds 5 990 30 0 0.5 0 01:57 09.11.2019
4496 Clouds 4 990 35 0 1.5 140 00:54 09.11.2019
4497 Clouds 4 990 35 0 1.5 140 00:36 09.11.2019
4498 Clouds 6 989 24 10000 2.6 90 23:58 08.11.2019
4499 Clouds 7 989 24 10000 2.6 90 23:40 08.11.2019
4500 Clouds 7 989 24 10000 2.6 90 23:20 08.11.2019
4501 Clouds 3 989 47 10000 5.1 50 22:48 08.11.2019
4502 Clouds 3 989 47 10000 5.1 50 22:22 08.11.2019
4503 Clouds 4 988 38 10000 4.1 50 21:57 08.11.2019
4504 Clouds 4 988 38 10000 4.1 50 21:39 08.11.2019
4505 Clouds 4 988 38 10000 4.1 50 21:19 08.11.2019
4506 Clouds 3 988 44 10000 4.6 40 20:54 08.11.2019
4507 Clouds 3 988 44 10000 4.6 40 20:36 08.11.2019
4508 Clouds 3 988 44 10000 4.6 40 20:18 08.11.2019
4509 Clouds 3 987 44 10000 2.6 360 19:39 08.11.2019
4510 Clouds 3 987 44 10000 2.6 360 19:19 08.11.2019
4511 Clouds 3 987 44 10000 2.6 360 19:19 08.11.2019
4512 Clouds 4 987 48 10000 1 0 18:56 08.11.2019
4513 Clouds 4 987 48 10000 1 0 18:38 08.11.2019
4514 Clouds 4 987 48 10000 1 0 18:20 08.11.2019
4515 Clouds 4 986 38 10000 2.1 170 17:56 08.11.2019
4516 Clouds 4 986 38 10000 2.1 170 17:56 08.11.2019
4517 Clouds 4 986 38 10000 2.1 170 17:37 08.11.2019
4518 Clouds 4 986 38 10000 2.1 170 17:19 08.11.2019
4519 Clouds 3 985 51 10000 3.1 10 16:58 08.11.2019
4520 Clouds 2 985 51 10000 3.1 10 16:39 08.11.2019
4521 Clouds 2 985 51 10000 3.1 10 16:39 08.11.2019
4522 Clouds 2 985 51 10000 3.1 10 16:39 08.11.2019
4523 Clouds 2 985 51 10000 3.1 10 16:39 08.11.2019
4524 Clouds 2 985 51 10000 3.1 10 16:20 08.11.2019
4525 Clouds 2 985 51 10000 3.1 10 16:20 08.11.2019
4526 Clouds 2 985 43 10000 1.5 90 15:59 08.11.2019
4527 Clouds 2 985 43 10000 1.5 90 15:40 08.11.2019
4528 Clouds 2 985 43 10000 1.5 90 15:22 08.11.2019
4529 Clouds 3 985 47 10000 4.6 60 14:56 08.11.2019
4530 Clouds 3 985 47 10000 4.6 60 14:37 08.11.2019
4531 Clouds 3 985 47 10000 4.6 60 14:19 08.11.2019
4532 Clouds 4 984 32 10000 7.2 60 13:57 08.11.2019
4533 Clouds 4 984 32 10000 7.2 60 13:38 08.11.2019
4534 Clouds 4 984 32 10000 7.2 60 13:19 08.11.2019
4535 Clouds 3 984 34 10000 6.2 70 12:43 08.11.2019
4536 Clouds 3 984 34 10000 6.2 70 12:25 08.11.2019
4537 Clouds 2 984 59 10000 5.7 40 11:57 08.11.2019
4538 Clouds 2 984 59 10000 5.7 40 11:39 08.11.2019
4539 Clouds 2 984 59 10000 5.7 40 11:20 08.11.2019
4540 Clouds 2 984 59 10000 5.7 40 11:20 08.11.2019
4541 Clouds 2 984 59 10000 5.7 40 11:20 08.11.2019
4542 Clouds 5 984 27 10000 8.2 80 10:57 08.11.2019
4543 Clouds 5 984 27 10000 8.2 80 10:39 08.11.2019
4544 Clouds 5 984 27 10000 8.2 80 10:20 08.11.2019
4545 Clouds 5 984 27 0 8.7 90 09:55 08.11.2019
4546 Clouds 5 984 27 0 8.7 90 09:36 08.11.2019
4547 Clouds 5 984 27 0 8.7 90 09:18 08.11.2019
4548 Clouds 5 984 30 0 8.7 80 08:38 08.11.2019
4549 Clouds 5 984 30 0 8.7 80 08:19 08.11.2019
4550 Clouds 4 984 35 0 7.7 70 07:41 08.11.2019
4551 Clouds 4 984 35 0 7.7 70 07:22 08.11.2019
4552 Clouds 4 984 35 0 7.7 70 07:22 08.11.2019
4553 Clouds 5 984 30 0 6.7 90 06:43 08.11.2019
4554 Clouds 5 984 30 0 6.7 90 06:24 08.11.2019
4555 Clouds 5 984 30 0 8.2 80 05:57 08.11.2019
4556 Clouds 5 984 30 0 8.2 80 05:25 08.11.2019
4557 Clouds 4 984 32 0 7.2 100 04:18 08.11.2019
4558 Clouds 5 984 30 10000 9.3 80 03:41 08.11.2019
4559 Clouds 4 985 38 10000 7.7 100 02:54 08.11.2019
4560 Clouds 5 985 35 10000 8.2 100 01:50 08.11.2019
4561 Clouds 5 985 35 10000 8.2 100 01:31 08.11.2019
4562 Clouds 4 985 35 10000 7.7 90 00:38 08.11.2019
4563 Clouds 4 985 35 10000 7.7 90 00:20 08.11.2019
4564 Clouds 5 985 30 10000 10.3 80 23:44 07.11.2019
4565 Clouds 5 985 30 10000 10.3 80 23:25 07.11.2019
4566 Clouds 5 985 30 10000 10.8 80 22:55 07.11.2019
4567 Clouds 5 985 30 10000 10.8 80 22:37 07.11.2019
4568 Clouds 5 985 30 10000 10.8 80 22:19 07.11.2019
4569 Clouds 5 985 32 10000 8.7 90 21:38 07.11.2019
4570 Clouds 5 985 32 10000 8.7 90 21:20 07.11.2019
4571 Clouds 5 986 32 10000 11.3 80 20:58 07.11.2019
4572 Clouds 5 986 32 10000 11.3 80 20:40 07.11.2019
4573 Clouds 5 986 32 10000 11.3 80 20:21 07.11.2019
4574 Clouds 4 987 38 10000 10.8 70 19:57 07.11.2019
4575 Clouds 4 987 38 10000 10.8 70 19:57 07.11.2019
4576 Clouds 4 987 38 10000 10.8 70 19:38 07.11.2019
4577 Clouds 4 987 38 10000 10.8 70 19:20 07.11.2019
4578 Clouds 2 988 43 10000 8.7 40 18:57 07.11.2019
4579 Clouds 2 988 43 10000 8.7 40 18:38 07.11.2019
4580 Clouds 2 988 43 10000 8.7 40 18:19 07.11.2019
4581 Clouds 2 989 43 10000 10.3 50 17:55 07.11.2019
4582 Clouds 2 989 43 10000 10.3 50 17:37 07.11.2019
4583 Clouds 2 989 43 10000 10.3 50 17:19 07.11.2019
4584 Clouds 2 990 34 10000 11.3 70 16:54 07.11.2019
4585 Clouds 2 990 34 10000 11.3 70 16:36 07.11.2019
4586 Clouds 2 990 34 10000 11.3 70 16:18 07.11.2019
4587 Clouds 1 993 43 10000 9.8 60 15:40 07.11.2019
4588 Clouds 1 993 43 10000 9.8 60 15:20 07.11.2019
4589 Clouds 0 994 53 10000 9.8 60 14:56 07.11.2019
4590 Clouds 0 994 53 10000 9.8 60 14:37 07.11.2019
4591 Clouds 0 994 46 10000 9.8 60 14:19 07.11.2019
4592 Clouds 0 996 46 0 7.15 50 13:54 07.11.2019
4593 Clouds 0 996 46 0 7.15 50 13:36 07.11.2019
4594 Clouds 0 996 46 10000 7.2 50 13:18 07.11.2019
4595 Clouds 0 996 46 10000 7.2 50 12:55 07.11.2019
4596 Clouds 0 996 46 10000 7.2 50 12:36 07.11.2019
4597 Clouds 0 996 46 10000 7.2 50 12:36 07.11.2019
4598 Clouds 0 996 46 10000 7.2 50 12:18 07.11.2019
4599 Clouds 0 996 46 10000 7.2 50 12:18 07.11.2019
4600 Clouds 0 997 46 10000 8.2 50 11:41 07.11.2019
4601 Clouds 0 997 45 10000 8.2 50 11:22 07.11.2019
4602 Clouds -1 998 42 10000 9.3 50 10:42 07.11.2019
4603 Clouds -1 998 42 10000 9.3 50 10:19 07.11.2019
4604 Clouds -1 999 50 0 10.3 60 09:55 07.11.2019
4605 Clouds -1 999 50 0 10.3 60 09:36 07.11.2019
4606 Clouds -1 999 50 0 10.3 60 09:18 07.11.2019
4607 -273 0 0 0 0 0 08:41 07.11.2019
4608 Clouds -1 1001 50 0 7.7 50 08:40 07.11.2019
4609 Clouds -1 1001 50 0 7.7 50 08:22 07.11.2019
4610 Clouds -1 1002 50 0 8.2 70 07:56 07.11.2019
4611 -273 0 0 0 0 0 07:38 07.11.2019
4612 Clouds -1 1002 50 0 8.2 70 07:19 07.11.2019
4613 Clouds -1 1003 54 0 8.7 80 06:44 07.11.2019
4614 Clouds -1 1003 54 0 8.7 80 06:23 07.11.2019
4615 Clouds -1 1003 54 0 8.7 80 06:23 07.11.2019
4616 Clouds -2 1004 63 0 8.2 70 05:48 07.11.2019
4617 Clouds -2 1004 63 0 8.2 70 05:30 07.11.2019
4618 Clouds -2 1005 74 0 8.2 80 04:50 07.11.2019
4619 -273 0 0 0 0 0 04:50 07.11.2019
4620 Clouds -2 1005 74 0 8.2 80 04:28 07.11.2019
4621 Clouds -2 1005 74 0 8.2 80 04:28 07.11.2019
4622 Clouds -1 1009 68 0 3.1 100 01:27 07.11.2019
4623 Clouds -1 1010 68 0 5.1 80 00:27 07.11.2019
4624 Clear -1 1011 80 10000 6.2 60 23:54 06.11.2019
4625 Clear -1 1011 80 10000 6.2 60 23:36 06.11.2019
4626 Clear -1 1011 80 10000 6.2 60 23:18 06.11.2019
4627 Clouds -1 1011 86 10000 5.1 60 22:39 06.11.2019
4628 Clouds -1 1011 86 10000 5.1 60 22:20 06.11.2019
4629 Clouds -2 1012 92 10000 3.6 70 21:57 06.11.2019
4630 Clouds -2 1012 92 10000 3.6 70 21:57 06.11.2019
4631 Clouds -2 1012 92 10000 3.6 70 21:39 06.11.2019
4632 Clouds -2 1012 92 10000 3.6 70 21:19 06.11.2019
4633 Clouds -2 1013 86 10000 4.1 80 20:56 06.11.2019
4634 Clouds -1 1013 86 10000 4.1 80 20:38 06.11.2019
4635 Clouds -1 1013 86 10000 4.1 80 20:20 06.11.2019
4636 Clouds 0 1013 75 10000 3.1 70 19:56 06.11.2019
4637 Clouds 0 1013 75 10000 3.1 70 19:36 06.11.2019
4638 Clouds 0 1013 75 10000 3.1 70 19:18 06.11.2019
4639 Clouds 0 1014 75 10000 3.1 50 18:55 06.11.2019
4640 Clouds 0 1014 75 10000 3.1 50 18:36 06.11.2019
4641 Clouds 0 1014 75 10000 3.1 50 18:18 06.11.2019
4642 Clouds 1 1014 74 10000 2.1 60 17:42 06.11.2019
4643 Clouds 1 1014 74 10000 2.1 60 17:23 06.11.2019
4644 Clouds 1 1014 80 10000 3.6 60 16:57 06.11.2019
4645 Clouds 1 1014 80 10000 3.6 60 16:39 06.11.2019
4646 Clouds 1 1014 80 10000 3.6 60 16:39 06.11.2019
4647 Clouds 1 1014 80 10000 3.6 60 16:21 06.11.2019
4648 Rain 0 1014 79 10000 1.5 30 15:58 06.11.2019
4649 Rain 0 1014 79 10000 1.5 30 15:38 06.11.2019
4650 Rain 0 1014 79 10000 1.5 30 15:38 06.11.2019
4651 Rain 0 1014 79 10000 1.5 30 15:19 06.11.2019
4652 Rain 0 1014 92 10000 1.5 100 14:57 06.11.2019
4653 Rain 0 1014 92 10000 1.5 100 14:39 06.11.2019
4654 Rain 0 1014 92 10000 1.5 100 14:21 06.11.2019
4655 Clouds 0 1014 80 10000 0.66 320 13:59 06.11.2019
4656 Clouds 0 1014 80 10000 0.66 320 13:59 06.11.2019
4657 Clouds 0 1014 80 10000 0.66 320 13:37 06.11.2019
4658 Clouds 0 1014 81 10000 0.97 277 13:19 06.11.2019
4659 Clouds 0 1014 81 10000 0.97 277 12:55 06.11.2019
4660 Clouds 0 1014 81 10000 0.97 277 12:37 06.11.2019
4661 Clouds 0 1014 81 10000 0.97 277 12:18 06.11.2019
4662 Clouds 0 1014 81 10000 0.97 277 11:56 06.11.2019
4663 Clouds 0 1014 81 10000 0.97 277 11:36 06.11.2019
4664 Clouds 0 1014 91 10000 2.31 260 11:18 06.11.2019
4665 Snow 0 1013 91 0 2.6 310 10:55 06.11.2019
4666 Snow 0 1013 91 0 2.6 310 10:37 06.11.2019
4667 Snow 0 1013 91 0 2.6 310 10:18 06.11.2019
4668 Snow 1 1013 69 0 3.1 110 09:41 06.11.2019
4669 Snow 1 1013 69 0 3.1 110 09:21 06.11.2019
4670 Snow 1 1013 80 0 1 200 08:56 06.11.2019
4671 Snow 1 1013 80 0 1 200 08:38 06.11.2019
4672 Clouds 1 1013 80 0 1 200 08:18 06.11.2019
4673 Clouds 1 1012 80 0 1.5 180 07:47 06.11.2019
4674 Clouds 1 1012 80 0 1.5 180 07:29 06.11.2019
4675 Clouds 0 1011 84 0 1.5 180 06:54 06.11.2019
4676 Clouds 0 1011 84 0 1.5 180 06:36 06.11.2019
4677 Clouds 1 1011 80 0 2.1 170 05:58 06.11.2019
4678 Clouds 1 1009 86 0 1.5 180 03:52 06.11.2019
4679 Rain 1 1009 92 10000 2.1 160 02:18 06.11.2019
4680 Clouds 0 1007 88 10000 3.1 170 00:51 06.11.2019
4681 Clouds 0 1007 88 10000 3.1 170 00:26 06.11.2019
4682 Clouds 0 1006 88 10000 3.1 170 23:57 05.11.2019
4683 Clouds 0 1006 88 10000 3.1 170 23:37 05.11.2019
4684 Clouds 0 1006 96 10000 3.1 170 23:18 05.11.2019
4685 Snow 1 1005 86 8000 3.1 180 22:42 05.11.2019
4686 Snow 1 1005 86 8000 3.1 180 22:19 05.11.2019
4687 Snow 1 1005 86 8000 3.1 180 22:19 05.11.2019
4688 Clouds 1 1004 86 10000 2.6 180 21:57 05.11.2019
4689 Clouds 1 1004 86 10000 2.6 180 21:39 05.11.2019
4690 Clouds 1 1004 86 10000 2.6 180 21:20 05.11.2019
4691 Rain 1 1003 86 10000 2.6 170 20:56 05.11.2019
4692 Rain 1 1003 86 10000 2.6 170 20:38 05.11.2019
4693 Rain 1 1003 86 10000 2.6 170 20:38 05.11.2019
4694 Rain 1 1003 86 10000 2.6 170 20:20 05.11.2019
4695 Rain 1 1003 86 10000 2.6 170 20:20 05.11.2019
4696 Rain 0 1002 68 10000 2.6 170 19:55 05.11.2019
4697 Rain 0 1002 68 10000 2.6 170 19:37 05.11.2019
4698 Rain 0 1002 68 10000 2.6 170 19:18 05.11.2019
4699 Snow 1 1001 68 10000 1.5 200 18:56 05.11.2019
4700 Snow 1 1001 68 10000 1.5 200 18:38 05.11.2019
4701 Snow 1 1001 68 10000 1.5 200 18:19 05.11.2019
4702 Clouds 1 1000 86 10000 1.5 320 17:54 05.11.2019
4703 Clouds 1 1000 86 10000 1.5 320 17:54 05.11.2019
4704 Clouds 1 1000 86 10000 1.5 320 17:36 05.11.2019
4705 Clouds 1 1000 86 10000 1.5 320 17:18 05.11.2019
4706 Clouds 1 1000 80 10000 1.5 30 16:41 05.11.2019
4707 Clouds 1 1000 80 10000 1.5 30 16:20 05.11.2019
4708 Clouds 2 999 63 0 2.07 105 15:55 05.11.2019
4709 Clouds 2 999 63 0 2.07 105 15:36 05.11.2019
4710 Clouds 1 998 80 10000 3.1 40 15:18 05.11.2019
4711 Clouds 1 998 80 10000 3.1 40 14:54 05.11.2019
4712 Clouds 1 998 80 10000 3.1 40 14:36 05.11.2019
4713 Clouds 1 998 80 10000 3.1 40 14:18 05.11.2019
4714 Clouds 0 998 62 10000 2.6 20 13:43 05.11.2019
4715 Clouds 0 998 60 10000 2.6 20 13:24 05.11.2019
4716 Clouds -1 997 86 10000 3.1 20 12:42 05.11.2019
4717 Clouds -1 997 86 10000 3.1 20 12:22 05.11.2019
4718 Clouds -1 997 86 10000 2.6 340 11:58 05.11.2019
4719 Clouds -1 997 86 10000 2.6 340 11:39 05.11.2019
4720 Clouds -1 997 86 10000 2.6 340 11:21 05.11.2019
4721 Clouds 0 997 56 10000 2.6 20 10:56 05.11.2019
4722 Clouds 0 997 56 10000 2.6 20 10:56 05.11.2019
4723 Clouds 0 997 56 10000 2.6 20 10:38 05.11.2019
4724 Clouds 3 997 56 0 5.75 82 10:19 05.11.2019
4725 Clouds 3 997 56 0 5.75 82 09:55 05.11.2019
4726 Clouds 3 997 56 0 5.75 82 09:37 05.11.2019
4727 Clouds 3 997 56 0 5.75 82 09:18 05.11.2019
4728 Clouds 3 997 56 0 5.75 82 09:18 05.11.2019
4729 Clouds 3 997 56 0 5.75 82 08:38 05.11.2019
4730 Clouds 2 996 70 0 5.03 67 08:20 05.11.2019
4731 Clouds 2 996 70 0 5.03 67 07:57 05.11.2019
4732 Clouds 2 996 70 0 5.03 67 07:38 05.11.2019
4733 Clouds 2 996 70 0 5.03 67 07:19 05.11.2019
4734 Clouds 2 996 70 0 5.03 67 07:19 05.11.2019
4735 Clouds 2 996 70 0 5.03 67 06:46 05.11.2019
4736 Clouds 2 996 70 0 5.03 67 05:51 05.11.2019
4737 Snow -1 1000 68 0 4.92 50 05:22 05.11.2019
4738 Snow -1 1000 68 0 4.92 50 04:25 05.11.2019
4739 Snow -1 1000 68 0 4.92 50 04:25 05.11.2019
4740 Snow -1 1000 68 0 4.92 50 03:49 05.11.2019
4741 Snow -1 1000 68 0 4.92 50 02:46 05.11.2019
4742 Snow -1 1000 68 0 4.92 50 02:18 05.11.2019
4743 Clouds -1 1000 68 0 4.92 50 00:52 05.11.2019
4744 Clouds -1 1000 68 0 4.92 50 00:30 05.11.2019
4745 Clouds -1 1000 68 10000 5.1 50 23:56 04.11.2019
4746 Clouds -1 1000 68 10000 5.1 50 23:37 04.11.2019
4747 Clouds -1 1000 68 10000 5.1 50 23:18 04.11.2019
4748 Clouds -1 1000 68 10000 5.1 50 23:18 04.11.2019
4749 Clouds -1 1001 74 10000 5.7 50 22:42 04.11.2019
4750 Clouds -1 1001 74 10000 5.7 50 22:23 04.11.2019
4751 Clouds -1 1001 100 10000 6.2 40 21:56 04.11.2019
4752 Clouds -1 1001 100 10000 6.2 40 21:56 04.11.2019
4753 Clouds -1 1001 100 10000 6.2 40 21:56 04.11.2019
4754 Clouds -1 1001 100 10000 6.2 40 21:56 04.11.2019
4755 Clouds -1 1001 100 10000 6.2 40 21:38 04.11.2019
4756 Clouds -1 1001 100 10000 6.2 40 21:19 04.11.2019
4757 Clouds -1 1002 63 10000 5.7 50 20:59 04.11.2019
4758 Clouds 0 1002 63 10000 5.7 50 20:39 04.11.2019
4759 Clouds 0 1002 59 10000 5.7 50 20:21 04.11.2019
4760 Clouds 0 1002 59 10000 5.7 50 20:21 04.11.2019
4761 Clouds -1 1003 68 10000 5.7 50 19:59 04.11.2019
4762 Clouds -1 1003 68 10000 5.7 50 19:41 04.11.2019
4763 Clouds -1 1003 68 10000 5.7 50 19:21 04.11.2019
4764 Clouds -1 1005 59 10000 2.1 40 18:57 04.11.2019
4765 Clouds 0 1005 59 10000 2.1 40 18:39 04.11.2019
4766 Clouds 0 1005 59 10000 2.1 40 18:19 04.11.2019
4767 Clouds 0 1006 59 10000 3.22 57 17:40 04.11.2019
4768 Clouds 0 1006 53 10000 1.14 48 17:21 04.11.2019
4769 Clouds 0 1007 53 10000 0.5 0 16:59 04.11.2019
4770 Clouds 0 1007 53 10000 0.5 0 16:41 04.11.2019
4771 Clouds 0 1007 53 10000 0.5 0 16:22 04.11.2019
4772 Clouds 0 1007 53 10000 2.1 80 15:56 04.11.2019
4773 Clouds 0 1007 53 10000 2.1 80 15:56 04.11.2019
4774 Clouds 0 1007 53 10000 2.1 80 15:38 04.11.2019
4775 Clouds 0 1007 53 10000 2.1 80 15:19 04.11.2019
4776 Clouds 0 1008 53 10000 3.6 60 14:57 04.11.2019
4777 Clouds 0 1008 53 10000 3.6 60 14:39 04.11.2019
4778 Clouds 0 1008 56 10000 3.6 60 14:19 04.11.2019
4779 Clouds -1 1009 58 10000 1 150 13:55 04.11.2019
4780 Clouds -1 1009 58 10000 1 150 13:37 04.11.2019
4781 Clouds -1 1009 58 10000 1 150 13:19 04.11.2019
4782 Clouds 0 1010 57 10000 2.6 0 12:44 04.11.2019
4783 Clouds 0 1010 57 10000 2.6 0 12:24 04.11.2019
4784 Clouds 0 1010 57 10000 1.5 0 11:57 04.11.2019
4785 Clouds 0 1010 57 10000 1.5 0 11:39 04.11.2019
4786 Clouds 0 1010 59 10000 1.5 0 11:21 04.11.2019
4787 Clouds -1 1012 63 10000 1.5 0 10:45 04.11.2019
4788 Clouds -1 1012 63 10000 1.5 0 10:26 04.11.2019
4789 Clouds -1 1013 63 0 1.5 100 09:55 04.11.2019
4790 Clouds -1 1013 63 0 1.5 100 09:37 04.11.2019
4791 Clouds -2 1013 63 0 1.5 100 09:18 04.11.2019
4792 Clouds -2 1013 63 0 2.6 40 08:42 04.11.2019
4793 Clouds -2 1013 63 0 2.6 40 08:21 04.11.2019
4794 Clouds -2 1013 68 0 6.2 60 07:49 04.11.2019
4795 Clouds -2 1013 68 0 6.2 60 07:25 04.11.2019
4796 Clouds -2 1015 63 0 1 110 06:59 04.11.2019
4797 Clouds -1 1015 63 0 1 110 06:38 04.11.2019
4798 Clouds -2 1015 68 0 3.1 60 05:59 04.11.2019
4799 Clouds -2 1015 68 0 3.1 60 05:30 04.11.2019
4800 Clouds -3 1015 73 0 1 120 04:26 04.11.2019
4801 Clouds -2 1016 63 0 1.5 130 03:29 04.11.2019
4802 Clouds -2 1016 68 0 1 120 01:24 04.11.2019
4803 Clouds -2 1017 79 0 3.6 150 00:54 04.11.2019
4804 Clouds -2 1017 79 0 3.6 150 00:22 04.11.2019
4805 Clouds -1 1016 74 0 3.6 140 23:58 03.11.2019
4806 Clouds -1 1016 74 0 3.6 140 23:37 03.11.2019
4807 Clouds -1 1016 74 0 3.6 140 23:18 03.11.2019
4808 Clouds -2 1016 79 0 2.1 160 22:56 03.11.2019
4809 Clouds -2 1016 79 0 2.1 160 22:56 03.11.2019
4810 Clouds -2 1016 79 0 2.1 160 22:38 03.11.2019
4811 Clouds -2 1016 79 0 2.1 160 22:18 03.11.2019
4812 Clouds -1 1016 80 0 3.1 140 21:42 03.11.2019
4813 Clouds -1 1016 80 0 3.1 140 21:21 03.11.2019
4814 Clouds -2 1016 79 0 2.1 190 20:58 03.11.2019
4815 Clouds -2 1016 79 0 2.1 190 20:37 03.11.2019
4816 Clouds -2 1016 79 0 2.1 190 20:19 03.11.2019
4817 Clouds -1 1016 63 0 2.1 180 19:57 03.11.2019
4818 Clouds -1 1016 63 0 2.1 180 19:38 03.11.2019
4819 Clouds -1 1016 63 0 2.1 180 19:20 03.11.2019
4820 Clouds 0 1015 70 0 1.5 220 18:56 03.11.2019
4821 Clouds 0 1015 70 0 1.5 220 18:37 03.11.2019
4822 Clouds 0 1015 70 0 1.5 220 18:18 03.11.2019
4823 Clouds -1 1015 63 0 2.98 165 17:42 03.11.2019
4824 Clear -1 1015 63 0 2.18 164 17:20 03.11.2019
4825 Clear -1 1015 68 0 2.18 164 16:59 03.11.2019
4826 Clear -1 1015 68 0 2.18 164 16:59 03.11.2019
4827 Clear -1 1015 68 0 2.18 164 16:41 03.11.2019
4828 Clear -1 1015 68 0 2.18 164 16:22 03.11.2019
4829 Clear -2 1014 74 0 1.5 110 15:58 03.11.2019
4830 Clear -2 1014 74 0 1.5 110 15:58 03.11.2019
4831 Clear -2 1014 74 0 1.5 110 15:40 03.11.2019
4832 Clear -2 1014 74 0 1.5 110 15:21 03.11.2019
4833 Clear -3 1014 86 0 1.5 100 14:54 03.11.2019
4834 Clear -3 1014 86 0 1.5 100 14:36 03.11.2019
4835 Clear -3 1014 86 0 1.5 100 14:18 03.11.2019
4836 Clear -3 1013 79 0 0.5 0 13:41 03.11.2019
4837 Clear -3 1013 79 0 0.5 0 13:18 03.11.2019
4838 Clear -3 1013 79 0 0.5 0 13:18 03.11.2019
4839 Clear -3 1013 73 0 1.5 100 12:57 03.11.2019
4840 Clear -3 1013 73 0 1.5 100 12:36 03.11.2019
4841 Clear -3 1013 73 0 1.5 100 12:18 03.11.2019
4842 Clear -3 1012 73 0 1.5 110 11:42 03.11.2019
4843 Clear -3 1012 73 0 1.5 110 11:22 03.11.2019
4844 Clear -2 1012 68 0 2.1 100 10:56 03.11.2019
4845 Clear -2 1012 68 0 2.1 100 10:37 03.11.2019
4846 Clear -2 1012 68 0 2.1 100 10:19 03.11.2019
4847 Clear -2 1012 68 0 2.1 100 10:19 03.11.2019
4848 Clear -2 1012 68 0 1.5 110 09:43 03.11.2019
4849 Clear -2 1012 68 0 1.5 110 09:43 03.11.2019
4850 Clear -2 1012 68 0 1.5 110 09:25 03.11.2019
4851 Clear -2 1011 74 0 3.1 40 08:57 03.11.2019
4852 Clear -2 1011 74 0 3.1 40 08:38 03.11.2019
4853 Clear -2 1011 74 0 3.1 40 08:19 03.11.2019
4854 Clear -1 1010 63 0 1.5 110 07:45 03.11.2019
4855 Clear -1 1010 63 0 1.5 110 07:22 03.11.2019
4856 Clear -1 1010 68 0 3.6 30 06:39 03.11.2019
4857 Clear 0 1009 68 0 3.6 40 05:57 03.11.2019
4858 Clear 0 1009 68 0 3.6 40 05:38 03.11.2019
4859 Clear 0 1009 68 0 3.6 40 05:38 03.11.2019
4860 Clear 0 1009 67 0 3.6 50 04:55 03.11.2019
4861 Clear 0 1009 67 0 3.6 50 04:26 03.11.2019
4862 Clear 0 1008 67 0 3.1 40 03:28 03.11.2019
4863 Clear 0 1008 67 0 4.6 30 02:30 03.11.2019
4864 Clouds 0 1008 70 0 3.1 30 01:57 03.11.2019
4865 Clouds 0 1008 70 0 3.1 30 01:37 03.11.2019
4866 Clouds 0 1008 71 0 3.1 30 01:19 03.11.2019
4867 Clouds -1 1007 86 0 3.1 40 00:41 03.11.2019
4868 Clouds 0 1007 86 0 3.1 40 00:22 03.11.2019
4869 Clouds 0 1006 71 0 3.6 50 23:57 02.11.2019
4870 Clouds 0 1006 71 0 3.6 50 23:37 02.11.2019
4871 Clouds 0 1006 68 0 3.6 50 23:18 02.11.2019
4872 Clouds -1 1006 86 10000 3.6 40 22:55 02.11.2019
4873 Clouds -1 1006 86 10000 3.6 40 22:37 02.11.2019
4874 Clouds -1 1006 86 10000 3.6 40 22:18 02.11.2019
4875 Clouds -1 1006 86 10000 3.6 40 22:18 02.11.2019
4876 Clouds -1 1006 74 10000 2.1 20 21:55 02.11.2019
4877 Clouds -1 1006 74 10000 2.1 20 21:37 02.11.2019
4878 Clouds -1 1006 74 10000 2.1 20 21:18 02.11.2019
4879 Clouds -1 1005 68 10000 3.6 60 20:57 02.11.2019
4880 Clouds -1 1005 68 10000 3.6 60 20:38 02.11.2019
4881 Clouds -1 1005 68 10000 3.6 60 20:19 02.11.2019
4882 Clouds 0 1005 56 10000 1.5 40 19:40 02.11.2019
4883 Clouds 0 1005 56 10000 1.5 40 19:22 02.11.2019
4884 Clouds 0 1004 56 10000 3.1 50 18:56 02.11.2019
4885 Clouds 0 1004 56 10000 3.1 50 18:56 02.11.2019
4886 Clouds 0 1004 56 10000 3.1 50 18:37 02.11.2019
4887 Clouds 0 1004 56 10000 3.1 50 18:19 02.11.2019
4888 Clouds 0 1004 56 10000 2.6 20 17:56 02.11.2019
4889 Clouds 0 1004 56 10000 2.6 20 17:37 02.11.2019
4890 Clouds 0 1004 51 10000 2.6 20 17:19 02.11.2019
4891 Clouds -1 1004 80 10000 3.1 40 16:56 02.11.2019
4892 Clouds -1 1004 80 10000 3.1 40 16:36 02.11.2019
4893 Clouds -1 1004 80 10000 3.1 40 16:18 02.11.2019
4894 Clouds -1 1004 80 10000 3.1 40 16:18 02.11.2019
4895 Clouds -1 1004 74 10000 0.75 181 15:41 02.11.2019
4896 Clouds -1 1004 74 10000 0.75 181 15:19 02.11.2019
4897 Clouds -1 1003 80 10000 3.1 50 14:43 02.11.2019
4898 Clouds -1 1003 80 10000 3.1 50 14:23 02.11.2019
4899 Clouds -1 1004 74 10000 1.5 100 13:58 02.11.2019
4900 Clouds -1 1004 74 10000 1.5 100 13:38 02.11.2019
4901 Clouds -1 1004 74 10000 1.5 100 13:19 02.11.2019
4902 Clouds -1 1003 63 10000 2.1 140 12:41 02.11.2019
4903 Clouds -1 1003 63 10000 2.1 140 12:23 02.11.2019
4904 Clouds -1 1003 74 0 2.6 30 11:58 02.11.2019
4905 Clouds -1 1003 74 0 2.6 30 11:39 02.11.2019
4906 Clouds -1 1003 74 0 2.6 30 11:21 02.11.2019
4907 Clouds -2 1003 74 0 1.5 100 10:50 02.11.2019
4908 Clouds -2 1003 74 0 1.5 100 10:29 02.11.2019
4909 Clouds -2 1003 74 0 1 110 09:59 02.11.2019
4910 Clouds -2 1003 74 0 1 110 09:40 02.11.2019
4911 Clouds -2 1003 74 0 1 110 09:20 02.11.2019
4912 Clouds -1 1003 80 0 1.5 190 08:47 02.11.2019
4913 Clouds -1 1003 80 0 1.5 190 08:22 02.11.2019
4914 Clouds -1 1003 68 0 2.17 121 07:51 02.11.2019
4915 Clouds -1 1003 68 0 2.17 121 07:33 02.11.2019
4916 Clouds 0 1003 60 0 2.1 20 06:58 02.11.2019
4917 Clouds 0 1003 60 0 2.1 20 06:39 02.11.2019
4918 Clouds 0 1003 60 0 2.1 20 06:18 02.11.2019
4919 Clouds 0 1003 60 0 1.5 70 05:29 02.11.2019
4920 Clouds 0 1003 58 0 4.1 50 04:23 02.11.2019
4921 Clouds 2 1003 51 0 2.1 120 03:50 02.11.2019
4922 Clouds 1 1003 74 0 4.6 50 02:49 02.11.2019
4923 Clouds 1 1003 69 0 5.7 50 01:57 02.11.2019
4924 Clear 1 1003 69 0 5.7 50 01:25 02.11.2019
4925 Clear 0 1003 59 0 5.7 40 00:54 02.11.2019
4926 Clear 0 1003 59 0 5.7 40 00:27 02.11.2019
4927 Clouds 1 1003 80 10000 4.1 40 23:49 01.11.2019
4928 Clouds 1 1003 80 10000 4.1 40 23:23 01.11.2019
4929 Clouds 1 1002 69 10000 4.6 40 22:59 01.11.2019
4930 Clouds 1 1002 69 10000 4.6 40 22:40 01.11.2019
4931 Clouds 1 1002 69 10000 4.6 40 22:20 01.11.2019
4932 Clouds 1 1002 80 10000 4.6 40 21:42 01.11.2019
4933 Clouds 1 1002 80 10000 4.6 40 21:24 01.11.2019
4934 Clouds 1 1002 59 10000 4.1 50 20:59 01.11.2019
4935 Clouds 2 1002 59 10000 4.1 50 20:40 01.11.2019
4936 Clouds 2 1002 59 10000 4.1 50 20:21 01.11.2019
4937 Clouds 2 1001 55 10000 3.1 60 19:57 01.11.2019
4938 Clouds 2 1001 55 10000 3.1 60 19:39 01.11.2019
4939 Clouds 2 1001 55 10000 3.1 60 19:20 01.11.2019
4940 Clouds 2 1001 69 10000 1.5 0 18:40 01.11.2019
4941 Clouds 2 1001 69 10000 1.5 0 18:21 01.11.2019
4942 Clouds 2 1000 74 10000 1 0 17:56 01.11.2019
4943 Clouds 2 1000 74 10000 1 0 17:56 01.11.2019
4944 Clouds 2 1000 74 10000 1 0 17:38 01.11.2019
4945 Clouds 2 1000 74 10000 1 0 17:19 01.11.2019
4946 Clouds 2 1000 80 10000 1.5 0 16:39 01.11.2019
4947 Clouds 2 1000 80 10000 1.5 0 16:20 01.11.2019
4948 Clouds 2 1000 80 10000 1.5 0 16:20 01.11.2019
4949 Clouds 2 1000 64 10000 1 80 15:56 01.11.2019
4950 Clouds 2 1000 64 10000 1 80 15:38 01.11.2019
4951 Clouds 2 1000 64 10000 1 80 15:19 01.11.2019
4952 Clouds 1 1000 80 10000 2.6 180 14:43 01.11.2019
4953 Clouds 1 1000 80 10000 2.6 180 14:24 01.11.2019
4954 Clouds 1 999 80 10000 1 290 13:57 01.11.2019
4955 Clouds 1 999 80 10000 1 290 13:39 01.11.2019
4956 Clouds 1 999 80 10000 1 290 13:20 01.11.2019
4957 Clouds 1 998 86 10000 5.1 60 12:44 01.11.2019
4958 Clouds 1 998 86 10000 5.1 60 12:26 01.11.2019
4959 Clouds 1 998 62 10000 3.1 50 11:59 01.11.2019
4960 Clouds 1 998 62 10000 3.1 50 11:40 01.11.2019
4961 Clouds 1 998 77 10000 3.1 50 11:22 01.11.2019
4962 Clouds 1 998 77 10000 5.7 50 10:42 01.11.2019
4963 Clouds 1 998 77 10000 5.7 50 10:22 01.11.2019
4964 Clouds 1 998 77 0 4.6 50 09:58 01.11.2019
4965 Clouds 1 998 77 0 4.6 50 09:40 01.11.2019
4966 Clouds 1 998 77 0 4.6 50 09:20 01.11.2019
4967 Clouds 1 997 77 0 5.7 50 08:45 01.11.2019
4968 Clouds 1 997 79 0 5.7 50 08:22 01.11.2019
4969 Clouds 2 998 79 0 4.6 50 07:57 01.11.2019
4970 Clouds 2 998 79 0 4.6 50 07:38 01.11.2019
4971 Clouds 1 998 79 0 4.6 50 07:20 01.11.2019
4972 Clouds 1 997 79 0 2.1 360 06:46 01.11.2019
4973 Clouds 1 997 79 0 2.1 360 06:22 01.11.2019
4974 Clouds 3 997 79 0 2.1 120 05:44 01.11.2019
4975 Clouds 3 997 79 0 2.1 120 05:44 01.11.2019
4976 Clouds 2 997 83 0 3.1 90 04:28 01.11.2019
4977 Clouds 3 997 83 10000 2.6 140 03:24 01.11.2019
4978 Clouds 2 997 74 10000 2.1 60 01:35 01.11.2019
4979 Clouds 3 997 68 10000 0.5 0 00:42 01.11.2019
4980 Clouds 3 997 68 10000 0.5 0 00:19 01.11.2019
4981 Clouds 2 997 68 10000 3.38 75 23:43 31.10.2019
4982 Clouds 2 997 70 10000 4.1 82 23:23 31.10.2019
4983 Clouds 2 997 70 10000 1 150 22:57 31.10.2019
4984 Clouds 2 997 70 10000 1 150 22:57 31.10.2019
4985 Clouds 2 997 70 10000 1 150 22:39 31.10.2019
4986 Clouds 2 997 70 10000 1 150 22:20 31.10.2019
4987 Clouds 2 996 70 10000 4.1 82 21:44 31.10.2019
4988 Clouds 2 996 70 10000 4.1 82 21:21 31.10.2019
4989 Clouds 1 996 100 10000 4.6 60 20:57 31.10.2019
4990 Clouds 1 996 100 10000 4.6 60 20:39 31.10.2019
4991 Clouds 1 996 100 10000 4.6 60 20:21 31.10.2019
4992 Clouds 2 996 93 10000 4.6 40 19:42 31.10.2019
4993 Clouds 2 996 93 10000 4.6 40 19:22 31.10.2019
4994 Clouds 2 996 93 10000 5.7 40 18:58 31.10.2019
4995 Clouds 2 996 93 10000 5.7 40 18:39 31.10.2019
4996 Clouds 2 996 93 10000 5.7 40 18:20 31.10.2019
4997 Rain 2 996 93 10000 5.1 60 17:43 31.10.2019
4998 Rain 3 996 93 10000 5.1 60 17:22 31.10.2019
4999 Rain 3 996 86 10000 6.7 60 16:59 31.10.2019
5000 Rain 3 996 86 10000 6.7 60 16:40 31.10.2019
5001 Rain 3 996 86 10000 6.7 60 16:20 31.10.2019
5002 Rain 3 997 86 10000 7.7 70 15:56 31.10.2019
5003 Rain 3 997 86 10000 7.7 70 15:38 31.10.2019
5004 Rain 3 997 86 10000 7.7 70 15:19 31.10.2019
5005 Rain 2 997 93 10000 8.2 60 14:56 31.10.2019
5006 Rain 2 997 93 10000 8.2 60 14:38 31.10.2019
5007 Rain 2 997 93 10000 8.2 60 14:20 31.10.2019
5008 Rain 2 998 93 10000 7.7 80 13:56 31.10.2019
5009 Rain 2 998 93 10000 7.7 80 13:37 31.10.2019
5010 Rain 2 998 93 10000 7.7 80 13:19 31.10.2019
5011 Rain 2 998 93 10000 7.7 60 12:44 31.10.2019
5012 Rain 2 998 93 10000 7.7 60 12:24 31.10.2019
5013 Rain 2 999 82 10000 9.8 80 11:59 31.10.2019
5014 Rain 2 999 82 10000 9.8 80 11:41 31.10.2019
5015 Rain 2 999 83 10000 9.8 80 11:19 31.10.2019
5016 Snow 2 1000 83 0 8.7 70 10:57 31.10.2019
5017 Snow 2 1000 83 0 8.7 70 10:57 31.10.2019
5018 Snow 2 1000 83 0 8.7 70 10:38 31.10.2019
5019 Snow 2 1000 83 0 8.7 70 10:19 31.10.2019
5020 Snow 2 1001 83 0 8.7 60 09:43 31.10.2019
5021 Snow 2 1001 83 0 8.7 60 09:19 31.10.2019
5022 Snow 2 1002 83 0 7.7 60 08:55 31.10.2019
5023 Snow 2 1002 83 0 7.7 60 08:36 31.10.2019
5024 Snow 2 1002 78 0 7.7 60 08:18 31.10.2019
5025 Clouds 2 1003 78 0 6.7 70 07:42 31.10.2019
5026 Clouds 2 1003 78 0 6.7 70 07:42 31.10.2019
5027 Clouds 2 1003 78 0 6.7 70 07:23 31.10.2019
5028 Rain 3 1003 78 0 5.7 80 06:39 31.10.2019
5029 Rain 3 1003 78 0 5.7 80 06:20 31.10.2019
5030 Rain 2 1005 80 0 4.6 90 04:40 31.10.2019
5031 Rain 2 1008 74 0 3.1 60 02:46 31.10.2019
5032 Rain 2 1008 74 0 3.1 60 02:22 31.10.2019
5033 Snow 2 1009 80 0 1.5 0 00:47 31.10.2019
5034 Snow 2 1009 80 0 1.5 0 00:24 31.10.2019
5035 Snow 1 1010 86 10000 4.1 40 23:34 30.10.2019
5036 Clouds 3 1011 69 10000 1 0 22:59 30.10.2019
5037 Clouds 3 1011 69 10000 1 0 22:39 30.10.2019
5038 Clouds 3 1011 69 10000 1 0 22:19 30.10.2019
5039 Snow 1 1012 80 7000 1 0 21:54 30.10.2019
5040 Snow 1 1012 80 7000 1 0 21:36 30.10.2019
5041 Snow 1 1012 80 7000 1 0 21:36 30.10.2019
5042 Snow 1 1012 80 7000 1 0 21:18 30.10.2019
5043 Clouds 1 1012 80 10000 5.1 50 20:56 30.10.2019
5044 Clouds 1 1012 80 10000 5.1 50 20:36 30.10.2019
5045 Clouds 1 1012 80 10000 5.1 50 20:18 30.10.2019
5046 Clouds 0 1013 70 10000 6.2 50 19:40 30.10.2019
5047 Clouds 0 1013 70 10000 6.2 50 19:40 30.10.2019
5048 Clouds 0 1013 70 10000 6.2 50 19:22 30.10.2019
5049 Clouds 1 1014 74 10000 5.7 60 18:59 30.10.2019
5050 Clouds 1 1014 74 10000 5.7 60 18:38 30.10.2019
5051 Clouds 1 1014 74 10000 5.7 60 18:18 30.10.2019
5052 Clouds 2 1014 74 10000 1 180 17:55 30.10.2019
5053 Clouds 2 1014 74 10000 1 180 17:37 30.10.2019
5054 Clouds 2 1014 74 10000 1 180 17:18 30.10.2019
5055 Clouds 2 1015 74 10000 2.1 90 16:42 30.10.2019
5056 Clouds 2 1015 74 10000 2.1 90 16:23 30.10.2019
5057 Clouds 0 1016 72 10000 2.88 121 15:59 30.10.2019
5058 Clouds 0 1016 72 10000 2.88 121 15:39 30.10.2019
5059 Clouds 0 1016 72 10000 2.88 121 15:20 30.10.2019
5060 Clouds 0 1016 72 10000 3.1 40 14:58 30.10.2019
5061 Clouds 0 1016 72 10000 3.1 40 14:39 30.10.2019
5062 Clouds 0 1016 75 10000 3.1 40 14:21 30.10.2019
5063 Clouds 0 1017 75 10000 0.5 90 13:55 30.10.2019
5064 Clouds 0 1017 75 10000 0.5 90 13:54 30.10.2019
5065 Clouds 0 1017 75 10000 0.5 90 13:36 30.10.2019
5066 Clouds 0 1017 77 10000 0.5 90 13:18 30.10.2019
5067 Clouds 0 1017 77 10000 1 110 12:44 30.10.2019
5068 Clouds 0 1017 77 10000 1 110 12:25 30.10.2019
5069 Snow 0 1017 77 0 4.1 50 11:58 30.10.2019
5070 Snow 0 1017 77 0 4.1 50 11:40 30.10.2019
5071 Snow 0 1017 93 0 4.1 50 11:19 30.10.2019
5072 Snow 0 1017 93 0 3.1 50 10:43 30.10.2019
5073 Snow 0 1017 93 0 3.1 50 10:23 30.10.2019
5074 Snow 0 1018 93 0 2.6 40 09:42 30.10.2019
5075 Snow 0 1018 93 0 2.6 40 09:23 30.10.2019
5076 Snow -1 1018 92 0 2.6 50 08:57 30.10.2019
5077 Snow -1 1018 92 0 2.6 50 08:39 30.10.2019
5078 Snow -1 1018 92 0 2.6 50 08:39 30.10.2019
5079 Snow -1 1018 92 0 2.6 50 08:20 30.10.2019
5080 Snow -1 1018 92 0 2.6 50 08:20 30.10.2019
5081 Snow -1 1018 92 0 1 110 07:45 30.10.2019
5082 Snow -1 1018 92 0 1 110 07:21 30.10.2019
5083 Snow -1 1019 92 0 1.5 40 06:42 30.10.2019
5084 Snow -1 1019 92 0 1.5 40 06:42 30.10.2019
5085 Snow -1 1019 92 0 1.5 40 06:20 30.10.2019
5086 Snow 1 1019 80 0 5.1 190 05:41 30.10.2019
5087 Clouds 1 1019 80 0 5.1 160 04:42 30.10.2019
5088 Clouds 1 1020 86 10000 4.1 190 03:43 30.10.2019
5089 Clouds 1 1020 86 10000 3.6 180 02:52 30.10.2019
5090 Clouds 1 1020 86 10000 3.1 190 01:58 30.10.2019
5091 Clouds 1 1020 86 10000 3.1 190 01:31 30.10.2019
5092 Clouds 1 1020 86 10000 3.1 180 00:31 30.10.2019
5093 Snow 1 1021 82 8000 3.1 180 23:46 29.10.2019
5094 Snow 1 1021 82 8000 3.1 180 23:24 29.10.2019
5095 Snow 1 1021 86 5000 3.6 160 22:48 29.10.2019
5096 Snow 1 1021 86 5000 3.6 160 22:20 29.10.2019
5097 Clouds 0 1021 84 10000 4.1 180 21:59 29.10.2019
5098 Clouds 0 1021 84 10000 4.1 180 21:41 29.10.2019
5099 Clouds 0 1021 84 10000 4.1 180 21:20 29.10.2019
5100 Rain 1 1021 84 10000 3.1 190 20:58 29.10.2019
5101 Rain 1 1021 84 10000 3.1 190 20:40 29.10.2019
5102 Rain 1 1021 85 10000 3.1 190 20:21 29.10.2019
5103 Clouds 1 1021 85 10000 3.6 200 19:57 29.10.2019
5104 Clouds 1 1021 85 10000 3.6 200 19:38 29.10.2019
5105 Clouds 1 1021 85 10000 3.6 200 19:19 29.10.2019
5106 Rain 0 1021 85 4000 2.6 210 18:55 29.10.2019
5107 Rain 0 1021 85 4000 2.6 210 18:37 29.10.2019
5108 Rain 0 1021 85 4000 2.6 210 18:19 29.10.2019
5109 Drizzle 1 1021 85 3500 1.5 200 17:54 29.10.2019
5110 Drizzle 1 1021 85 3500 1.5 200 17:54 29.10.2019
5111 Drizzle 1 1021 85 3500 1.5 200 17:36 29.10.2019
5112 Drizzle 1 1021 82 3500 1.5 200 17:18 29.10.2019
5113 Rain 1 1021 82 10000 2.1 220 16:39 29.10.2019
5114 Rain 1 1021 82 10000 2.1 220 16:21 29.10.2019
5115 Clouds 0 1022 82 10000 2.6 220 15:57 29.10.2019
5116 Clouds 0 1022 82 10000 2.6 220 15:39 29.10.2019
5117 Clouds 0 1022 82 10000 2.6 220 15:20 29.10.2019
5118 Clouds 0 1022 82 10000 0.5 40 14:55 29.10.2019
5119 Clouds 0 1022 82 10000 0.5 40 14:37 29.10.2019
5120 Clouds 0 1022 67 10000 0.5 40 14:19 29.10.2019
5121 Clouds 0 1022 67 10000 0.5 40 14:18 29.10.2019
5122 Clouds 0 1022 67 10000 1 210 13:40 29.10.2019
5123 Clouds 0 1022 67 10000 1 210 13:22 29.10.2019
5124 Clouds 0 1022 67 10000 1.21 136 12:55 29.10.2019
5125 Clouds 0 1022 67 10000 1.21 136 12:36 29.10.2019
5126 Clouds 0 1022 67 10000 1.21 136 12:18 29.10.2019
5127 Clouds 1 1022 67 10000 3.6 180 11:42 29.10.2019
5128 Clouds 1 1022 62 10000 3.6 180 11:22 29.10.2019
5129 Clouds 1 1022 62 0 3.6 180 10:58 29.10.2019
5130 Clouds 1 1022 62 0 3.6 180 10:39 29.10.2019
5131 Clouds 1 1022 62 0 3.6 180 10:20 29.10.2019
5132 Clouds 1 1022 86 0 3.1 180 09:58 29.10.2019
5133 Clouds 1 1022 86 0 3.1 180 09:40 29.10.2019
5134 Clouds 1 1022 86 0 3.1 180 09:21 29.10.2019
5135 Clouds 0 1022 62 0 0.5 140 08:45 29.10.2019
5136 Clouds 0 1022 62 0 0.5 140 08:26 29.10.2019
5137 Clouds -1 1022 68 0 1 110 07:55 29.10.2019
5138 Clouds -1 1022 68 0 1 110 07:37 29.10.2019
5139 Clouds -1 1022 68 0 1 110 07:18 29.10.2019
5140 Clouds -1 1022 74 0 2.1 40 06:45 29.10.2019
5141 Clouds -1 1022 74 0 2.1 40 06:25 29.10.2019
5142 Clouds -2 1022 68 0 1 50 05:50 29.10.2019
5143 Clouds -2 1022 68 0 1 50 05:26 29.10.2019
5144 Clear -2 1022 74 0 3.6 60 04:31 29.10.2019
5145 Clear -2 1023 74 0 3.6 50 02:33 29.10.2019
5146 Clear -1 1023 58 0 1.5 0 01:47 29.10.2019
5147 Clear -1 1023 58 0 1.5 0 01:21 29.10.2019
5148 Clear -1 1022 63 0 4.6 40 00:48 29.10.2019
5149 Clouds -1 1023 63 10000 5.1 50 23:44 28.10.2019
5150 Clouds -1 1023 63 10000 5.1 50 23:21 28.10.2019
5151 Clouds -1 1023 63 10000 4.1 40 22:59 28.10.2019
5152 Clouds -1 1023 63 10000 4.1 40 22:38 28.10.2019
5153 Clouds -1 1023 63 10000 4.1 40 22:18 28.10.2019
5154 Clouds -1 1023 68 10000 4.1 20 21:56 28.10.2019
5155 Clouds -1 1023 68 10000 4.1 20 21:56 28.10.2019
5156 Clouds -1 1023 68 10000 4.1 20 21:38 28.10.2019
5157 Clouds -1 1023 68 10000 4.1 20 21:20 28.10.2019
5158 Clouds -1 1023 58 10000 4.6 40 20:54 28.10.2019
5159 Clouds -1 1023 58 10000 4.6 40 20:36 28.10.2019
5160 Clouds -1 1023 58 10000 4.6 40 20:18 28.10.2019
5161 Clouds 0 1023 49 10000 4.6 40 19:39 28.10.2019
5162 Clouds 0 1023 49 10000 4.6 40 19:21 28.10.2019
5163 Clouds 0 1023 49 10000 4.6 40 19:21 28.10.2019
5164 Clear 0 1023 49 10000 4.1 40 18:59 28.10.2019
5165 Clear 0 1023 49 10000 4.1 40 18:59 28.10.2019
5166 Clear 0 1023 49 10000 4.1 40 18:41 28.10.2019
5167 Clear 0 1023 49 10000 4.1 40 18:21 28.10.2019
5168 Clouds 1 1023 47 10000 5.1 40 17:57 28.10.2019
5169 Clouds 1 1023 47 10000 5.1 40 17:39 28.10.2019
5170 Clouds 1 1023 47 10000 5.1 40 17:20 28.10.2019
5171 Clouds 0 1023 41 10000 4.6 60 16:58 28.10.2019
5172 Clouds 0 1023 41 10000 4.6 60 16:39 28.10.2019
5173 Clouds 0 1023 41 10000 4.6 60 16:21 28.10.2019
5174 Clouds 0 1024 41 10000 3.6 50 15:58 28.10.2019
5175 Clouds 0 1024 41 10000 3.6 50 15:40 28.10.2019
5176 Clouds 0 1024 41 10000 3.6 50 15:21 28.10.2019
5177 Clouds -1 1024 63 10000 4.6 60 14:57 28.10.2019
5178 Clouds -1 1024 63 10000 4.6 60 14:39 28.10.2019
5179 Clouds -1 1024 63 10000 4.6 60 14:19 28.10.2019
5180 Clouds -1 1024 63 10000 5.1 60 13:57 28.10.2019
5181 Clouds -1 1024 63 10000 5.1 60 13:38 28.10.2019
5182 Clouds -1 1024 63 10000 5.1 60 13:18 28.10.2019
5183 Clouds -1 1024 68 10000 5.7 70 12:42 28.10.2019
5184 Clouds -1 1024 68 10000 5.7 70 12:21 28.10.2019
5185 Clouds 0 1024 45 10000 5.7 70 11:54 28.10.2019
5186 Clouds 0 1024 45 10000 5.7 70 11:36 28.10.2019
5187 Clouds 0 1024 58 10000 5.7 70 11:18 28.10.2019
5188 Clouds 0 1024 58 0 4.1 70 10:39 28.10.2019
5189 Clouds 0 1024 58 0 4.1 70 10:21 28.10.2019
5190 Clouds 0 1024 58 0 2.39 61 09:57 28.10.2019
5191 Clouds 0 1024 58 0 2.39 61 09:38 28.10.2019
5192 Clouds 0 1024 58 0 2.39 61 09:19 28.10.2019
5193 Clouds 0 1024 58 0 0.5 0 08:57 28.10.2019
5194 Clouds 0 1024 58 0 0.5 0 08:38 28.10.2019
5195 Clouds 0 1024 83 0 0.5 0 08:19 28.10.2019
5196 Clouds 0 1024 83 0 0.68 41 07:55 28.10.2019
5197 Clouds 0 1024 83 0 0.68 41 07:36 28.10.2019
5198 Clouds 0 1024 83 0 0.68 41 07:18 28.10.2019
5199 Clouds 0 1023 83 0 1 0 06:39 28.10.2019
5200 Clouds 0 1023 83 0 2.6 50 05:40 28.10.2019
5201 Snow 0 1023 88 0 3.1 40 03:45 28.10.2019
5202 Snow 0 1023 88 0 3.1 40 02:46 28.10.2019
5203 Rain 0 1023 94 0 0.5 10 01:55 28.10.2019
5204 Snow 0 1023 95 0 1.96 73 00:56 28.10.2019
5205 Snow 0 1023 95 0 1.96 73 00:33 28.10.2019
5206 Snow 0 1022 95 0 0.5 60 23:47 27.10.2019
5207 Snow 0 1022 87 0 0.5 60 23:23 27.10.2019
5208 Snow 0 1022 87 0 0.29 101 22:58 27.10.2019
5209 Snow 0 1022 87 0 0.29 101 22:58 27.10.2019
5210 Snow 0 1022 87 0 0.29 101 22:39 27.10.2019
5211 Snow 0 1022 87 0 0.29 101 22:21 27.10.2019
5212 Rain 0 1022 87 0 0.29 101 21:57 27.10.2019
5213 Rain 0 1022 87 0 0.29 101 21:39 27.10.2019
5214 Rain 0 1022 87 0 0.29 101 21:21 27.10.2019
5215 Snow 0 1022 89 0 0.5 340 20:56 27.10.2019
5216 Snow 0 1022 87 0 0.5 340 20:38 27.10.2019
5217 Clouds 0 1022 72 0 0.5 340 20:20 27.10.2019
5218 Clouds 1 1021 74 0 0.5 60 19:55 27.10.2019
5219 Clouds 1 1021 74 0 0.5 60 19:36 27.10.2019
5220 Clouds 1 1021 74 0 0.5 60 19:18 27.10.2019
5221 Clouds 1 1021 69 0 1.2 212 18:55 27.10.2019
5222 Clouds 1 1021 69 0 1.2 212 18:36 27.10.2019
5223 Clouds 1 1021 69 0 1.2 212 18:18 27.10.2019
5224 Clouds 0 1021 72 0 3.1 50 17:40 27.10.2019
5225 Clouds 0 1021 75 0 3.1 50 17:19 27.10.2019
5226 Clouds 0 1021 75 0 3.1 50 17:19 27.10.2019
5227 Clouds 0 1021 75 10000 4.1 50 16:58 27.10.2019
5228 Clouds 0 1021 75 10000 4.1 50 16:39 27.10.2019
5229 Clouds 0 1021 75 10000 4.1 50 16:21 27.10.2019
5230 Clouds 0 1021 75 10000 1 160 15:56 27.10.2019
5231 Clouds 0 1021 75 10000 1 160 15:38 27.10.2019
5232 Clouds 0 1021 75 10000 1 160 15:19 27.10.2019
5233 Clouds 0 1021 75 10000 0.52 227 14:42 27.10.2019
5234 Clouds 0 1021 73 10000 1.22 111 14:21 27.10.2019
5235 Clouds 0 1020 73 10000 1.22 111 13:58 27.10.2019
5236 Clouds 0 1020 73 10000 1.33 126 13:39 27.10.2019
5237 Clouds 0 1020 73 10000 1.33 126 13:20 27.10.2019
5238 Clouds 0 1020 73 10000 1 160 12:57 27.10.2019
5239 Clouds 0 1020 73 10000 1 160 12:38 27.10.2019
5240 Clouds 0 1020 73 10000 1 160 12:19 27.10.2019
5241 Clouds -1 1020 80 0 2.6 50 11:41 27.10.2019
5242 Clouds -1 1020 80 0 2.6 50 11:21 27.10.2019
5243 Clouds -1 1020 80 0 1.25 186 10:45 27.10.2019
5244 Clouds -1 1020 80 0 1.25 186 10:26 27.10.2019
5245 Clouds -2 1019 86 0 1.25 186 09:58 27.10.2019
5246 Clouds -1 1019 86 0 1.25 186 09:39 27.10.2019
5247 Clouds -1 1019 86 0 1.25 186 09:19 27.10.2019
5248 Clouds -1 1019 86 0 1.5 150 08:56 27.10.2019
5249 Clouds -1 1019 86 0 1.5 150 08:37 27.10.2019
5250 Clouds -1 1019 86 0 1.5 150 08:18 27.10.2019
5251 Clouds -1 1019 86 0 1.5 160 07:44 27.10.2019
5252 Clouds -1 1019 86 0 1.5 160 07:24 27.10.2019
5253 Clouds -1 1018 80 0 1 90 06:51 27.10.2019
5254 Clouds -1 1018 80 0 1 90 06:27 27.10.2019
5255 Clouds -1 1018 80 0 0.5 0 05:45 27.10.2019
5256 Clouds -1 1018 80 0 0.5 0 05:45 27.10.2019
5257 Clouds 0 1018 71 0 0.5 150 04:55 27.10.2019
5258 Clouds 1 1018 69 0 1.49 86 03:24 27.10.2019
5259 Clouds 0 1018 73 0 1 10 02:21 27.10.2019
5260 Clouds 1 1017 74 0 1.5 130 01:54 27.10.2019
5261 Clouds 1 1017 74 0 1.5 130 01:23 27.10.2019
5262 Clouds 2 1017 64 0 1 100 00:51 27.10.2019
5263 Clouds 2 1017 64 0 1 100 00:28 27.10.2019
5264 Clouds 2 1017 64 10000 0.5 0 23:57 26.10.2019
5265 Clouds 2 1017 64 10000 0.5 0 23:39 26.10.2019
5266 Clouds 2 1017 64 10000 0.5 0 23:21 26.10.2019
5267 Clouds 2 1017 64 10000 1.13 129 22:56 26.10.2019
5268 Clouds 2 1017 64 10000 1.13 129 22:37 26.10.2019
5269 Clouds 2 1017 64 10000 1.13 129 22:18 26.10.2019
5270 Clouds 3 1016 64 10000 1.13 129 21:44 26.10.2019
5271 Clouds 3 1016 64 10000 1.31 196 21:22 26.10.2019
5272 Clouds 2 1016 59 10000 2.6 30 20:59 26.10.2019
5273 Clouds 2 1016 59 10000 2.6 30 20:39 26.10.2019
5274 Clouds 2 1016 59 10000 2.6 30 20:18 26.10.2019
5275 Clouds 2 1016 59 10000 2.6 30 20:18 26.10.2019
5276 Clouds 4 1015 51 10000 1.31 196 19:42 26.10.2019
5277 Clouds 4 1015 51 10000 1.31 196 19:42 26.10.2019
5278 Clouds 4 1015 51 10000 1.31 196 19:21 26.10.2019
5279 Clouds 4 1015 48 10000 1 320 18:57 26.10.2019
5280 Clouds 4 1015 48 10000 1 320 18:39 26.10.2019
5281 Clouds 4 1015 48 10000 1 320 18:20 26.10.2019
5282 Clouds 4 1015 55 10000 0.86 182 17:57 26.10.2019
5283 Clouds 4 1015 55 10000 0.86 182 17:38 26.10.2019
5284 Clouds 4 1015 55 10000 0.86 182 17:20 26.10.2019
5285 Clouds 3 1015 59 10000 0.86 182 16:45 26.10.2019
5286 Clouds 3 1015 59 10000 0.86 182 16:25 26.10.2019
5287 Clouds 2 1015 64 10000 0.5 0 15:59 26.10.2019
5288 Clouds 2 1015 64 10000 0.5 0 15:39 26.10.2019
5289 Clouds 2 1015 64 10000 0.5 0 15:18 26.10.2019
5290 Clouds 1 1015 69 10000 1 50 14:39 26.10.2019
5291 Clouds 1 1015 69 10000 1 50 14:19 26.10.2019
5292 Clouds 3 1015 69 0 2.21 110 13:56 26.10.2019
5293 Clouds 3 1015 69 0 2.21 110 13:37 26.10.2019
5294 Clouds 3 1015 69 0 2.21 110 13:18 26.10.2019
5295 Clouds 2 1014 59 0 1.34 140 12:43 26.10.2019
5296 Clouds 2 1014 59 0 1.5 140 12:21 26.10.2019
5297 Clouds 2 1014 59 0 1.5 140 11:47 26.10.2019
5298 Clouds 2 1014 59 0 1.5 140 11:25 26.10.2019
5299 Clouds 2 1014 69 0 2.31 75 10:47 26.10.2019
5300 Clouds 2 1014 69 0 2.31 75 10:27 26.10.2019
5301 Clouds 3 1013 59 0 2.6 0 09:50 26.10.2019
5302 Clouds 3 1013 59 0 2.6 0 09:30 26.10.2019
5303 Clouds 3 1013 55 0 0.5 0 08:57 26.10.2019
5304 Clouds 3 1013 55 0 0.5 0 08:39 26.10.2019
5305 Clouds 3 1013 55 0 0.5 0 08:20 26.10.2019
5306 Clouds 3 1013 59 0 1 0 07:43 26.10.2019
5307 Clouds 3 1013 59 0 1 0 07:23 26.10.2019
5308 Clouds 3 1013 47 0 2.08 52 06:40 26.10.2019
5309 Clouds 4 1013 44 0 5.1 70 05:57 26.10.2019
5310 Clouds 4 1013 44 0 5.1 70 05:19 26.10.2019
5311 Clouds 3 1014 55 0 1 180 03:53 26.10.2019
5312 Clouds 3 1014 51 0 4.6 80 02:33 26.10.2019
5313 Clouds 3 1014 51 0 4.6 80 01:47 26.10.2019
5314 Clouds 2 1014 64 0 1 70 00:52 26.10.2019
5315 Clouds 1 1014 74 10000 2.6 110 23:57 25.10.2019
5316 Clouds 1 1014 74 10000 2.6 110 23:38 25.10.2019
5317 Clouds 1 1014 74 10000 2.6 110 23:19 25.10.2019
5318 Clouds 1 1014 80 10000 5.1 80 22:39 25.10.2019
5319 Clouds 1 1014 80 10000 5.1 80 22:21 25.10.2019
5320 Clouds 2 1014 59 10000 4.1 80 21:57 25.10.2019
5321 Clouds 2 1014 59 10000 4.1 80 21:38 25.10.2019
5322 Clouds 2 1014 59 10000 4.1 80 21:19 25.10.2019
5323 Clouds 2 1014 74 10000 1.5 310 20:44 25.10.2019
5324 Clouds 2 1014 74 10000 1.5 310 20:20 25.10.2019
5325 Clouds 4 1015 51 10000 4.1 0 19:56 25.10.2019
5326 Clouds 4 1015 51 10000 4.1 0 19:38 25.10.2019
5327 Clouds 4 1015 51 10000 4.1 0 19:19 25.10.2019
5328 Clouds 7 1015 42 10000 4.6 180 18:43 25.10.2019
5329 Clouds 7 1015 42 10000 4.6 180 18:20 25.10.2019
5330 Clouds 6 1015 45 10000 7.7 160 17:41 25.10.2019
5331 Clouds 6 1015 45 10000 7.7 160 17:20 25.10.2019
5332 Clouds 6 1016 45 10000 8.2 160 16:47 25.10.2019
5333 Clouds 6 1016 45 10000 8.2 160 16:24 25.10.2019
5334 Clouds 6 1016 45 10000 9.3 160 15:58 25.10.2019
5335 Clouds 6 1016 45 10000 9.3 160 15:40 25.10.2019
5336 Clouds 6 1016 45 10000 9.3 160 15:21 25.10.2019
5337 Clouds 5 1016 48 10000 8.7 170 14:43 25.10.2019
5338 Clouds 5 1016 48 10000 8.7 170 14:24 25.10.2019
5339 Clouds 4 1017 59 10000 5.1 180 13:59 25.10.2019
5340 Clouds 3 1017 59 10000 5.1 180 13:41 25.10.2019
5341 Clouds 3 1017 59 10000 5.1 180 13:22 25.10.2019
5342 Clouds 5 1017 48 10000 8.2 160 12:55 25.10.2019
5343 Clouds 5 1017 48 10000 8.2 160 12:37 25.10.2019
5344 Clouds 5 1017 48 10000 8.2 160 12:18 25.10.2019
5345 Clouds 5 1017 48 10000 9.8 160 11:40 25.10.2019
5346 Clouds 5 1017 48 10000 9.8 160 11:22 25.10.2019
5347 Clouds 5 1017 48 10000 9.8 160 11:22 25.10.2019
5348 Clouds 4 1017 55 10000 6.7 160 10:55 25.10.2019
5349 Clouds 4 1017 55 10000 6.7 160 10:36 25.10.2019
5350 Clouds 4 1017 55 10000 6.7 160 10:18 25.10.2019
5351 Clouds 5 1017 48 0 10.3 160 09:41 25.10.2019
5352 Clouds 5 1017 48 0 10.3 160 09:20 25.10.2019
5353 Clouds 4 1017 51 0 9.8 150 08:56 25.10.2019
5354 Clouds 4 1017 51 0 9.8 150 08:38 25.10.2019
5355 Clouds 4 1017 51 0 9.8 150 08:19 25.10.2019
5356 Clouds 4 1017 55 0 12.3 150 07:44 25.10.2019
5357 Clouds 4 1017 55 0 12.3 150 07:26 25.10.2019
5358 Clouds 4 1017 60 0 12.9 160 06:37 25.10.2019
5359 Clouds 4 1017 60 0 12.3 160 05:48 25.10.2019
5360 Clouds 4 1017 60 0 12.3 160 05:28 25.10.2019
5361 Clouds 4 1017 60 0 14.9 160 04:30 25.10.2019
5362 Clouds 4 1017 64 10000 13.4 160 02:42 25.10.2019
5363 Clouds 4 1018 64 10000 13.4 160 01:52 25.10.2019
5364 Clouds 4 1018 64 10000 11.8 160 00:36 25.10.2019
5365 Clouds 4 1018 64 10000 12.9 160 23:55 24.10.2019
5366 Clouds 4 1018 64 10000 12.9 160 23:36 24.10.2019
5367 Clouds 4 1018 64 10000 12.9 160 23:18 24.10.2019
5368 Clouds 4 1018 60 10000 11.8 160 22:39 24.10.2019
5369 Clouds 4 1018 60 10000 11.8 160 22:19 24.10.2019
5370 Clouds 5 1018 52 10000 7.7 170 21:58 24.10.2019
5371 Clouds 5 1018 52 10000 7.7 170 21:40 24.10.2019
5372 Clouds 5 1018 52 10000 7.7 170 21:20 24.10.2019
5373 Clouds 4 1019 59 10000 3.6 140 20:59 24.10.2019
5374 Clouds 3 1019 59 10000 3.6 140 20:39 24.10.2019
5375 Clouds 3 1019 59 10000 3.6 140 20:21 24.10.2019
5376 Clouds 3 1019 74 10000 5.7 180 19:57 24.10.2019
5377 Clouds 3 1019 74 10000 5.7 180 19:57 24.10.2019
5378 Clouds 3 1019 74 10000 5.7 180 19:38 24.10.2019
5379 Clouds 3 1019 74 10000 5.7 180 19:20 24.10.2019
5380 Clouds 3 1019 69 10000 5.1 180 18:56 24.10.2019
5381 Clouds 3 1019 69 10000 5.1 180 18:38 24.10.2019
5382 Clouds 3 1019 69 10000 5.1 180 18:19 24.10.2019
5383 Clouds 3 1020 69 10000 5.7 160 17:42 24.10.2019
5384 Clouds 3 1020 69 10000 5.7 160 17:20 24.10.2019
5385 Clouds 2 1020 75 10000 7.2 180 16:58 24.10.2019
5386 Clouds 2 1020 75 10000 7.2 180 16:40 24.10.2019
5387 Clouds 2 1020 75 10000 7.2 180 16:22 24.10.2019
5388 Clouds 2 1021 80 10000 6.7 180 15:58 24.10.2019
5389 Clouds 2 1021 80 10000 6.7 180 15:58 24.10.2019
5390 Clouds 2 1021 80 10000 6.7 180 15:58 24.10.2019
5391 Clouds 2 1021 80 10000 6.7 180 15:40 24.10.2019
5392 Clouds 2 1021 80 10000 6.7 180 15:22 24.10.2019
5393 Clouds 2 1021 80 10000 6.7 180 15:22 24.10.2019
5394 Clouds 1 1021 74 10000 4.1 190 14:58 24.10.2019
5395 Clouds 1 1021 74 10000 4.1 190 14:40 24.10.2019
5396 Clouds 1 1021 74 10000 4.1 190 14:20 24.10.2019
5397 Clouds 0 1022 68 10000 2.1 220 13:42 24.10.2019
5398 Clouds 0 1022 68 10000 2.1 220 13:20 24.10.2019
5399 Clouds 1 1022 64 10000 1.5 0 12:58 24.10.2019
5400 Clouds 1 1022 64 10000 1.5 0 12:40 24.10.2019
5401 Clouds 1 1022 64 10000 1.5 0 12:20 24.10.2019
5402 Clouds 1 1022 59 10000 6.2 170 11:57 24.10.2019
5403 Clouds 1 1022 59 10000 6.2 170 11:38 24.10.2019
5404 Clouds 1 1022 59 10000 6.2 170 11:20 24.10.2019
5405 Clouds 1 1023 64 0 2.6 160 10:59 24.10.2019
5406 Clouds 1 1023 64 0 2.6 160 10:39 24.10.2019
5407 Clouds 1 1023 64 0 2.6 160 10:21 24.10.2019
5408 Clouds 0 1023 63 0 1 100 09:39 24.10.2019
5409 Clouds 0 1023 63 0 1 100 09:39 24.10.2019
5410 Clouds 0 1023 65 0 1 100 09:19 24.10.2019
5411 Clouds 0 1023 65 0 0.5 40 08:55 24.10.2019
5412 Clouds 0 1023 65 0 0.5 40 08:37 24.10.2019
5413 Clouds 0 1023 65 0 0.5 40 08:18 24.10.2019
5414 Clouds 1 1024 64 0 3.1 180 07:45 24.10.2019
5415 Clouds 1 1024 64 0 3.1 180 07:22 24.10.2019
5416 Clouds 0 1023 65 0 1 170 06:47 24.10.2019
5417 Clouds 0 1023 65 0 1 170 06:24 24.10.2019
5418 Clouds 1 1024 59 0 2.1 0 05:50 24.10.2019
5419 Clouds 1 1024 59 0 2.1 0 05:29 24.10.2019
5420 Clouds 0 1025 61 0 1.5 270 03:38 24.10.2019
5421 Clouds 0 1025 65 0 1.5 270 03:18 24.10.2019
5422 Clouds 0 1026 63 0 0.5 0 02:26 24.10.2019
5423 Clouds 0 1026 63 0 2.1 190 01:54 24.10.2019
5424 Clouds 0 1026 63 0 2.1 190 01:29 24.10.2019
5425 Clouds -1 1026 63 0 0.5 130 00:44 24.10.2019
5426 Clouds -1 1026 63 0 0.5 130 00:23 24.10.2019
5427 Clouds 0 1027 70 10000 1.5 180 23:44 23.10.2019
5428 Clouds 0 1027 70 10000 1.5 180 23:24 23.10.2019
5429 Clouds 0 1027 70 10000 1 0 22:57 23.10.2019
5430 Clouds 0 1027 70 10000 1 0 22:38 23.10.2019
5431 Clouds 0 1027 70 10000 1 0 22:19 23.10.2019
5432 Clouds 1 1027 74 10000 1.5 330 21:58 23.10.2019
5433 Clouds 1 1027 74 10000 1.5 330 21:39 23.10.2019
5434 Clouds 1 1027 74 10000 1.5 330 21:20 23.10.2019
5435 Clouds 1 1028 74 10000 3.1 60 20:58 23.10.2019
5436 Clouds 1 1028 74 10000 3.1 60 20:39 23.10.2019
5437 Clouds 1 1028 74 10000 3.1 60 20:39 23.10.2019
5438 Clouds 1 1028 74 10000 3.1 60 20:20 23.10.2019
5439 Clouds 1 1028 64 10000 0.5 85 19:58 23.10.2019
5440 Clouds 2 1028 64 10000 0.5 85 19:40 23.10.2019
5441 Clouds 2 1028 64 10000 0.5 85 19:19 23.10.2019
5442 Clouds 1 1028 69 10000 0.5 80 18:55 23.10.2019
5443 Clouds 1 1028 69 10000 0.5 80 18:36 23.10.2019
5444 Clouds 1 1028 69 10000 0.5 80 18:18 23.10.2019
5445 Clouds 1 1028 74 10000 3.6 40 17:45 23.10.2019
5446 Clouds 1 1028 74 10000 3.6 40 17:20 23.10.2019
5447 Clouds 0 1028 73 10000 3.6 50 16:58 23.10.2019
5448 Clouds 0 1028 73 10000 3.6 50 16:39 23.10.2019
5449 Clouds 0 1028 73 10000 3.6 50 16:20 23.10.2019
5450 Clouds 0 1029 73 10000 2.6 50 15:42 23.10.2019
5451 Clouds 0 1029 68 10000 2.6 50 15:23 23.10.2019
5452 Clouds 0 1029 68 10000 1.5 80 14:58 23.10.2019
5453 Clouds 0 1029 68 10000 1.5 80 14:39 23.10.2019
5454 Clouds 0 1029 68 10000 1.5 80 14:20 23.10.2019
5455 Clouds -1 1029 86 10000 1.5 100 13:59 23.10.2019
5456 Clouds -1 1029 86 10000 1.5 100 13:41 23.10.2019
5457 Clouds -1 1029 86 10000 1.5 100 13:23 23.10.2019
5458 Clouds -1 1029 80 10000 1 100 12:56 23.10.2019
5459 Clouds -1 1029 80 10000 1 100 12:38 23.10.2019
5460 Clouds -1 1029 80 10000 1 100 12:18 23.10.2019
5461 Clouds -1 1029 80 10000 2.1 80 11:57 23.10.2019
5462 Clouds -1 1029 80 10000 2.1 80 11:38 23.10.2019
5463 Clouds -1 1029 80 10000 2.1 80 11:38 23.10.2019
5464 Clouds -1 1029 80 10000 2.1 80 11:20 23.10.2019
5465 Clouds -1 1028 80 0 2.1 70 10:46 23.10.2019
5466 Clouds -1 1028 80 0 2.1 70 10:26 23.10.2019
5467 Clouds -1 1029 80 0 1 80 09:57 23.10.2019
5468 Clouds -1 1029 80 0 1 80 09:38 23.10.2019
5469 Clouds -1 1029 80 0 1 80 09:38 23.10.2019
5470 Clouds -1 1029 80 0 1 80 09:20 23.10.2019
5471 Clouds -1 1029 86 0 2.1 60 08:43 23.10.2019
5472 Clouds 0 1029 86 0 2.1 60 08:25 23.10.2019
5473 Clouds 0 1029 75 0 1.5 0 07:47 23.10.2019
5474 Clouds 0 1029 75 0 1.5 0 07:25 23.10.2019
5475 Clouds -1 1028 86 0 3.1 360 06:48 23.10.2019
5476 Clouds -1 1028 86 0 3.1 360 06:48 23.10.2019
5477 Clouds -1 1028 86 0 3.1 360 06:22 23.10.2019
5478 Clouds -1 1028 86 0 1.5 0 05:55 23.10.2019
5479 Clouds -1 1028 86 0 1.5 0 05:18 23.10.2019
5480 Clouds 1 1028 86 0 5.7 190 03:36 23.10.2019
5481 Clouds 1 1027 86 10000 8.2 190 02:41 23.10.2019
5482 Clouds 1 1027 86 10000 8.2 190 02:41 23.10.2019
5483 Clouds 1 1026 86 10000 7.7 190 01:34 23.10.2019
5484 Clouds 1 1026 86 10000 7.7 190 00:59 23.10.2019
5485 Clouds 1 1026 86 10000 7.7 190 00:32 23.10.2019
5486 Clouds 1 1025 59 10000 8.7 190 23:42 22.10.2019
5487 Clouds 1 1025 59 10000 8.7 190 23:19 22.10.2019
5488 Clouds 1 1025 59 10000 7.2 190 22:59 22.10.2019
5489 Clouds 1 1025 59 10000 7.2 190 22:40 22.10.2019
5490 Clouds 1 1025 59 10000 7.2 190 22:21 22.10.2019
5491 Clouds 2 1024 59 10000 7.2 190 21:56 22.10.2019
5492 Clouds 2 1024 61 10000 7.2 190 21:38 22.10.2019
5493 Clouds 2 1024 61 10000 7.2 190 21:19 22.10.2019
5494 Clouds 2 1023 59 10000 2.6 220 20:58 22.10.2019
5495 Clouds 2 1023 59 10000 2.6 220 20:40 22.10.2019
5496 Clouds 2 1023 59 10000 2.6 220 20:21 22.10.2019
5497 Clouds 2 1022 59 10000 4.1 20 19:55 22.10.2019
5498 Clouds 2 1022 59 10000 4.1 20 19:37 22.10.2019
5499 Clouds 2 1022 59 10000 4.1 20 19:19 22.10.2019
5500 Clouds 1 1022 69 10000 4.1 30 18:54 22.10.2019
5501 Clouds 1 1022 69 10000 4.1 30 18:36 22.10.2019
5502 Clouds 1 1022 69 10000 4.1 30 18:18 22.10.2019
5503 Clouds 1 1020 69 10000 6.7 50 17:39 22.10.2019
5504 Clouds 1 1020 69 10000 6.7 50 17:20 22.10.2019
5505 Clouds 1 1020 69 10000 6.7 50 17:20 22.10.2019
5506 Clouds 1 1020 69 10000 4.1 50 16:58 22.10.2019
5507 Clouds 1 1020 69 10000 4.1 50 16:39 22.10.2019
5508 Clouds 1 1020 69 10000 4.1 50 16:39 22.10.2019
5509 Clouds 1 1020 69 10000 4.1 50 16:20 22.10.2019
5510 Clouds 1 1020 50 10000 4.6 40 15:58 22.10.2019
5511 Clouds 1 1020 50 10000 4.6 40 15:40 22.10.2019
5512 Clouds 1 1020 50 10000 4.6 40 15:19 22.10.2019
5513 Clouds 0 1019 51 10000 6.7 30 14:46 22.10.2019
5514 Clouds 0 1019 53 10000 6.7 30 14:21 22.10.2019
5515 Clouds 0 1019 53 10000 6.7 40 13:54 22.10.2019
5516 Clouds 0 1019 53 10000 6.7 40 13:36 22.10.2019
5517 Clouds 0 1019 53 10000 6.7 40 13:18 22.10.2019
5518 Clear 1 1018 47 10000 5.7 50 12:41 22.10.2019
5519 Clear 1 1018 47 10000 5.7 50 12:21 22.10.2019
5520 Clear 0 1018 51 10000 6.2 50 11:59 22.10.2019
5521 Clear 0 1018 51 10000 6.2 50 11:39 22.10.2019
5522 Clear 0 1018 51 10000 6.2 50 11:21 22.10.2019
5523 Clear 1 1016 43 0 7.7 40 10:58 22.10.2019
5524 Clear 1 1016 43 0 7.7 40 10:37 22.10.2019
5525 Clear 1 1016 43 0 7.7 40 10:37 22.10.2019
5526 Clear 1 1016 43 0 7.7 40 10:19 22.10.2019
5527 Clear 1 1016 47 0 8.7 60 09:55 22.10.2019
5528 Clear 1 1016 47 0 8.7 60 09:37 22.10.2019
5529 Clear 1 1016 47 0 8.7 60 09:19 22.10.2019
5530 Clear 1 1016 47 0 7.2 50 08:42 22.10.2019
5531 Clear 1 1016 47 0 7.2 50 08:21 22.10.2019
5532 Clear 1 1017 55 0 6.7 50 07:49 22.10.2019
5533 Clear 1 1017 55 0 6.7 50 07:27 22.10.2019
5534 Clear 1 1016 55 0 6.7 40 06:52 22.10.2019
5535 Clear 1 1016 55 0 6.7 40 06:31 22.10.2019
5536 Clear 1 1016 55 0 6.7 50 05:58 22.10.2019
5537 Clear 1 1016 55 0 6.7 50 05:24 22.10.2019
5538 Clear 1 1015 59 0 7.2 40 03:19 22.10.2019
5539 Clear 1 1015 59 0 6.7 40 02:28 22.10.2019
5540 Clear 2 1014 43 0 6.7 50 01:31 22.10.2019
5541 Clear 2 1014 47 0 7.2 60 00:58 22.10.2019
5542 Clear 2 1014 47 0 7.2 60 00:40 22.10.2019
5543 Clear 2 1014 47 0 7.2 60 00:21 22.10.2019
5544 Clear 2 1014 47 10000 7.2 50 23:56 21.10.2019
5545 Clear 2 1014 47 10000 7.2 50 23:37 21.10.2019
5546 Clear 2 1014 47 10000 7.2 50 23:18 21.10.2019
5547 Clear 2 1013 51 10000 7.2 50 22:57 21.10.2019
5548 Clear 2 1013 51 10000 7.2 50 22:38 21.10.2019
5549 Clear 2 1013 51 10000 7.2 50 22:19 21.10.2019
5550 Clear 2 1013 59 10000 7.7 50 21:55 21.10.2019
5551 Clear 2 1013 59 10000 7.7 50 21:55 21.10.2019
5552 Clear 2 1013 59 10000 7.7 50 21:37 21.10.2019
5553 Clear 2 1013 59 10000 7.7 50 21:19 21.10.2019
5554 Clear 3 1012 47 10000 6.2 50 20:55 21.10.2019
5555 Clear 3 1012 47 10000 6.2 50 20:37 21.10.2019
5556 Clear 3 1012 47 10000 6.2 50 20:18 21.10.2019
5557 Clear 3 1012 44 10000 6.7 50 19:41 21.10.2019
5558 Clear 3 1012 44 10000 6.7 50 19:22 21.10.2019
5559 Clear 3 1012 47 10000 6.2 50 18:57 21.10.2019
5560 Clear 3 1012 47 10000 6.2 50 18:57 21.10.2019
5561 Clear 3 1012 47 10000 6.2 50 18:38 21.10.2019
5562 Clear 3 1012 47 10000 6.2 50 18:19 21.10.2019
5563 Clear 3 1012 47 10000 6.2 50 18:19 21.10.2019
5564 Clear 2 1011 51 10000 7.2 60 17:59 21.10.2019
5565 Clear 2 1011 51 10000 7.2 60 17:38 21.10.2019
5566 Clear 2 1011 51 10000 7.2 60 17:19 21.10.2019
5567 Clear 2 1011 51 10000 9.8 70 16:58 21.10.2019
5568 Clear 2 1011 51 10000 9.8 70 16:40 21.10.2019
5569 Clear 2 1011 51 10000 9.8 70 16:21 21.10.2019
5570 Clear 1 1011 55 10000 7.2 60 15:47 21.10.2019
5571 Clear 1 1011 55 10000 7.2 60 15:27 21.10.2019
5572 Clear 1 1010 47 10000 7.2 50 14:59 21.10.2019
5573 Clear 1 1010 47 10000 7.2 50 14:59 21.10.2019
5574 Clear 1 1010 47 10000 7.2 50 14:40 21.10.2019
5575 Clear 1 1010 47 10000 7.2 50 14:21 21.10.2019
5576 Clear 1 1009 55 10000 6.7 50 13:57 21.10.2019
5577 Clear 1 1009 55 10000 6.7 50 13:39 21.10.2019
5578 Clear 1 1009 55 10000 6.7 50 13:20 21.10.2019
5579 Clouds 0 1009 50 10000 5.7 40 12:57 21.10.2019
5580 Clouds 0 1009 50 10000 5.7 40 12:39 21.10.2019
5581 Clouds 0 1009 48 10000 5.7 40 12:19 21.10.2019
5582 Clouds 0 1008 48 10000 7.7 60 11:40 21.10.2019
5583 Clouds 0 1008 48 10000 7.7 60 11:22 21.10.2019
5584 Clouds 0 1008 48 10000 7.7 50 10:58 21.10.2019
5585 Clouds 0 1008 48 10000 7.7 50 10:38 21.10.2019
5586 Clouds 0 1008 48 10000 7.7 50 10:19 21.10.2019
5587 Clear 0 1008 48 0 8.7 60 09:54 21.10.2019
5588 Clear 0 1008 48 0 8.7 60 09:36 21.10.2019
5589 Clear 0 1008 50 0 8.7 60 09:18 21.10.2019
5590 Clear 0 1007 48 0 6.7 50 08:40 21.10.2019
5591 Clear 0 1007 48 0 6.7 50 08:22 21.10.2019
5592 Clear 0 1007 48 0 5.7 60 07:45 21.10.2019
5593 Clear 0 1007 48 0 5.7 60 07:23 21.10.2019
5594 Clear 0 1007 48 0 6.2 40 06:58 21.10.2019
5595 Clear 0 1007 48 0 6.2 40 06:40 21.10.2019
5596 Clear 0 1007 51 0 6.2 40 06:18 21.10.2019
5597 Clear 0 1007 51 0 6.2 50 05:21 21.10.2019
5598 Clear 1 1008 69 0 6.2 30 03:39 21.10.2019
5599 Clear 1 1008 69 0 6.2 30 02:39 21.10.2019
5600 Clear 1 1008 69 0 6.2 30 02:19 21.10.2019
5601 Clear 1 1008 69 0 6.2 30 02:19 21.10.2019
5602 Clear 1 1008 69 0 5.7 30 01:44 21.10.2019
5603 Clear 1 1008 69 0 7.2 50 00:52 21.10.2019
5604 Clear 1 1008 69 0 7.2 50 00:28 21.10.2019
5605 Clear 1 1008 74 0 6.7 50 23:58 20.10.2019
5606 Clear 1 1008 74 0 6.7 50 23:39 20.10.2019
5607 Clear 1 1008 74 0 6.7 50 23:21 20.10.2019
5608 Clear 1 1008 74 0 5.1 60 22:42 20.10.2019
5609 Clear 1 1008 74 0 5.1 60 22:24 20.10.2019
5610 Clear 1 1008 74 0 5.1 60 22:24 20.10.2019
5611 Clear 1 1008 74 0 5.1 60 22:24 20.10.2019
5612 Clear 1 1008 64 0 5.7 50 21:59 20.10.2019
5613 Clear 2 1008 64 0 5.7 50 21:40 20.10.2019
5614 Clear 2 1008 64 0 5.7 50 21:22 20.10.2019
5615 Clear 2 1009 69 0 4.6 40 20:56 20.10.2019
5616 Clear 2 1009 69 0 4.6 40 20:38 20.10.2019
5617 Clear 2 1009 69 0 4.6 40 20:18 20.10.2019
5618 Clear 2 1009 69 0 6.2 40 19:55 20.10.2019
5619 Clear 2 1009 69 0 6.2 40 19:37 20.10.2019
5620 Clear 2 1009 69 0 6.2 40 19:18 20.10.2019
5621 Clear 2 1009 69 0 6.2 40 18:40 20.10.2019
5622 Clear 2 1009 69 0 6.2 40 18:22 20.10.2019
5623 Clear 2 1009 74 0 6.2 50 17:57 20.10.2019
5624 Clear 2 1009 74 0 6.2 50 17:38 20.10.2019
5625 Clear 2 1009 74 0 6.2 50 17:20 20.10.2019
5626 Clear 1 1009 80 0 6.2 50 16:43 20.10.2019
5627 Clear 1 1009 80 0 6.2 50 16:24 20.10.2019
5628 Clear 1 1009 74 0 5.1 40 15:59 20.10.2019
5629 Clear 1 1009 74 0 5.1 40 15:40 20.10.2019
5630 Clear 1 1009 74 0 5.1 40 15:21 20.10.2019
5631 Clear 1 1009 74 0 6.2 60 14:59 20.10.2019
5632 Clear 1 1009 74 0 6.2 60 14:38 20.10.2019
5633 Clear 1 1009 74 0 6.2 60 14:19 20.10.2019
5634 Clear 1 1009 74 10000 5.7 60 13:56 20.10.2019
5635 Clear 1 1009 74 10000 5.7 60 13:37 20.10.2019
5636 Clear 1 1009 74 10000 5.7 60 13:19 20.10.2019
5637 Clear 1 1009 74 0 7.2 60 12:57 20.10.2019
5638 Clear 1 1009 74 0 7.2 60 12:39 20.10.2019
5639 Clear 1 1009 74 0 7.2 60 12:21 20.10.2019
5640 Clear 1 1008 80 0 7.2 50 11:59 20.10.2019
5641 Clear 1 1008 80 0 7.2 50 11:40 20.10.2019
5642 Clear 1 1008 80 0 7.2 50 11:21 20.10.2019
5643 Clear 1 1008 86 0 6.2 40 10:57 20.10.2019
5644 Clear 1 1008 86 0 6.2 40 10:37 20.10.2019
5645 Clear 1 1008 86 0 6.2 40 10:18 20.10.2019
5646 Clear 1 1008 80 0 5.1 50 09:43 20.10.2019
5647 Clear 1 1008 80 0 5.1 50 09:22 20.10.2019
5648 Clear 1 1008 80 0 6.2 60 08:56 20.10.2019
5649 Clear 1 1008 80 0 6.2 60 08:37 20.10.2019
5650 Clear 1 1008 80 0 6.2 60 08:18 20.10.2019
5651 Clear 1 1008 80 0 4.1 50 07:43 20.10.2019
5652 Clear 1 1008 80 0 4.1 50 07:24 20.10.2019
5653 Clear 1 1008 80 0 4.1 50 07:24 20.10.2019
5654 Clear 1 1008 80 0 4.1 50 07:24 20.10.2019
5655 Clear 0 1008 60 0 4.1 40 06:26 20.10.2019
5656 Clear 0 1008 66 0 4.6 40 04:28 20.10.2019
5657 Clear 0 1009 66 0 4.1 50 03:49 20.10.2019
5658 Clouds 0 1009 83 0 4.1 50 03:21 20.10.2019
5659 Clouds 1 1009 83 10000 3.6 60 02:46 20.10.2019
5660 Clouds 1 1009 83 10000 3.6 60 02:18 20.10.2019
5661 Clouds 1 1009 83 10000 3.1 50 01:45 20.10.2019
5662 Clouds 1 1009 83 10000 3.1 50 01:19 20.10.2019
5663 Clouds 1 1010 83 10000 3.6 30 00:47 20.10.2019
5664 Clouds 1 1010 89 10000 3.6 30 00:20 20.10.2019
5665 Clouds 1 1010 86 10000 4.1 40 23:44 19.10.2019
5666 Clouds 1 1010 86 10000 4.1 40 23:24 19.10.2019
5667 Clouds 1 1010 80 10000 4.1 50 22:58 19.10.2019
5668 Clouds 2 1010 80 10000 4.1 50 22:40 19.10.2019
5669 Clouds 2 1010 80 10000 4.1 50 22:20 19.10.2019
5670 Clouds 2 1011 89 10000 4.6 50 21:46 19.10.2019
5671 Clouds 2 1011 89 10000 4.6 50 21:46 19.10.2019
5672 Clouds 2 1011 89 10000 4.6 50 21:25 19.10.2019
5673 Clouds 2 1011 93 10000 4.6 30 20:57 19.10.2019
5674 Clouds 2 1011 93 10000 4.6 30 20:57 19.10.2019
5675 Clouds 2 1011 93 10000 4.6 30 20:39 19.10.2019
5676 Clouds 2 1011 93 10000 4.6 30 20:20 19.10.2019
5677 Clouds 3 1012 86 10000 5.7 40 19:41 19.10.2019
5678 Clouds 3 1012 86 10000 5.7 40 19:23 19.10.2019
5679 Clouds 2 1013 100 10000 5.7 50 18:55 19.10.2019
5680 Clouds 2 1013 100 10000 5.7 50 18:37 19.10.2019
5681 Clouds 2 1013 100 10000 5.7 50 18:18 19.10.2019
5682 Clouds 2 1014 93 10000 5.7 40 17:41 19.10.2019
5683 Clouds 2 1014 93 10000 5.7 40 17:21 19.10.2019
5684 Clouds 2 1014 93 10000 5.7 40 17:21 19.10.2019
5685 Clouds 2 1015 100 10000 6.2 40 16:56 19.10.2019
5686 Clouds 2 1015 100 10000 6.2 40 16:37 19.10.2019
5687 Clouds 2 1015 100 10000 6.2 40 16:18 19.10.2019
5688 Clouds 2 1015 100 10000 6.2 50 15:41 19.10.2019
5689 Clouds 2 1015 100 10000 6.2 50 15:23 19.10.2019
5690 Clouds 2 1016 100 10000 6.2 60 14:39 19.10.2019
5691 Clouds 2 1016 100 10000 6.2 60 14:20 19.10.2019
5692 Clouds 2 1017 93 10000 5.7 60 13:58 19.10.2019
5693 Clouds 2 1017 93 10000 5.7 60 13:39 19.10.2019
5694 Clouds 2 1017 93 10000 5.7 60 13:19 19.10.2019
5695 Clouds 2 1017 93 10000 5.7 60 13:19 19.10.2019
5696 Rain 2 1017 93 10000 5.1 60 12:56 19.10.2019
5697 Rain 2 1017 93 10000 5.1 60 12:37 19.10.2019
5698 Rain 2 1017 93 10000 5.1 60 12:18 19.10.2019
5699 Clouds 3 1018 86 0 2.6 60 11:41 19.10.2019
5700 Clouds 3 1018 86 0 2.6 60 11:23 19.10.2019
5701 Clouds 2 1019 93 0 2.6 40 10:56 19.10.2019
5702 Clouds 2 1019 93 0 2.6 40 10:38 19.10.2019
5703 Clouds 2 1019 93 0 2.6 40 10:20 19.10.2019
5704 Clouds 3 1019 86 0 2.1 200 09:42 19.10.2019
5705 Clouds 3 1019 86 0 2.1 200 09:24 19.10.2019
5706 Rain 3 1020 80 0 3.1 190 08:59 19.10.2019
5707 Rain 3 1020 80 0 3.1 190 08:59 19.10.2019
5708 Rain 3 1020 80 0 3.1 190 08:59 19.10.2019
5709 Rain 3 1020 80 0 3.1 190 08:59 19.10.2019
5710 Rain 4 1020 80 0 3.1 190 08:40 19.10.2019
5711 Rain 4 1020 80 0 3.1 190 08:21 19.10.2019
5712 Rain 5 1020 92 0 4.6 170 07:44 19.10.2019
5713 Rain 5 1020 92 0 4.6 170 07:25 19.10.2019
5714 Rain 5 1021 75 0 6.7 170 06:47 19.10.2019
5715 Rain 5 1021 75 0 6.7 170 06:26 19.10.2019
5716 Rain 4 1021 80 0 6.2 170 05:33 19.10.2019
5717 Rain 5 1021 80 0 9.3 170 04:22 19.10.2019
5718 Drizzle 4 1022 93 10000 7.7 170 02:47 19.10.2019
5719 Rain 4 1022 93 10000 8.7 180 01:53 19.10.2019
5720 Rain 4 1022 93 10000 8.7 180 01:25 19.10.2019
5721 Rain 3 1022 100 10000 9.3 170 00:48 19.10.2019
5722 Rain 3 1022 100 10000 9.3 170 00:27 19.10.2019
5723 Rain 4 1021 93 6000 11.8 170 23:45 18.10.2019
5724 Rain 4 1021 93 6000 11.8 170 23:27 18.10.2019
5725 Rain 4 1021 93 10000 9.3 180 22:58 18.10.2019
5726 Rain 4 1021 93 10000 9.3 180 22:40 18.10.2019
5727 Rain 4 1021 93 10000 9.3 180 22:20 18.10.2019
5728 Rain 4 1021 93 10000 9.3 180 22:20 18.10.2019
5729 Rain 4 1021 93 10000 9.3 180 22:20 18.10.2019
5730 Rain 4 1021 93 10000 10.3 170 21:59 18.10.2019
5731 Rain 4 1021 93 10000 10.3 170 21:39 18.10.2019
5732 Rain 4 1021 93 10000 10.3 170 21:20 18.10.2019
5733 Rain 4 1020 93 10000 11.8 170 20:58 18.10.2019
5734 Rain 4 1020 93 10000 11.8 170 20:40 18.10.2019
5735 Rain 4 1020 93 10000 11.8 170 20:21 18.10.2019
5736 Rain 4 1020 93 10000 11.8 170 20:21 18.10.2019
5737 Rain 3 1020 100 7000 10.3 180 19:57 18.10.2019
5738 Rain 3 1020 100 7000 10.3 180 19:39 18.10.2019
5739 Rain 3 1020 100 7000 10.3 180 19:20 18.10.2019
5740 Rain 4 1019 93 6000 11.3 180 18:57 18.10.2019
5741 Rain 4 1019 93 6000 11.3 180 18:38 18.10.2019
5742 Rain 4 1019 93 6000 11.3 180 18:20 18.10.2019
5743 Rain 4 1019 93 10000 13.9 170 17:39 18.10.2019
5744 Rain 4 1019 93 10000 13.9 170 17:21 18.10.2019
5745 Clouds 4 1018 93 10000 13.9 170 16:59 18.10.2019
5746 Clouds 4 1018 93 10000 13.9 170 16:38 18.10.2019
5747 Clouds 4 1018 93 10000 13.9 170 16:19 18.10.2019
5748 Rain 3 1018 100 7000 10.8 180 15:54 18.10.2019
5749 Rain 3 1018 100 7000 10.8 180 15:54 18.10.2019
5750 Rain 3 1018 100 7000 10.8 180 15:36 18.10.2019
5751 Rain 3 1018 100 7000 10.8 180 15:18 18.10.2019
5752 Rain 3 1017 100 6000 12.3 170 14:56 18.10.2019
5753 Rain 3 1017 100 6000 12.3 170 14:38 18.10.2019
5754 Rain 3 1017 100 6000 12.3 170 14:18 18.10.2019
5755 Rain 4 1016 93 10000 14.9 170 13:42 18.10.2019
5756 Rain 4 1016 93 10000 14.9 170 13:23 18.10.2019
5757 Rain 3 1015 100 7000 15.9 170 12:58 18.10.2019
5758 Rain 3 1015 100 7000 15.9 170 12:39 18.10.2019
5759 Rain 3 1015 100 7000 15.9 170 12:21 18.10.2019
5760 Rain 3 1014 100 4000 14.4 180 11:57 18.10.2019
5761 Rain 3 1014 100 4000 14.4 180 11:57 18.10.2019
5762 Rain 3 1014 100 4000 14.4 180 11:39 18.10.2019
5763 Rain 3 1014 100 4000 14.4 180 11:20 18.10.2019
5764 Snow 3 1012 100 0 16.5 170 10:56 18.10.2019
5765 Snow 3 1012 100 0 16.5 170 10:38 18.10.2019
5766 Snow 3 1012 100 0 16.5 170 10:19 18.10.2019
5767 Snow 4 1011 93 0 20.6 170 09:55 18.10.2019
5768 Snow 4 1011 93 0 20.6 170 09:37 18.10.2019
5769 Snow 4 1011 93 0 20.6 170 09:18 18.10.2019
5770 Snow 4 1010 93 0 20.6 160 08:42 18.10.2019
5771 Snow 4 1010 93 0 20.6 160 08:24 18.10.2019
5772 Snow 4 1010 86 0 21.1 150 07:51 18.10.2019
5773 Snow 4 1010 86 0 21.1 150 07:30 18.10.2019
5774 Snow 4 1010 86 0 14.9 150 06:41 18.10.2019
5775 Snow 4 1010 86 0 14.9 150 06:23 18.10.2019
5776 Snow 5 1011 82 0 8.7 160 05:59 18.10.2019
5777 Snow 5 1011 82 0 8.7 160 05:24 18.10.2019
5778 Rain 6 1011 60 0 7.7 170 04:56 18.10.2019
5779 Rain 4 1011 80 10000 6.7 160 03:34 18.10.2019
5780 Rain 3 1011 69 10000 1.5 60 02:50 18.10.2019
5781 Rain 3 1011 69 10000 1.5 60 02:32 18.10.2019
5782 Clouds 4 1011 76 10000 3.6 150 01:38 18.10.2019
5783 Clouds 3 1012 64 10000 1.5 180 00:56 18.10.2019
5784 Clouds 3 1012 64 10000 1.5 180 00:38 18.10.2019
5785 Clouds 3 1012 64 10000 1.5 180 00:18 18.10.2019
5786 Clouds 2 1011 74 10000 1.5 30 23:38 17.10.2019
5787 Clouds 2 1011 74 10000 1.5 30 23:19 17.10.2019
5788 Clouds 3 1011 64 10000 1 40 22:56 17.10.2019
5789 Clouds 3 1011 64 10000 1 40 22:38 17.10.2019
5790 Clouds 3 1011 64 10000 1 40 22:19 17.10.2019
5791 Clouds 3 1011 59 10000 0.5 340 21:56 17.10.2019
5792 Clouds 3 1011 59 10000 0.5 340 21:38 17.10.2019
5793 Clouds 3 1011 59 10000 0.5 340 21:20 17.10.2019
5794 Clouds 3 1010 59 10000 3.1 70 20:57 17.10.2019
5795 -273 0 0 0 0 0 20:39 17.10.2019
5796 Clouds 3 1010 59 10000 3.1 70 20:19 17.10.2019
5797 Clouds 3 1010 55 10000 3.1 190 19:56 17.10.2019
5798 Clouds 4 1010 55 10000 3.1 190 19:38 17.10.2019
5799 Clouds 4 1010 55 10000 3.1 190 19:19 17.10.2019
5800 Clouds 4 1010 48 10000 4.1 60 18:43 17.10.2019
5801 Clouds 4 1010 48 10000 4.1 60 18:21 17.10.2019
5802 Clouds 4 1010 48 10000 2.1 0 17:58 17.10.2019
5803 Clouds 4 1010 48 10000 2.1 0 17:40 17.10.2019
5804 Clouds 4 1010 48 10000 2.1 0 17:22 17.10.2019
5805 Clouds 5 1010 41 10000 5.7 70 16:56 17.10.2019
5806 Clouds 5 1010 41 10000 5.7 70 16:37 17.10.2019
5807 Clouds 5 1010 41 10000 5.7 70 16:37 17.10.2019
5808 Clouds 5 1010 41 10000 5.7 70 16:18 17.10.2019
5809 Clouds 4 1010 44 10000 3.1 0 15:55 17.10.2019
5810 Clouds 4 1010 44 10000 3.1 0 15:37 17.10.2019
5811 Clouds 4 1010 44 10000 3.1 0 15:19 17.10.2019
5812 Clouds 2 1010 55 10000 7.7 40 14:42 17.10.2019
5813 Clouds 2 1010 55 10000 7.7 40 14:23 17.10.2019
5814 Clouds 1 1011 69 10000 4.6 20 13:56 17.10.2019
5815 Clouds 1 1011 69 10000 4.6 20 13:38 17.10.2019
5816 Clouds 1 1011 69 10000 4.6 20 13:18 17.10.2019
5817 Clouds 1 1011 69 10000 4.6 20 13:18 17.10.2019
5818 Clouds 0 1011 58 10000 7.2 50 12:41 17.10.2019
5819 Clouds 0 1011 73 10000 7.2 50 12:21 17.10.2019
5820 Clouds 1 1011 64 10000 3.6 70 11:59 17.10.2019
5821 Clouds 1 1011 64 10000 3.6 70 11:40 17.10.2019
5822 Clouds 1 1011 64 10000 3.6 70 11:19 17.10.2019
5823 Clouds 1 1012 59 0 3.1 60 10:55 17.10.2019
5824 Clouds 1 1012 59 0 3.1 60 10:36 17.10.2019
5825 Clouds 1 1012 59 0 3.1 60 10:18 17.10.2019
5826 Clouds 1 1012 59 0 3.1 60 10:18 17.10.2019
5827 Clouds 0 1012 73 0 4.1 60 09:42 17.10.2019
5828 Clouds 0 1012 59 0 4.1 60 09:22 17.10.2019
5829 Clouds 2 1012 55 0 1.5 100 08:59 17.10.2019
5830 Clouds 2 1012 55 0 1.5 100 08:41 17.10.2019
5831 Clouds 2 1012 55 0 1.5 100 08:21 17.10.2019
5832 Clouds 2 1012 64 0 3.6 160 07:56 17.10.2019
5833 Clouds 2 1012 64 0 3.6 160 07:37 17.10.2019
5834 Clouds 2 1012 64 0 3.6 160 07:18 17.10.2019
5835 Clouds 2 1012 64 0 3.6 160 07:18 17.10.2019
5836 Clouds 2 1011 55 0 3.1 70 06:40 17.10.2019
5837 Clouds 2 1011 55 0 3.1 70 06:21 17.10.2019
5838 Clouds 2 1012 51 0 2.1 0 05:54 17.10.2019
5839 Clouds 2 1012 51 0 2.1 0 05:32 17.10.2019
5840 Clouds 0 1013 54 0 6.2 50 04:55 17.10.2019
5841 Clouds 0 1013 54 0 2.1 90 03:55 17.10.2019
5842 Clouds 0 1013 55 0 1.5 100 02:37 17.10.2019
5843 Clouds 0 1013 55 0 3.1 60 01:31 17.10.2019
5844 Clouds -1 1014 80 0 1.5 170 00:40 17.10.2019
5845 Clouds -1 1014 80 0 1.5 170 00:19 17.10.2019
5846 Clouds 0 1014 57 10000 1.5 110 23:42 16.10.2019
5847 Clouds 0 1014 57 10000 1.5 110 23:21 16.10.2019
5848 Clouds 1 1013 50 10000 2.1 60 22:56 16.10.2019
5849 Clouds 1 1013 50 10000 2.1 60 22:56 16.10.2019
5850 Clouds 1 1013 50 10000 2.1 60 22:37 16.10.2019
5851 Clouds 1 1013 50 10000 2.1 60 22:37 16.10.2019
5852 Clouds 1 1013 50 10000 2.1 60 22:19 16.10.2019
5853 Clouds 1 1013 50 10000 2.1 60 22:19 16.10.2019
5854 Clouds 1 1013 50 10000 2.1 60 22:19 16.10.2019
5855 Clouds 1 1013 55 10000 0.5 0 21:57 16.10.2019
5856 Clouds 1 1013 55 10000 0.5 0 21:37 16.10.2019
5857 Clouds 1 1013 55 10000 0.5 0 21:19 16.10.2019
5858 Clouds 3 1013 47 10000 1 0 20:58 16.10.2019
5859 Clouds 3 1013 47 10000 1 0 20:58 16.10.2019
5860 Clouds 3 1013 47 10000 1 0 20:39 16.10.2019
5861 Clouds 3 1013 47 10000 1 0 20:21 16.10.2019
5862 Clouds 3 1013 47 10000 4.6 200 19:59 16.10.2019
5863 Clouds 3 1013 47 10000 4.6 200 19:39 16.10.2019
5864 Clouds 3 1013 47 10000 4.6 200 19:39 16.10.2019
5865 Clouds 3 1013 47 10000 4.6 200 19:20 16.10.2019
5866 Clouds 5 1013 44 10000 0.5 0 18:54 16.10.2019
5867 Clouds 5 1013 44 10000 0.5 0 18:54 16.10.2019
5868 Clouds 5 1013 44 10000 0.5 0 18:36 16.10.2019
5869 Clouds 5 1013 44 10000 0.5 0 18:18 16.10.2019
5870 Clouds 4 1013 48 10000 2.1 180 17:54 16.10.2019
5871 -273 0 0 0 0 0 17:36 16.10.2019
5872 Clouds 4 1013 48 10000 2.1 180 17:18 16.10.2019
5873 Clouds 2 1013 40 10000 1.5 210 16:42 16.10.2019
5874 Clouds 2 1013 40 10000 1.5 210 16:21 16.10.2019
5875 Clouds 1 1013 61 10000 1 0 15:58 16.10.2019
5876 Clouds 0 1013 61 10000 1 0 15:39 16.10.2019
5877 Clouds 0 1013 61 10000 1 0 15:39 16.10.2019
5878 Clouds 0 1013 61 10000 1 0 15:39 16.10.2019
5879 Clouds 0 1013 55 10000 1 0 15:19 16.10.2019
5880 -273 0 0 0 0 0 14:58 16.10.2019
5881 Clouds 0 1013 56 10000 3.6 60 14:39 16.10.2019
5882 Clouds 0 1013 56 10000 3.6 60 14:19 16.10.2019
5883 Clouds -1 1013 54 10000 2.1 90 13:57 16.10.2019
5884 Clouds -1 1013 54 10000 2.1 90 13:56 16.10.2019
5885 Clouds -1 1013 54 10000 2.1 90 13:38 16.10.2019
5886 Clouds -1 1013 54 10000 2.1 90 13:38 16.10.2019
5887 Clouds -1 1013 54 10000 2.1 90 13:19 16.10.2019
5888 Clouds 0 1013 56 10000 2.1 90 12:42 16.10.2019
5889 Clouds 0 1013 48 10000 2.1 90 12:19 16.10.2019
5890 Clouds -1 1013 54 0 3.6 60 11:45 16.10.2019
5891 Clouds -1 1013 54 0 3.6 60 11:45 16.10.2019
5892 Clouds -1 1013 54 0 3.6 60 11:19 16.10.2019
5893 Clouds 0 1012 48 0 1.5 0 10:55 16.10.2019
5894 Clouds 0 1012 48 0 1.5 0 10:36 16.10.2019
5895 Clouds 0 1012 48 0 1.5 0 10:18 16.10.2019
5896 Clouds -1 1012 58 0 0.5 70 09:40 16.10.2019
5897 Clouds -1 1012 58 0 0.5 70 09:21 16.10.2019
5898 Clouds 0 1012 57 0 0.5 0 08:46 16.10.2019
5899 Clouds 0 1012 57 0 0.5 0 08:26 16.10.2019
5900 Clouds 0 1012 57 0 1 0 07:59 16.10.2019
5901 Clouds 0 1012 57 0 1 0 07:41 16.10.2019
5902 Clouds 0 1012 57 0 1 0 07:22 16.10.2019
5903 Clouds 0 1012 57 0 1 180 06:47 16.10.2019
5904 Clouds 0 1012 57 0 1 180 06:28 16.10.2019
5905 Clouds 0 1010 47 0 6.7 50 04:25 16.10.2019
5906 Clouds 0 1011 46 10000 9.3 70 02:51 16.10.2019
5907 Clouds -1 1012 50 10000 8.7 50 01:20 16.10.2019
5908 Clouds -1 1013 54 10000 8.7 50 00:59 16.10.2019
5909 Clouds -1 1013 54 10000 8.7 50 00:39 16.10.2019
5910 Clouds -2 1013 54 10000 9.8 50 23:58 15.10.2019
5911 Clouds -2 1013 54 10000 9.8 50 23:38 15.10.2019
5912 Clouds -2 1013 54 10000 9.8 50 23:19 15.10.2019
5913 Clouds -1 1014 50 10000 6.2 50 22:55 15.10.2019
5914 Clouds -1 1014 50 10000 6.2 50 22:55 15.10.2019
5915 Clouds -1 1014 50 10000 6.2 50 22:37 15.10.2019
5916 Clouds -1 1014 50 10000 6.2 50 22:18 15.10.2019
5917 Clear 0 1014 43 10000 7.2 60 21:54 15.10.2019
5918 Clear 0 1014 43 10000 7.2 60 21:36 15.10.2019
5919 Clear 0 1014 43 10000 7.2 60 21:36 15.10.2019
5920 Clear 0 1014 44 10000 7.2 60 21:18 15.10.2019
5921 Clear 0 1014 44 10000 8.2 60 20:54 15.10.2019
5922 Clear 0 1014 44 10000 8.2 60 20:36 15.10.2019
5923 Clear 0 1014 44 10000 8.2 60 20:18 15.10.2019
5924 Clear -1 1014 46 10000 9.8 70 19:55 15.10.2019
5925 Clear -1 1014 46 10000 9.8 70 19:36 15.10.2019
5926 Clear -1 1014 46 10000 9.8 70 19:18 15.10.2019
5927 Clear -1 1015 46 10000 9.3 60 18:41 15.10.2019
5928 Clear -1 1015 46 10000 9.3 60 18:23 15.10.2019
5929 Clear -1 1015 50 10000 8.2 60 17:54 15.10.2019
5930 Clear -1 1015 50 10000 8.2 60 17:36 15.10.2019
5931 Clear -1 1015 50 10000 8.2 60 17:18 15.10.2019
5932 Clear -2 1016 50 10000 9.3 60 16:43 15.10.2019
5933 Clear -2 1016 50 10000 9.3 60 16:22 15.10.2019
5934 Clear -2 1016 50 10000 7.7 60 15:57 15.10.2019
5935 Clear -2 1016 50 10000 7.7 60 15:57 15.10.2019
5936 Clear -2 1016 50 10000 7.7 60 15:39 15.10.2019
5937 Clear -2 1016 50 10000 7.7 60 15:39 15.10.2019
5938 Clear -2 1016 50 10000 7.7 60 15:19 15.10.2019
5939 Clear -3 1016 63 10000 8.2 60 14:56 15.10.2019
5940 Clear -3 1016 63 10000 8.2 60 14:37 15.10.2019
5941 Clear -3 1016 63 10000 8.2 60 14:37 15.10.2019
5942 Clear -3 1016 63 10000 8.2 60 14:18 15.10.2019
5943 Clear -4 1016 68 10000 8.7 60 13:43 15.10.2019
5944 Clear -4 1016 68 10000 8.7 60 13:20 15.10.2019
5945 Clear -4 1017 68 10000 8.2 60 12:56 15.10.2019
5946 Clear -4 1017 68 10000 8.2 60 12:56 15.10.2019
5947 Clear -4 1017 68 10000 8.2 60 12:38 15.10.2019
5948 Clear -4 1017 68 10000 8.2 60 12:19 15.10.2019
5949 Clear -4 1017 68 10000 8.2 60 12:19 15.10.2019
5950 Clouds -4 1017 73 10000 7.7 60 11:43 15.10.2019
5951 Clouds -4 1017 73 10000 7.7 60 11:20 15.10.2019
5952 Clear -4 1017 73 0 5.7 60 10:56 15.10.2019
5953 Clear -4 1017 73 0 5.7 60 10:38 15.10.2019
5954 Clear -4 1017 73 0 5.7 60 10:18 15.10.2019
5955 Clear -4 1017 73 0 5.7 60 09:55 15.10.2019
5956 Clear -4 1017 73 0 5.7 60 09:55 15.10.2019
5957 Clear -4 1017 73 0 5.7 60 09:36 15.10.2019
5958 Clear -4 1017 73 0 5.7 60 09:36 15.10.2019
5959 Clear -4 1017 73 0 5.7 60 09:18 15.10.2019
5960 Clear -4 1017 68 0 6.2 60 08:41 15.10.2019
5961 Clear -4 1017 68 0 6.2 60 08:21 15.10.2019
5962 -273 0 0 0 0 0 07:55 15.10.2019
5963 Clear -4 1017 73 0 6.7 60 07:36 15.10.2019
5964 Clear -4 1017 73 0 6.7 60 07:36 15.10.2019
5965 Clear -4 1017 73 0 6.7 60 07:18 15.10.2019
5966 Clear -3 1017 63 0 6.2 60 06:43 15.10.2019
5967 Clear -3 1017 63 0 6.2 60 06:22 15.10.2019
5968 Clear -4 1017 68 0 6.2 70 05:37 15.10.2019
5969 Clear -4 1017 68 0 6.2 70 05:19 15.10.2019
5970 Clear -3 1017 68 0 6.2 70 04:23 15.10.2019
5971 Clear -4 1017 68 0 5.1 50 03:36 15.10.2019
5972 Clear -4 1017 68 0 5.1 50 03:36 15.10.2019
5973 Clouds -3 1017 68 10000 5.7 50 02:23 15.10.2019
5974 Clouds -3 1016 63 10000 5.1 60 01:47 15.10.2019
5975 Clouds -3 1016 63 10000 5.1 60 01:19 15.10.2019
5976 Clouds -3 1016 68 10000 5.7 60 00:48 15.10.2019
5977 Clouds -3 1016 68 10000 5.7 60 00:21 15.10.2019
5978 Clouds -3 1016 68 10000 4.6 50 23:43 14.10.2019
5979 Clouds -3 1016 68 10000 4.6 50 23:20 14.10.2019
5980 Clouds -3 1016 63 10000 5.1 60 22:55 14.10.2019
5981 Clouds -3 1016 63 10000 5.1 60 22:37 14.10.2019
5982 Clouds -3 1016 63 10000 5.1 60 22:37 14.10.2019
5983 Clouds -3 1016 63 10000 5.1 60 22:18 14.10.2019
5984 Clouds -2 1016 58 10000 4.6 60 21:41 14.10.2019
5985 Clouds -2 1016 58 10000 4.6 60 21:22 14.10.2019
5986 Clouds -2 1015 58 10000 4.6 60 20:59 14.10.2019
5987 Clouds -1 1015 58 10000 4.6 60 20:40 14.10.2019
5988 Clouds -1 1015 58 10000 4.6 60 20:22 14.10.2019
5989 Clouds -1 1015 43 10000 6.7 30 19:59 14.10.2019
5990 Clouds 0 1015 45 10000 6.7 30 19:41 14.10.2019
5991 Clouds 0 1015 45 10000 6.7 30 19:23 14.10.2019
5992 Clouds 0 1014 43 10000 6.2 30 18:58 14.10.2019
5993 Clouds 0 1014 43 10000 6.2 30 18:58 14.10.2019
5994 Clouds 0 1014 43 10000 6.2 30 18:38 14.10.2019
5995 Clouds 0 1014 39 10000 6.2 30 18:19 14.10.2019
5996 Clear 0 1015 39 10000 3.6 60 17:56 14.10.2019
5997 Clear 0 1015 39 10000 3.6 60 17:37 14.10.2019
5998 Clear 0 1015 39 10000 3.6 60 17:19 14.10.2019
5999 Clear -1 1014 58 10000 6.2 30 16:40 14.10.2019
6000 Clear -1 1014 58 10000 6.2 30 16:21 14.10.2019
6001 Clear -2 1014 63 10000 7.2 30 15:42 14.10.2019
6002 Clear -2 1014 63 10000 7.2 30 15:22 14.10.2019
6003 Clouds -2 1013 63 10000 8.2 20 14:56 14.10.2019
6004 Clouds -2 1013 63 10000 8.2 20 14:56 14.10.2019
6005 Clouds -2 1013 63 10000 8.2 20 14:38 14.10.2019
6006 Clouds -2 1013 63 10000 8.2 20 14:19 14.10.2019
6007 Clouds -3 1013 73 10000 4.6 60 13:44 14.10.2019
6008 Clouds -3 1013 73 10000 4.6 60 13:21 14.10.2019
6009 Clouds -3 1012 73 10000 8.2 30 12:55 14.10.2019
6010 Clouds -3 1012 73 10000 8.2 30 12:37 14.10.2019
6011 Clouds -3 1012 73 10000 8.2 30 12:18 14.10.2019
6012 Clouds -3 1012 73 10000 8.2 30 12:18 14.10.2019
6013 Clouds -3 1012 73 10000 8.2 30 12:18 14.10.2019
6014 Clouds -2 1012 63 10000 8.7 30 11:44 14.10.2019
6015 Clouds -2 1012 63 10000 8.7 30 11:26 14.10.2019
6016 Clouds -3 1011 63 10000 7.2 40 10:57 14.10.2019
6017 Clouds -3 1011 63 10000 7.2 40 10:38 14.10.2019
6018 Clouds -3 1011 63 10000 7.2 40 10:19 14.10.2019
6019 Clear -2 1010 58 0 7.2 30 09:42 14.10.2019
6020 Clear -2 1010 58 0 7.2 30 09:21 14.10.2019
6021 Clear -2 1009 58 0 9.3 20 08:51 14.10.2019
6022 Clear -2 1009 58 0 9.3 20 08:23 14.10.2019
6023 Clear -2 1008 58 0 8.7 30 07:47 14.10.2019
6024 Clear -2 1008 58 0 8.7 30 07:26 14.10.2019
6025 Clear -2 1008 58 0 7.7 30 06:59 14.10.2019
6026 Clear -2 1008 58 0 7.7 30 06:29 14.10.2019
6027 Clear -2 1007 63 0 9.3 10 05:57 14.10.2019
6028 Clear -2 1007 63 0 9.3 10 05:29 14.10.2019
6029 Clear -1 1006 58 0 8.2 360 04:42 14.10.2019
6030 Clear -2 1006 63 0 10.3 10 03:27 14.10.2019
6031 Clear -1 1005 63 0 8.7 10 02:36 14.10.2019
6032 Clear -1 1004 63 0 8.2 20 01:22 14.10.2019
6033 Clear -1 1004 63 0 7.2 20 00:53 14.10.2019
6034 Clear -1 1004 63 0 7.2 20 00:19 14.10.2019
6035 Clear -1 1003 68 0 7.2 30 23:44 13.10.2019
6036 Clear -1 1003 68 0 7.2 30 23:20 13.10.2019
6037 Clouds 0 1002 72 10000 7.2 10 22:58 13.10.2019
6038 Clouds 0 1002 72 10000 7.2 10 22:40 13.10.2019
6039 Clouds 0 1002 72 10000 7.2 10 22:21 13.10.2019
6040 Clouds 0 1002 72 10000 7.2 10 22:21 13.10.2019
6041 Clouds 1 1002 69 10000 5.1 360 21:58 13.10.2019
6042 Clouds 1 1002 69 10000 5.1 360 21:37 13.10.2019
6043 Clouds 1 1002 69 10000 5.1 360 21:19 13.10.2019
6044 Clouds 1 1002 69 10000 5.1 360 21:19 13.10.2019
6045 Clouds 1 1001 74 10000 4.6 30 20:57 13.10.2019
6046 Clouds 1 1001 74 10000 4.6 30 20:38 13.10.2019
6047 Clouds 1 1001 74 10000 4.6 30 20:20 13.10.2019
6048 Clouds 2 1001 69 10000 4.1 10 19:58 13.10.2019
6049 Clouds 2 1001 69 10000 4.1 10 19:39 13.10.2019
6050 Clouds 2 1001 69 10000 4.1 10 19:39 13.10.2019
6051 Clouds 2 1001 69 10000 4.1 10 19:39 13.10.2019
6052 Clouds 2 1001 69 10000 4.1 10 19:21 13.10.2019
6053 Clouds 2 1000 74 10000 4.6 350 18:56 13.10.2019
6054 Clouds 2 1000 74 10000 4.6 350 18:56 13.10.2019
6055 Clouds 2 1000 74 10000 4.6 350 18:37 13.10.2019
6056 Clouds 2 1000 74 10000 4.6 350 18:19 13.10.2019
6057 Clear 0 1000 79 0 4.47 20 17:57 13.10.2019
6058 Clear 0 1000 79 0 4.47 20 17:38 13.10.2019
6059 Clouds 0 1000 79 10000 4.6 20 17:20 13.10.2019
6060 Clouds 0 1000 79 10000 4.6 20 16:41 13.10.2019
6061 Clouds 0 1000 79 10000 4.6 20 16:18 13.10.2019
6062 Rain 0 1000 79 10000 5.1 350 15:57 13.10.2019
6063 Rain 0 1000 79 10000 5.1 350 15:38 13.10.2019
6064 Rain 0 1000 88 10000 5.1 350 15:19 13.10.2019
6065 -273 0 0 0 0 0 14:57 13.10.2019
6066 Clouds 0 1000 88 10000 4.1 360 14:56 13.10.2019
6067 Clouds 0 1000 88 10000 4.1 360 14:38 13.10.2019
6068 Clouds 0 1000 88 10000 4.1 360 14:18 13.10.2019
6069 Rain 0 1000 88 10000 5.1 20 13:41 13.10.2019
6070 Rain 0 1000 89 10000 5.1 20 13:22 13.10.2019
6071 Snow 0 1000 89 10000 5.1 40 12:59 13.10.2019
6072 Snow 0 1000 89 10000 5.1 40 12:39 13.10.2019
6073 Snow 0 1000 94 10000 5.1 40 12:20 13.10.2019
6074 Snow 0 1000 94 0 6.2 50 11:58 13.10.2019
6075 Snow 0 1000 94 0 6.2 50 11:39 13.10.2019
6076 Snow 0 1000 94 0 6.2 50 11:20 13.10.2019
6077 Snow 0 1000 94 0 5.7 50 10:56 13.10.2019
6078 Snow 0 1000 94 0 5.7 50 10:38 13.10.2019
6079 Snow 0 1000 94 0 5.7 50 10:20 13.10.2019
6080 Snow 0 1000 94 0 5.7 60 09:39 13.10.2019
6081 Snow 0 1000 95 0 5.7 60 09:21 13.10.2019
6082 Snow 0 1000 95 0 6.2 80 08:44 13.10.2019
6083 Snow 0 1000 95 0 6.2 80 08:26 13.10.2019
6084 Snow 0 1001 95 0 3.1 60 07:52 13.10.2019
6085 Snow 0 1001 95 0 3.1 60 07:33 13.10.2019
6086 -273 0 0 0 0 0 06:54 13.10.2019
6087 Snow 0 1002 95 0 3.1 50 06:54 13.10.2019
6088 Snow 0 1002 98 0 3.1 50 06:24 13.10.2019
6089 Snow 0 1002 95 0 3.1 50 06:24 13.10.2019
6090 Snow 0 1004 98 0 2.1 0 05:27 13.10.2019
6091 Snow 0 1004 98 0 2.1 0 05:27 13.10.2019
6092 Snow 0 1005 98 0 4.1 160 04:35 13.10.2019
6093 Snow 0 1006 98 0 1.5 0 03:34 13.10.2019
6094 Snow 1 1007 86 3500 5.1 170 02:32 13.10.2019
6095 Snow 0 1009 98 3000 3.1 180 01:37 13.10.2019
6096 Snow 0 1009 98 3000 3.1 180 01:18 13.10.2019
6097 Snow 0 1010 98 1500 4.6 190 00:42 13.10.2019
6098 Snow 0 1010 98 1500 4.6 190 00:42 13.10.2019
6099 Snow 0 1010 98 1500 4.6 190 00:19 13.10.2019
6100 Snow 0 1011 98 1200 5.1 190 23:42 12.10.2019
6101 Snow 0 1011 98 1200 5.1 190 23:23 12.10.2019
6102 Snow 0 1012 98 2000 5.1 180 22:59 12.10.2019
6103 Snow 0 1012 98 2000 5.1 180 22:40 12.10.2019
6104 Snow 0 1012 98 2000 5.1 180 22:22 12.10.2019
6105 Snow 1 1013 98 5000 4.6 180 21:59 12.10.2019
6106 Snow 1 1013 98 5000 4.6 180 21:40 12.10.2019
6107 Snow 1 1013 93 5000 4.6 180 21:22 12.10.2019
6108 Clouds 2 1013 94 10000 5.1 180 20:56 12.10.2019
6109 Clouds 2 1013 94 10000 5.1 180 20:37 12.10.2019
6110 Clouds 2 1013 94 10000 5.1 180 20:19 12.10.2019
6111 Rain 1 1014 94 10000 4.1 190 19:36 12.10.2019
6112 Rain 1 1014 94 10000 4.1 190 19:18 12.10.2019
6113 Clouds 1 1015 94 10000 3.6 180 18:44 12.10.2019
6114 Clouds 1 1015 94 10000 3.6 180 18:26 12.10.2019
6115 Rain 2 1016 92 10000 3.6 180 17:56 12.10.2019
6116 Rain 2 1016 92 10000 3.6 180 17:55 12.10.2019
6117 Rain 2 1016 92 10000 3.6 180 17:37 12.10.2019
6118 Rain 2 1016 92 10000 3.6 180 17:18 12.10.2019
6119 Rain 1 1016 92 10000 4.1 190 16:40 12.10.2019
6120 Rain 1 1016 92 10000 4.1 190 16:21 12.10.2019
6121 Rain 1 1017 86 10000 5.1 180 15:57 12.10.2019
6122 Rain 1 1017 86 10000 5.1 180 15:38 12.10.2019
6123 Rain 1 1017 86 10000 5.1 180 15:19 12.10.2019
6124 Rain 1 1017 97 10000 5.1 170 14:41 12.10.2019
6125 Rain 1 1017 97 10000 5.1 170 14:21 12.10.2019
6126 Rain 1 1017 97 10000 5.1 170 14:21 12.10.2019
6127 Rain 1 1017 97 10000 4.1 190 13:52 12.10.2019
6128 Rain 1 1017 97 10000 4.1 190 13:33 12.10.2019
6129 Rain 1 1017 86 10000 3.1 170 12:59 12.10.2019
6130 Rain 1 1017 86 10000 3.1 170 12:38 12.10.2019
6131 Rain 1 1017 86 10000 3.1 170 12:20 12.10.2019
6132 Snow 1 1017 86 5000 3.1 170 11:47 12.10.2019
6133 Clouds 1 1017 86 0 3.1 170 11:26 12.10.2019
6134 Clouds 1 1018 86 0 2.1 180 10:59 12.10.2019
6135 Clouds 1 1018 86 0 2.1 180 10:40 12.10.2019
6136 Clouds 1 1018 86 0 2.1 180 10:22 12.10.2019
6137 Clouds 1 1017 81 0 2.6 190 09:57 12.10.2019
6138 Clouds 1 1017 81 0 2.6 190 09:39 12.10.2019
6139 Clouds 1 1017 87 0 2.6 190 09:20 12.10.2019
6140 Clouds 1 1017 86 0 3.1 160 08:55 12.10.2019
6141 Clouds 1 1017 86 0 3.1 160 08:36 12.10.2019
6142 Clouds 1 1017 86 0 3.1 160 08:18 12.10.2019
6143 Clouds 1 1017 86 0 2.6 160 07:33 12.10.2019
6144 Clouds 1 1017 89 0 2.1 230 06:44 12.10.2019
6145 Clouds 1 1017 85 0 2.6 180 05:46 12.10.2019
6146 Clouds 1 1018 85 0 2.6 190 04:47 12.10.2019
6147 Snow 1 1018 85 0 4.1 210 03:57 12.10.2019
6148 Clouds 1 1017 87 0 3.1 170 02:57 12.10.2019
6149 Clouds 1 1017 86 0 2.1 180 01:36 12.10.2019
6150 Rain 2 1017 93 0 2.1 220 00:59 12.10.2019
6151 Rain 2 1017 93 0 2.1 220 00:39 12.10.2019
6152 Clouds 2 1017 93 10000 0.5 190 23:57 11.10.2019
6153 Clouds 2 1017 93 10000 0.5 190 23:38 11.10.2019
6154 Clouds 2 1017 93 10000 0.5 190 23:19 11.10.2019
6155 Clouds 2 1017 100 10000 2.6 200 22:40 11.10.2019
6156 Clouds 3 1017 100 10000 2.6 200 22:21 11.10.2019
6157 Rain 3 1016 100 10000 4.6 200 21:56 11.10.2019
6158 Rain 2 1016 100 10000 4.6 200 21:38 11.10.2019
6159 Rain 2 1016 100 10000 4.6 200 21:19 11.10.2019
6160 Rain 3 1016 93 10000 3.1 190 20:44 11.10.2019
6161 Rain 3 1016 93 10000 3.1 190 20:25 11.10.2019
6162 Clouds 3 1016 93 10000 3.6 170 19:56 11.10.2019
6163 Clouds 3 1016 93 10000 3.6 170 19:38 11.10.2019
6164 Clouds 3 1016 93 10000 3.6 170 19:18 11.10.2019
6165 Rain 3 1016 100 10000 4.6 180 18:58 11.10.2019
6166 Rain 3 1016 100 10000 4.6 180 18:38 11.10.2019
6167 Rain 3 1016 100 10000 4.6 180 18:38 11.10.2019
6168 Rain 3 1016 100 10000 4.6 180 18:19 11.10.2019
6169 Clouds 3 1016 100 10000 6.2 190 17:58 11.10.2019
6170 Clouds 3 1016 100 10000 6.2 190 17:37 11.10.2019
6171 Clouds 3 1016 100 10000 6.2 190 17:19 11.10.2019
6172 Clouds 2 1015 100 10000 7.7 190 16:55 11.10.2019
6173 Clouds 2 1015 100 10000 7.7 190 16:37 11.10.2019
6174 Clouds 2 1015 100 10000 7.7 190 16:18 11.10.2019
6175 Clouds 2 1015 100 10000 7.7 190 16:18 11.10.2019
6176 Clouds 2 1014 100 10000 9.8 180 15:41 11.10.2019
6177 Clouds 2 1014 100 10000 9.8 180 15:19 11.10.2019
6178 Clouds 2 1014 100 3000 11.3 180 14:58 11.10.2019
6179 Clouds 2 1014 100 3000 11.3 180 14:37 11.10.2019
6180 Clouds 2 1014 100 3000 11.3 180 14:19 11.10.2019
6181 Rain 2 1013 100 2500 14.9 160 13:43 11.10.2019
6182 Rain 2 1013 100 2500 14.9 160 13:24 11.10.2019
6183 Snow 2 1011 93 2500 17 170 12:56 11.10.2019
6184 Snow 2 1011 93 2500 17 170 12:38 11.10.2019
6185 Snow 2 1011 93 2500 17 170 12:20 11.10.2019
6186 Clouds 2 1010 93 3000 18.5 160 11:56 11.10.2019
6187 Clouds 2 1010 93 3000 18.5 160 11:38 11.10.2019
6188 Clouds 2 1010 93 3000 18.5 160 11:20 11.10.2019
6189 Clouds 2 1012 93 3000 17 170 10:42 11.10.2019
6190 Clouds 2 1012 93 3000 17 170 10:23 11.10.2019
6191 Snow 2 1013 97 0 12.3 160 09:59 11.10.2019
6192 Snow 2 1013 98 0 12.3 160 09:40 11.10.2019
6193 Snow 2 1013 98 0 12.3 160 09:20 11.10.2019
6194 Snow 2 1015 80 0 10.8 170 08:56 11.10.2019
6195 Snow 2 1015 80 0 10.8 170 08:37 11.10.2019
6196 Snow 2 1015 80 0 10.8 170 08:19 11.10.2019
6197 Clouds 3 1016 69 0 6.7 0 07:51 11.10.2019
6198 Clouds 3 1016 69 0 6.7 0 07:33 11.10.2019
6199 Clouds 1 1015 74 0 0.5 280 06:49 11.10.2019
6200 Clouds 1 1015 74 0 0.5 280 06:24 11.10.2019
6201 Clouds 1 1016 80 0 1 0 05:46 11.10.2019
6202 Clouds 1 1016 80 0 1 0 05:27 11.10.2019
6203 Clouds 1 1017 80 0 2.1 160 04:47 11.10.2019
6204 Clouds 1 1017 69 10000 4.6 70 02:59 11.10.2019
6205 Clouds 0 1017 66 10000 3.1 50 00:54 11.10.2019
6206 Clouds 0 1017 66 10000 3.1 50 00:31 11.10.2019
6207 Clouds 1 1018 74 10000 3.1 30 23:57 10.10.2019
6208 Clouds 1 1018 74 10000 3.1 30 23:38 10.10.2019
6209 Clouds 1 1018 74 10000 3.1 30 23:18 10.10.2019
6210 Clouds 1 1018 74 10000 2.6 50 22:54 10.10.2019
6211 Clouds 1 1018 74 10000 2.6 50 22:36 10.10.2019
6212 Clouds 1 1018 74 10000 2.6 50 22:18 10.10.2019
6213 Clouds 3 1018 69 10000 3.6 50 21:42 10.10.2019
6214 Clouds 3 1018 69 10000 3.6 50 21:22 10.10.2019
6215 Clouds 3 1018 60 10000 3.6 40 20:58 10.10.2019
6216 Clouds 4 1018 60 10000 3.6 40 20:39 10.10.2019
6217 Clouds 4 1018 60 10000 3.6 40 20:19 10.10.2019
6218 Clouds 3 1018 74 10000 3.1 20 19:56 10.10.2019
6219 Clouds 3 1018 74 10000 3.1 20 19:38 10.10.2019
6220 Clouds 3 1018 74 10000 3.1 20 19:19 10.10.2019
6221 Clouds 2 1018 80 10000 5.1 50 18:42 10.10.2019
6222 Clouds 2 1018 80 10000 5.1 50 18:21 10.10.2019
6223 Clouds 2 1017 69 10000 5.1 60 17:59 10.10.2019
6224 Clouds 2 1017 69 10000 5.1 60 17:40 10.10.2019
6225 Clouds 2 1017 69 10000 5.1 60 17:18 10.10.2019
6226 Clouds 1 1018 86 10000 4.1 50 16:56 10.10.2019
6227 Clouds 1 1018 86 10000 4.1 50 16:56 10.10.2019
6228 Clouds 1 1018 86 10000 4.1 50 16:37 10.10.2019
6229 Clouds 1 1018 86 10000 4.1 50 16:19 10.10.2019
6230 Clouds 1 1018 86 10000 2.6 40 15:42 10.10.2019
6231 Clouds 1 1018 86 10000 2.6 40 15:23 10.10.2019
6232 Clouds 0 1018 59 10000 2.1 30 14:59 10.10.2019
6233 Clouds 0 1018 59 10000 2.1 30 14:37 10.10.2019
6234 Clouds 0 1018 59 10000 2.1 30 14:19 10.10.2019
6235 Clouds 1 1018 86 10000 2.6 60 13:58 10.10.2019
6236 Clouds 1 1018 86 10000 2.6 60 13:39 10.10.2019
6237 Clouds 1 1018 86 10000 2.6 60 13:18 10.10.2019
6238 Clouds 0 1018 60 10000 2.1 50 12:43 10.10.2019
6239 Clouds 0 1018 62 10000 2.1 50 12:21 10.10.2019
6240 Clouds 1 1018 86 10000 2.6 60 11:58 10.10.2019
6241 Clouds 1 1018 86 10000 2.6 60 11:40 10.10.2019
6242 Clouds 1 1018 86 10000 2.6 60 11:20 10.10.2019
6243 Clouds 1 1018 86 0 3.1 60 10:58 10.10.2019
6244 Clouds 1 1018 86 0 3.1 60 10:40 10.10.2019
6245 Clouds 1 1018 86 0 3.1 60 10:21 10.10.2019
6246 Clouds 1 1018 86 0 3.1 50 09:41 10.10.2019
6247 Clear 1 1018 86 0 3.1 50 09:23 10.10.2019
6248 Clear 1 1018 80 0 2.6 50 08:59 10.10.2019
6249 Clear 1 1018 80 0 2.6 50 08:41 10.10.2019
6250 Clear 1 1018 80 0 2.6 50 08:21 10.10.2019
6251 Clear 0 1018 61 0 2.6 30 07:58 10.10.2019
6252 Clear 1 1018 61 0 2.6 30 07:37 10.10.2019
6253 Clear 1 1018 61 0 2.6 30 07:19 10.10.2019
6254 Clear 2 1017 59 0 2.6 50 06:40 10.10.2019
6255 Clear 1 1017 64 0 2.6 40 05:57 10.10.2019
6256 Clear 1 1017 64 0 2.6 40 05:22 10.10.2019
6257 Clear 1 1017 64 0 2.6 40 05:22 10.10.2019
6258 Clear 1 1017 69 0 2.1 20 04:36 10.10.2019
6259 Clear 1 1017 80 0 3.1 360 02:49 10.10.2019
6260 Clear 3 1017 59 0 2.6 50 01:41 10.10.2019
6261 Clear 3 1017 59 0 2.6 50 01:41 10.10.2019
6262 Clear 3 1017 59 0 2.6 50 01:22 10.10.2019
6263 Clouds 4 1016 60 10000 2.1 50 00:41 10.10.2019
6264 Clouds 4 1016 60 10000 2.1 50 00:19 10.10.2019
6265 Clouds 4 1016 60 10000 2.1 40 23:39 09.10.2019
6266 Clouds 4 1016 60 10000 2.1 40 23:19 09.10.2019
6267 Clouds 5 1016 56 10000 1.5 60 22:42 09.10.2019
6268 Clouds 5 1016 56 10000 1.5 60 22:24 09.10.2019
6269 Clouds 5 1015 52 10000 1.5 40 21:59 09.10.2019
6270 Clouds 5 1015 52 10000 1.5 40 21:39 09.10.2019
6271 Clouds 5 1015 52 10000 1.5 40 21:20 09.10.2019
6272 Clouds 7 1014 45 10000 2.6 60 20:56 09.10.2019
6273 Clouds 7 1014 45 10000 2.6 60 20:37 09.10.2019
6274 Clouds 7 1014 45 10000 2.6 60 20:18 09.10.2019
6275 Clouds 7 1014 45 10000 2.6 60 20:18 09.10.2019
6276 Clouds 6 1014 48 10000 2.1 20 19:45 09.10.2019
6277 Clouds 6 1014 48 10000 2.1 20 19:24 09.10.2019
6278 Clouds 4 1013 74 10000 2.6 40 18:58 09.10.2019
6279 Clouds 3 1013 74 10000 2.6 40 18:38 09.10.2019
6280 Clouds 3 1013 74 10000 2.6 40 18:18 09.10.2019
6281 Clouds 4 1013 60 10000 3.1 40 17:56 09.10.2019
6282 Clouds 4 1013 60 10000 3.1 40 17:37 09.10.2019
6283 Clouds 4 1013 60 10000 3.1 40 17:18 09.10.2019
6284 Clouds 3 1012 74 10000 3.6 30 16:42 09.10.2019
6285 Clouds 3 1012 74 10000 3.6 30 16:23 09.10.2019
6286 Clouds 2 1012 80 10000 1.5 20 15:58 09.10.2019
6287 Clouds 2 1012 80 10000 1.5 20 15:39 09.10.2019
6288 Clouds 2 1012 80 10000 1.5 20 15:20 09.10.2019
6289 Clouds 2 1011 74 10000 2.48 70.47 14:59 09.10.2019
6290 Clouds 2 1011 74 10000 2.48 70.47 14:41 09.10.2019
6291 Clouds 2 1011 74 10000 2.48 70.47 14:18 09.10.2019
6292 Clouds 1 1010 86 10000 4.6 40 13:40 09.10.2019
6293 Clouds 1 1010 86 10000 4.6 40 13:22 09.10.2019
6294 Clouds 1 1009 86 10000 2.1 50 12:59 09.10.2019
6295 Clouds 1 1009 86 10000 2.1 50 12:59 09.10.2019
6296 Clouds 1 1009 86 10000 2.1 50 12:41 09.10.2019
6297 Clouds 1 1009 86 10000 2.1 50 12:22 09.10.2019
6298 Clouds 1 1009 86 10000 2.1 50 12:22 09.10.2019
6299 -273 0 0 0 0 0 11:56 09.10.2019
6300 Clouds 1 1008 86 10000 5.1 50 11:37 09.10.2019
6301 Clouds 1 1008 86 10000 5.1 50 11:37 09.10.2019
6302 Clouds 1 1008 86 10000 5.1 50 11:19 09.10.2019
6303 Clouds 2 1007 74 10000 0.5 0 10:44 09.10.2019
6304 Clouds 2 1007 74 10000 0.5 0 10:22 09.10.2019
6305 Clear 1 1007 80 0 1.5 80 09:59 09.10.2019
6306 Clear 1 1007 80 0 1.5 80 09:41 09.10.2019
6307 Clear 1 1007 80 0 1.5 80 09:19 09.10.2019
6308 Clear 1 1006 74 0 1.5 90 08:55 09.10.2019
6309 Clear 1 1006 74 0 1.5 90 08:37 09.10.2019
6310 Clear 1 1006 74 0 1.5 90 08:18 09.10.2019
6311 Clear 1 1005 80 0 1.5 100 07:42 09.10.2019
6312 Clear 1 1005 80 0 1.5 100 07:22 09.10.2019
6313 Clear 2 1005 69 0 1 0 06:52 09.10.2019
6314 Clear 2 1005 69 0 1 0 06:20 09.10.2019
6315 Clear 2 1005 69 0 1 0 06:20 09.10.2019
6316 Clear 1 1004 69 0 2.2 82.512 05:46 09.10.2019
6317 Clear 1 1003 80 0 1 190 04:27 09.10.2019
6318 Clouds 1 1002 69 10000 1.52 96.452 02:54 09.10.2019
6319 Clouds 2 1001 64 10000 0.5 0 01:44 09.10.2019
6320 Clouds 2 1001 64 10000 0.5 0 01:21 09.10.2019
6321 Clouds 2 1001 64 10000 0.5 0 01:21 09.10.2019
6322 Clouds 2 1001 64 10000 0.5 0 01:21 09.10.2019
6323 Clouds 2 1001 69 10000 2.1 70 00:58 09.10.2019
6324 Clouds 2 1001 69 10000 2.1 70 00:40 09.10.2019
6325 Clouds 2 1001 69 10000 2.1 70 00:21 09.10.2019
6326 Clouds 2 1000 69 10000 0.5 190 23:57 08.10.2019
6327 Clouds 2 1000 69 10000 0.5 190 23:36 08.10.2019
6328 Clouds 2 1000 69 10000 0.5 190 23:18 08.10.2019
6329 Clouds 3 1000 69 10000 2.6 40 22:39 08.10.2019
6330 Clouds 3 1000 69 10000 2.6 40 22:20 08.10.2019
6331 Clouds 3 1000 69 10000 2.6 40 22:20 08.10.2019
6332 Clouds 3 1000 69 10000 2.6 40 22:20 08.10.2019
6333 Clouds 4 999 64 10000 1.5 350 21:58 08.10.2019
6334 Clouds 4 999 64 10000 1.5 350 21:39 08.10.2019
6335 Clouds 4 999 64 10000 1.5 350 21:19 08.10.2019
6336 Clouds 5 999 54 10000 2.1 210 20:57 08.10.2019
6337 Clouds 5 999 54 10000 2.1 210 20:57 08.10.2019
6338 Clouds 5 999 54 10000 2.1 210 20:57 08.10.2019
6339 Clouds 5 999 53 10000 2.1 210 20:39 08.10.2019
6340 Clouds 5 999 53 10000 2.1 210 20:21 08.10.2019
6341 Clouds 5 998 60 10000 2.1 210 19:58 08.10.2019
6342 Clouds 5 998 60 10000 2.1 210 19:40 08.10.2019
6343 Clouds 5 998 60 10000 2.1 210 19:22 08.10.2019
6344 Clouds 4 998 64 10000 2.1 200 18:55 08.10.2019
6345 Clouds 4 998 64 10000 2.1 200 18:55 08.10.2019
6346 Clouds 4 998 64 10000 2.1 200 18:36 08.10.2019
6347 Clouds 4 998 64 10000 2.1 200 18:18 08.10.2019
6348 Clouds 3 998 74 10000 1.5 10 17:40 08.10.2019
6349 Clouds 3 998 74 10000 1.5 10 17:21 08.10.2019
6350 Clouds 3 998 74 10000 1 200 16:59 08.10.2019
6351 Clouds 3 998 74 10000 1 200 16:40 08.10.2019
6352 Clouds 3 998 74 10000 1 200 16:21 08.10.2019
6353 Clear 2 998 80 10000 1.32 57.09 15:41 08.10.2019
6354 Clear 2 998 80 10000 2.25 40.148 15:22 08.10.2019
6355 Clear 2 998 80 10000 2.25 40.148 15:22 08.10.2019
6356 Clear 1 997 52 10000 2.1 50 14:58 08.10.2019
6357 Clear 0 997 52 10000 2.1 50 14:39 08.10.2019
6358 Clear 0 997 52 10000 2.1 50 14:21 08.10.2019
6359 Clouds 0 997 52 10000 2.6 50 13:57 08.10.2019
6360 Clouds 0 997 52 10000 2.6 50 13:38 08.10.2019
6361 Clouds 0 997 52 10000 2.6 50 13:19 08.10.2019
6362 Clouds 0 997 53 10000 4.1 50 12:58 08.10.2019
6363 Clouds 0 997 53 10000 4.1 50 12:38 08.10.2019
6364 Clouds 0 997 52 10000 4.1 50 12:18 08.10.2019
6365 Clear 0 997 52 0 1 130 11:42 08.10.2019
6366 Clear 0 997 52 0 1 130 11:24 08.10.2019
6367 Clear 0 997 52 0 1 130 11:24 08.10.2019
6368 Clear 1 998 74 0 1 0 10:58 08.10.2019
6369 Clear 1 998 74 0 1 0 10:38 08.10.2019
6370 Clear 1 998 74 0 1 0 10:19 08.10.2019
6371 Clear 1 998 80 0 4.1 50 09:56 08.10.2019
6372 Clear 1 998 80 0 4.1 50 09:37 08.10.2019
6373 Clouds 1 998 80 0 4.1 50 09:19 08.10.2019
6374 Clouds 0 998 54 0 5.1 50 08:42 08.10.2019
6375 Clouds 0 998 54 0 5.1 50 08:23 08.10.2019
6376 Clouds 0 998 54 0 5.1 50 07:45 08.10.2019
6377 Clouds 0 998 54 0 5.1 50 07:21 08.10.2019
6378 Clouds 1 999 80 0 2.1 70 06:56 08.10.2019
6379 Clouds 1 999 80 0 2.1 70 06:32 08.10.2019
6380 Clouds 1 999 74 0 1.5 60 05:55 08.10.2019
6381 Clouds 1 999 74 0 1.5 60 05:36 08.10.2019
6382 Clouds 0 1000 60 0 1.43 72.438 04:33 08.10.2019
6383 Clouds 1 1000 74 0 1 0 03:29 08.10.2019
6384 Clouds 1 1000 74 0 0.5 130 02:39 08.10.2019
6385 Clouds 1 1000 80 0 2.1 60 01:49 08.10.2019
6386 Clouds 1 1000 80 0 2.1 60 01:31 08.10.2019
6387 Clouds 1 1000 74 0 1.5 0 00:50 08.10.2019
6388 Clouds 1 1000 74 0 1.5 0 00:21 08.10.2019
6389 Clouds 2 1001 64 10000 2.6 60 23:41 07.10.2019
6390 Clouds 2 1001 64 10000 2.6 60 23:20 07.10.2019
6391 Clouds 2 1001 64 10000 2.6 60 23:20 07.10.2019
6392 Clouds 2 1001 64 10000 1.5 50 22:58 07.10.2019
6393 Clouds 2 1001 64 10000 1.5 50 22:40 07.10.2019
6394 Clouds 2 1001 64 10000 1.5 50 22:20 07.10.2019
6395 Clouds 3 1002 64 10000 0.5 310 21:57 07.10.2019
6396 Clouds 3 1002 64 10000 0.5 310 21:39 07.10.2019
6397 Clouds 3 1002 64 10000 0.5 310 21:20 07.10.2019
6398 Clouds 3 1002 69 10000 3.1 40 20:58 07.10.2019
6399 Clouds 3 1002 69 10000 3.1 40 20:39 07.10.2019
6400 Clouds 3 1002 69 10000 3.1 40 20:20 07.10.2019
6401 Clouds 4 1002 64 10000 2.6 30 19:58 07.10.2019
6402 Clouds 4 1002 64 10000 2.6 30 19:40 07.10.2019
6403 Clouds 4 1002 64 10000 2.6 30 19:19 07.10.2019
6404 Clouds 4 1002 60 10000 1.5 0 18:58 07.10.2019
6405 Clouds 4 1002 60 10000 1.5 0 18:38 07.10.2019
6406 Clouds 4 1002 60 10000 1.5 0 18:18 07.10.2019
6407 Clouds 3 1002 64 10000 2.6 50 17:43 07.10.2019
6408 Clouds 3 1002 64 10000 2.6 50 17:43 07.10.2019
6409 Clouds 3 1002 64 10000 2.6 50 17:23 07.10.2019
6410 Clouds 3 1003 60 10000 0.5 0 16:58 07.10.2019
6411 Clouds 3 1003 60 10000 0.5 0 16:58 07.10.2019
6412 Clouds 4 1003 60 10000 0.5 0 16:39 07.10.2019
6413 Clouds 4 1003 60 10000 0.5 0 16:20 07.10.2019
6414 Clouds 2 1003 64 10000 1.5 280 15:45 07.10.2019
6415 Clouds 2 1003 64 10000 1.5 280 15:26 07.10.2019
6416 Clouds 2 1003 64 10000 1.5 280 15:26 07.10.2019
6417 Clouds 2 1003 64 10000 1.5 280 15:26 07.10.2019
6418 Clouds 1 1002 69 10000 6.2 70 14:58 07.10.2019
6419 Clouds 1 1002 69 10000 6.2 70 14:40 07.10.2019
6420 Clouds 1 1002 69 10000 6.2 70 14:21 07.10.2019
6421 Clouds 1 1002 69 10000 7.7 70 13:43 07.10.2019
6422 Clouds 1 1002 69 10000 7.7 70 13:21 07.10.2019
6423 Clouds 1 1003 69 10000 6.7 70 12:57 07.10.2019
6424 Clouds 1 1003 69 10000 6.7 70 12:39 07.10.2019
6425 Clouds 1 1003 69 10000 6.7 70 12:19 07.10.2019
6426 Clouds 0 1003 62 10000 5.7 70 11:58 07.10.2019
6427 Clouds 0 1003 62 10000 5.7 70 11:38 07.10.2019
6428 Clouds 0 1003 62 10000 5.7 70 11:20 07.10.2019
6429 Clouds 1 1003 69 10000 4.1 60 10:42 07.10.2019
6430 Clouds 1 1003 69 10000 4.1 60 10:21 07.10.2019
6431 Clouds 1 1003 80 0 3.6 40 09:55 07.10.2019
6432 -273 0 0 0 0 0 09:54 07.10.2019
6433 Clouds 1 1003 80 0 3.6 40 09:36 07.10.2019
6434 Clear 1 1003 80 0 3.6 40 09:18 07.10.2019
6435 Clear 0 1003 67 0 3.1 30 08:41 07.10.2019
6436 Clear 0 1003 67 0 3.1 30 08:20 07.10.2019
6437 Clear 1 1002 69 0 4.6 60 07:46 07.10.2019
6438 Clear 1 1002 69 0 4.6 60 07:27 07.10.2019
6439 Clear 0 1002 67 0 3.6 50 06:56 07.10.2019
6440 Clear 0 1002 67 0 3.6 50 06:37 07.10.2019
6441 Clear 0 1002 77 0 2.6 50 05:54 07.10.2019
6442 Clear 0 1002 77 0 2.6 50 05:25 07.10.2019
6443 Clear 0 1002 77 0 2.6 30 04:47 07.10.2019
6444 Fog 0 1002 77 10000 3.1 50 03:45 07.10.2019
6445 Fog 0 1002 77 10000 3.1 50 03:45 07.10.2019
6446 Fog 0 1002 85 10000 3.1 50 03:23 07.10.2019
6447 Clouds 1 1002 86 10000 2.6 30 02:23 07.10.2019
6448 Clouds 1 1002 86 10000 2.6 30 02:23 07.10.2019
6449 Clouds 1 1002 86 10000 2.1 40 01:58 07.10.2019
6450 Clouds 1 1002 86 10000 2.1 40 01:23 07.10.2019
6451 Clouds 1 1002 86 10000 3.6 30 00:45 07.10.2019
6452 Clouds 1 1002 86 10000 3.6 30 00:23 07.10.2019
6453 Clear 2 1002 82 0 2.6 60 23:59 06.10.2019
6454 Clear 2 1002 82 0 2.6 60 23:39 06.10.2019
6455 Clear 2 1002 82 0 2.6 60 23:18 06.10.2019
6456 Clear 3 1001 82 0 4.6 340 22:55 06.10.2019
6457 Clear 3 1001 82 0 4.6 340 22:55 06.10.2019
6458 Clear 3 1001 82 0 4.6 340 22:37 06.10.2019
6459 Clear 3 1001 82 0 4.6 340 22:18 06.10.2019
6460 Clouds 4 1001 69 10000 5.7 330 21:55 06.10.2019
6461 Clouds 4 1001 69 10000 5.7 330 21:36 06.10.2019
6462 Clouds 4 1001 69 10000 5.7 330 21:18 06.10.2019
6463 Clouds 4 1000 64 10000 3.6 350 20:54 06.10.2019
6464 Clouds 4 1000 64 10000 3.6 350 20:36 06.10.2019
6465 Clouds 4 1000 64 10000 3.6 350 20:36 06.10.2019
6466 Clouds 4 1000 64 10000 3.6 350 20:18 06.10.2019
6467 Clouds 4 1000 64 10000 4.1 360 19:55 06.10.2019
6468 Clouds 4 1000 64 10000 4.1 360 19:36 06.10.2019
6469 Clouds 4 1000 64 10000 4.1 360 19:18 06.10.2019
6470 Clouds 3 999 69 10000 5.7 30 18:55 06.10.2019
6471 Clouds 3 999 69 10000 5.7 30 18:55 06.10.2019
6472 Clouds 3 999 69 10000 5.7 30 18:36 06.10.2019
6473 Clouds 3 999 69 10000 5.7 30 18:18 06.10.2019
6474 Clouds 3 999 69 10000 5.7 30 18:18 06.10.2019
6475 Clouds 2 999 69 10000 5.7 10 17:42 06.10.2019
6476 Clouds 2 999 69 10000 5.7 10 17:20 06.10.2019
6477 Clouds 2 998 74 10000 5.1 10 16:55 06.10.2019
6478 Clouds 2 998 74 10000 5.1 10 16:55 06.10.2019
6479 Clouds 2 998 74 10000 5.1 10 16:37 06.10.2019
6480 Clouds 2 998 74 10000 5.1 10 16:18 06.10.2019
6481 Snow 2 997 80 10000 5.1 350 15:42 06.10.2019
6482 Snow 2 997 80 10000 5.1 350 15:42 06.10.2019
6483 Snow 2 997 80 10000 5.1 350 15:21 06.10.2019
6484 Rain 1 997 75 10000 4.1 360 14:44 06.10.2019
6485 Rain 1 997 75 10000 4.1 360 14:26 06.10.2019
6486 Snow 0 996 75 6000 7.2 340 13:59 06.10.2019
6487 Snow 0 996 75 6000 7.2 340 13:40 06.10.2019
6488 Snow 0 996 75 6000 7.2 340 13:22 06.10.2019
6489 Rain 2 996 80 10000 7.7 330 12:58 06.10.2019
6490 Rain 2 996 80 10000 7.7 330 12:40 06.10.2019
6491 Rain 2 996 80 10000 7.7 330 12:21 06.10.2019
6492 Fog 1 997 64 10000 3.1 10 11:59 06.10.2019
6493 Fog 1 997 64 10000 3.1 10 11:40 06.10.2019
6494 Fog 1 997 64 10000 3.1 10 11:21 06.10.2019
6495 Clouds 1 996 64 0 5.7 330 10:55 06.10.2019
6496 Clouds 1 996 64 0 5.7 330 10:37 06.10.2019
6497 Clouds 1 996 64 0 5.7 330 10:19 06.10.2019
6498 Clouds 1 996 80 0 3.6 360 09:41 06.10.2019
6499 Clouds 1 996 80 0 3.6 360 09:19 06.10.2019
6500 Snow 1 995 86 0 3.6 350 08:48 06.10.2019
6501 Snow 1 995 86 0 3.6 350 08:21 06.10.2019
6502 Clouds 1 994 74 0 3.1 30 07:57 06.10.2019
6503 Clouds 1 994 74 0 3.1 30 07:39 06.10.2019
6504 Clouds 1 994 74 0 3.6 350 06:49 06.10.2019
6505 Clouds 2 993 69 0 6.7 340 05:40 06.10.2019
6506 Clouds 2 993 69 0 7.2 350 04:32 06.10.2019
6507 Clouds 3 991 78 0 9.8 340 02:52 06.10.2019
6508 Clouds 3 991 78 0 9.8 340 02:29 06.10.2019
6509 Clouds 3 990 86 0 6.2 340 01:46 06.10.2019
6510 Clouds 3 990 86 0 6.2 340 01:28 06.10.2019
6511 Clouds 3 989 86 10000 6.2 350 00:59 06.10.2019
6512 Clouds 3 989 86 10000 6.2 350 00:31 06.10.2019
6513 Clouds 3 988 93 10000 7.2 340 23:54 05.10.2019
6514 Clouds 3 988 93 10000 7.2 340 23:36 05.10.2019
6515 Clouds 3 988 93 10000 7.2 340 23:18 05.10.2019
6516 Clouds 4 987 86 10000 6.7 340 22:54 05.10.2019
6517 -273 0 0 0 0 0 22:54 05.10.2019
6518 Clouds 4 987 86 10000 6.7 340 22:36 05.10.2019
6519 Clouds 4 987 86 10000 6.7 340 22:18 05.10.2019
6520 Clouds 5 985 86 10000 5.1 340 21:40 05.10.2019
6521 Clouds 5 985 86 10000 5.1 340 21:21 05.10.2019
6522 Fog 7 984 75 10000 3.6 320 20:57 05.10.2019
6523 Fog 7 984 75 10000 3.6 320 20:39 05.10.2019
6524 Fog 7 984 75 10000 3.6 320 20:19 05.10.2019
6525 Clouds 9 983 66 10000 4.1 290 19:41 05.10.2019
6526 Clouds 9 983 66 10000 4.1 290 19:22 05.10.2019
6527 Clouds 9 982 61 10000 2.6 20 18:58 05.10.2019
6528 Clouds 9 982 61 10000 2.6 20 18:39 05.10.2019
6529 Clouds 9 982 61 10000 2.6 20 18:21 05.10.2019
6530 Clouds 10 981 46 10000 2.6 20 17:59 05.10.2019
6531 Clouds 10 981 46 10000 2.6 20 17:40 05.10.2019
6532 Clouds 10 981 46 10000 2.6 20 17:20 05.10.2019
6533 Clouds 9 981 45 10000 3.6 50 16:42 05.10.2019
6534 Clouds 9 981 45 10000 3.6 50 16:23 05.10.2019
6535 Clouds 9 981 42 10000 3.6 360 15:59 05.10.2019
6536 Clouds 9 981 42 10000 3.6 360 15:40 05.10.2019
6537 Clouds 9 981 42 10000 3.6 360 15:21 05.10.2019
6538 Clouds 7 981 48 10000 4.1 40 14:59 05.10.2019
6539 Clouds 7 981 48 10000 4.1 40 14:41 05.10.2019
6540 Clouds 7 981 48 10000 4.1 40 14:20 05.10.2019
6541 Clouds 5 981 60 10000 1.5 80 13:43 05.10.2019
6542 Clouds 5 981 60 10000 1.5 80 13:23 05.10.2019
6543 Clouds 5 981 65 10000 4.1 320 12:57 05.10.2019
6544 Clouds 5 981 65 10000 4.1 320 12:39 05.10.2019
6545 Clouds 5 981 65 10000 4.1 320 12:39 05.10.2019
6546 Clouds 5 981 65 10000 4.1 320 12:39 05.10.2019
6547 Clouds 5 981 65 10000 4.1 320 12:18 05.10.2019
6548 Clouds 5 981 65 10000 4.1 320 12:18 05.10.2019
6549 Clouds 6 980 45 0 7.2 70 11:39 05.10.2019
6550 Clouds 6 980 45 0 7.2 70 11:19 05.10.2019
6551 Clouds 6 981 48 0 6.2 60 10:45 05.10.2019
6552 Clouds 6 981 48 0 6.2 60 10:26 05.10.2019
6553 Clouds 6 981 48 0 6.7 80 09:59 05.10.2019
6554 Clouds 6 981 48 0 6.7 80 09:39 05.10.2019
6555 Clouds 6 981 48 0 6.7 80 09:20 05.10.2019
6556 Clouds 6 981 52 0 7.2 70 08:40 05.10.2019
6557 Clouds 6 981 52 0 7.2 70 08:21 05.10.2019
6558 Clouds 6 981 52 0 7.2 70 08:21 05.10.2019
6559 Clouds 5 982 56 0 6.7 60 07:58 05.10.2019
6560 Clouds 5 982 56 0 6.7 60 07:37 05.10.2019
6561 Clouds 5 982 56 0 6.7 60 07:19 05.10.2019
6562 Clouds 5 983 60 0 6.2 50 06:28 05.10.2019
6563 Clouds 5 985 56 0 4.6 40 05:59 05.10.2019
6564 Clouds 6 986 52 0 5.7 60 04:42 05.10.2019
6565 Clouds 6 987 52 0 4.6 40 03:29 05.10.2019
6566 Clouds 6 988 52 0 4.6 60 01:59 05.10.2019
6567 Clouds 6 988 52 0 4.6 60 01:24 05.10.2019
6568 Clouds 5 989 52 0 4.6 50 00:46 05.10.2019
6569 Clouds 5 989 52 0 4.6 50 00:27 05.10.2019
6570 Clouds 6 989 48 0 4.6 50 23:45 04.10.2019
6571 Clouds 6 989 48 0 4.6 50 23:26 04.10.2019
6572 Clouds 6 990 52 10000 3.6 30 22:59 04.10.2019
6573 Clouds 6 990 52 10000 3.6 30 22:41 04.10.2019
6574 Clouds 6 990 52 10000 3.6 30 22:22 04.10.2019
6575 Clouds 8 991 39 10000 4.1 40 21:58 04.10.2019
6576 Clouds 8 991 39 10000 4.1 40 21:39 04.10.2019
6577 Clouds 8 991 39 10000 4.1 40 21:21 04.10.2019
6578 Clouds 7 992 48 10000 4.1 50 20:57 04.10.2019
6579 Clouds 7 992 48 10000 4.1 50 20:39 04.10.2019
6580 Clouds 7 992 48 10000 4.1 50 20:21 04.10.2019
6581 Clouds 8 992 42 10000 4.1 60 19:55 04.10.2019
6582 Clouds 8 992 42 10000 4.1 60 19:37 04.10.2019
6583 Clouds 8 992 42 10000 4.1 60 19:18 04.10.2019
6584 Clouds 7 993 52 10000 4.1 40 18:39 04.10.2019
6585 Clouds 7 993 52 10000 4.1 40 18:19 04.10.2019
6586 Clouds 6 993 42 10000 4.6 50 17:58 04.10.2019
6587 Clouds 6 993 42 10000 4.6 50 17:39 04.10.2019
6588 Clouds 6 993 42 10000 4.6 50 17:20 04.10.2019
6589 Clouds 5 993 65 10000 4.6 50 16:55 04.10.2019
6590 Clouds 5 993 65 10000 4.6 50 16:55 04.10.2019
6591 Clouds 5 993 65 10000 4.6 50 16:37 04.10.2019
6592 Clouds 5 993 65 10000 4.6 50 16:18 04.10.2019
6593 Clouds 5 993 65 10000 5.7 40 15:55 04.10.2019
6594 Clouds 5 993 65 10000 5.7 40 15:37 04.10.2019
6595 Clouds 5 993 65 10000 5.7 40 15:18 04.10.2019
6596 Clear 4 993 69 10000 6.7 60 14:42 04.10.2019
6597 Clear 4 993 69 10000 6.7 60 14:22 04.10.2019
6598 Clouds 4 993 69 10000 3.6 80 13:59 04.10.2019
6599 Clouds 4 993 69 10000 3.6 80 13:41 04.10.2019
6600 Clouds 4 993 69 10000 3.6 80 13:19 04.10.2019
6601 Clouds 4 993 69 10000 3.6 80 13:19 04.10.2019
6602 Clouds 4 993 64 10000 4.1 50 12:46 04.10.2019
6603 Clouds 4 993 64 10000 4.1 50 12:27 04.10.2019
6604 Clouds 5 993 56 10000 0.5 0 11:57 04.10.2019
6605 Clouds 5 993 56 10000 0.5 0 11:38 04.10.2019
6606 Clouds 5 993 56 10000 0.5 0 11:19 04.10.2019
6607 Clouds 4 992 64 10000 1.5 30 10:39 04.10.2019
6608 Clouds 4 992 64 10000 1.5 30 10:20 04.10.2019
6609 Clouds 4 992 64 0 1 80 09:45 04.10.2019
6610 Clouds 4 992 64 0 1 80 09:45 04.10.2019
6611 Clouds 4 992 64 0 1 80 09:27 04.10.2019
6612 Clouds 4 991 64 0 1.5 140 08:56 04.10.2019
6613 Clouds 4 991 64 0 1.5 140 08:37 04.10.2019
6614 Clouds 4 991 64 0 1.5 140 08:19 04.10.2019
6615 Clouds 5 991 65 0 2.6 210 07:43 04.10.2019
6616 Clouds 5 991 65 0 2.6 210 07:22 04.10.2019
6617 Clouds 5 990 60 0 1 100 06:42 04.10.2019
6618 Clouds 5 990 60 0 1 100 06:24 04.10.2019
6619 Clouds 5 990 60 0 1 100 06:24 04.10.2019
6620 Clouds 6 990 60 0 2.6 170 05:24 04.10.2019
6621 Clouds 6 990 60 0 1 100 04:56 04.10.2019
6622 Clouds 7 990 56 10000 2.1 210 03:47 04.10.2019
6623 Clouds 7 990 56 10000 2.1 210 03:47 04.10.2019
6624 Clouds 8 990 49 10000 2.6 100 02:53 04.10.2019
6625 Clouds 8 990 49 10000 2.6 100 02:53 04.10.2019
6626 Clouds 7 990 56 10000 0.5 0 01:55 04.10.2019
6627 Clouds 7 990 56 10000 0.5 0 01:55 04.10.2019
6628 Clouds 7 990 56 10000 0.5 0 01:29 04.10.2019
6629 Clouds 7 989 52 10000 2.6 160 00:57 04.10.2019
6630 Clouds 9 989 49 10000 3.6 180 23:55 03.10.2019
6631 Clouds 9 989 49 10000 3.6 180 23:37 03.10.2019
6632 Clouds 9 989 49 10000 3.6 180 23:18 03.10.2019
6633 Clouds 11 989 37 10000 4.6 190 22:55 03.10.2019
6634 Clouds 11 989 37 10000 4.6 190 22:37 03.10.2019
6635 Clouds 11 989 37 10000 4.6 190 22:18 03.10.2019
6636 Clouds 12 989 34 10000 4.1 200 21:55 03.10.2019
6637 Clouds 12 989 34 10000 4.1 200 21:36 03.10.2019
6638 Clouds 12 989 34 10000 4.1 200 21:18 03.10.2019
6639 Clouds 12 989 34 10000 4.1 200 21:18 03.10.2019
6640 Clouds 12 988 37 10000 5.1 180 20:55 03.10.2019
6641 Clouds 12 988 37 10000 5.1 180 20:37 03.10.2019
6642 Clouds 12 988 37 10000 5.1 180 20:37 03.10.2019
6643 Clouds 12 988 37 10000 5.1 180 20:19 03.10.2019
6644 Clouds 13 988 30 10000 8.2 170 19:41 03.10.2019
6645 Clouds 13 988 30 10000 8.2 170 19:22 03.10.2019
6646 Clouds 12 987 30 10000 1 0 18:58 03.10.2019
6647 Clouds 12 987 30 10000 1 0 18:39 03.10.2019
6648 Clouds 12 987 30 10000 1 0 18:39 03.10.2019
6649 Clouds 12 987 30 10000 1 0 18:19 03.10.2019
6650 Clouds 13 987 28 10000 2.73 114.376 17:56 03.10.2019
6651 Clouds 13 987 28 10000 2.73 114.376 17:37 03.10.2019
6652 Clouds 13 987 28 10000 2.73 114.376 17:19 03.10.2019
6653 Clouds 12 987 27 10000 4.1 130 16:44 03.10.2019
6654 Clouds 12 987 27 10000 4.1 130 16:26 03.10.2019
6655 Clouds 8 990 45 0 2.73 114.376 15:56 03.10.2019
6656 Clouds 8 990 45 0 2.73 114.376 15:38 03.10.2019
6657 Clouds 11 987 37 10000 6.7 60 15:20 03.10.2019
6658 Clouds 11 987 37 10000 6.7 60 14:46 03.10.2019
6659 Clouds 11 987 37 10000 6.7 60 14:27 03.10.2019
6660 Clouds 11 988 27 10000 5.1 60 13:59 03.10.2019
6661 Clouds 11 988 27 10000 5.1 60 13:41 03.10.2019
6662 Clouds 11 988 27 10000 5.1 60 13:19 03.10.2019
6663 Clouds 10 988 31 10000 8.2 80 12:56 03.10.2019
6664 Clouds 10 988 31 10000 8.2 80 12:38 03.10.2019
6665 Clouds 10 988 31 10000 8.2 80 12:19 03.10.2019
6666 Clouds 10 989 31 10000 5.7 90 11:41 03.10.2019
6667 Clouds 10 989 31 10000 5.7 90 11:41 03.10.2019
6668 Clouds 10 989 31 10000 5.7 90 11:23 03.10.2019
6669 Clouds 10 989 31 0 7.2 80 10:59 03.10.2019
6670 Clouds 10 989 31 0 7.2 80 10:40 03.10.2019
6671 Clouds 10 989 31 0 7.2 80 10:19 03.10.2019
6672 Clouds 10 990 31 0 7.2 80 09:58 03.10.2019
6673 Clouds 10 990 31 0 7.2 80 09:40 03.10.2019
6674 Clouds 10 990 31 0 7.2 80 09:21 03.10.2019
6675 Clouds 9 990 39 0 7.2 60 08:46 03.10.2019
6676 Clouds 9 990 39 0 7.2 60 08:27 03.10.2019
6677 Clouds 9 991 39 0 6.7 60 07:59 03.10.2019
6678 Clouds 9 991 39 0 6.7 60 07:59 03.10.2019
6679 Clouds 9 991 39 0 6.7 60 07:41 03.10.2019
6680 Clouds 9 991 39 0 6.7 60 07:19 03.10.2019
6681 Clouds 8 991 49 0 7.7 50 06:51 03.10.2019
6682 Clouds 8 991 49 0 7.7 50 06:25 03.10.2019
6683 Clouds 9 992 42 0 6.2 60 05:47 03.10.2019
6684 Clouds 9 992 42 0 6.2 60 05:20 03.10.2019
6685 Clouds 11 992 34 0 8.7 90 04:31 03.10.2019
6686 Clouds 10 993 37 0 6.7 70 03:24 03.10.2019
6687 Clouds 10 993 37 0 8.7 80 02:39 03.10.2019
6688 Clouds 11 992 34 0 4.6 50 01:59 03.10.2019
6689 Clouds 10 992 34 0 4.6 50 01:37 03.10.2019
6690 Clouds 10 992 37 10000 5.7 60 00:51 03.10.2019
6691 Clouds 10 992 37 10000 5.7 60 00:23 03.10.2019
6692 Clouds 10 993 43 10000 4.1 80 23:44 02.10.2019
6693 Clouds 10 993 43 10000 4.1 80 23:22 02.10.2019
6694 Clouds 9 993 42 10000 5.7 50 22:47 02.10.2019
6695 Clouds 9 993 42 10000 5.7 50 22:23 02.10.2019
6696 Clouds 11 993 34 10000 5.7 80 21:58 02.10.2019
6697 Clouds 12 993 34 10000 5.7 80 21:39 02.10.2019
6698 Clouds 12 993 34 10000 5.7 80 21:20 02.10.2019
6699 Clouds 12 993 32 10000 5.7 60 20:57 02.10.2019
6700 Clouds 12 993 32 10000 5.7 60 20:39 02.10.2019
6701 Clouds 12 993 32 10000 5.7 60 20:20 02.10.2019
6702 Clouds 12 993 30 10000 5.1 50 19:57 02.10.2019
6703 Clouds 12 993 30 10000 5.1 50 19:39 02.10.2019
6704 Clouds 12 993 30 10000 5.1 50 19:21 02.10.2019
6705 Clouds 10 994 52 10000 4.6 30 18:57 02.10.2019
6706 Clouds 8 994 52 10000 4.6 30 18:38 02.10.2019
6707 Clouds 8 994 52 10000 4.6 30 18:20 02.10.2019
6708 Clouds 8 995 49 10000 6.2 40 17:56 02.10.2019
6709 Clouds 8 995 49 10000 6.2 40 17:37 02.10.2019
6710 Clouds 8 995 49 10000 6.2 40 17:37 02.10.2019
6711 Clouds 8 995 49 10000 6.2 40 17:19 02.10.2019
6712 Clouds 8 995 49 10000 6.2 40 17:19 02.10.2019
6713 Clouds 6 996 56 10000 5.1 30 16:42 02.10.2019
6714 Clouds 6 996 56 10000 5.1 30 16:22 02.10.2019
6715 Clouds 6 996 56 10000 7.2 60 15:59 02.10.2019
6716 Clouds 6 996 56 10000 7.2 60 15:38 02.10.2019
6717 Clouds 6 996 56 10000 7.2 60 15:20 02.10.2019
6718 Clouds 4 997 69 10000 5.7 40 14:57 02.10.2019
6719 Clouds 4 997 69 10000 5.7 40 14:39 02.10.2019
6720 Clouds 4 997 69 10000 5.7 40 14:20 02.10.2019
6721 Clouds 3 998 74 10000 3.1 10 13:43 02.10.2019
6722 Clouds 3 998 74 10000 3.1 10 13:24 02.10.2019
6723 Clouds 3 998 74 10000 4.1 30 12:58 02.10.2019
6724 Clouds 3 998 74 10000 4.1 30 12:37 02.10.2019
6725 Clouds 3 998 74 10000 4.1 30 12:19 02.10.2019
6726 Clouds 3 998 74 0 5.7 60 11:44 02.10.2019
6727 Clouds 3 998 74 0 5.7 60 11:23 02.10.2019
6728 Clouds 3 999 74 0 4.6 40 10:42 02.10.2019
6729 Clouds 3 999 74 0 4.6 40 10:20 02.10.2019
6730 Clouds 3 999 74 0 5.1 40 09:59 02.10.2019
6731 Clouds 3 999 74 0 5.1 40 09:59 02.10.2019
6732 Clouds 3 999 74 0 5.1 40 09:37 02.10.2019
6733 Clouds 3 999 74 0 5.1 40 09:19 02.10.2019
6734 Clouds 3 999 74 0 6.2 40 08:44 02.10.2019
6735 Clouds 3 999 74 0 6.2 40 08:25 02.10.2019
6736 Clouds 3 999 74 0 6.2 40 08:25 02.10.2019
6737 Clouds 3 1000 60 0 4.6 50 07:59 02.10.2019
6738 Clouds 3 1000 60 0 4.6 50 07:38 02.10.2019
6739 Clouds 3 1000 60 0 4.6 50 07:20 02.10.2019
6740 Clouds 3 1001 69 0 5.7 50 06:36 02.10.2019
6741 Clouds 3 1001 74 0 6.2 40 05:55 02.10.2019
6742 Clouds 3 1001 74 0 6.2 40 05:55 02.10.2019
6743 Clouds 3 1001 74 0 6.2 40 05:24 02.10.2019
6744 Clouds 3 1002 74 0 5.1 40 04:53 02.10.2019
6745 Clouds 3 1003 74 0 3.1 30 03:52 02.10.2019
6746 Clouds 4 1004 69 10000 5.1 40 02:41 02.10.2019
6747 Clouds 4 1004 69 10000 5.1 40 02:23 02.10.2019
6748 Clouds 3 1005 62 10000 4.1 10 01:40 02.10.2019
6749 Clouds 4 1005 61 10000 3.6 30 00:50 02.10.2019
6750 Clouds 4 1005 61 10000 3.6 30 00:26 02.10.2019
6751 Clouds 6 1006 56 10000 3.6 40 23:43 01.10.2019
6752 Clouds 6 1006 56 10000 3.6 40 23:25 01.10.2019
6753 Clouds 8 1007 49 10000 3.6 40 22:59 01.10.2019
6754 Clouds 8 1007 49 10000 3.6 40 22:39 01.10.2019
6755 Clouds 8 1007 49 10000 3.6 40 22:19 01.10.2019
6756 Clouds 9 1007 45 10000 3.1 40 21:57 01.10.2019
6757 Clouds 9 1007 45 10000 3.1 40 21:38 01.10.2019
6758 Clouds 9 1007 45 10000 3.1 40 21:19 01.10.2019
6759 Clouds 9 1007 42 10000 3.1 40 20:55 01.10.2019
6760 Clouds 9 1007 42 10000 3.1 40 20:55 01.10.2019
6761 Clouds 9 1007 42 10000 3.1 40 20:37 01.10.2019
6762 Clouds 9 1007 42 10000 3.1 40 20:18 01.10.2019
6763 Clouds 8 1008 49 10000 3.6 40 19:55 01.10.2019
6764 Clouds 8 1008 49 10000 3.6 40 19:55 01.10.2019
6765 Clouds 8 1008 49 10000 3.6 40 19:37 01.10.2019
6766 Clouds 8 1008 49 10000 3.6 40 19:18 01.10.2019
6767 Clouds 9 1008 42 10000 1 0 18:40 01.10.2019
6768 Clouds 9 1008 42 10000 1 0 18:22 01.10.2019
6769 Clouds 7 1008 42 10000 6.2 30 17:58 01.10.2019
6770 Clouds 5 1008 42 10000 6.2 30 17:39 01.10.2019
6771 Clouds 5 1008 42 10000 6.2 30 17:19 01.10.2019
6772 Clouds 5 1009 42 10000 2.6 10 16:57 01.10.2019
6773 Clouds 5 1009 42 10000 2.6 10 16:39 01.10.2019
6774 Clouds 5 1009 42 10000 2.6 10 16:21 01.10.2019
6775 Clouds 5 1009 42 10000 4.1 30 15:46 01.10.2019
6776 Clouds 5 1009 53 10000 4.1 30 15:23 01.10.2019
6777 Clouds 4 1010 53 10000 3.6 40 14:55 01.10.2019
6778 Clouds 4 1010 53 10000 3.6 40 14:37 01.10.2019
6779 Clouds 4 1010 53 10000 3.6 40 14:18 01.10.2019
6780 Clouds 3 1009 53 10000 4.1 40 13:40 01.10.2019
6781 Clouds 3 1009 52 10000 4.1 40 13:21 01.10.2019
6782 Clouds 3 1010 52 10000 6.2 40 12:59 01.10.2019
6783 Clouds 3 1010 52 10000 6.2 40 12:41 01.10.2019
6784 Clouds 3 1010 59 10000 6.2 40 12:20 01.10.2019
6785 Clouds 3 1011 59 0 1.92 33.69 11:58 01.10.2019
6786 Clouds 3 1011 59 0 1.92 33.69 11:38 01.10.2019
6787 -273 0 0 0 0 0 11:19 01.10.201